<?xml version="1.0" encoding="UTF-8" standalone="no" ?>
<gpx xmlns="http://www.topografix.com/GPX/1/1" xmlns:xsi="http://www.w3.org/2001/XMLSchema-instance" xsi:schemaLocation="http://www.topografix.com/GPX/1/1 http://www.topografix.com/GPX/1/1/gpx.xsd" version="1.1" creator="VisuGPX - https://www.visugpx.com">
  <metadata>
    <name>2016-05-22 08h17 Rallye touristique gendarmerie</name>
    <desc><![CDATA[2016-05-22 08h17 Rallye touristique gendarmerie]]></desc>
  </metadata>
  <trk>
    <name><![CDATA[2016-05-22 08:17 002]]></name>
    <trkseg>
      <trkpt lat="43.53208" lon="3.92723">
        <ele>8.79</ele>
        <time>2016-05-22T06:17:26Z</time>
      </trkpt>
      <trkpt lat="43.53209" lon="3.92722">
        <ele>5.91</ele>
        <time>2016-05-22T06:18:28Z</time>
      </trkpt>
      <trkpt lat="43.53214" lon="3.92727">
        <ele>5.91</ele>
        <time>2016-05-22T06:18:45Z</time>
      </trkpt>
      <trkpt lat="43.53217" lon="3.92729">
        <ele>2.54</ele>
        <time>2016-05-22T06:19:21Z</time>
      </trkpt>
      <trkpt lat="43.5322" lon="3.92728">
        <ele>2.06</ele>
        <time>2016-05-22T06:19:34Z</time>
      </trkpt>
      <trkpt lat="43.53221" lon="3.92725">
        <ele>3.5</ele>
        <time>2016-05-22T06:19:56Z</time>
      </trkpt>
      <trkpt lat="43.53221" lon="3.92724">
        <ele>3.98</ele>
        <time>2016-05-22T06:20:08Z</time>
      </trkpt>
      <trkpt lat="43.53224" lon="3.92716">
        <ele>3.98</ele>
        <time>2016-05-22T06:20:27Z</time>
      </trkpt>
      <trkpt lat="43.53226" lon="3.92711">
        <ele>4.46</ele>
        <time>2016-05-22T06:20:29Z</time>
      </trkpt>
      <trkpt lat="43.53219" lon="3.92695">
        <ele>4.46</ele>
        <time>2016-05-22T06:20:34Z</time>
      </trkpt>
      <trkpt lat="43.5321" lon="3.92685">
        <ele>4.46</ele>
        <time>2016-05-22T06:20:37Z</time>
      </trkpt>
      <trkpt lat="43.53208" lon="3.92673">
        <ele>5.42</ele>
        <time>2016-05-22T06:20:50Z</time>
      </trkpt>
      <trkpt lat="43.53206" lon="3.92672">
        <ele>8.31</ele>
        <time>2016-05-22T06:22:09Z</time>
      </trkpt>
      <trkpt lat="43.5321" lon="3.92662">
        <ele>6.39</ele>
        <time>2016-05-22T06:24:54Z</time>
      </trkpt>
      <trkpt lat="43.53213" lon="3.92657">
        <ele>6.39</ele>
        <time>2016-05-22T06:24:55Z</time>
      </trkpt>
      <trkpt lat="43.53217" lon="3.92654">
        <ele>6.39</ele>
        <time>2016-05-22T06:24:56Z</time>
      </trkpt>
      <trkpt lat="43.5322" lon="3.92652">
        <ele>6.39</ele>
        <time>2016-05-22T06:24:57Z</time>
      </trkpt>
      <trkpt lat="43.53223" lon="3.9265">
        <ele>5.91</ele>
        <time>2016-05-22T06:24:58Z</time>
      </trkpt>
      <trkpt lat="43.53229" lon="3.9265">
        <ele>5.91</ele>
        <time>2016-05-22T06:24:59Z</time>
      </trkpt>
      <trkpt lat="43.53235" lon="3.92651">
        <ele>5.91</ele>
        <time>2016-05-22T06:25:00Z</time>
      </trkpt>
      <trkpt lat="43.53242" lon="3.92652">
        <ele>5.42</ele>
        <time>2016-05-22T06:25:01Z</time>
      </trkpt>
      <trkpt lat="43.53248" lon="3.92651">
        <ele>5.42</ele>
        <time>2016-05-22T06:25:02Z</time>
      </trkpt>
      <trkpt lat="43.53254" lon="3.92649">
        <ele>5.42</ele>
        <time>2016-05-22T06:25:03Z</time>
      </trkpt>
      <trkpt lat="43.53259" lon="3.92644">
        <ele>5.42</ele>
        <time>2016-05-22T06:25:04Z</time>
      </trkpt>
      <trkpt lat="43.53264" lon="3.92637">
        <ele>4.94</ele>
        <time>2016-05-22T06:25:05Z</time>
      </trkpt>
      <trkpt lat="43.53268" lon="3.92627">
        <ele>4.94</ele>
        <time>2016-05-22T06:25:06Z</time>
      </trkpt>
      <trkpt lat="43.53269" lon="3.92617">
        <ele>5.42</ele>
        <time>2016-05-22T06:25:07Z</time>
      </trkpt>
      <trkpt lat="43.53269" lon="3.92607">
        <ele>5.42</ele>
        <time>2016-05-22T06:25:08Z</time>
      </trkpt>
      <trkpt lat="43.53266" lon="3.92599">
        <ele>5.42</ele>
        <time>2016-05-22T06:25:09Z</time>
      </trkpt>
      <trkpt lat="43.53261" lon="3.92591">
        <ele>5.42</ele>
        <time>2016-05-22T06:25:10Z</time>
      </trkpt>
      <trkpt lat="43.53255" lon="3.92585">
        <ele>5.42</ele>
        <time>2016-05-22T06:25:11Z</time>
      </trkpt>
      <trkpt lat="43.53247" lon="3.9258">
        <ele>5.42</ele>
        <time>2016-05-22T06:25:12Z</time>
      </trkpt>
      <trkpt lat="43.53238" lon="3.92575">
        <ele>5.91</ele>
        <time>2016-05-22T06:25:13Z</time>
      </trkpt>
      <trkpt lat="43.5323" lon="3.92569">
        <ele>5.91</ele>
        <time>2016-05-22T06:25:14Z</time>
      </trkpt>
      <trkpt lat="43.53221" lon="3.92561">
        <ele>6.39</ele>
        <time>2016-05-22T06:25:15Z</time>
      </trkpt>
      <trkpt lat="43.53129" lon="3.92464">
        <ele>12.15</ele>
        <time>2016-05-22T06:25:26Z</time>
      </trkpt>
      <trkpt lat="43.53052" lon="3.92381">
        <ele>8.79</ele>
        <time>2016-05-22T06:25:36Z</time>
      </trkpt>
      <trkpt lat="43.53047" lon="3.92371">
        <ele>7.83</ele>
        <time>2016-05-22T06:25:37Z</time>
      </trkpt>
      <trkpt lat="43.53042" lon="3.92359">
        <ele>7.35</ele>
        <time>2016-05-22T06:25:38Z</time>
      </trkpt>
      <trkpt lat="43.53038" lon="3.92346">
        <ele>6.87</ele>
        <time>2016-05-22T06:25:39Z</time>
      </trkpt>
      <trkpt lat="43.53035" lon="3.92332">
        <ele>6.39</ele>
        <time>2016-05-22T06:25:40Z</time>
      </trkpt>
      <trkpt lat="43.53033" lon="3.92318">
        <ele>6.39</ele>
        <time>2016-05-22T06:25:41Z</time>
      </trkpt>
      <trkpt lat="43.53032" lon="3.92304">
        <ele>5.91</ele>
        <time>2016-05-22T06:25:42Z</time>
      </trkpt>
      <trkpt lat="43.53032" lon="3.92289">
        <ele>5.91</ele>
        <time>2016-05-22T06:25:43Z</time>
      </trkpt>
      <trkpt lat="43.53034" lon="3.92275">
        <ele>5.91</ele>
        <time>2016-05-22T06:25:44Z</time>
      </trkpt>
      <trkpt lat="43.53038" lon="3.92261">
        <ele>5.42</ele>
        <time>2016-05-22T06:25:45Z</time>
      </trkpt>
      <trkpt lat="43.53044" lon="3.92244">
        <ele>5.42</ele>
        <time>2016-05-22T06:25:46Z</time>
      </trkpt>
      <trkpt lat="43.5305" lon="3.9223">
        <ele>5.42</ele>
        <time>2016-05-22T06:25:47Z</time>
      </trkpt>
      <trkpt lat="43.53057" lon="3.92218">
        <ele>5.42</ele>
        <time>2016-05-22T06:25:48Z</time>
      </trkpt>
      <trkpt lat="43.53064" lon="3.92207">
        <ele>4.94</ele>
        <time>2016-05-22T06:25:49Z</time>
      </trkpt>
      <trkpt lat="43.5307" lon="3.92196">
        <ele>4.94</ele>
        <time>2016-05-22T06:25:50Z</time>
      </trkpt>
      <trkpt lat="43.53152" lon="3.92071">
        <ele>4.94</ele>
        <time>2016-05-22T06:26:01Z</time>
      </trkpt>
      <trkpt lat="43.53275" lon="3.91891">
        <ele>5.91</ele>
        <time>2016-05-22T06:26:15Z</time>
      </trkpt>
      <trkpt lat="43.53383" lon="3.91703">
        <ele>10.71</ele>
        <time>2016-05-22T06:26:27Z</time>
      </trkpt>
      <trkpt lat="43.53462" lon="3.91474">
        <ele>4.94</ele>
        <time>2016-05-22T06:26:38Z</time>
      </trkpt>
      <trkpt lat="43.53492" lon="3.91255">
        <ele>4.94</ele>
        <time>2016-05-22T06:26:47Z</time>
      </trkpt>
      <trkpt lat="43.5348" lon="3.91021">
        <ele>5.91</ele>
        <time>2016-05-22T06:26:56Z</time>
      </trkpt>
      <trkpt lat="43.53447" lon="3.90717">
        <ele>6.87</ele>
        <time>2016-05-22T06:27:08Z</time>
      </trkpt>
      <trkpt lat="43.53448" lon="3.90693">
        <ele>6.87</ele>
        <time>2016-05-22T06:27:09Z</time>
      </trkpt>
      <trkpt lat="43.5345" lon="3.90669">
        <ele>6.87</ele>
        <time>2016-05-22T06:27:10Z</time>
      </trkpt>
      <trkpt lat="43.53454" lon="3.90645">
        <ele>6.87</ele>
        <time>2016-05-22T06:27:11Z</time>
      </trkpt>
      <trkpt lat="43.5346" lon="3.90622">
        <ele>7.35</ele>
        <time>2016-05-22T06:27:12Z</time>
      </trkpt>
      <trkpt lat="43.53468" lon="3.90598">
        <ele>7.35</ele>
        <time>2016-05-22T06:27:13Z</time>
      </trkpt>
      <trkpt lat="43.53477" lon="3.90575">
        <ele>6.87</ele>
        <time>2016-05-22T06:27:14Z</time>
      </trkpt>
      <trkpt lat="43.53489" lon="3.90552">
        <ele>6.87</ele>
        <time>2016-05-22T06:27:15Z</time>
      </trkpt>
      <trkpt lat="43.53502" lon="3.9053">
        <ele>6.87</ele>
        <time>2016-05-22T06:27:16Z</time>
      </trkpt>
      <trkpt lat="43.53516" lon="3.90508">
        <ele>6.87</ele>
        <time>2016-05-22T06:27:17Z</time>
      </trkpt>
      <trkpt lat="43.53684" lon="3.90263">
        <ele>5.42</ele>
        <time>2016-05-22T06:27:28Z</time>
      </trkpt>
      <trkpt lat="43.53886" lon="3.89946">
        <ele>5.42</ele>
        <time>2016-05-22T06:27:43Z</time>
      </trkpt>
      <trkpt lat="43.53967" lon="3.89825">
        <ele>5.91</ele>
        <time>2016-05-22T06:27:51Z</time>
      </trkpt>
      <trkpt lat="43.53975" lon="3.89821">
        <ele>6.39</ele>
        <time>2016-05-22T06:27:56Z</time>
      </trkpt>
      <trkpt lat="43.53978" lon="3.8982">
        <ele>6.39</ele>
        <time>2016-05-22T06:27:57Z</time>
      </trkpt>
      <trkpt lat="43.53985" lon="3.8982">
        <ele>6.39</ele>
        <time>2016-05-22T06:27:58Z</time>
      </trkpt>
      <trkpt lat="43.54003" lon="3.89821">
        <ele>6.87</ele>
        <time>2016-05-22T06:28:00Z</time>
      </trkpt>
      <trkpt lat="43.54012" lon="3.89819">
        <ele>6.87</ele>
        <time>2016-05-22T06:28:01Z</time>
      </trkpt>
      <trkpt lat="43.5402" lon="3.89814">
        <ele>6.87</ele>
        <time>2016-05-22T06:28:02Z</time>
      </trkpt>
      <trkpt lat="43.54028" lon="3.89805">
        <ele>6.87</ele>
        <time>2016-05-22T06:28:03Z</time>
      </trkpt>
      <trkpt lat="43.54035" lon="3.89793">
        <ele>6.87</ele>
        <time>2016-05-22T06:28:04Z</time>
      </trkpt>
      <trkpt lat="43.54039" lon="3.8978">
        <ele>6.87</ele>
        <time>2016-05-22T06:28:05Z</time>
      </trkpt>
      <trkpt lat="43.5404" lon="3.89765">
        <ele>7.35</ele>
        <time>2016-05-22T06:28:06Z</time>
      </trkpt>
      <trkpt lat="43.54038" lon="3.8975">
        <ele>7.35</ele>
        <time>2016-05-22T06:28:07Z</time>
      </trkpt>
      <trkpt lat="43.54034" lon="3.89737">
        <ele>7.35</ele>
        <time>2016-05-22T06:28:08Z</time>
      </trkpt>
      <trkpt lat="43.54027" lon="3.89726">
        <ele>6.87</ele>
        <time>2016-05-22T06:28:09Z</time>
      </trkpt>
      <trkpt lat="43.54016" lon="3.89718">
        <ele>6.39</ele>
        <time>2016-05-22T06:28:10Z</time>
      </trkpt>
      <trkpt lat="43.54005" lon="3.89713">
        <ele>6.39</ele>
        <time>2016-05-22T06:28:11Z</time>
      </trkpt>
      <trkpt lat="43.53993" lon="3.8971">
        <ele>6.39</ele>
        <time>2016-05-22T06:28:12Z</time>
      </trkpt>
      <trkpt lat="43.53983" lon="3.89706">
        <ele>6.39</ele>
        <time>2016-05-22T06:28:13Z</time>
      </trkpt>
      <trkpt lat="43.53973" lon="3.89699">
        <ele>5.91</ele>
        <time>2016-05-22T06:28:14Z</time>
      </trkpt>
      <trkpt lat="43.53966" lon="3.89687">
        <ele>5.91</ele>
        <time>2016-05-22T06:28:15Z</time>
      </trkpt>
      <trkpt lat="43.53962" lon="3.89672">
        <ele>5.91</ele>
        <time>2016-05-22T06:28:16Z</time>
      </trkpt>
      <trkpt lat="43.5396" lon="3.89656">
        <ele>5.42</ele>
        <time>2016-05-22T06:28:17Z</time>
      </trkpt>
      <trkpt lat="43.53962" lon="3.8964">
        <ele>5.42</ele>
        <time>2016-05-22T06:28:18Z</time>
      </trkpt>
      <trkpt lat="43.53966" lon="3.89626">
        <ele>5.42</ele>
        <time>2016-05-22T06:28:19Z</time>
      </trkpt>
      <trkpt lat="43.5397" lon="3.89613">
        <ele>5.42</ele>
        <time>2016-05-22T06:28:20Z</time>
      </trkpt>
      <trkpt lat="43.53982" lon="3.89488">
        <ele>5.42</ele>
        <time>2016-05-22T06:28:28Z</time>
      </trkpt>
      <trkpt lat="43.5397" lon="3.89249">
        <ele>5.42</ele>
        <time>2016-05-22T06:28:38Z</time>
      </trkpt>
      <trkpt lat="43.53948" lon="3.88793">
        <ele>6.39</ele>
        <time>2016-05-22T06:28:54Z</time>
      </trkpt>
      <trkpt lat="43.5393" lon="3.88382">
        <ele>6.87</ele>
        <time>2016-05-22T06:29:09Z</time>
      </trkpt>
      <trkpt lat="43.53903" lon="3.87944">
        <ele>8.31</ele>
        <time>2016-05-22T06:29:25Z</time>
      </trkpt>
      <trkpt lat="43.53894" lon="3.87598">
        <ele>7.35</ele>
        <time>2016-05-22T06:29:38Z</time>
      </trkpt>
      <trkpt lat="43.5387" lon="3.87199">
        <ele>8.79</ele>
        <time>2016-05-22T06:29:54Z</time>
      </trkpt>
      <trkpt lat="43.53858" lon="3.87024">
        <ele>9.27</ele>
        <time>2016-05-22T06:30:04Z</time>
      </trkpt>
      <trkpt lat="43.53856" lon="3.86988">
        <ele>9.27</ele>
        <time>2016-05-22T06:30:07Z</time>
      </trkpt>
      <trkpt lat="43.53859" lon="3.86977">
        <ele>8.79</ele>
        <time>2016-05-22T06:30:08Z</time>
      </trkpt>
      <trkpt lat="43.53862" lon="3.86966">
        <ele>8.79</ele>
        <time>2016-05-22T06:30:09Z</time>
      </trkpt>
      <trkpt lat="43.53865" lon="3.86954">
        <ele>8.31</ele>
        <time>2016-05-22T06:30:10Z</time>
      </trkpt>
      <trkpt lat="43.53865" lon="3.86942">
        <ele>8.31</ele>
        <time>2016-05-22T06:30:11Z</time>
      </trkpt>
      <trkpt lat="43.53861" lon="3.86933">
        <ele>8.31</ele>
        <time>2016-05-22T06:30:12Z</time>
      </trkpt>
      <trkpt lat="43.53855" lon="3.86924">
        <ele>8.31</ele>
        <time>2016-05-22T06:30:13Z</time>
      </trkpt>
      <trkpt lat="43.5385" lon="3.86912">
        <ele>8.31</ele>
        <time>2016-05-22T06:30:14Z</time>
      </trkpt>
      <trkpt lat="43.53846" lon="3.86898">
        <ele>8.31</ele>
        <time>2016-05-22T06:30:15Z</time>
      </trkpt>
      <trkpt lat="43.53843" lon="3.86882">
        <ele>8.31</ele>
        <time>2016-05-22T06:30:16Z</time>
      </trkpt>
      <trkpt lat="43.53842" lon="3.86866">
        <ele>8.79</ele>
        <time>2016-05-22T06:30:17Z</time>
      </trkpt>
      <trkpt lat="43.5381" lon="3.86588">
        <ele>10.23</ele>
        <time>2016-05-22T06:30:33Z</time>
      </trkpt>
      <trkpt lat="43.53792" lon="3.86423">
        <ele>11.19</ele>
        <time>2016-05-22T06:30:43Z</time>
      </trkpt>
      <trkpt lat="43.53768" lon="3.86212">
        <ele>12.63</ele>
        <time>2016-05-22T06:30:54Z</time>
      </trkpt>
      <trkpt lat="43.53763" lon="3.86007">
        <ele>13.6</ele>
        <time>2016-05-22T06:31:04Z</time>
      </trkpt>
      <trkpt lat="43.53801" lon="3.85802">
        <ele>16</ele>
        <time>2016-05-22T06:31:13Z</time>
      </trkpt>
      <trkpt lat="43.53838" lon="3.85654">
        <ele>17.92</ele>
        <time>2016-05-22T06:31:21Z</time>
      </trkpt>
      <trkpt lat="43.53846" lon="3.85646">
        <ele>18.4</ele>
        <time>2016-05-22T06:31:22Z</time>
      </trkpt>
      <trkpt lat="43.5386" lon="3.85627">
        <ele>18.4</ele>
        <time>2016-05-22T06:31:24Z</time>
      </trkpt>
      <trkpt lat="43.53864" lon="3.85615">
        <ele>18.88</ele>
        <time>2016-05-22T06:31:25Z</time>
      </trkpt>
      <trkpt lat="43.53863" lon="3.85603">
        <ele>18.88</ele>
        <time>2016-05-22T06:31:26Z</time>
      </trkpt>
      <trkpt lat="43.53858" lon="3.85593">
        <ele>18.88</ele>
        <time>2016-05-22T06:31:27Z</time>
      </trkpt>
      <trkpt lat="43.53849" lon="3.85587">
        <ele>18.88</ele>
        <time>2016-05-22T06:31:28Z</time>
      </trkpt>
      <trkpt lat="43.5384" lon="3.85584">
        <ele>18.88</ele>
        <time>2016-05-22T06:31:29Z</time>
      </trkpt>
      <trkpt lat="43.53831" lon="3.85582">
        <ele>17.92</ele>
        <time>2016-05-22T06:31:30Z</time>
      </trkpt>
      <trkpt lat="43.53822" lon="3.85578">
        <ele>17.44</ele>
        <time>2016-05-22T06:31:31Z</time>
      </trkpt>
      <trkpt lat="43.53815" lon="3.8557">
        <ele>17.44</ele>
        <time>2016-05-22T06:31:32Z</time>
      </trkpt>
      <trkpt lat="43.53807" lon="3.8556">
        <ele>17.44</ele>
        <time>2016-05-22T06:31:33Z</time>
      </trkpt>
      <trkpt lat="43.53798" lon="3.8555">
        <ele>17.92</ele>
        <time>2016-05-22T06:31:34Z</time>
      </trkpt>
      <trkpt lat="43.53787" lon="3.85542">
        <ele>17.92</ele>
        <time>2016-05-22T06:31:35Z</time>
      </trkpt>
      <trkpt lat="43.53775" lon="3.85536">
        <ele>17.92</ele>
        <time>2016-05-22T06:31:36Z</time>
      </trkpt>
      <trkpt lat="43.53761" lon="3.85533">
        <ele>18.4</ele>
        <time>2016-05-22T06:31:37Z</time>
      </trkpt>
      <trkpt lat="43.53747" lon="3.85531">
        <ele>18.4</ele>
        <time>2016-05-22T06:31:38Z</time>
      </trkpt>
      <trkpt lat="43.53719" lon="3.85525">
        <ele>18.4</ele>
        <time>2016-05-22T06:31:40Z</time>
      </trkpt>
      <trkpt lat="43.53705" lon="3.85519">
        <ele>18.4</ele>
        <time>2016-05-22T06:31:41Z</time>
      </trkpt>
      <trkpt lat="43.53691" lon="3.85511">
        <ele>18.4</ele>
        <time>2016-05-22T06:31:42Z</time>
      </trkpt>
      <trkpt lat="43.53678" lon="3.855">
        <ele>18.4</ele>
        <time>2016-05-22T06:31:43Z</time>
      </trkpt>
      <trkpt lat="43.53665" lon="3.85486">
        <ele>18.4</ele>
        <time>2016-05-22T06:31:44Z</time>
      </trkpt>
      <trkpt lat="43.53652" lon="3.85472">
        <ele>18.4</ele>
        <time>2016-05-22T06:31:45Z</time>
      </trkpt>
      <trkpt lat="43.53464" lon="3.85251">
        <ele>17.44</ele>
        <time>2016-05-22T06:31:59Z</time>
      </trkpt>
      <trkpt lat="43.53414" lon="3.85195">
        <ele>16.96</ele>
        <time>2016-05-22T06:32:03Z</time>
      </trkpt>
      <trkpt lat="43.53402" lon="3.85187">
        <ele>16.48</ele>
        <time>2016-05-22T06:32:04Z</time>
      </trkpt>
      <trkpt lat="43.53388" lon="3.85182">
        <ele>16.48</ele>
        <time>2016-05-22T06:32:05Z</time>
      </trkpt>
      <trkpt lat="43.53374" lon="3.85181">
        <ele>16.48</ele>
        <time>2016-05-22T06:32:06Z</time>
      </trkpt>
      <trkpt lat="43.53359" lon="3.85183">
        <ele>16.48</ele>
        <time>2016-05-22T06:32:07Z</time>
      </trkpt>
      <trkpt lat="43.53344" lon="3.85191">
        <ele>16</ele>
        <time>2016-05-22T06:32:08Z</time>
      </trkpt>
      <trkpt lat="43.53332" lon="3.85202">
        <ele>16</ele>
        <time>2016-05-22T06:32:09Z</time>
      </trkpt>
      <trkpt lat="43.53321" lon="3.85214">
        <ele>16</ele>
        <time>2016-05-22T06:32:10Z</time>
      </trkpt>
      <trkpt lat="43.53312" lon="3.85225">
        <ele>16.48</ele>
        <time>2016-05-22T06:32:11Z</time>
      </trkpt>
      <trkpt lat="43.53304" lon="3.85235">
        <ele>16.48</ele>
        <time>2016-05-22T06:32:12Z</time>
      </trkpt>
      <trkpt lat="43.53281" lon="3.85257">
        <ele>17.92</ele>
        <time>2016-05-22T06:32:17Z</time>
      </trkpt>
      <trkpt lat="43.53277" lon="3.85258">
        <ele>17.92</ele>
        <time>2016-05-22T06:32:18Z</time>
      </trkpt>
      <trkpt lat="43.53272" lon="3.85256">
        <ele>17.92</ele>
        <time>2016-05-22T06:32:19Z</time>
      </trkpt>
      <trkpt lat="43.53266" lon="3.85252">
        <ele>17.92</ele>
        <time>2016-05-22T06:32:20Z</time>
      </trkpt>
      <trkpt lat="43.5326" lon="3.85245">
        <ele>17.92</ele>
        <time>2016-05-22T06:32:21Z</time>
      </trkpt>
      <trkpt lat="43.53255" lon="3.85236">
        <ele>17.92</ele>
        <time>2016-05-22T06:32:22Z</time>
      </trkpt>
      <trkpt lat="43.53249" lon="3.85227">
        <ele>17.92</ele>
        <time>2016-05-22T06:32:23Z</time>
      </trkpt>
      <trkpt lat="43.5318" lon="3.85126">
        <ele>16.48</ele>
        <time>2016-05-22T06:32:31Z</time>
      </trkpt>
      <trkpt lat="43.53078" lon="3.84979">
        <ele>15.52</ele>
        <time>2016-05-22T06:32:40Z</time>
      </trkpt>
      <trkpt lat="43.53046" lon="3.84921">
        <ele>16</ele>
        <time>2016-05-22T06:32:44Z</time>
      </trkpt>
      <trkpt lat="43.53038" lon="3.84916">
        <ele>16</ele>
        <time>2016-05-22T06:32:45Z</time>
      </trkpt>
      <trkpt lat="43.5303" lon="3.84914">
        <ele>16</ele>
        <time>2016-05-22T06:32:46Z</time>
      </trkpt>
      <trkpt lat="43.53024" lon="3.84913">
        <ele>15.52</ele>
        <time>2016-05-22T06:32:47Z</time>
      </trkpt>
      <trkpt lat="43.53019" lon="3.84911">
        <ele>15.52</ele>
        <time>2016-05-22T06:32:48Z</time>
      </trkpt>
      <trkpt lat="43.53015" lon="3.84907">
        <ele>15.52</ele>
        <time>2016-05-22T06:32:49Z</time>
      </trkpt>
      <trkpt lat="43.53011" lon="3.849">
        <ele>16</ele>
        <time>2016-05-22T06:32:50Z</time>
      </trkpt>
      <trkpt lat="43.53008" lon="3.8489">
        <ele>16</ele>
        <time>2016-05-22T06:32:51Z</time>
      </trkpt>
      <trkpt lat="43.53005" lon="3.84877">
        <ele>16</ele>
        <time>2016-05-22T06:32:52Z</time>
      </trkpt>
      <trkpt lat="43.52997" lon="3.84848">
        <ele>16</ele>
        <time>2016-05-22T06:32:54Z</time>
      </trkpt>
      <trkpt lat="43.52991" lon="3.84835">
        <ele>15.52</ele>
        <time>2016-05-22T06:32:55Z</time>
      </trkpt>
      <trkpt lat="43.52982" lon="3.84821">
        <ele>15.52</ele>
        <time>2016-05-22T06:32:56Z</time>
      </trkpt>
      <trkpt lat="43.52974" lon="3.84808">
        <ele>15.52</ele>
        <time>2016-05-22T06:32:57Z</time>
      </trkpt>
      <trkpt lat="43.52966" lon="3.84794">
        <ele>15.52</ele>
        <time>2016-05-22T06:32:58Z</time>
      </trkpt>
      <trkpt lat="43.52958" lon="3.84778">
        <ele>15.04</ele>
        <time>2016-05-22T06:32:59Z</time>
      </trkpt>
      <trkpt lat="43.52926" lon="3.8466">
        <ele>15.04</ele>
        <time>2016-05-22T06:33:06Z</time>
      </trkpt>
      <trkpt lat="43.52923" lon="3.84604">
        <ele>14.56</ele>
        <time>2016-05-22T06:33:10Z</time>
      </trkpt>
      <trkpt lat="43.52918" lon="3.84591">
        <ele>14.56</ele>
        <time>2016-05-22T06:33:11Z</time>
      </trkpt>
      <trkpt lat="43.52863" lon="3.84461">
        <ele>13.6</ele>
        <time>2016-05-22T06:33:19Z</time>
      </trkpt>
      <trkpt lat="43.52757" lon="3.84255">
        <ele>12.15</ele>
        <time>2016-05-22T06:33:30Z</time>
      </trkpt>
      <trkpt lat="43.52605" lon="3.84032">
        <ele>8.79</ele>
        <time>2016-05-22T06:33:42Z</time>
      </trkpt>
      <trkpt lat="43.5247" lon="3.83811">
        <ele>7.83</ele>
        <time>2016-05-22T06:33:53Z</time>
      </trkpt>
      <trkpt lat="43.52393" lon="3.836">
        <ele>8.31</ele>
        <time>2016-05-22T06:34:01Z</time>
      </trkpt>
      <trkpt lat="43.52234" lon="3.83131">
        <ele>8.31</ele>
        <time>2016-05-22T06:34:18Z</time>
      </trkpt>
      <trkpt lat="43.52137" lon="3.82794">
        <ele>8.31</ele>
        <time>2016-05-22T06:34:29Z</time>
      </trkpt>
      <trkpt lat="43.52113" lon="3.82733">
        <ele>8.31</ele>
        <time>2016-05-22T06:34:31Z</time>
      </trkpt>
      <trkpt lat="43.52098" lon="3.82705">
        <ele>8.31</ele>
        <time>2016-05-22T06:34:32Z</time>
      </trkpt>
      <trkpt lat="43.5208" lon="3.82678">
        <ele>8.31</ele>
        <time>2016-05-22T06:34:33Z</time>
      </trkpt>
      <trkpt lat="43.51873" lon="3.82408">
        <ele>8.79</ele>
        <time>2016-05-22T06:34:44Z</time>
      </trkpt>
      <trkpt lat="43.51624" lon="3.82067">
        <ele>9.27</ele>
        <time>2016-05-22T06:34:58Z</time>
      </trkpt>
      <trkpt lat="43.51368" lon="3.81725">
        <ele>7.83</ele>
        <time>2016-05-22T06:35:12Z</time>
      </trkpt>
      <trkpt lat="43.51042" lon="3.81285">
        <ele>7.35</ele>
        <time>2016-05-22T06:35:30Z</time>
      </trkpt>
      <trkpt lat="43.50932" lon="3.81154">
        <ele>6.87</ele>
        <time>2016-05-22T06:35:37Z</time>
      </trkpt>
      <trkpt lat="43.50905" lon="3.81125">
        <ele>6.39</ele>
        <time>2016-05-22T06:35:39Z</time>
      </trkpt>
      <trkpt lat="43.50894" lon="3.81109">
        <ele>6.39</ele>
        <time>2016-05-22T06:35:40Z</time>
      </trkpt>
      <trkpt lat="43.50884" lon="3.81092">
        <ele>6.87</ele>
        <time>2016-05-22T06:35:41Z</time>
      </trkpt>
      <trkpt lat="43.50873" lon="3.81075">
        <ele>7.35</ele>
        <time>2016-05-22T06:35:42Z</time>
      </trkpt>
      <trkpt lat="43.50862" lon="3.8106">
        <ele>8.31</ele>
        <time>2016-05-22T06:35:43Z</time>
      </trkpt>
      <trkpt lat="43.50849" lon="3.81046">
        <ele>8.79</ele>
        <time>2016-05-22T06:35:44Z</time>
      </trkpt>
      <trkpt lat="43.50747" lon="3.80909">
        <ele>10.71</ele>
        <time>2016-05-22T06:35:53Z</time>
      </trkpt>
      <trkpt lat="43.5066" lon="3.80781">
        <ele>7.83</ele>
        <time>2016-05-22T06:36:00Z</time>
      </trkpt>
      <trkpt lat="43.5055" lon="3.80616">
        <ele>8.31</ele>
        <time>2016-05-22T06:36:07Z</time>
      </trkpt>
      <trkpt lat="43.5024" lon="3.80198">
        <ele>8.31</ele>
        <time>2016-05-22T06:36:24Z</time>
      </trkpt>
      <trkpt lat="43.49929" lon="3.79793">
        <ele>8.31</ele>
        <time>2016-05-22T06:36:41Z</time>
      </trkpt>
      <trkpt lat="43.49765" lon="3.79594">
        <ele>9.27</ele>
        <time>2016-05-22T06:36:50Z</time>
      </trkpt>
      <trkpt lat="43.49746" lon="3.79579">
        <ele>9.27</ele>
        <time>2016-05-22T06:36:51Z</time>
      </trkpt>
      <trkpt lat="43.49725" lon="3.79571">
        <ele>9.27</ele>
        <time>2016-05-22T06:36:52Z</time>
      </trkpt>
      <trkpt lat="43.49703" lon="3.79567">
        <ele>9.27</ele>
        <time>2016-05-22T06:36:53Z</time>
      </trkpt>
      <trkpt lat="43.49681" lon="3.79565">
        <ele>8.79</ele>
        <time>2016-05-22T06:36:54Z</time>
      </trkpt>
      <trkpt lat="43.49659" lon="3.79563">
        <ele>8.79</ele>
        <time>2016-05-22T06:36:55Z</time>
      </trkpt>
      <trkpt lat="43.49532" lon="3.79549">
        <ele>8.31</ele>
        <time>2016-05-22T06:37:02Z</time>
      </trkpt>
      <trkpt lat="43.49504" lon="3.79543">
        <ele>8.31</ele>
        <time>2016-05-22T06:37:05Z</time>
      </trkpt>
      <trkpt lat="43.495" lon="3.7954">
        <ele>8.31</ele>
        <time>2016-05-22T06:37:06Z</time>
      </trkpt>
      <trkpt lat="43.49497" lon="3.79537">
        <ele>8.31</ele>
        <time>2016-05-22T06:37:07Z</time>
      </trkpt>
      <trkpt lat="43.49496" lon="3.79535">
        <ele>8.31</ele>
        <time>2016-05-22T06:37:08Z</time>
      </trkpt>
      <trkpt lat="43.49495" lon="3.79533">
        <ele>8.31</ele>
        <time>2016-05-22T06:37:09Z</time>
      </trkpt>
      <trkpt lat="43.49499" lon="3.79534">
        <ele>8.31</ele>
        <time>2016-05-22T06:37:29Z</time>
      </trkpt>
      <trkpt lat="43.49499" lon="3.79532">
        <ele>8.79</ele>
        <time>2016-05-22T06:37:31Z</time>
      </trkpt>
      <trkpt lat="43.49498" lon="3.79527">
        <ele>8.79</ele>
        <time>2016-05-22T06:37:32Z</time>
      </trkpt>
      <trkpt lat="43.49499" lon="3.7952">
        <ele>9.27</ele>
        <time>2016-05-22T06:37:33Z</time>
      </trkpt>
      <trkpt lat="43.49501" lon="3.79512">
        <ele>9.75</ele>
        <time>2016-05-22T06:37:34Z</time>
      </trkpt>
      <trkpt lat="43.49505" lon="3.79502">
        <ele>10.23</ele>
        <time>2016-05-22T06:37:35Z</time>
      </trkpt>
      <trkpt lat="43.49509" lon="3.79491">
        <ele>11.19</ele>
        <time>2016-05-22T06:37:36Z</time>
      </trkpt>
      <trkpt lat="43.49573" lon="3.79365">
        <ele>14.56</ele>
        <time>2016-05-22T06:37:45Z</time>
      </trkpt>
      <trkpt lat="43.49669" lon="3.79158">
        <ele>8.31</ele>
        <time>2016-05-22T06:37:55Z</time>
      </trkpt>
      <trkpt lat="43.49773" lon="3.78957">
        <ele>7.83</ele>
        <time>2016-05-22T06:38:03Z</time>
      </trkpt>
      <trkpt lat="43.49906" lon="3.78815">
        <ele>6.87</ele>
        <time>2016-05-22T06:38:11Z</time>
      </trkpt>
      <trkpt lat="43.50045" lon="3.78679">
        <ele>7.83</ele>
        <time>2016-05-22T06:38:21Z</time>
      </trkpt>
      <trkpt lat="43.50072" lon="3.78653">
        <ele>8.79</ele>
        <time>2016-05-22T06:38:24Z</time>
      </trkpt>
      <trkpt lat="43.50079" lon="3.78649">
        <ele>9.27</ele>
        <time>2016-05-22T06:38:25Z</time>
      </trkpt>
      <trkpt lat="43.50086" lon="3.78647">
        <ele>9.75</ele>
        <time>2016-05-22T06:38:26Z</time>
      </trkpt>
      <trkpt lat="43.50093" lon="3.78646">
        <ele>10.23</ele>
        <time>2016-05-22T06:38:27Z</time>
      </trkpt>
      <trkpt lat="43.501" lon="3.78643">
        <ele>10.23</ele>
        <time>2016-05-22T06:38:28Z</time>
      </trkpt>
      <trkpt lat="43.50106" lon="3.78638">
        <ele>10.23</ele>
        <time>2016-05-22T06:38:29Z</time>
      </trkpt>
      <trkpt lat="43.5011" lon="3.78629">
        <ele>10.23</ele>
        <time>2016-05-22T06:38:30Z</time>
      </trkpt>
      <trkpt lat="43.50115" lon="3.78618">
        <ele>10.71</ele>
        <time>2016-05-22T06:38:31Z</time>
      </trkpt>
      <trkpt lat="43.5012" lon="3.78607">
        <ele>10.71</ele>
        <time>2016-05-22T06:38:32Z</time>
      </trkpt>
      <trkpt lat="43.50127" lon="3.78597">
        <ele>11.19</ele>
        <time>2016-05-22T06:38:33Z</time>
      </trkpt>
      <trkpt lat="43.50135" lon="3.78588">
        <ele>11.19</ele>
        <time>2016-05-22T06:38:34Z</time>
      </trkpt>
      <trkpt lat="43.50239" lon="3.7849">
        <ele>14.56</ele>
        <time>2016-05-22T06:38:44Z</time>
      </trkpt>
      <trkpt lat="43.50253" lon="3.78471">
        <ele>15.04</ele>
        <time>2016-05-22T06:38:45Z</time>
      </trkpt>
      <trkpt lat="43.50264" lon="3.78447">
        <ele>15.52</ele>
        <time>2016-05-22T06:38:46Z</time>
      </trkpt>
      <trkpt lat="43.50273" lon="3.78423">
        <ele>15.52</ele>
        <time>2016-05-22T06:38:47Z</time>
      </trkpt>
      <trkpt lat="43.50281" lon="3.78397">
        <ele>16.48</ele>
        <time>2016-05-22T06:38:48Z</time>
      </trkpt>
      <trkpt lat="43.50286" lon="3.7837">
        <ele>17.92</ele>
        <time>2016-05-22T06:38:49Z</time>
      </trkpt>
      <trkpt lat="43.5029" lon="3.78343">
        <ele>18.4</ele>
        <time>2016-05-22T06:38:50Z</time>
      </trkpt>
      <trkpt lat="43.50291" lon="3.78315">
        <ele>19.36</ele>
        <time>2016-05-22T06:38:51Z</time>
      </trkpt>
      <trkpt lat="43.50291" lon="3.78287">
        <ele>20.32</ele>
        <time>2016-05-22T06:38:52Z</time>
      </trkpt>
      <trkpt lat="43.50294" lon="3.78259">
        <ele>21.29</ele>
        <time>2016-05-22T06:38:53Z</time>
      </trkpt>
      <trkpt lat="43.50302" lon="3.78234">
        <ele>21.77</ele>
        <time>2016-05-22T06:38:54Z</time>
      </trkpt>
      <trkpt lat="43.50313" lon="3.78212">
        <ele>22.73</ele>
        <time>2016-05-22T06:38:55Z</time>
      </trkpt>
      <trkpt lat="43.50326" lon="3.78196">
        <ele>23.21</ele>
        <time>2016-05-22T06:38:56Z</time>
      </trkpt>
      <trkpt lat="43.50341" lon="3.78185">
        <ele>24.17</ele>
        <time>2016-05-22T06:38:57Z</time>
      </trkpt>
      <trkpt lat="43.50357" lon="3.78177">
        <ele>26.09</ele>
        <time>2016-05-22T06:38:58Z</time>
      </trkpt>
      <trkpt lat="43.50376" lon="3.78175">
        <ele>26.57</ele>
        <time>2016-05-22T06:38:59Z</time>
      </trkpt>
      <trkpt lat="43.50395" lon="3.78172">
        <ele>27.05</ele>
        <time>2016-05-22T06:39:00Z</time>
      </trkpt>
      <trkpt lat="43.50413" lon="3.78165">
        <ele>28.02</ele>
        <time>2016-05-22T06:39:01Z</time>
      </trkpt>
      <trkpt lat="43.5043" lon="3.78156">
        <ele>28.98</ele>
        <time>2016-05-22T06:39:02Z</time>
      </trkpt>
      <trkpt lat="43.50447" lon="3.78144">
        <ele>29.94</ele>
        <time>2016-05-22T06:39:03Z</time>
      </trkpt>
      <trkpt lat="43.50541" lon="3.78058">
        <ele>33.78</ele>
        <time>2016-05-22T06:39:09Z</time>
      </trkpt>
      <trkpt lat="43.50556" lon="3.78034">
        <ele>34.74</ele>
        <time>2016-05-22T06:39:10Z</time>
      </trkpt>
      <trkpt lat="43.50646" lon="3.77882">
        <ele>39.55</ele>
        <time>2016-05-22T06:39:16Z</time>
      </trkpt>
      <trkpt lat="43.50831" lon="3.77604">
        <ele>47.24</ele>
        <time>2016-05-22T06:39:28Z</time>
      </trkpt>
      <trkpt lat="43.51012" lon="3.77405">
        <ele>50.61</ele>
        <time>2016-05-22T06:39:37Z</time>
      </trkpt>
      <trkpt lat="43.5109" lon="3.7733">
        <ele>53.49</ele>
        <time>2016-05-22T06:39:41Z</time>
      </trkpt>
      <trkpt lat="43.51111" lon="3.77324">
        <ele>54.45</ele>
        <time>2016-05-22T06:39:42Z</time>
      </trkpt>
      <trkpt lat="43.51134" lon="3.77324">
        <ele>55.41</ele>
        <time>2016-05-22T06:39:43Z</time>
      </trkpt>
      <trkpt lat="43.51157" lon="3.77325">
        <ele>56.37</ele>
        <time>2016-05-22T06:39:44Z</time>
      </trkpt>
      <trkpt lat="43.51181" lon="3.77329">
        <ele>57.34</ele>
        <time>2016-05-22T06:39:45Z</time>
      </trkpt>
      <trkpt lat="43.51205" lon="3.77331">
        <ele>58.78</ele>
        <time>2016-05-22T06:39:46Z</time>
      </trkpt>
      <trkpt lat="43.51272" lon="3.77334">
        <ele>63.1</ele>
        <time>2016-05-22T06:39:49Z</time>
      </trkpt>
      <trkpt lat="43.51295" lon="3.77328">
        <ele>64.07</ele>
        <time>2016-05-22T06:39:50Z</time>
      </trkpt>
      <trkpt lat="43.51319" lon="3.77319">
        <ele>65.51</ele>
        <time>2016-05-22T06:39:51Z</time>
      </trkpt>
      <trkpt lat="43.51342" lon="3.77308">
        <ele>66.95</ele>
        <time>2016-05-22T06:39:52Z</time>
      </trkpt>
      <trkpt lat="43.51364" lon="3.77294">
        <ele>68.39</ele>
        <time>2016-05-22T06:39:53Z</time>
      </trkpt>
      <trkpt lat="43.51384" lon="3.77273">
        <ele>69.35</ele>
        <time>2016-05-22T06:39:54Z</time>
      </trkpt>
      <trkpt lat="43.51405" lon="3.77252">
        <ele>70.79</ele>
        <time>2016-05-22T06:39:55Z</time>
      </trkpt>
      <trkpt lat="43.51426" lon="3.77231">
        <ele>72.24</ele>
        <time>2016-05-22T06:39:56Z</time>
      </trkpt>
      <trkpt lat="43.51506" lon="3.77135">
        <ele>78</ele>
        <time>2016-05-22T06:40:00Z</time>
      </trkpt>
      <trkpt lat="43.51525" lon="3.77103">
        <ele>79.45</ele>
        <time>2016-05-22T06:40:01Z</time>
      </trkpt>
      <trkpt lat="43.51616" lon="3.76908">
        <ele>86.18</ele>
        <time>2016-05-22T06:40:07Z</time>
      </trkpt>
      <trkpt lat="43.51636" lon="3.76842">
        <ele>87.14</ele>
        <time>2016-05-22T06:40:09Z</time>
      </trkpt>
      <trkpt lat="43.51642" lon="3.76808">
        <ele>87.14</ele>
        <time>2016-05-22T06:40:10Z</time>
      </trkpt>
      <trkpt lat="43.51644" lon="3.76775">
        <ele>86.66</ele>
        <time>2016-05-22T06:40:11Z</time>
      </trkpt>
      <trkpt lat="43.51644" lon="3.76743">
        <ele>85.69</ele>
        <time>2016-05-22T06:40:12Z</time>
      </trkpt>
      <trkpt lat="43.51645" lon="3.76712">
        <ele>84.73</ele>
        <time>2016-05-22T06:40:13Z</time>
      </trkpt>
      <trkpt lat="43.51653" lon="3.76683">
        <ele>84.25</ele>
        <time>2016-05-22T06:40:14Z</time>
      </trkpt>
      <trkpt lat="43.51666" lon="3.76654">
        <ele>82.81</ele>
        <time>2016-05-22T06:40:15Z</time>
      </trkpt>
      <trkpt lat="43.51684" lon="3.76624">
        <ele>81.37</ele>
        <time>2016-05-22T06:40:16Z</time>
      </trkpt>
      <trkpt lat="43.51702" lon="3.76593">
        <ele>79.93</ele>
        <time>2016-05-22T06:40:17Z</time>
      </trkpt>
      <trkpt lat="43.51771" lon="3.76495">
        <ele>76.56</ele>
        <time>2016-05-22T06:40:21Z</time>
      </trkpt>
      <trkpt lat="43.51786" lon="3.76486">
        <ele>76.08</ele>
        <time>2016-05-22T06:40:22Z</time>
      </trkpt>
      <trkpt lat="43.51803" lon="3.76483">
        <ele>75.12</ele>
        <time>2016-05-22T06:40:23Z</time>
      </trkpt>
      <trkpt lat="43.51821" lon="3.76482">
        <ele>74.64</ele>
        <time>2016-05-22T06:40:24Z</time>
      </trkpt>
      <trkpt lat="43.51841" lon="3.76483">
        <ele>74.16</ele>
        <time>2016-05-22T06:40:25Z</time>
      </trkpt>
      <trkpt lat="43.51865" lon="3.76486">
        <ele>73.68</ele>
        <time>2016-05-22T06:40:26Z</time>
      </trkpt>
      <trkpt lat="43.51889" lon="3.7649">
        <ele>73.2</ele>
        <time>2016-05-22T06:40:27Z</time>
      </trkpt>
      <trkpt lat="43.52005" lon="3.76496">
        <ele>68.87</ele>
        <time>2016-05-22T06:40:32Z</time>
      </trkpt>
      <trkpt lat="43.52029" lon="3.76487">
        <ele>68.39</ele>
        <time>2016-05-22T06:40:33Z</time>
      </trkpt>
      <trkpt lat="43.5205" lon="3.76471">
        <ele>67.43</ele>
        <time>2016-05-22T06:40:34Z</time>
      </trkpt>
      <trkpt lat="43.5207" lon="3.76448">
        <ele>65.99</ele>
        <time>2016-05-22T06:40:35Z</time>
      </trkpt>
      <trkpt lat="43.52089" lon="3.76423">
        <ele>65.51</ele>
        <time>2016-05-22T06:40:36Z</time>
      </trkpt>
      <trkpt lat="43.52108" lon="3.76398">
        <ele>64.55</ele>
        <time>2016-05-22T06:40:37Z</time>
      </trkpt>
      <trkpt lat="43.52218" lon="3.76258">
        <ele>59.74</ele>
        <time>2016-05-22T06:40:44Z</time>
      </trkpt>
      <trkpt lat="43.52234" lon="3.76246">
        <ele>59.26</ele>
        <time>2016-05-22T06:40:45Z</time>
      </trkpt>
      <trkpt lat="43.5225" lon="3.76236">
        <ele>59.26</ele>
        <time>2016-05-22T06:40:46Z</time>
      </trkpt>
      <trkpt lat="43.52267" lon="3.76227">
        <ele>58.78</ele>
        <time>2016-05-22T06:40:47Z</time>
      </trkpt>
      <trkpt lat="43.52284" lon="3.76219">
        <ele>59.26</ele>
        <time>2016-05-22T06:40:48Z</time>
      </trkpt>
      <trkpt lat="43.52514" lon="3.76132">
        <ele>58.3</ele>
        <time>2016-05-22T06:41:00Z</time>
      </trkpt>
      <trkpt lat="43.52745" lon="3.76043">
        <ele>55.41</ele>
        <time>2016-05-22T06:41:12Z</time>
      </trkpt>
      <trkpt lat="43.52945" lon="3.76">
        <ele>53.01</ele>
        <time>2016-05-22T06:41:22Z</time>
      </trkpt>
      <trkpt lat="43.53139" lon="3.75931">
        <ele>48.68</ele>
        <time>2016-05-22T06:41:32Z</time>
      </trkpt>
      <trkpt lat="43.53358" lon="3.75837">
        <ele>50.13</ele>
        <time>2016-05-22T06:41:45Z</time>
      </trkpt>
      <trkpt lat="43.53442" lon="3.75779">
        <ele>51.57</ele>
        <time>2016-05-22T06:41:53Z</time>
      </trkpt>
      <trkpt lat="43.53537" lon="3.75715">
        <ele>54.45</ele>
        <time>2016-05-22T06:42:03Z</time>
      </trkpt>
      <trkpt lat="43.53579" lon="3.75689">
        <ele>55.89</ele>
        <time>2016-05-22T06:42:09Z</time>
      </trkpt>
      <trkpt lat="43.53586" lon="3.75688">
        <ele>55.89</ele>
        <time>2016-05-22T06:42:10Z</time>
      </trkpt>
      <trkpt lat="43.53592" lon="3.75687">
        <ele>55.89</ele>
        <time>2016-05-22T06:42:11Z</time>
      </trkpt>
      <trkpt lat="43.53597" lon="3.75684">
        <ele>56.37</ele>
        <time>2016-05-22T06:42:12Z</time>
      </trkpt>
      <trkpt lat="43.53601" lon="3.7568">
        <ele>55.89</ele>
        <time>2016-05-22T06:42:13Z</time>
      </trkpt>
      <trkpt lat="43.53603" lon="3.75675">
        <ele>55.89</ele>
        <time>2016-05-22T06:42:14Z</time>
      </trkpt>
      <trkpt lat="43.53605" lon="3.75669">
        <ele>55.89</ele>
        <time>2016-05-22T06:42:15Z</time>
      </trkpt>
      <trkpt lat="43.53607" lon="3.75662">
        <ele>55.41</ele>
        <time>2016-05-22T06:42:16Z</time>
      </trkpt>
      <trkpt lat="43.5361" lon="3.75654">
        <ele>55.41</ele>
        <time>2016-05-22T06:42:17Z</time>
      </trkpt>
      <trkpt lat="43.53615" lon="3.75646">
        <ele>55.41</ele>
        <time>2016-05-22T06:42:18Z</time>
      </trkpt>
      <trkpt lat="43.53621" lon="3.75637">
        <ele>55.41</ele>
        <time>2016-05-22T06:42:19Z</time>
      </trkpt>
      <trkpt lat="43.53697" lon="3.75541">
        <ele>53.01</ele>
        <time>2016-05-22T06:42:28Z</time>
      </trkpt>
      <trkpt lat="43.53807" lon="3.75477">
        <ele>51.09</ele>
        <time>2016-05-22T06:42:37Z</time>
      </trkpt>
      <trkpt lat="43.53839" lon="3.75465">
        <ele>51.09</ele>
        <time>2016-05-22T06:42:40Z</time>
      </trkpt>
      <trkpt lat="43.53848" lon="3.7546">
        <ele>51.09</ele>
        <time>2016-05-22T06:42:41Z</time>
      </trkpt>
      <trkpt lat="43.53875" lon="3.75445">
        <ele>51.09</ele>
        <time>2016-05-22T06:42:45Z</time>
      </trkpt>
      <trkpt lat="43.53879" lon="3.7544">
        <ele>51.09</ele>
        <time>2016-05-22T06:42:46Z</time>
      </trkpt>
      <trkpt lat="43.53881" lon="3.75432">
        <ele>51.09</ele>
        <time>2016-05-22T06:42:47Z</time>
      </trkpt>
      <trkpt lat="43.53879" lon="3.75422">
        <ele>51.09</ele>
        <time>2016-05-22T06:42:48Z</time>
      </trkpt>
      <trkpt lat="43.53877" lon="3.75412">
        <ele>51.09</ele>
        <time>2016-05-22T06:42:49Z</time>
      </trkpt>
      <trkpt lat="43.53877" lon="3.75291">
        <ele>52.05</ele>
        <time>2016-05-22T06:42:58Z</time>
      </trkpt>
      <trkpt lat="43.53887" lon="3.75167">
        <ele>53.49</ele>
        <time>2016-05-22T06:43:05Z</time>
      </trkpt>
      <trkpt lat="43.53892" lon="3.75152">
        <ele>53.97</ele>
        <time>2016-05-22T06:43:06Z</time>
      </trkpt>
      <trkpt lat="43.53897" lon="3.75137">
        <ele>54.45</ele>
        <time>2016-05-22T06:43:07Z</time>
      </trkpt>
      <trkpt lat="43.53904" lon="3.75125">
        <ele>54.45</ele>
        <time>2016-05-22T06:43:08Z</time>
      </trkpt>
      <trkpt lat="43.53911" lon="3.75114">
        <ele>54.93</ele>
        <time>2016-05-22T06:43:09Z</time>
      </trkpt>
      <trkpt lat="43.53921" lon="3.75105">
        <ele>55.41</ele>
        <time>2016-05-22T06:43:10Z</time>
      </trkpt>
      <trkpt lat="43.53931" lon="3.75097">
        <ele>55.41</ele>
        <time>2016-05-22T06:43:11Z</time>
      </trkpt>
      <trkpt lat="43.54044" lon="3.75003">
        <ele>53.97</ele>
        <time>2016-05-22T06:43:20Z</time>
      </trkpt>
      <trkpt lat="43.54179" lon="3.74887">
        <ele>55.89</ele>
        <time>2016-05-22T06:43:31Z</time>
      </trkpt>
      <trkpt lat="43.54188" lon="3.74872">
        <ele>55.41</ele>
        <time>2016-05-22T06:43:32Z</time>
      </trkpt>
      <trkpt lat="43.54197" lon="3.74855">
        <ele>54.93</ele>
        <time>2016-05-22T06:43:33Z</time>
      </trkpt>
      <trkpt lat="43.54274" lon="3.74661">
        <ele>52.05</ele>
        <time>2016-05-22T06:43:42Z</time>
      </trkpt>
      <trkpt lat="43.54386" lon="3.74379">
        <ele>52.53</ele>
        <time>2016-05-22T06:43:55Z</time>
      </trkpt>
      <trkpt lat="43.54477" lon="3.74164">
        <ele>52.53</ele>
        <time>2016-05-22T06:44:07Z</time>
      </trkpt>
      <trkpt lat="43.54564" lon="3.74011">
        <ele>53.01</ele>
        <time>2016-05-22T06:44:16Z</time>
      </trkpt>
      <trkpt lat="43.54625" lon="3.73926">
        <ele>53.01</ele>
        <time>2016-05-22T06:44:21Z</time>
      </trkpt>
      <trkpt lat="43.54635" lon="3.73906">
        <ele>53.01</ele>
        <time>2016-05-22T06:44:22Z</time>
      </trkpt>
      <trkpt lat="43.54645" lon="3.73883">
        <ele>53.01</ele>
        <time>2016-05-22T06:44:23Z</time>
      </trkpt>
      <trkpt lat="43.54712" lon="3.7371">
        <ele>50.61</ele>
        <time>2016-05-22T06:44:31Z</time>
      </trkpt>
      <trkpt lat="43.54766" lon="3.73575">
        <ele>50.13</ele>
        <time>2016-05-22T06:44:40Z</time>
      </trkpt>
      <trkpt lat="43.54833" lon="3.73405">
        <ele>49.65</ele>
        <time>2016-05-22T06:44:54Z</time>
      </trkpt>
      <trkpt lat="43.54899" lon="3.73283">
        <ele>47.72</ele>
        <time>2016-05-22T06:45:03Z</time>
      </trkpt>
      <trkpt lat="43.5497" lon="3.73163">
        <ele>46.28</ele>
        <time>2016-05-22T06:45:13Z</time>
      </trkpt>
      <trkpt lat="43.55053" lon="3.73024">
        <ele>45.8</ele>
        <time>2016-05-22T06:45:25Z</time>
      </trkpt>
      <trkpt lat="43.55152" lon="3.72858">
        <ele>46.76</ele>
        <time>2016-05-22T06:45:39Z</time>
      </trkpt>
      <trkpt lat="43.55189" lon="3.7281">
        <ele>47.24</ele>
        <time>2016-05-22T06:45:46Z</time>
      </trkpt>
      <trkpt lat="43.55198" lon="3.72797">
        <ele>47.72</ele>
        <time>2016-05-22T06:45:54Z</time>
      </trkpt>
      <trkpt lat="43.55202" lon="3.72789">
        <ele>48.68</ele>
        <time>2016-05-22T06:46:42Z</time>
      </trkpt>
      <trkpt lat="43.55205" lon="3.72783">
        <ele>48.68</ele>
        <time>2016-05-22T06:46:43Z</time>
      </trkpt>
      <trkpt lat="43.55254" lon="3.72704">
        <ele>50.13</ele>
        <time>2016-05-22T06:46:52Z</time>
      </trkpt>
      <trkpt lat="43.55296" lon="3.72639">
        <ele>51.57</ele>
        <time>2016-05-22T06:47:01Z</time>
      </trkpt>
      <trkpt lat="43.55301" lon="3.72635">
        <ele>51.57</ele>
        <time>2016-05-22T06:47:02Z</time>
      </trkpt>
      <trkpt lat="43.55312" lon="3.72628">
        <ele>52.05</ele>
        <time>2016-05-22T06:47:04Z</time>
      </trkpt>
      <trkpt lat="43.55316" lon="3.72622">
        <ele>52.05</ele>
        <time>2016-05-22T06:47:05Z</time>
      </trkpt>
      <trkpt lat="43.55318" lon="3.72616">
        <ele>52.05</ele>
        <time>2016-05-22T06:47:06Z</time>
      </trkpt>
      <trkpt lat="43.55318" lon="3.72609">
        <ele>52.05</ele>
        <time>2016-05-22T06:47:07Z</time>
      </trkpt>
      <trkpt lat="43.55316" lon="3.72603">
        <ele>52.05</ele>
        <time>2016-05-22T06:47:08Z</time>
      </trkpt>
      <trkpt lat="43.55313" lon="3.72598">
        <ele>52.53</ele>
        <time>2016-05-22T06:47:09Z</time>
      </trkpt>
      <trkpt lat="43.55308" lon="3.72595">
        <ele>52.05</ele>
        <time>2016-05-22T06:47:10Z</time>
      </trkpt>
      <trkpt lat="43.55303" lon="3.72594">
        <ele>52.05</ele>
        <time>2016-05-22T06:47:11Z</time>
      </trkpt>
      <trkpt lat="43.55299" lon="3.72593">
        <ele>51.57</ele>
        <time>2016-05-22T06:47:12Z</time>
      </trkpt>
      <trkpt lat="43.55296" lon="3.72592">
        <ele>52.05</ele>
        <time>2016-05-22T06:47:13Z</time>
      </trkpt>
      <trkpt lat="43.55292" lon="3.72589">
        <ele>52.05</ele>
        <time>2016-05-22T06:47:14Z</time>
      </trkpt>
      <trkpt lat="43.55287" lon="3.72583">
        <ele>52.05</ele>
        <time>2016-05-22T06:47:15Z</time>
      </trkpt>
      <trkpt lat="43.55281" lon="3.72576">
        <ele>52.05</ele>
        <time>2016-05-22T06:47:16Z</time>
      </trkpt>
      <trkpt lat="43.55276" lon="3.72567">
        <ele>52.05</ele>
        <time>2016-05-22T06:47:17Z</time>
      </trkpt>
      <trkpt lat="43.55272" lon="3.72559">
        <ele>52.05</ele>
        <time>2016-05-22T06:47:18Z</time>
      </trkpt>
      <trkpt lat="43.55268" lon="3.72552">
        <ele>52.53</ele>
        <time>2016-05-22T06:47:19Z</time>
      </trkpt>
      <trkpt lat="43.55233" lon="3.72478">
        <ele>53.97</ele>
        <time>2016-05-22T06:47:29Z</time>
      </trkpt>
      <trkpt lat="43.55181" lon="3.72362">
        <ele>56.37</ele>
        <time>2016-05-22T06:47:44Z</time>
      </trkpt>
      <trkpt lat="43.55171" lon="3.72331">
        <ele>56.86</ele>
        <time>2016-05-22T06:47:48Z</time>
      </trkpt>
      <trkpt lat="43.55169" lon="3.72322">
        <ele>56.86</ele>
        <time>2016-05-22T06:47:49Z</time>
      </trkpt>
      <trkpt lat="43.55168" lon="3.72313">
        <ele>57.34</ele>
        <time>2016-05-22T06:47:50Z</time>
      </trkpt>
      <trkpt lat="43.55168" lon="3.72303">
        <ele>57.34</ele>
        <time>2016-05-22T06:47:51Z</time>
      </trkpt>
      <trkpt lat="43.55169" lon="3.72294">
        <ele>57.34</ele>
        <time>2016-05-22T06:47:52Z</time>
      </trkpt>
      <trkpt lat="43.55171" lon="3.72286">
        <ele>57.34</ele>
        <time>2016-05-22T06:47:53Z</time>
      </trkpt>
      <trkpt lat="43.55175" lon="3.72278">
        <ele>56.86</ele>
        <time>2016-05-22T06:47:54Z</time>
      </trkpt>
      <trkpt lat="43.55181" lon="3.72269">
        <ele>56.86</ele>
        <time>2016-05-22T06:47:55Z</time>
      </trkpt>
      <trkpt lat="43.55187" lon="3.72259">
        <ele>56.86</ele>
        <time>2016-05-22T06:47:56Z</time>
      </trkpt>
      <trkpt lat="43.5527" lon="3.72135">
        <ele>55.41</ele>
        <time>2016-05-22T06:48:09Z</time>
      </trkpt>
      <trkpt lat="43.55309" lon="3.72082">
        <ele>54.93</ele>
        <time>2016-05-22T06:48:18Z</time>
      </trkpt>
      <trkpt lat="43.5531" lon="3.7208">
        <ele>54.45</ele>
        <time>2016-05-22T06:48:31Z</time>
      </trkpt>
      <trkpt lat="43.55319" lon="3.72081">
        <ele>55.89</ele>
        <time>2016-05-22T06:48:56Z</time>
      </trkpt>
      <trkpt lat="43.55324" lon="3.72085">
        <ele>55.89</ele>
        <time>2016-05-22T06:48:57Z</time>
      </trkpt>
      <trkpt lat="43.55337" lon="3.72098">
        <ele>55.89</ele>
        <time>2016-05-22T06:49:00Z</time>
      </trkpt>
      <trkpt lat="43.55341" lon="3.72102">
        <ele>55.89</ele>
        <time>2016-05-22T06:49:01Z</time>
      </trkpt>
      <trkpt lat="43.55345" lon="3.72108">
        <ele>55.89</ele>
        <time>2016-05-22T06:49:02Z</time>
      </trkpt>
      <trkpt lat="43.55375" lon="3.72155">
        <ele>55.41</ele>
        <time>2016-05-22T06:49:08Z</time>
      </trkpt>
      <trkpt lat="43.55382" lon="3.72161">
        <ele>55.89</ele>
        <time>2016-05-22T06:49:09Z</time>
      </trkpt>
      <trkpt lat="43.55453" lon="3.72211">
        <ele>56.37</ele>
        <time>2016-05-22T06:49:18Z</time>
      </trkpt>
      <trkpt lat="43.55463" lon="3.72213">
        <ele>56.86</ele>
        <time>2016-05-22T06:49:19Z</time>
      </trkpt>
      <trkpt lat="43.55473" lon="3.72215">
        <ele>57.34</ele>
        <time>2016-05-22T06:49:20Z</time>
      </trkpt>
      <trkpt lat="43.55484" lon="3.72215">
        <ele>57.34</ele>
        <time>2016-05-22T06:49:21Z</time>
      </trkpt>
      <trkpt lat="43.55493" lon="3.72215">
        <ele>57.82</ele>
        <time>2016-05-22T06:49:22Z</time>
      </trkpt>
      <trkpt lat="43.55547" lon="3.72208">
        <ele>57.82</ele>
        <time>2016-05-22T06:49:30Z</time>
      </trkpt>
      <trkpt lat="43.55551" lon="3.72206">
        <ele>57.34</ele>
        <time>2016-05-22T06:49:31Z</time>
      </trkpt>
      <trkpt lat="43.55556" lon="3.72202">
        <ele>56.86</ele>
        <time>2016-05-22T06:49:32Z</time>
      </trkpt>
      <trkpt lat="43.5556" lon="3.72194">
        <ele>56.37</ele>
        <time>2016-05-22T06:49:33Z</time>
      </trkpt>
      <trkpt lat="43.55613" lon="3.72116">
        <ele>54.93</ele>
        <time>2016-05-22T06:49:43Z</time>
      </trkpt>
      <trkpt lat="43.55677" lon="3.72047">
        <ele>55.89</ele>
        <time>2016-05-22T06:49:54Z</time>
      </trkpt>
      <trkpt lat="43.55683" lon="3.72041">
        <ele>55.89</ele>
        <time>2016-05-22T06:49:55Z</time>
      </trkpt>
      <trkpt lat="43.55746" lon="3.71944">
        <ele>57.82</ele>
        <time>2016-05-22T06:50:08Z</time>
      </trkpt>
      <trkpt lat="43.5575" lon="3.71937">
        <ele>57.82</ele>
        <time>2016-05-22T06:50:09Z</time>
      </trkpt>
      <trkpt lat="43.55765" lon="3.71913">
        <ele>56.86</ele>
        <time>2016-05-22T06:50:13Z</time>
      </trkpt>
      <trkpt lat="43.55768" lon="3.71908">
        <ele>56.86</ele>
        <time>2016-05-22T06:50:14Z</time>
      </trkpt>
      <trkpt lat="43.55767" lon="3.71883">
        <ele>57.82</ele>
        <time>2016-05-22T06:50:22Z</time>
      </trkpt>
      <trkpt lat="43.55765" lon="3.71878">
        <ele>57.82</ele>
        <time>2016-05-22T06:50:23Z</time>
      </trkpt>
      <trkpt lat="43.55764" lon="3.71873">
        <ele>60.22</ele>
        <time>2016-05-22T06:50:24Z</time>
      </trkpt>
      <trkpt lat="43.55762" lon="3.71868">
        <ele>59.74</ele>
        <time>2016-05-22T06:50:25Z</time>
      </trkpt>
      <trkpt lat="43.5576" lon="3.71862">
        <ele>60.22</ele>
        <time>2016-05-22T06:50:26Z</time>
      </trkpt>
      <trkpt lat="43.55757" lon="3.71856">
        <ele>60.7</ele>
        <time>2016-05-22T06:50:27Z</time>
      </trkpt>
      <trkpt lat="43.55724" lon="3.7176">
        <ele>66.47</ele>
        <time>2016-05-22T06:50:39Z</time>
      </trkpt>
      <trkpt lat="43.55718" lon="3.71736">
        <ele>66.47</ele>
        <time>2016-05-22T06:50:42Z</time>
      </trkpt>
      <trkpt lat="43.5571" lon="3.71714">
        <ele>66.47</ele>
        <time>2016-05-22T06:50:50Z</time>
      </trkpt>
      <trkpt lat="43.5571" lon="3.7171">
        <ele>65.99</ele>
        <time>2016-05-22T06:50:51Z</time>
      </trkpt>
      <trkpt lat="43.55712" lon="3.71705">
        <ele>65.99</ele>
        <time>2016-05-22T06:50:52Z</time>
      </trkpt>
      <trkpt lat="43.55714" lon="3.717">
        <ele>65.51</ele>
        <time>2016-05-22T06:50:53Z</time>
      </trkpt>
      <trkpt lat="43.55717" lon="3.71693">
        <ele>65.03</ele>
        <time>2016-05-22T06:50:54Z</time>
      </trkpt>
      <trkpt lat="43.5572" lon="3.71686">
        <ele>65.03</ele>
        <time>2016-05-22T06:50:55Z</time>
      </trkpt>
      <trkpt lat="43.55743" lon="3.71588">
        <ele>64.07</ele>
        <time>2016-05-22T06:51:06Z</time>
      </trkpt>
      <trkpt lat="43.55748" lon="3.71456">
        <ele>64.07</ele>
        <time>2016-05-22T06:51:18Z</time>
      </trkpt>
      <trkpt lat="43.55747" lon="3.71385">
        <ele>63.58</ele>
        <time>2016-05-22T06:51:25Z</time>
      </trkpt>
      <trkpt lat="43.55749" lon="3.71373">
        <ele>64.07</ele>
        <time>2016-05-22T06:51:26Z</time>
      </trkpt>
      <trkpt lat="43.5575" lon="3.71362">
        <ele>64.07</ele>
        <time>2016-05-22T06:51:27Z</time>
      </trkpt>
      <trkpt lat="43.55768" lon="3.71291">
        <ele>63.58</ele>
        <time>2016-05-22T06:51:34Z</time>
      </trkpt>
      <trkpt lat="43.55773" lon="3.71283">
        <ele>63.58</ele>
        <time>2016-05-22T06:51:35Z</time>
      </trkpt>
      <trkpt lat="43.55778" lon="3.71274">
        <ele>63.58</ele>
        <time>2016-05-22T06:51:36Z</time>
      </trkpt>
      <trkpt lat="43.55784" lon="3.71267">
        <ele>63.58</ele>
        <time>2016-05-22T06:51:37Z</time>
      </trkpt>
      <trkpt lat="43.5579" lon="3.71259">
        <ele>64.07</ele>
        <time>2016-05-22T06:51:38Z</time>
      </trkpt>
      <trkpt lat="43.55861" lon="3.71161">
        <ele>64.55</ele>
        <time>2016-05-22T06:51:48Z</time>
      </trkpt>
      <trkpt lat="43.55954" lon="3.70975">
        <ele>70.79</ele>
        <time>2016-05-22T06:52:02Z</time>
      </trkpt>
      <trkpt lat="43.55978" lon="3.70891">
        <ele>74.16</ele>
        <time>2016-05-22T06:52:10Z</time>
      </trkpt>
      <trkpt lat="43.56034" lon="3.708">
        <ele>77.04</ele>
        <time>2016-05-22T06:52:20Z</time>
      </trkpt>
      <trkpt lat="43.56124" lon="3.70669">
        <ele>80.41</ele>
        <time>2016-05-22T06:52:33Z</time>
      </trkpt>
      <trkpt lat="43.56212" lon="3.70516">
        <ele>83.29</ele>
        <time>2016-05-22T06:52:44Z</time>
      </trkpt>
      <trkpt lat="43.56218" lon="3.70502">
        <ele>83.77</ele>
        <time>2016-05-22T06:52:45Z</time>
      </trkpt>
      <trkpt lat="43.56221" lon="3.70487">
        <ele>83.77</ele>
        <time>2016-05-22T06:52:46Z</time>
      </trkpt>
      <trkpt lat="43.56221" lon="3.70471">
        <ele>84.25</ele>
        <time>2016-05-22T06:52:47Z</time>
      </trkpt>
      <trkpt lat="43.56218" lon="3.70455">
        <ele>84.25</ele>
        <time>2016-05-22T06:52:48Z</time>
      </trkpt>
      <trkpt lat="43.56215" lon="3.70438">
        <ele>84.73</ele>
        <time>2016-05-22T06:52:49Z</time>
      </trkpt>
      <trkpt lat="43.56213" lon="3.7042">
        <ele>85.21</ele>
        <time>2016-05-22T06:52:50Z</time>
      </trkpt>
      <trkpt lat="43.56212" lon="3.70402">
        <ele>85.69</ele>
        <time>2016-05-22T06:52:51Z</time>
      </trkpt>
      <trkpt lat="43.56214" lon="3.70383">
        <ele>86.18</ele>
        <time>2016-05-22T06:52:52Z</time>
      </trkpt>
      <trkpt lat="43.56216" lon="3.70365">
        <ele>86.66</ele>
        <time>2016-05-22T06:52:53Z</time>
      </trkpt>
      <trkpt lat="43.5622" lon="3.70347">
        <ele>87.62</ele>
        <time>2016-05-22T06:52:54Z</time>
      </trkpt>
      <trkpt lat="43.56224" lon="3.70331">
        <ele>88.1</ele>
        <time>2016-05-22T06:52:55Z</time>
      </trkpt>
      <trkpt lat="43.56251" lon="3.70222">
        <ele>90.5</ele>
        <time>2016-05-22T06:53:03Z</time>
      </trkpt>
      <trkpt lat="43.56256" lon="3.70197">
        <ele>90.98</ele>
        <time>2016-05-22T06:53:10Z</time>
      </trkpt>
      <trkpt lat="43.56263" lon="3.70164">
        <ele>90.98</ele>
        <time>2016-05-22T06:53:32Z</time>
      </trkpt>
      <trkpt lat="43.56267" lon="3.70148">
        <ele>90.98</ele>
        <time>2016-05-22T06:53:33Z</time>
      </trkpt>
      <trkpt lat="43.56273" lon="3.70133">
        <ele>91.46</ele>
        <time>2016-05-22T06:53:34Z</time>
      </trkpt>
      <trkpt lat="43.56279" lon="3.70118">
        <ele>91.94</ele>
        <time>2016-05-22T06:53:35Z</time>
      </trkpt>
      <trkpt lat="43.56287" lon="3.70104">
        <ele>92.42</ele>
        <time>2016-05-22T06:53:36Z</time>
      </trkpt>
      <trkpt lat="43.56295" lon="3.70089">
        <ele>92.42</ele>
        <time>2016-05-22T06:53:37Z</time>
      </trkpt>
      <trkpt lat="43.56305" lon="3.70073">
        <ele>92.9</ele>
        <time>2016-05-22T06:53:38Z</time>
      </trkpt>
      <trkpt lat="43.56328" lon="3.70044">
        <ele>93.39</ele>
        <time>2016-05-22T06:53:40Z</time>
      </trkpt>
      <trkpt lat="43.56341" lon="3.70033">
        <ele>93.87</ele>
        <time>2016-05-22T06:53:41Z</time>
      </trkpt>
      <trkpt lat="43.56354" lon="3.70022">
        <ele>94.35</ele>
        <time>2016-05-22T06:53:42Z</time>
      </trkpt>
      <trkpt lat="43.5641" lon="3.69984">
        <ele>96.27</ele>
        <time>2016-05-22T06:53:46Z</time>
      </trkpt>
      <trkpt lat="43.56421" lon="3.69971">
        <ele>96.75</ele>
        <time>2016-05-22T06:53:47Z</time>
      </trkpt>
      <trkpt lat="43.5643" lon="3.69954">
        <ele>97.23</ele>
        <time>2016-05-22T06:53:48Z</time>
      </trkpt>
      <trkpt lat="43.56439" lon="3.69935">
        <ele>97.71</ele>
        <time>2016-05-22T06:53:49Z</time>
      </trkpt>
      <trkpt lat="43.56446" lon="3.69915">
        <ele>98.19</ele>
        <time>2016-05-22T06:53:50Z</time>
      </trkpt>
      <trkpt lat="43.56481" lon="3.69818">
        <ele>100.6</ele>
        <time>2016-05-22T06:53:55Z</time>
      </trkpt>
      <trkpt lat="43.56483" lon="3.69799">
        <ele>101.08</ele>
        <time>2016-05-22T06:53:56Z</time>
      </trkpt>
      <trkpt lat="43.56483" lon="3.69778">
        <ele>101.56</ele>
        <time>2016-05-22T06:53:57Z</time>
      </trkpt>
      <trkpt lat="43.56479" lon="3.69756">
        <ele>102.04</ele>
        <time>2016-05-22T06:53:58Z</time>
      </trkpt>
      <trkpt lat="43.56475" lon="3.69734">
        <ele>102.52</ele>
        <time>2016-05-22T06:53:59Z</time>
      </trkpt>
      <trkpt lat="43.56471" lon="3.69688">
        <ele>103.48</ele>
        <time>2016-05-22T06:54:01Z</time>
      </trkpt>
      <trkpt lat="43.56472" lon="3.69665">
        <ele>103.96</ele>
        <time>2016-05-22T06:54:02Z</time>
      </trkpt>
      <trkpt lat="43.56475" lon="3.69643">
        <ele>104.44</ele>
        <time>2016-05-22T06:54:03Z</time>
      </trkpt>
      <trkpt lat="43.56479" lon="3.69622">
        <ele>104.92</ele>
        <time>2016-05-22T06:54:04Z</time>
      </trkpt>
      <trkpt lat="43.56483" lon="3.69603">
        <ele>105.4</ele>
        <time>2016-05-22T06:54:05Z</time>
      </trkpt>
      <trkpt lat="43.56537" lon="3.69358">
        <ele>110.21</ele>
        <time>2016-05-22T06:54:17Z</time>
      </trkpt>
      <trkpt lat="43.56545" lon="3.69296">
        <ele>111.65</ele>
        <time>2016-05-22T06:54:20Z</time>
      </trkpt>
      <trkpt lat="43.56544" lon="3.69277">
        <ele>112.13</ele>
        <time>2016-05-22T06:54:21Z</time>
      </trkpt>
      <trkpt lat="43.5654" lon="3.69257">
        <ele>112.61</ele>
        <time>2016-05-22T06:54:22Z</time>
      </trkpt>
      <trkpt lat="43.56533" lon="3.69238">
        <ele>112.61</ele>
        <time>2016-05-22T06:54:23Z</time>
      </trkpt>
      <trkpt lat="43.56525" lon="3.69217">
        <ele>113.09</ele>
        <time>2016-05-22T06:54:24Z</time>
      </trkpt>
      <trkpt lat="43.56512" lon="3.69173">
        <ele>114.05</ele>
        <time>2016-05-22T06:54:26Z</time>
      </trkpt>
      <trkpt lat="43.56507" lon="3.69149">
        <ele>114.05</ele>
        <time>2016-05-22T06:54:27Z</time>
      </trkpt>
      <trkpt lat="43.56495" lon="3.69053">
        <ele>115.98</ele>
        <time>2016-05-22T06:54:31Z</time>
      </trkpt>
      <trkpt lat="43.56494" lon="3.69028">
        <ele>116.46</ele>
        <time>2016-05-22T06:54:32Z</time>
      </trkpt>
      <trkpt lat="43.56496" lon="3.69003">
        <ele>116.94</ele>
        <time>2016-05-22T06:54:33Z</time>
      </trkpt>
      <trkpt lat="43.56513" lon="3.68831">
        <ele>121.26</ele>
        <time>2016-05-22T06:54:40Z</time>
      </trkpt>
      <trkpt lat="43.56521" lon="3.68676">
        <ele>124.63</ele>
        <time>2016-05-22T06:54:47Z</time>
      </trkpt>
      <trkpt lat="43.56527" lon="3.68657">
        <ele>125.11</ele>
        <time>2016-05-22T06:54:48Z</time>
      </trkpt>
      <trkpt lat="43.56536" lon="3.68641">
        <ele>125.59</ele>
        <time>2016-05-22T06:54:49Z</time>
      </trkpt>
      <trkpt lat="43.56547" lon="3.68626">
        <ele>125.59</ele>
        <time>2016-05-22T06:54:50Z</time>
      </trkpt>
      <trkpt lat="43.5656" lon="3.68612">
        <ele>126.07</ele>
        <time>2016-05-22T06:54:51Z</time>
      </trkpt>
      <trkpt lat="43.56647" lon="3.68511">
        <ele>129.43</ele>
        <time>2016-05-22T06:54:58Z</time>
      </trkpt>
      <trkpt lat="43.56658" lon="3.68493">
        <ele>129.92</ele>
        <time>2016-05-22T06:54:59Z</time>
      </trkpt>
      <trkpt lat="43.56666" lon="3.68474">
        <ele>130.88</ele>
        <time>2016-05-22T06:55:00Z</time>
      </trkpt>
      <trkpt lat="43.5674" lon="3.68336">
        <ele>135.2</ele>
        <time>2016-05-22T06:55:08Z</time>
      </trkpt>
      <trkpt lat="43.56748" lon="3.68318">
        <ele>136.16</ele>
        <time>2016-05-22T06:55:09Z</time>
      </trkpt>
      <trkpt lat="43.56754" lon="3.68298">
        <ele>136.64</ele>
        <time>2016-05-22T06:55:10Z</time>
      </trkpt>
      <trkpt lat="43.56757" lon="3.68277">
        <ele>137.61</ele>
        <time>2016-05-22T06:55:11Z</time>
      </trkpt>
      <trkpt lat="43.56759" lon="3.68255">
        <ele>138.09</ele>
        <time>2016-05-22T06:55:12Z</time>
      </trkpt>
      <trkpt lat="43.56761" lon="3.68234">
        <ele>139.05</ele>
        <time>2016-05-22T06:55:13Z</time>
      </trkpt>
      <trkpt lat="43.56766" lon="3.68212">
        <ele>140.01</ele>
        <time>2016-05-22T06:55:14Z</time>
      </trkpt>
      <trkpt lat="43.56772" lon="3.68192">
        <ele>140.49</ele>
        <time>2016-05-22T06:55:15Z</time>
      </trkpt>
      <trkpt lat="43.56778" lon="3.68171">
        <ele>140.97</ele>
        <time>2016-05-22T06:55:16Z</time>
      </trkpt>
      <trkpt lat="43.56811" lon="3.68078">
        <ele>143.85</ele>
        <time>2016-05-22T06:55:21Z</time>
      </trkpt>
      <trkpt lat="43.5682" lon="3.68063">
        <ele>144.34</ele>
        <time>2016-05-22T06:55:22Z</time>
      </trkpt>
      <trkpt lat="43.5683" lon="3.68049">
        <ele>145.3</ele>
        <time>2016-05-22T06:55:23Z</time>
      </trkpt>
      <trkpt lat="43.56905" lon="3.67936">
        <ele>147.7</ele>
        <time>2016-05-22T06:55:31Z</time>
      </trkpt>
      <trkpt lat="43.56919" lon="3.67913">
        <ele>147.7</ele>
        <time>2016-05-22T06:55:34Z</time>
      </trkpt>
      <trkpt lat="43.56933" lon="3.67888">
        <ele>147.7</ele>
        <time>2016-05-22T06:55:42Z</time>
      </trkpt>
      <trkpt lat="43.56932" lon="3.67889">
        <ele>145.78</ele>
        <time>2016-05-22T06:55:58Z</time>
      </trkpt>
      <trkpt lat="43.56932" lon="3.67893">
        <ele>144.82</ele>
        <time>2016-05-22T06:59:17Z</time>
      </trkpt>
      <trkpt lat="43.56935" lon="3.67894">
        <ele>145.3</ele>
        <time>2016-05-22T06:59:18Z</time>
      </trkpt>
      <trkpt lat="43.56955" lon="3.6791">
        <ele>145.3</ele>
        <time>2016-05-22T06:59:28Z</time>
      </trkpt>
      <trkpt lat="43.56962" lon="3.67914">
        <ele>148.66</ele>
        <time>2016-05-22T07:00:54Z</time>
      </trkpt>
      <trkpt lat="43.56967" lon="3.67916">
        <ele>149.14</ele>
        <time>2016-05-22T07:00:56Z</time>
      </trkpt>
      <trkpt lat="43.56972" lon="3.67918">
        <ele>148.66</ele>
        <time>2016-05-22T07:00:57Z</time>
      </trkpt>
      <trkpt lat="43.56981" lon="3.67918">
        <ele>148.18</ele>
        <time>2016-05-22T07:00:58Z</time>
      </trkpt>
      <trkpt lat="43.57072" lon="3.67935">
        <ele>147.22</ele>
        <time>2016-05-22T07:01:03Z</time>
      </trkpt>
      <trkpt lat="43.57224" lon="3.67956">
        <ele>148.66</ele>
        <time>2016-05-22T07:01:12Z</time>
      </trkpt>
      <trkpt lat="43.57388" lon="3.67984">
        <ele>151.54</ele>
        <time>2016-05-22T07:01:21Z</time>
      </trkpt>
      <trkpt lat="43.57405" lon="3.67997">
        <ele>152.03</ele>
        <time>2016-05-22T07:01:22Z</time>
      </trkpt>
      <trkpt lat="43.57423" lon="3.68012">
        <ele>152.03</ele>
        <time>2016-05-22T07:01:23Z</time>
      </trkpt>
      <trkpt lat="43.57563" lon="3.68136">
        <ele>156.35</ele>
        <time>2016-05-22T07:01:32Z</time>
      </trkpt>
      <trkpt lat="43.57625" lon="3.68179">
        <ele>160.2</ele>
        <time>2016-05-22T07:01:37Z</time>
      </trkpt>
      <trkpt lat="43.57638" lon="3.68184">
        <ele>160.68</ele>
        <time>2016-05-22T07:01:38Z</time>
      </trkpt>
      <trkpt lat="43.57651" lon="3.68182">
        <ele>161.16</ele>
        <time>2016-05-22T07:01:39Z</time>
      </trkpt>
      <trkpt lat="43.57663" lon="3.68179">
        <ele>161.64</ele>
        <time>2016-05-22T07:01:40Z</time>
      </trkpt>
      <trkpt lat="43.57674" lon="3.68172">
        <ele>162.12</ele>
        <time>2016-05-22T07:01:41Z</time>
      </trkpt>
      <trkpt lat="43.57684" lon="3.68163">
        <ele>162.6</ele>
        <time>2016-05-22T07:01:42Z</time>
      </trkpt>
      <trkpt lat="43.57695" lon="3.68152">
        <ele>163.08</ele>
        <time>2016-05-22T07:01:43Z</time>
      </trkpt>
      <trkpt lat="43.57742" lon="3.681">
        <ele>165.96</ele>
        <time>2016-05-22T07:01:48Z</time>
      </trkpt>
      <trkpt lat="43.57747" lon="3.6809">
        <ele>166.45</ele>
        <time>2016-05-22T07:01:49Z</time>
      </trkpt>
      <trkpt lat="43.5775" lon="3.68081">
        <ele>166.93</ele>
        <time>2016-05-22T07:01:50Z</time>
      </trkpt>
      <trkpt lat="43.57753" lon="3.68072">
        <ele>167.41</ele>
        <time>2016-05-22T07:01:51Z</time>
      </trkpt>
      <trkpt lat="43.57756" lon="3.68062">
        <ele>167.89</ele>
        <time>2016-05-22T07:01:52Z</time>
      </trkpt>
      <trkpt lat="43.57757" lon="3.68049">
        <ele>168.37</ele>
        <time>2016-05-22T07:01:53Z</time>
      </trkpt>
      <trkpt lat="43.57759" lon="3.68033">
        <ele>168.85</ele>
        <time>2016-05-22T07:01:54Z</time>
      </trkpt>
      <trkpt lat="43.57768" lon="3.67887">
        <ele>173.66</ele>
        <time>2016-05-22T07:02:01Z</time>
      </trkpt>
      <trkpt lat="43.57757" lon="3.67744">
        <ele>178.46</ele>
        <time>2016-05-22T07:02:08Z</time>
      </trkpt>
      <trkpt lat="43.57759" lon="3.6772">
        <ele>178.94</ele>
        <time>2016-05-22T07:02:09Z</time>
      </trkpt>
      <trkpt lat="43.57765" lon="3.67697">
        <ele>179.9</ele>
        <time>2016-05-22T07:02:10Z</time>
      </trkpt>
      <trkpt lat="43.57775" lon="3.67677">
        <ele>181.35</ele>
        <time>2016-05-22T07:02:11Z</time>
      </trkpt>
      <trkpt lat="43.57788" lon="3.67659">
        <ele>181.83</ele>
        <time>2016-05-22T07:02:12Z</time>
      </trkpt>
      <trkpt lat="43.578" lon="3.6764">
        <ele>182.79</ele>
        <time>2016-05-22T07:02:13Z</time>
      </trkpt>
      <trkpt lat="43.57833" lon="3.67587">
        <ele>184.71</ele>
        <time>2016-05-22T07:02:16Z</time>
      </trkpt>
      <trkpt lat="43.57839" lon="3.67568">
        <ele>185.67</ele>
        <time>2016-05-22T07:02:17Z</time>
      </trkpt>
      <trkpt lat="43.57843" lon="3.67549">
        <ele>186.15</ele>
        <time>2016-05-22T07:02:18Z</time>
      </trkpt>
      <trkpt lat="43.57844" lon="3.6753">
        <ele>187.11</ele>
        <time>2016-05-22T07:02:19Z</time>
      </trkpt>
      <trkpt lat="43.57838" lon="3.6751">
        <ele>187.59</ele>
        <time>2016-05-22T07:02:20Z</time>
      </trkpt>
      <trkpt lat="43.57831" lon="3.67488">
        <ele>188.08</ele>
        <time>2016-05-22T07:02:21Z</time>
      </trkpt>
      <trkpt lat="43.57827" lon="3.67464">
        <ele>189.04</ele>
        <time>2016-05-22T07:02:22Z</time>
      </trkpt>
      <trkpt lat="43.57827" lon="3.67438">
        <ele>190</ele>
        <time>2016-05-22T07:02:23Z</time>
      </trkpt>
      <trkpt lat="43.57829" lon="3.67411">
        <ele>191.44</ele>
        <time>2016-05-22T07:02:24Z</time>
      </trkpt>
      <trkpt lat="43.57832" lon="3.67386">
        <ele>192.4</ele>
        <time>2016-05-22T07:02:25Z</time>
      </trkpt>
      <trkpt lat="43.57836" lon="3.67338">
        <ele>194.32</ele>
        <time>2016-05-22T07:02:27Z</time>
      </trkpt>
      <trkpt lat="43.57835" lon="3.67315">
        <ele>195.77</ele>
        <time>2016-05-22T07:02:28Z</time>
      </trkpt>
      <trkpt lat="43.57831" lon="3.6727">
        <ele>197.69</ele>
        <time>2016-05-22T07:02:30Z</time>
      </trkpt>
      <trkpt lat="43.57834" lon="3.67247">
        <ele>198.65</ele>
        <time>2016-05-22T07:02:31Z</time>
      </trkpt>
      <trkpt lat="43.5784" lon="3.67225">
        <ele>199.61</ele>
        <time>2016-05-22T07:02:32Z</time>
      </trkpt>
      <trkpt lat="43.57849" lon="3.67204">
        <ele>200.09</ele>
        <time>2016-05-22T07:02:33Z</time>
      </trkpt>
      <trkpt lat="43.57862" lon="3.67184">
        <ele>200.57</ele>
        <time>2016-05-22T07:02:34Z</time>
      </trkpt>
      <trkpt lat="43.57875" lon="3.67166">
        <ele>201.53</ele>
        <time>2016-05-22T07:02:35Z</time>
      </trkpt>
      <trkpt lat="43.57889" lon="3.67148">
        <ele>202.49</ele>
        <time>2016-05-22T07:02:36Z</time>
      </trkpt>
      <trkpt lat="43.57905" lon="3.67135">
        <ele>203.46</ele>
        <time>2016-05-22T07:02:37Z</time>
      </trkpt>
      <trkpt lat="43.57923" lon="3.67125">
        <ele>204.42</ele>
        <time>2016-05-22T07:02:38Z</time>
      </trkpt>
      <trkpt lat="43.57942" lon="3.67118">
        <ele>205.38</ele>
        <time>2016-05-22T07:02:39Z</time>
      </trkpt>
      <trkpt lat="43.57959" lon="3.67111">
        <ele>205.86</ele>
        <time>2016-05-22T07:02:40Z</time>
      </trkpt>
      <trkpt lat="43.57975" lon="3.67103">
        <ele>206.82</ele>
        <time>2016-05-22T07:02:41Z</time>
      </trkpt>
      <trkpt lat="43.5799" lon="3.67092">
        <ele>207.3</ele>
        <time>2016-05-22T07:02:42Z</time>
      </trkpt>
      <trkpt lat="43.58003" lon="3.67077">
        <ele>208.26</ele>
        <time>2016-05-22T07:02:43Z</time>
      </trkpt>
      <trkpt lat="43.58014" lon="3.67059">
        <ele>209.22</ele>
        <time>2016-05-22T07:02:44Z</time>
      </trkpt>
      <trkpt lat="43.58023" lon="3.67039">
        <ele>210.19</ele>
        <time>2016-05-22T07:02:45Z</time>
      </trkpt>
      <trkpt lat="43.58028" lon="3.67017">
        <ele>210.67</ele>
        <time>2016-05-22T07:02:46Z</time>
      </trkpt>
      <trkpt lat="43.58031" lon="3.66993">
        <ele>212.11</ele>
        <time>2016-05-22T07:02:47Z</time>
      </trkpt>
      <trkpt lat="43.5803" lon="3.66969">
        <ele>213.07</ele>
        <time>2016-05-22T07:02:48Z</time>
      </trkpt>
      <trkpt lat="43.58027" lon="3.66944">
        <ele>214.03</ele>
        <time>2016-05-22T07:02:49Z</time>
      </trkpt>
      <trkpt lat="43.58023" lon="3.66919">
        <ele>215.47</ele>
        <time>2016-05-22T07:02:50Z</time>
      </trkpt>
      <trkpt lat="43.58017" lon="3.66895">
        <ele>216.43</ele>
        <time>2016-05-22T07:02:51Z</time>
      </trkpt>
      <trkpt lat="43.58008" lon="3.66872">
        <ele>217.4</ele>
        <time>2016-05-22T07:02:52Z</time>
      </trkpt>
      <trkpt lat="43.58" lon="3.66849">
        <ele>218.36</ele>
        <time>2016-05-22T07:02:53Z</time>
      </trkpt>
      <trkpt lat="43.57939" lon="3.66667">
        <ele>227.01</ele>
        <time>2016-05-22T07:03:02Z</time>
      </trkpt>
      <trkpt lat="43.57939" lon="3.66652">
        <ele>227.49</ele>
        <time>2016-05-22T07:03:03Z</time>
      </trkpt>
      <trkpt lat="43.57943" lon="3.66642">
        <ele>227.49</ele>
        <time>2016-05-22T07:03:04Z</time>
      </trkpt>
      <trkpt lat="43.57952" lon="3.66638">
        <ele>227.01</ele>
        <time>2016-05-22T07:03:05Z</time>
      </trkpt>
      <trkpt lat="43.5796" lon="3.6664">
        <ele>228.45</ele>
        <time>2016-05-22T07:03:06Z</time>
      </trkpt>
      <trkpt lat="43.5797" lon="3.66653">
        <ele>227.97</ele>
        <time>2016-05-22T07:03:07Z</time>
      </trkpt>
      <trkpt lat="43.57981" lon="3.6667">
        <ele>227.49</ele>
        <time>2016-05-22T07:03:08Z</time>
      </trkpt>
      <trkpt lat="43.57988" lon="3.66687">
        <ele>228.45</ele>
        <time>2016-05-22T07:03:09Z</time>
      </trkpt>
      <trkpt lat="43.57996" lon="3.66705">
        <ele>228.93</ele>
        <time>2016-05-22T07:03:10Z</time>
      </trkpt>
      <trkpt lat="43.58012" lon="3.66738">
        <ele>229.89</ele>
        <time>2016-05-22T07:03:12Z</time>
      </trkpt>
      <trkpt lat="43.58021" lon="3.66752">
        <ele>230.37</ele>
        <time>2016-05-22T07:03:13Z</time>
      </trkpt>
      <trkpt lat="43.58031" lon="3.66765">
        <ele>230.85</ele>
        <time>2016-05-22T07:03:14Z</time>
      </trkpt>
      <trkpt lat="43.58042" lon="3.66778">
        <ele>231.81</ele>
        <time>2016-05-22T07:03:15Z</time>
      </trkpt>
      <trkpt lat="43.58055" lon="3.6679">
        <ele>232.3</ele>
        <time>2016-05-22T07:03:16Z</time>
      </trkpt>
      <trkpt lat="43.58069" lon="3.66802">
        <ele>233.26</ele>
        <time>2016-05-22T07:03:17Z</time>
      </trkpt>
      <trkpt lat="43.58195" lon="3.66908">
        <ele>239.02</ele>
        <time>2016-05-22T07:03:26Z</time>
      </trkpt>
      <trkpt lat="43.58208" lon="3.66913">
        <ele>239.51</ele>
        <time>2016-05-22T07:03:27Z</time>
      </trkpt>
      <trkpt lat="43.58222" lon="3.6691">
        <ele>239.99</ele>
        <time>2016-05-22T07:03:28Z</time>
      </trkpt>
      <trkpt lat="43.58237" lon="3.66904">
        <ele>240.95</ele>
        <time>2016-05-22T07:03:29Z</time>
      </trkpt>
      <trkpt lat="43.5825" lon="3.66896">
        <ele>241.43</ele>
        <time>2016-05-22T07:03:30Z</time>
      </trkpt>
      <trkpt lat="43.58262" lon="3.66885">
        <ele>241.91</ele>
        <time>2016-05-22T07:03:31Z</time>
      </trkpt>
      <trkpt lat="43.5827" lon="3.6687">
        <ele>242.87</ele>
        <time>2016-05-22T07:03:32Z</time>
      </trkpt>
      <trkpt lat="43.58274" lon="3.66855">
        <ele>243.83</ele>
        <time>2016-05-22T07:03:33Z</time>
      </trkpt>
      <trkpt lat="43.58275" lon="3.66838">
        <ele>244.79</ele>
        <time>2016-05-22T07:03:34Z</time>
      </trkpt>
      <trkpt lat="43.58272" lon="3.6682">
        <ele>246.23</ele>
        <time>2016-05-22T07:03:35Z</time>
      </trkpt>
      <trkpt lat="43.58267" lon="3.66802">
        <ele>247.2</ele>
        <time>2016-05-22T07:03:36Z</time>
      </trkpt>
      <trkpt lat="43.58259" lon="3.66784">
        <ele>247.68</ele>
        <time>2016-05-22T07:03:37Z</time>
      </trkpt>
      <trkpt lat="43.58252" lon="3.66767">
        <ele>248.16</ele>
        <time>2016-05-22T07:03:38Z</time>
      </trkpt>
      <trkpt lat="43.58236" lon="3.66735">
        <ele>249.12</ele>
        <time>2016-05-22T07:03:40Z</time>
      </trkpt>
      <trkpt lat="43.58226" lon="3.6672">
        <ele>249.6</ele>
        <time>2016-05-22T07:03:41Z</time>
      </trkpt>
      <trkpt lat="43.58208" lon="3.66687">
        <ele>250.56</ele>
        <time>2016-05-22T07:03:43Z</time>
      </trkpt>
      <trkpt lat="43.582" lon="3.66669">
        <ele>251.52</ele>
        <time>2016-05-22T07:03:44Z</time>
      </trkpt>
      <trkpt lat="43.58193" lon="3.66649">
        <ele>252</ele>
        <time>2016-05-22T07:03:45Z</time>
      </trkpt>
      <trkpt lat="43.58188" lon="3.66627">
        <ele>252.96</ele>
        <time>2016-05-22T07:03:46Z</time>
      </trkpt>
      <trkpt lat="43.58183" lon="3.66605">
        <ele>253.93</ele>
        <time>2016-05-22T07:03:47Z</time>
      </trkpt>
      <trkpt lat="43.58151" lon="3.66427">
        <ele>262.1</ele>
        <time>2016-05-22T07:03:55Z</time>
      </trkpt>
      <trkpt lat="43.58111" lon="3.6628">
        <ele>268.35</ele>
        <time>2016-05-22T07:04:02Z</time>
      </trkpt>
      <trkpt lat="43.58103" lon="3.66264">
        <ele>269.31</ele>
        <time>2016-05-22T07:04:03Z</time>
      </trkpt>
      <trkpt lat="43.58093" lon="3.66252">
        <ele>269.79</ele>
        <time>2016-05-22T07:04:04Z</time>
      </trkpt>
      <trkpt lat="43.58084" lon="3.66241">
        <ele>270.27</ele>
        <time>2016-05-22T07:04:05Z</time>
      </trkpt>
      <trkpt lat="43.58077" lon="3.6623">
        <ele>270.75</ele>
        <time>2016-05-22T07:04:06Z</time>
      </trkpt>
      <trkpt lat="43.58074" lon="3.66218">
        <ele>271.23</ele>
        <time>2016-05-22T07:04:07Z</time>
      </trkpt>
      <trkpt lat="43.58075" lon="3.66204">
        <ele>271.23</ele>
        <time>2016-05-22T07:04:08Z</time>
      </trkpt>
      <trkpt lat="43.58082" lon="3.6619">
        <ele>271.23</ele>
        <time>2016-05-22T07:04:09Z</time>
      </trkpt>
      <trkpt lat="43.58091" lon="3.66173">
        <ele>271.71</ele>
        <time>2016-05-22T07:04:10Z</time>
      </trkpt>
      <trkpt lat="43.58103" lon="3.66156">
        <ele>273.63</ele>
        <time>2016-05-22T07:04:11Z</time>
      </trkpt>
      <trkpt lat="43.58115" lon="3.66139">
        <ele>275.07</ele>
        <time>2016-05-22T07:04:12Z</time>
      </trkpt>
      <trkpt lat="43.58144" lon="3.66089">
        <ele>277.96</ele>
        <time>2016-05-22T07:04:15Z</time>
      </trkpt>
      <trkpt lat="43.5815" lon="3.6607">
        <ele>278.92</ele>
        <time>2016-05-22T07:04:16Z</time>
      </trkpt>
      <trkpt lat="43.58155" lon="3.66051">
        <ele>279.88</ele>
        <time>2016-05-22T07:04:17Z</time>
      </trkpt>
      <trkpt lat="43.58166" lon="3.65992">
        <ele>282.28</ele>
        <time>2016-05-22T07:04:20Z</time>
      </trkpt>
      <trkpt lat="43.58167" lon="3.65973">
        <ele>283.25</ele>
        <time>2016-05-22T07:04:21Z</time>
      </trkpt>
      <trkpt lat="43.58166" lon="3.65955">
        <ele>283.73</ele>
        <time>2016-05-22T07:04:22Z</time>
      </trkpt>
      <trkpt lat="43.58163" lon="3.65937">
        <ele>284.69</ele>
        <time>2016-05-22T07:04:23Z</time>
      </trkpt>
      <trkpt lat="43.58157" lon="3.6592">
        <ele>285.65</ele>
        <time>2016-05-22T07:04:24Z</time>
      </trkpt>
      <trkpt lat="43.58149" lon="3.65903">
        <ele>286.61</ele>
        <time>2016-05-22T07:04:25Z</time>
      </trkpt>
      <trkpt lat="43.58137" lon="3.65887">
        <ele>287.57</ele>
        <time>2016-05-22T07:04:26Z</time>
      </trkpt>
      <trkpt lat="43.58126" lon="3.6587">
        <ele>288.05</ele>
        <time>2016-05-22T07:04:27Z</time>
      </trkpt>
      <trkpt lat="43.58058" lon="3.65721">
        <ele>292.86</ele>
        <time>2016-05-22T07:04:35Z</time>
      </trkpt>
      <trkpt lat="43.58053" lon="3.65701">
        <ele>292.86</ele>
        <time>2016-05-22T07:04:36Z</time>
      </trkpt>
      <trkpt lat="43.58049" lon="3.6568">
        <ele>293.34</ele>
        <time>2016-05-22T07:04:37Z</time>
      </trkpt>
      <trkpt lat="43.58021" lon="3.65411">
        <ele>290.46</ele>
        <time>2016-05-22T07:04:49Z</time>
      </trkpt>
      <trkpt lat="43.5802" lon="3.65388">
        <ele>289.97</ele>
        <time>2016-05-22T07:04:50Z</time>
      </trkpt>
      <trkpt lat="43.58021" lon="3.65364">
        <ele>289.49</ele>
        <time>2016-05-22T07:04:51Z</time>
      </trkpt>
      <trkpt lat="43.58025" lon="3.6534">
        <ele>289.49</ele>
        <time>2016-05-22T07:04:52Z</time>
      </trkpt>
      <trkpt lat="43.58031" lon="3.65318">
        <ele>289.01</ele>
        <time>2016-05-22T07:04:53Z</time>
      </trkpt>
      <trkpt lat="43.58039" lon="3.65296">
        <ele>289.49</ele>
        <time>2016-05-22T07:04:54Z</time>
      </trkpt>
      <trkpt lat="43.58048" lon="3.65275">
        <ele>289.49</ele>
        <time>2016-05-22T07:04:55Z</time>
      </trkpt>
      <trkpt lat="43.58145" lon="3.65086">
        <ele>290.46</ele>
        <time>2016-05-22T07:05:05Z</time>
      </trkpt>
      <trkpt lat="43.58267" lon="3.64886">
        <ele>289.01</ele>
        <time>2016-05-22T07:05:17Z</time>
      </trkpt>
      <trkpt lat="43.58362" lon="3.64777">
        <ele>293.82</ele>
        <time>2016-05-22T07:05:25Z</time>
      </trkpt>
      <trkpt lat="43.58426" lon="3.64731">
        <ele>294.3</ele>
        <time>2016-05-22T07:05:30Z</time>
      </trkpt>
      <trkpt lat="43.58438" lon="3.64718">
        <ele>294.3</ele>
        <time>2016-05-22T07:05:31Z</time>
      </trkpt>
      <trkpt lat="43.58448" lon="3.64703">
        <ele>293.82</ele>
        <time>2016-05-22T07:05:32Z</time>
      </trkpt>
      <trkpt lat="43.58566" lon="3.64515">
        <ele>287.57</ele>
        <time>2016-05-22T07:05:43Z</time>
      </trkpt>
      <trkpt lat="43.58688" lon="3.64395">
        <ele>288.05</ele>
        <time>2016-05-22T07:05:52Z</time>
      </trkpt>
      <trkpt lat="43.58786" lon="3.64279">
        <ele>282.77</ele>
        <time>2016-05-22T07:06:00Z</time>
      </trkpt>
      <trkpt lat="43.58889" lon="3.64167">
        <ele>279.88</ele>
        <time>2016-05-22T07:06:08Z</time>
      </trkpt>
      <trkpt lat="43.59016" lon="3.63985">
        <ele>281.8</ele>
        <time>2016-05-22T07:06:19Z</time>
      </trkpt>
      <trkpt lat="43.59147" lon="3.63828">
        <ele>292.86</ele>
        <time>2016-05-22T07:06:30Z</time>
      </trkpt>
      <trkpt lat="43.5916" lon="3.63819">
        <ele>293.82</ele>
        <time>2016-05-22T07:06:31Z</time>
      </trkpt>
      <trkpt lat="43.59174" lon="3.63812">
        <ele>294.78</ele>
        <time>2016-05-22T07:06:32Z</time>
      </trkpt>
      <trkpt lat="43.59242" lon="3.63779">
        <ele>297.67</ele>
        <time>2016-05-22T07:06:37Z</time>
      </trkpt>
      <trkpt lat="43.59255" lon="3.63768">
        <ele>297.67</ele>
        <time>2016-05-22T07:06:38Z</time>
      </trkpt>
      <trkpt lat="43.59404" lon="3.63619">
        <ele>288.05</ele>
        <time>2016-05-22T07:06:48Z</time>
      </trkpt>
      <trkpt lat="43.59467" lon="3.63562">
        <ele>287.57</ele>
        <time>2016-05-22T07:06:52Z</time>
      </trkpt>
      <trkpt lat="43.59485" lon="3.63552">
        <ele>286.61</ele>
        <time>2016-05-22T07:06:53Z</time>
      </trkpt>
      <trkpt lat="43.59502" lon="3.63541">
        <ele>285.65</ele>
        <time>2016-05-22T07:06:54Z</time>
      </trkpt>
      <trkpt lat="43.59519" lon="3.63528">
        <ele>285.17</ele>
        <time>2016-05-22T07:06:55Z</time>
      </trkpt>
      <trkpt lat="43.59534" lon="3.63513">
        <ele>284.69</ele>
        <time>2016-05-22T07:06:56Z</time>
      </trkpt>
      <trkpt lat="43.59549" lon="3.63495">
        <ele>283.25</ele>
        <time>2016-05-22T07:06:57Z</time>
      </trkpt>
      <trkpt lat="43.59654" lon="3.6333">
        <ele>277</ele>
        <time>2016-05-22T07:07:05Z</time>
      </trkpt>
      <trkpt lat="43.5978" lon="3.63104">
        <ele>274.11</ele>
        <time>2016-05-22T07:07:16Z</time>
      </trkpt>
      <trkpt lat="43.59973" lon="3.6277">
        <ele>273.63</ele>
        <time>2016-05-22T07:07:32Z</time>
      </trkpt>
      <trkpt lat="43.6008" lon="3.62597">
        <ele>274.59</ele>
        <time>2016-05-22T07:07:42Z</time>
      </trkpt>
      <trkpt lat="43.60118" lon="3.62548">
        <ele>275.07</ele>
        <time>2016-05-22T07:07:45Z</time>
      </trkpt>
      <trkpt lat="43.60136" lon="3.62537">
        <ele>275.07</ele>
        <time>2016-05-22T07:07:46Z</time>
      </trkpt>
      <trkpt lat="43.60157" lon="3.62527">
        <ele>275.56</ele>
        <time>2016-05-22T07:07:47Z</time>
      </trkpt>
      <trkpt lat="43.60181" lon="3.62518">
        <ele>276.04</ele>
        <time>2016-05-22T07:07:48Z</time>
      </trkpt>
      <trkpt lat="43.60207" lon="3.6251">
        <ele>276.04</ele>
        <time>2016-05-22T07:07:49Z</time>
      </trkpt>
      <trkpt lat="43.6028" lon="3.62484">
        <ele>277</ele>
        <time>2016-05-22T07:07:52Z</time>
      </trkpt>
      <trkpt lat="43.603" lon="3.62485">
        <ele>277</ele>
        <time>2016-05-22T07:07:53Z</time>
      </trkpt>
      <trkpt lat="43.60319" lon="3.62493">
        <ele>277.48</ele>
        <time>2016-05-22T07:07:54Z</time>
      </trkpt>
      <trkpt lat="43.60337" lon="3.62507">
        <ele>277.96</ele>
        <time>2016-05-22T07:07:55Z</time>
      </trkpt>
      <trkpt lat="43.60356" lon="3.62522">
        <ele>278.92</ele>
        <time>2016-05-22T07:07:56Z</time>
      </trkpt>
      <trkpt lat="43.60375" lon="3.62538">
        <ele>280.36</ele>
        <time>2016-05-22T07:07:57Z</time>
      </trkpt>
      <trkpt lat="43.60509" lon="3.62637">
        <ele>288.05</ele>
        <time>2016-05-22T07:08:05Z</time>
      </trkpt>
      <trkpt lat="43.60526" lon="3.62645">
        <ele>289.01</ele>
        <time>2016-05-22T07:08:06Z</time>
      </trkpt>
      <trkpt lat="43.60544" lon="3.62651">
        <ele>289.97</ele>
        <time>2016-05-22T07:08:07Z</time>
      </trkpt>
      <trkpt lat="43.60562" lon="3.62653">
        <ele>290.94</ele>
        <time>2016-05-22T07:08:08Z</time>
      </trkpt>
      <trkpt lat="43.60664" lon="3.62658">
        <ele>291.9</ele>
        <time>2016-05-22T07:08:15Z</time>
      </trkpt>
      <trkpt lat="43.60674" lon="3.62657">
        <ele>291.42</ele>
        <time>2016-05-22T07:08:16Z</time>
      </trkpt>
      <trkpt lat="43.60683" lon="3.62654">
        <ele>290.94</ele>
        <time>2016-05-22T07:08:17Z</time>
      </trkpt>
      <trkpt lat="43.60691" lon="3.62649">
        <ele>290.46</ele>
        <time>2016-05-22T07:08:18Z</time>
      </trkpt>
      <trkpt lat="43.60698" lon="3.62644">
        <ele>289.97</ele>
        <time>2016-05-22T07:08:19Z</time>
      </trkpt>
      <trkpt lat="43.60704" lon="3.62638">
        <ele>289.49</ele>
        <time>2016-05-22T07:08:20Z</time>
      </trkpt>
      <trkpt lat="43.6071" lon="3.62631">
        <ele>289.49</ele>
        <time>2016-05-22T07:08:21Z</time>
      </trkpt>
      <trkpt lat="43.60774" lon="3.62562">
        <ele>291.9</ele>
        <time>2016-05-22T07:08:30Z</time>
      </trkpt>
      <trkpt lat="43.608" lon="3.62539">
        <ele>294.78</ele>
        <time>2016-05-22T07:08:34Z</time>
      </trkpt>
      <trkpt lat="43.60803" lon="3.62538">
        <ele>294.78</ele>
        <time>2016-05-22T07:08:35Z</time>
      </trkpt>
      <trkpt lat="43.60805" lon="3.62536">
        <ele>295.26</ele>
        <time>2016-05-22T07:08:36Z</time>
      </trkpt>
      <trkpt lat="43.60806" lon="3.62534">
        <ele>295.74</ele>
        <time>2016-05-22T07:08:37Z</time>
      </trkpt>
      <trkpt lat="43.60803" lon="3.62532">
        <ele>297.67</ele>
        <time>2016-05-22T07:08:59Z</time>
      </trkpt>
      <trkpt lat="43.60817" lon="3.62507">
        <ele>298.63</ele>
        <time>2016-05-22T07:09:22Z</time>
      </trkpt>
      <trkpt lat="43.60821" lon="3.62498">
        <ele>299.59</ele>
        <time>2016-05-22T07:09:23Z</time>
      </trkpt>
      <trkpt lat="43.60837" lon="3.62469">
        <ele>300.55</ele>
        <time>2016-05-22T07:09:26Z</time>
      </trkpt>
      <trkpt lat="43.60846" lon="3.62465">
        <ele>301.03</ele>
        <time>2016-05-22T07:09:27Z</time>
      </trkpt>
      <trkpt lat="43.60857" lon="3.62462">
        <ele>301.51</ele>
        <time>2016-05-22T07:09:28Z</time>
      </trkpt>
      <trkpt lat="43.60869" lon="3.6246">
        <ele>301.51</ele>
        <time>2016-05-22T07:09:29Z</time>
      </trkpt>
      <trkpt lat="43.60884" lon="3.6246">
        <ele>301.03</ele>
        <time>2016-05-22T07:09:30Z</time>
      </trkpt>
      <trkpt lat="43.60943" lon="3.62462">
        <ele>300.55</ele>
        <time>2016-05-22T07:09:34Z</time>
      </trkpt>
      <trkpt lat="43.60956" lon="3.62467">
        <ele>300.07</ele>
        <time>2016-05-22T07:09:35Z</time>
      </trkpt>
      <trkpt lat="43.60968" lon="3.62474">
        <ele>299.59</ele>
        <time>2016-05-22T07:09:36Z</time>
      </trkpt>
      <trkpt lat="43.60977" lon="3.62488">
        <ele>298.63</ele>
        <time>2016-05-22T07:09:37Z</time>
      </trkpt>
      <trkpt lat="43.60983" lon="3.62505">
        <ele>298.15</ele>
        <time>2016-05-22T07:09:38Z</time>
      </trkpt>
      <trkpt lat="43.60988" lon="3.62523">
        <ele>297.67</ele>
        <time>2016-05-22T07:09:39Z</time>
      </trkpt>
      <trkpt lat="43.60989" lon="3.6254">
        <ele>297.18</ele>
        <time>2016-05-22T07:09:40Z</time>
      </trkpt>
      <trkpt lat="43.60989" lon="3.62558">
        <ele>296.7</ele>
        <time>2016-05-22T07:09:41Z</time>
      </trkpt>
      <trkpt lat="43.60988" lon="3.62575">
        <ele>295.74</ele>
        <time>2016-05-22T07:09:42Z</time>
      </trkpt>
      <trkpt lat="43.60988" lon="3.6259">
        <ele>294.78</ele>
        <time>2016-05-22T07:09:43Z</time>
      </trkpt>
      <trkpt lat="43.61005" lon="3.62616">
        <ele>293.34</ele>
        <time>2016-05-22T07:09:46Z</time>
      </trkpt>
      <trkpt lat="43.61014" lon="3.62619">
        <ele>292.86</ele>
        <time>2016-05-22T07:09:47Z</time>
      </trkpt>
      <trkpt lat="43.61028" lon="3.6262">
        <ele>292.38</ele>
        <time>2016-05-22T07:09:48Z</time>
      </trkpt>
      <trkpt lat="43.61044" lon="3.62615">
        <ele>291.42</ele>
        <time>2016-05-22T07:09:49Z</time>
      </trkpt>
      <trkpt lat="43.61059" lon="3.62608">
        <ele>290.46</ele>
        <time>2016-05-22T07:09:50Z</time>
      </trkpt>
      <trkpt lat="43.61074" lon="3.62602">
        <ele>289.49</ele>
        <time>2016-05-22T07:09:51Z</time>
      </trkpt>
      <trkpt lat="43.61089" lon="3.62598">
        <ele>289.49</ele>
        <time>2016-05-22T07:09:52Z</time>
      </trkpt>
      <trkpt lat="43.61105" lon="3.62598">
        <ele>288.53</ele>
        <time>2016-05-22T07:09:53Z</time>
      </trkpt>
      <trkpt lat="43.61119" lon="3.62599">
        <ele>288.05</ele>
        <time>2016-05-22T07:09:54Z</time>
      </trkpt>
      <trkpt lat="43.61132" lon="3.62604">
        <ele>285.65</ele>
        <time>2016-05-22T07:09:55Z</time>
      </trkpt>
      <trkpt lat="43.61144" lon="3.62615">
        <ele>283.73</ele>
        <time>2016-05-22T07:09:56Z</time>
      </trkpt>
      <trkpt lat="43.61152" lon="3.62625">
        <ele>283.25</ele>
        <time>2016-05-22T07:09:57Z</time>
      </trkpt>
      <trkpt lat="43.61159" lon="3.62633">
        <ele>282.28</ele>
        <time>2016-05-22T07:09:58Z</time>
      </trkpt>
      <trkpt lat="43.61165" lon="3.62634">
        <ele>281.32</ele>
        <time>2016-05-22T07:09:59Z</time>
      </trkpt>
      <trkpt lat="43.61169" lon="3.6263">
        <ele>279.88</ele>
        <time>2016-05-22T07:10:00Z</time>
      </trkpt>
      <trkpt lat="43.61174" lon="3.62622">
        <ele>278.92</ele>
        <time>2016-05-22T07:10:01Z</time>
      </trkpt>
      <trkpt lat="43.61176" lon="3.62611">
        <ele>277.96</ele>
        <time>2016-05-22T07:10:02Z</time>
      </trkpt>
      <trkpt lat="43.61176" lon="3.62601">
        <ele>277</ele>
        <time>2016-05-22T07:10:03Z</time>
      </trkpt>
      <trkpt lat="43.61171" lon="3.62591">
        <ele>276.52</ele>
        <time>2016-05-22T07:10:04Z</time>
      </trkpt>
      <trkpt lat="43.61162" lon="3.6258">
        <ele>276.04</ele>
        <time>2016-05-22T07:10:05Z</time>
      </trkpt>
      <trkpt lat="43.61151" lon="3.62575">
        <ele>275.56</ele>
        <time>2016-05-22T07:10:06Z</time>
      </trkpt>
      <trkpt lat="43.61137" lon="3.6257">
        <ele>275.07</ele>
        <time>2016-05-22T07:10:07Z</time>
      </trkpt>
      <trkpt lat="43.61122" lon="3.62566">
        <ele>274.59</ele>
        <time>2016-05-22T07:10:08Z</time>
      </trkpt>
      <trkpt lat="43.61108" lon="3.62563">
        <ele>273.63</ele>
        <time>2016-05-22T07:10:09Z</time>
      </trkpt>
      <trkpt lat="43.61093" lon="3.62562">
        <ele>273.63</ele>
        <time>2016-05-22T07:10:10Z</time>
      </trkpt>
      <trkpt lat="43.6108" lon="3.62562">
        <ele>273.63</ele>
        <time>2016-05-22T07:10:11Z</time>
      </trkpt>
      <trkpt lat="43.61067" lon="3.62563">
        <ele>273.63</ele>
        <time>2016-05-22T07:10:12Z</time>
      </trkpt>
      <trkpt lat="43.61045" lon="3.62564">
        <ele>272.67</ele>
        <time>2016-05-22T07:10:14Z</time>
      </trkpt>
      <trkpt lat="43.61035" lon="3.62561">
        <ele>272.19</ele>
        <time>2016-05-22T07:10:15Z</time>
      </trkpt>
      <trkpt lat="43.61028" lon="3.62552">
        <ele>271.71</ele>
        <time>2016-05-22T07:10:16Z</time>
      </trkpt>
      <trkpt lat="43.61024" lon="3.62535">
        <ele>271.71</ele>
        <time>2016-05-22T07:10:17Z</time>
      </trkpt>
      <trkpt lat="43.61024" lon="3.62517">
        <ele>270.75</ele>
        <time>2016-05-22T07:10:18Z</time>
      </trkpt>
      <trkpt lat="43.61031" lon="3.62505">
        <ele>269.31</ele>
        <time>2016-05-22T07:10:19Z</time>
      </trkpt>
      <trkpt lat="43.61039" lon="3.62491">
        <ele>268.35</ele>
        <time>2016-05-22T07:10:20Z</time>
      </trkpt>
      <trkpt lat="43.61048" lon="3.62477">
        <ele>267.38</ele>
        <time>2016-05-22T07:10:21Z</time>
      </trkpt>
      <trkpt lat="43.61059" lon="3.62462">
        <ele>266.42</ele>
        <time>2016-05-22T07:10:22Z</time>
      </trkpt>
      <trkpt lat="43.6107" lon="3.62446">
        <ele>266.9</ele>
        <time>2016-05-22T07:10:23Z</time>
      </trkpt>
      <trkpt lat="43.61079" lon="3.62429">
        <ele>266.42</ele>
        <time>2016-05-22T07:10:24Z</time>
      </trkpt>
      <trkpt lat="43.61085" lon="3.62411">
        <ele>266.42</ele>
        <time>2016-05-22T07:10:25Z</time>
      </trkpt>
      <trkpt lat="43.6109" lon="3.62394">
        <ele>265.46</ele>
        <time>2016-05-22T07:10:26Z</time>
      </trkpt>
      <trkpt lat="43.61094" lon="3.62374">
        <ele>264.98</ele>
        <time>2016-05-22T07:10:27Z</time>
      </trkpt>
      <trkpt lat="43.61096" lon="3.62351">
        <ele>264.5</ele>
        <time>2016-05-22T07:10:28Z</time>
      </trkpt>
      <trkpt lat="43.61096" lon="3.62326">
        <ele>264.02</ele>
        <time>2016-05-22T07:10:29Z</time>
      </trkpt>
      <trkpt lat="43.61096" lon="3.62301">
        <ele>264.02</ele>
        <time>2016-05-22T07:10:30Z</time>
      </trkpt>
      <trkpt lat="43.61085" lon="3.62109">
        <ele>263.06</ele>
        <time>2016-05-22T07:10:38Z</time>
      </trkpt>
      <trkpt lat="43.61084" lon="3.62072">
        <ele>263.06</ele>
        <time>2016-05-22T07:10:40Z</time>
      </trkpt>
      <trkpt lat="43.6109" lon="3.6206">
        <ele>262.58</ele>
        <time>2016-05-22T07:10:41Z</time>
      </trkpt>
      <trkpt lat="43.611" lon="3.62053">
        <ele>262.1</ele>
        <time>2016-05-22T07:10:42Z</time>
      </trkpt>
      <trkpt lat="43.61111" lon="3.6205">
        <ele>262.1</ele>
        <time>2016-05-22T07:10:43Z</time>
      </trkpt>
      <trkpt lat="43.61125" lon="3.62054">
        <ele>261.62</ele>
        <time>2016-05-22T07:10:44Z</time>
      </trkpt>
      <trkpt lat="43.61139" lon="3.6206">
        <ele>261.62</ele>
        <time>2016-05-22T07:10:45Z</time>
      </trkpt>
      <trkpt lat="43.61155" lon="3.62071">
        <ele>260.65</ele>
        <time>2016-05-22T07:10:46Z</time>
      </trkpt>
      <trkpt lat="43.6117" lon="3.62082">
        <ele>259.21</ele>
        <time>2016-05-22T07:10:47Z</time>
      </trkpt>
      <trkpt lat="43.61308" lon="3.62178">
        <ele>254.89</ele>
        <time>2016-05-22T07:10:56Z</time>
      </trkpt>
      <trkpt lat="43.61324" lon="3.62184">
        <ele>254.41</ele>
        <time>2016-05-22T07:10:57Z</time>
      </trkpt>
      <trkpt lat="43.61342" lon="3.62188">
        <ele>253.44</ele>
        <time>2016-05-22T07:10:58Z</time>
      </trkpt>
      <trkpt lat="43.61394" lon="3.62202">
        <ele>251.52</ele>
        <time>2016-05-22T07:11:01Z</time>
      </trkpt>
      <trkpt lat="43.61411" lon="3.62212">
        <ele>251.04</ele>
        <time>2016-05-22T07:11:02Z</time>
      </trkpt>
      <trkpt lat="43.61427" lon="3.62224">
        <ele>250.56</ele>
        <time>2016-05-22T07:11:03Z</time>
      </trkpt>
      <trkpt lat="43.61524" lon="3.62321">
        <ele>246.72</ele>
        <time>2016-05-22T07:11:10Z</time>
      </trkpt>
      <trkpt lat="43.61537" lon="3.62329">
        <ele>245.75</ele>
        <time>2016-05-22T07:11:11Z</time>
      </trkpt>
      <trkpt lat="43.61549" lon="3.62329">
        <ele>245.27</ele>
        <time>2016-05-22T07:11:12Z</time>
      </trkpt>
      <trkpt lat="43.61559" lon="3.62326">
        <ele>244.79</ele>
        <time>2016-05-22T07:11:13Z</time>
      </trkpt>
      <trkpt lat="43.61565" lon="3.62315">
        <ele>244.31</ele>
        <time>2016-05-22T07:11:14Z</time>
      </trkpt>
      <trkpt lat="43.61567" lon="3.62303">
        <ele>244.31</ele>
        <time>2016-05-22T07:11:15Z</time>
      </trkpt>
      <trkpt lat="43.61565" lon="3.6229">
        <ele>243.83</ele>
        <time>2016-05-22T07:11:16Z</time>
      </trkpt>
      <trkpt lat="43.61562" lon="3.62275">
        <ele>243.35</ele>
        <time>2016-05-22T07:11:17Z</time>
      </trkpt>
      <trkpt lat="43.61555" lon="3.62254">
        <ele>242.87</ele>
        <time>2016-05-22T07:11:18Z</time>
      </trkpt>
      <trkpt lat="43.61546" lon="3.62232">
        <ele>242.87</ele>
        <time>2016-05-22T07:11:19Z</time>
      </trkpt>
      <trkpt lat="43.61535" lon="3.62212">
        <ele>242.39</ele>
        <time>2016-05-22T07:11:20Z</time>
      </trkpt>
      <trkpt lat="43.61523" lon="3.62194">
        <ele>241.91</ele>
        <time>2016-05-22T07:11:21Z</time>
      </trkpt>
      <trkpt lat="43.61511" lon="3.62175">
        <ele>241.43</ele>
        <time>2016-05-22T07:11:22Z</time>
      </trkpt>
      <trkpt lat="43.61424" lon="3.62009">
        <ele>239.02</ele>
        <time>2016-05-22T07:11:30Z</time>
      </trkpt>
      <trkpt lat="43.61365" lon="3.61921">
        <ele>237.58</ele>
        <time>2016-05-22T07:11:36Z</time>
      </trkpt>
      <trkpt lat="43.61365" lon="3.61912">
        <ele>237.1</ele>
        <time>2016-05-22T07:11:37Z</time>
      </trkpt>
      <trkpt lat="43.61371" lon="3.61906">
        <ele>236.62</ele>
        <time>2016-05-22T07:11:38Z</time>
      </trkpt>
      <trkpt lat="43.61381" lon="3.61904">
        <ele>236.14</ele>
        <time>2016-05-22T07:11:39Z</time>
      </trkpt>
      <trkpt lat="43.61395" lon="3.61908">
        <ele>235.66</ele>
        <time>2016-05-22T07:11:40Z</time>
      </trkpt>
      <trkpt lat="43.61409" lon="3.61912">
        <ele>235.66</ele>
        <time>2016-05-22T07:11:41Z</time>
      </trkpt>
      <trkpt lat="43.61426" lon="3.61921">
        <ele>235.18</ele>
        <time>2016-05-22T07:11:42Z</time>
      </trkpt>
      <trkpt lat="43.61444" lon="3.61934">
        <ele>235.18</ele>
        <time>2016-05-22T07:11:43Z</time>
      </trkpt>
      <trkpt lat="43.61461" lon="3.61946">
        <ele>235.18</ele>
        <time>2016-05-22T07:11:44Z</time>
      </trkpt>
      <trkpt lat="43.6159" lon="3.62057">
        <ele>233.74</ele>
        <time>2016-05-22T07:11:52Z</time>
      </trkpt>
      <trkpt lat="43.61702" lon="3.62135">
        <ele>232.3</ele>
        <time>2016-05-22T07:12:00Z</time>
      </trkpt>
      <trkpt lat="43.61712" lon="3.62138">
        <ele>232.3</ele>
        <time>2016-05-22T07:12:01Z</time>
      </trkpt>
      <trkpt lat="43.6172" lon="3.62132">
        <ele>231.81</ele>
        <time>2016-05-22T07:12:02Z</time>
      </trkpt>
      <trkpt lat="43.61725" lon="3.62122">
        <ele>231.33</ele>
        <time>2016-05-22T07:12:03Z</time>
      </trkpt>
      <trkpt lat="43.61727" lon="3.62107">
        <ele>231.33</ele>
        <time>2016-05-22T07:12:04Z</time>
      </trkpt>
      <trkpt lat="43.61727" lon="3.62092">
        <ele>231.33</ele>
        <time>2016-05-22T07:12:05Z</time>
      </trkpt>
      <trkpt lat="43.61723" lon="3.62077">
        <ele>230.85</ele>
        <time>2016-05-22T07:12:06Z</time>
      </trkpt>
      <trkpt lat="43.61718" lon="3.62062">
        <ele>230.37</ele>
        <time>2016-05-22T07:12:07Z</time>
      </trkpt>
      <trkpt lat="43.61713" lon="3.62048">
        <ele>230.37</ele>
        <time>2016-05-22T07:12:08Z</time>
      </trkpt>
      <trkpt lat="43.61708" lon="3.62035">
        <ele>229.89</ele>
        <time>2016-05-22T07:12:09Z</time>
      </trkpt>
      <trkpt lat="43.6169" lon="3.61986">
        <ele>227.97</ele>
        <time>2016-05-22T07:12:14Z</time>
      </trkpt>
      <trkpt lat="43.61689" lon="3.61981">
        <ele>227.97</ele>
        <time>2016-05-22T07:12:15Z</time>
      </trkpt>
      <trkpt lat="43.6169" lon="3.61972">
        <ele>227.97</ele>
        <time>2016-05-22T07:12:24Z</time>
      </trkpt>
      <trkpt lat="43.6169" lon="3.61972">
        <ele>227.97</ele>
        <time>2016-05-22T07:13:07Z</time>
      </trkpt>
      <trkpt lat="43.61691" lon="3.6197">
        <ele>228.45</ele>
        <time>2016-05-22T07:13:08Z</time>
      </trkpt>
      <trkpt lat="43.61701" lon="3.61957">
        <ele>227.97</ele>
        <time>2016-05-22T07:13:10Z</time>
      </trkpt>
      <trkpt lat="43.61706" lon="3.61942">
        <ele>227.97</ele>
        <time>2016-05-22T07:13:11Z</time>
      </trkpt>
      <trkpt lat="43.61708" lon="3.61927">
        <ele>227.97</ele>
        <time>2016-05-22T07:13:12Z</time>
      </trkpt>
      <trkpt lat="43.61709" lon="3.61909">
        <ele>228.45</ele>
        <time>2016-05-22T07:13:13Z</time>
      </trkpt>
      <trkpt lat="43.6171" lon="3.6189">
        <ele>228.45</ele>
        <time>2016-05-22T07:13:14Z</time>
      </trkpt>
      <trkpt lat="43.61715" lon="3.61853">
        <ele>229.41</ele>
        <time>2016-05-22T07:13:16Z</time>
      </trkpt>
      <trkpt lat="43.61721" lon="3.61836">
        <ele>229.41</ele>
        <time>2016-05-22T07:13:17Z</time>
      </trkpt>
      <trkpt lat="43.61733" lon="3.61821">
        <ele>229.41</ele>
        <time>2016-05-22T07:13:18Z</time>
      </trkpt>
      <trkpt lat="43.61748" lon="3.61808">
        <ele>229.41</ele>
        <time>2016-05-22T07:13:19Z</time>
      </trkpt>
      <trkpt lat="43.61764" lon="3.61798">
        <ele>229.41</ele>
        <time>2016-05-22T07:13:20Z</time>
      </trkpt>
      <trkpt lat="43.61783" lon="3.61789">
        <ele>229.89</ele>
        <time>2016-05-22T07:13:21Z</time>
      </trkpt>
      <trkpt lat="43.61802" lon="3.61781">
        <ele>230.85</ele>
        <time>2016-05-22T07:13:22Z</time>
      </trkpt>
      <trkpt lat="43.61891" lon="3.61764">
        <ele>232.78</ele>
        <time>2016-05-22T07:13:27Z</time>
      </trkpt>
      <trkpt lat="43.61903" lon="3.61774">
        <ele>232.78</ele>
        <time>2016-05-22T07:13:28Z</time>
      </trkpt>
      <trkpt lat="43.61915" lon="3.61788">
        <ele>232.78</ele>
        <time>2016-05-22T07:13:29Z</time>
      </trkpt>
      <trkpt lat="43.61921" lon="3.6181">
        <ele>234.22</ele>
        <time>2016-05-22T07:13:30Z</time>
      </trkpt>
      <trkpt lat="43.61927" lon="3.61831">
        <ele>234.7</ele>
        <time>2016-05-22T07:13:31Z</time>
      </trkpt>
      <trkpt lat="43.61933" lon="3.61854">
        <ele>235.18</ele>
        <time>2016-05-22T07:13:32Z</time>
      </trkpt>
      <trkpt lat="43.61937" lon="3.61877">
        <ele>235.18</ele>
        <time>2016-05-22T07:13:33Z</time>
      </trkpt>
      <trkpt lat="43.6196" lon="3.61981">
        <ele>237.1</ele>
        <time>2016-05-22T07:13:38Z</time>
      </trkpt>
      <trkpt lat="43.61969" lon="3.61993">
        <ele>237.58</ele>
        <time>2016-05-22T07:13:39Z</time>
      </trkpt>
      <trkpt lat="43.61981" lon="3.61998">
        <ele>237.58</ele>
        <time>2016-05-22T07:13:40Z</time>
      </trkpt>
      <trkpt lat="43.61997" lon="3.61992">
        <ele>237.1</ele>
        <time>2016-05-22T07:13:41Z</time>
      </trkpt>
      <trkpt lat="43.62011" lon="3.61989">
        <ele>237.1</ele>
        <time>2016-05-22T07:13:42Z</time>
      </trkpt>
      <trkpt lat="43.62025" lon="3.61981">
        <ele>237.58</ele>
        <time>2016-05-22T07:13:43Z</time>
      </trkpt>
      <trkpt lat="43.62041" lon="3.61982">
        <ele>237.1</ele>
        <time>2016-05-22T07:13:44Z</time>
      </trkpt>
      <trkpt lat="43.62056" lon="3.61992">
        <ele>237.58</ele>
        <time>2016-05-22T07:13:45Z</time>
      </trkpt>
      <trkpt lat="43.62071" lon="3.62003">
        <ele>237.58</ele>
        <time>2016-05-22T07:13:46Z</time>
      </trkpt>
      <trkpt lat="43.62085" lon="3.62016">
        <ele>236.14</ele>
        <time>2016-05-22T07:13:47Z</time>
      </trkpt>
      <trkpt lat="43.62098" lon="3.62029">
        <ele>234.7</ele>
        <time>2016-05-22T07:13:48Z</time>
      </trkpt>
      <trkpt lat="43.62137" lon="3.62058">
        <ele>232.3</ele>
        <time>2016-05-22T07:13:51Z</time>
      </trkpt>
      <trkpt lat="43.62149" lon="3.6206">
        <ele>231.81</ele>
        <time>2016-05-22T07:13:52Z</time>
      </trkpt>
      <trkpt lat="43.62168" lon="3.62065">
        <ele>231.33</ele>
        <time>2016-05-22T07:13:54Z</time>
      </trkpt>
      <trkpt lat="43.62172" lon="3.62069">
        <ele>230.85</ele>
        <time>2016-05-22T07:13:55Z</time>
      </trkpt>
      <trkpt lat="43.62174" lon="3.62072">
        <ele>230.85</ele>
        <time>2016-05-22T07:13:56Z</time>
      </trkpt>
      <trkpt lat="43.62171" lon="3.62072">
        <ele>231.33</ele>
        <time>2016-05-22T07:14:10Z</time>
      </trkpt>
      <trkpt lat="43.62174" lon="3.62075">
        <ele>232.3</ele>
        <time>2016-05-22T07:14:21Z</time>
      </trkpt>
      <trkpt lat="43.62175" lon="3.62084">
        <ele>232.3</ele>
        <time>2016-05-22T07:14:22Z</time>
      </trkpt>
      <trkpt lat="43.62175" lon="3.62098">
        <ele>231.81</ele>
        <time>2016-05-22T07:14:23Z</time>
      </trkpt>
      <trkpt lat="43.62191" lon="3.6222">
        <ele>229.41</ele>
        <time>2016-05-22T07:14:29Z</time>
      </trkpt>
      <trkpt lat="43.62232" lon="3.62451">
        <ele>225.09</ele>
        <time>2016-05-22T07:14:37Z</time>
      </trkpt>
      <trkpt lat="43.62284" lon="3.62828">
        <ele>219.8</ele>
        <time>2016-05-22T07:14:48Z</time>
      </trkpt>
      <trkpt lat="43.62353" lon="3.63399">
        <ele>212.11</ele>
        <time>2016-05-22T07:15:03Z</time>
      </trkpt>
      <trkpt lat="43.62429" lon="3.64032">
        <ele>202.01</ele>
        <time>2016-05-22T07:15:19Z</time>
      </trkpt>
      <trkpt lat="43.62499" lon="3.64479">
        <ele>193.84</ele>
        <time>2016-05-22T07:15:31Z</time>
      </trkpt>
      <trkpt lat="43.62531" lon="3.64729">
        <ele>187.11</ele>
        <time>2016-05-22T07:15:38Z</time>
      </trkpt>
      <trkpt lat="43.62536" lon="3.65045">
        <ele>175.1</ele>
        <time>2016-05-22T07:15:47Z</time>
      </trkpt>
      <trkpt lat="43.62504" lon="3.65306">
        <ele>164.52</ele>
        <time>2016-05-22T07:15:55Z</time>
      </trkpt>
      <trkpt lat="43.62503" lon="3.65337">
        <ele>164.04</ele>
        <time>2016-05-22T07:15:56Z</time>
      </trkpt>
      <trkpt lat="43.62506" lon="3.65368">
        <ele>163.08</ele>
        <time>2016-05-22T07:15:57Z</time>
      </trkpt>
      <trkpt lat="43.6251" lon="3.65398">
        <ele>162.12</ele>
        <time>2016-05-22T07:15:58Z</time>
      </trkpt>
      <trkpt lat="43.62515" lon="3.65427">
        <ele>161.64</ele>
        <time>2016-05-22T07:15:59Z</time>
      </trkpt>
      <trkpt lat="43.62521" lon="3.65454">
        <ele>161.16</ele>
        <time>2016-05-22T07:16:00Z</time>
      </trkpt>
      <trkpt lat="43.62585" lon="3.65643">
        <ele>156.35</ele>
        <time>2016-05-22T07:16:08Z</time>
      </trkpt>
      <trkpt lat="43.62643" lon="3.65879">
        <ele>149.62</ele>
        <time>2016-05-22T07:16:18Z</time>
      </trkpt>
      <trkpt lat="43.62645" lon="3.65966">
        <ele>147.7</ele>
        <time>2016-05-22T07:16:23Z</time>
      </trkpt>
      <trkpt lat="43.62643" lon="3.6599">
        <ele>146.74</ele>
        <time>2016-05-22T07:16:29Z</time>
      </trkpt>
      <trkpt lat="43.62643" lon="3.65979">
        <ele>146.74</ele>
        <time>2016-05-22T07:18:50Z</time>
      </trkpt>
      <trkpt lat="43.62643" lon="3.65982">
        <ele>147.22</ele>
        <time>2016-05-22T07:19:56Z</time>
      </trkpt>
      <trkpt lat="43.62642" lon="3.66019">
        <ele>146.26</ele>
        <time>2016-05-22T07:20:03Z</time>
      </trkpt>
      <trkpt lat="43.62636" lon="3.66088">
        <ele>145.3</ele>
        <time>2016-05-22T07:20:13Z</time>
      </trkpt>
      <trkpt lat="43.62634" lon="3.66112">
        <ele>145.78</ele>
        <time>2016-05-22T07:20:25Z</time>
      </trkpt>
      <trkpt lat="43.62632" lon="3.66113">
        <ele>146.26</ele>
        <time>2016-05-22T07:22:37Z</time>
      </trkpt>
      <trkpt lat="43.62632" lon="3.66116">
        <ele>145.78</ele>
        <time>2016-05-22T07:22:38Z</time>
      </trkpt>
      <trkpt lat="43.62633" lon="3.66119">
        <ele>146.26</ele>
        <time>2016-05-22T07:22:39Z</time>
      </trkpt>
      <trkpt lat="43.62633" lon="3.66122">
        <ele>146.26</ele>
        <time>2016-05-22T07:22:40Z</time>
      </trkpt>
      <trkpt lat="43.62633" lon="3.66125">
        <ele>146.26</ele>
        <time>2016-05-22T07:22:41Z</time>
      </trkpt>
      <trkpt lat="43.62633" lon="3.66127">
        <ele>146.26</ele>
        <time>2016-05-22T07:22:54Z</time>
      </trkpt>
      <trkpt lat="43.62634" lon="3.66149">
        <ele>146.26</ele>
        <time>2016-05-22T07:23:09Z</time>
      </trkpt>
      <trkpt lat="43.62627" lon="3.66239">
        <ele>145.78</ele>
        <time>2016-05-22T07:23:14Z</time>
      </trkpt>
      <trkpt lat="43.62612" lon="3.66456">
        <ele>146.26</ele>
        <time>2016-05-22T07:23:23Z</time>
      </trkpt>
      <trkpt lat="43.62593" lon="3.66737">
        <ele>146.26</ele>
        <time>2016-05-22T07:23:34Z</time>
      </trkpt>
      <trkpt lat="43.62577" lon="3.66978">
        <ele>143.85</ele>
        <time>2016-05-22T07:23:44Z</time>
      </trkpt>
      <trkpt lat="43.62569" lon="3.67096">
        <ele>145.78</ele>
        <time>2016-05-22T07:23:52Z</time>
      </trkpt>
      <trkpt lat="43.62566" lon="3.67272">
        <ele>146.74</ele>
        <time>2016-05-22T07:24:04Z</time>
      </trkpt>
      <trkpt lat="43.6259" lon="3.67395">
        <ele>145.3</ele>
        <time>2016-05-22T07:24:14Z</time>
      </trkpt>
      <trkpt lat="43.62618" lon="3.67545">
        <ele>147.22</ele>
        <time>2016-05-22T07:24:26Z</time>
      </trkpt>
      <trkpt lat="43.6263" lon="3.6769">
        <ele>149.14</ele>
        <time>2016-05-22T07:24:38Z</time>
      </trkpt>
      <trkpt lat="43.62666" lon="3.67869">
        <ele>151.06</ele>
        <time>2016-05-22T07:24:51Z</time>
      </trkpt>
      <trkpt lat="43.62694" lon="3.6799">
        <ele>152.51</ele>
        <time>2016-05-22T07:24:59Z</time>
      </trkpt>
      <trkpt lat="43.62696" lon="3.67997">
        <ele>152.99</ele>
        <time>2016-05-22T07:25:00Z</time>
      </trkpt>
      <trkpt lat="43.62698" lon="3.68004">
        <ele>152.99</ele>
        <time>2016-05-22T07:25:01Z</time>
      </trkpt>
      <trkpt lat="43.62699" lon="3.68013">
        <ele>152.99</ele>
        <time>2016-05-22T07:25:02Z</time>
      </trkpt>
      <trkpt lat="43.62702" lon="3.68025">
        <ele>152.99</ele>
        <time>2016-05-22T07:25:03Z</time>
      </trkpt>
      <trkpt lat="43.62735" lon="3.68175">
        <ele>154.91</ele>
        <time>2016-05-22T07:25:12Z</time>
      </trkpt>
      <trkpt lat="43.62761" lon="3.68316">
        <ele>157.31</ele>
        <time>2016-05-22T07:25:19Z</time>
      </trkpt>
      <trkpt lat="43.62762" lon="3.68339">
        <ele>157.79</ele>
        <time>2016-05-22T07:25:20Z</time>
      </trkpt>
      <trkpt lat="43.6276" lon="3.68362">
        <ele>157.79</ele>
        <time>2016-05-22T07:25:21Z</time>
      </trkpt>
      <trkpt lat="43.62744" lon="3.68602">
        <ele>152.03</ele>
        <time>2016-05-22T07:25:32Z</time>
      </trkpt>
      <trkpt lat="43.62766" lon="3.68796">
        <ele>142.41</ele>
        <time>2016-05-22T07:25:41Z</time>
      </trkpt>
      <trkpt lat="43.62817" lon="3.69015">
        <ele>136.16</ele>
        <time>2016-05-22T07:25:52Z</time>
      </trkpt>
      <trkpt lat="43.62836" lon="3.69137">
        <ele>133.76</ele>
        <time>2016-05-22T07:26:00Z</time>
      </trkpt>
      <trkpt lat="43.62834" lon="3.69256">
        <ele>132.32</ele>
        <time>2016-05-22T07:26:08Z</time>
      </trkpt>
      <trkpt lat="43.62832" lon="3.69266">
        <ele>132.8</ele>
        <time>2016-05-22T07:26:09Z</time>
      </trkpt>
      <trkpt lat="43.62827" lon="3.69292">
        <ele>133.76</ele>
        <time>2016-05-22T07:26:11Z</time>
      </trkpt>
      <trkpt lat="43.62827" lon="3.69307">
        <ele>133.76</ele>
        <time>2016-05-22T07:26:12Z</time>
      </trkpt>
      <trkpt lat="43.62829" lon="3.69321">
        <ele>134.24</ele>
        <time>2016-05-22T07:26:13Z</time>
      </trkpt>
      <trkpt lat="43.62836" lon="3.69329">
        <ele>134.72</ele>
        <time>2016-05-22T07:26:14Z</time>
      </trkpt>
      <trkpt lat="43.62848" lon="3.69331">
        <ele>134.72</ele>
        <time>2016-05-22T07:26:15Z</time>
      </trkpt>
      <trkpt lat="43.62863" lon="3.69329">
        <ele>134.72</ele>
        <time>2016-05-22T07:26:16Z</time>
      </trkpt>
      <trkpt lat="43.62876" lon="3.69322">
        <ele>134.72</ele>
        <time>2016-05-22T07:26:17Z</time>
      </trkpt>
      <trkpt lat="43.62888" lon="3.69315">
        <ele>134.72</ele>
        <time>2016-05-22T07:26:18Z</time>
      </trkpt>
      <trkpt lat="43.629" lon="3.69312">
        <ele>134.72</ele>
        <time>2016-05-22T07:26:19Z</time>
      </trkpt>
      <trkpt lat="43.62914" lon="3.69314">
        <ele>134.72</ele>
        <time>2016-05-22T07:26:20Z</time>
      </trkpt>
      <trkpt lat="43.62927" lon="3.69317">
        <ele>134.72</ele>
        <time>2016-05-22T07:26:21Z</time>
      </trkpt>
      <trkpt lat="43.62938" lon="3.69322">
        <ele>135.2</ele>
        <time>2016-05-22T07:26:22Z</time>
      </trkpt>
      <trkpt lat="43.6295" lon="3.69327">
        <ele>135.2</ele>
        <time>2016-05-22T07:26:23Z</time>
      </trkpt>
      <trkpt lat="43.6298" lon="3.69342">
        <ele>134.24</ele>
        <time>2016-05-22T07:26:26Z</time>
      </trkpt>
      <trkpt lat="43.62989" lon="3.69349">
        <ele>134.24</ele>
        <time>2016-05-22T07:26:27Z</time>
      </trkpt>
      <trkpt lat="43.62997" lon="3.69361">
        <ele>134.24</ele>
        <time>2016-05-22T07:26:28Z</time>
      </trkpt>
      <trkpt lat="43.63002" lon="3.69374">
        <ele>133.76</ele>
        <time>2016-05-22T07:26:29Z</time>
      </trkpt>
      <trkpt lat="43.63009" lon="3.69387">
        <ele>133.76</ele>
        <time>2016-05-22T07:26:30Z</time>
      </trkpt>
      <trkpt lat="43.63016" lon="3.69397">
        <ele>133.28</ele>
        <time>2016-05-22T07:26:31Z</time>
      </trkpt>
      <trkpt lat="43.63027" lon="3.694">
        <ele>133.28</ele>
        <time>2016-05-22T07:26:32Z</time>
      </trkpt>
      <trkpt lat="43.63037" lon="3.69399">
        <ele>132.8</ele>
        <time>2016-05-22T07:26:33Z</time>
      </trkpt>
      <trkpt lat="43.63047" lon="3.69393">
        <ele>132.32</ele>
        <time>2016-05-22T07:26:34Z</time>
      </trkpt>
      <trkpt lat="43.63054" lon="3.69382">
        <ele>132.32</ele>
        <time>2016-05-22T07:26:35Z</time>
      </trkpt>
      <trkpt lat="43.63062" lon="3.6937">
        <ele>131.84</ele>
        <time>2016-05-22T07:26:36Z</time>
      </trkpt>
      <trkpt lat="43.63071" lon="3.6936">
        <ele>131.84</ele>
        <time>2016-05-22T07:26:37Z</time>
      </trkpt>
      <trkpt lat="43.63083" lon="3.69353">
        <ele>131.84</ele>
        <time>2016-05-22T07:26:38Z</time>
      </trkpt>
      <trkpt lat="43.63096" lon="3.69349">
        <ele>131.36</ele>
        <time>2016-05-22T07:26:39Z</time>
      </trkpt>
      <trkpt lat="43.63109" lon="3.69347">
        <ele>130.88</ele>
        <time>2016-05-22T07:26:40Z</time>
      </trkpt>
      <trkpt lat="43.63124" lon="3.69346">
        <ele>130.88</ele>
        <time>2016-05-22T07:26:41Z</time>
      </trkpt>
      <trkpt lat="43.63224" lon="3.69326">
        <ele>129.43</ele>
        <time>2016-05-22T07:26:48Z</time>
      </trkpt>
      <trkpt lat="43.63367" lon="3.69296">
        <ele>129.43</ele>
        <time>2016-05-22T07:26:59Z</time>
      </trkpt>
      <trkpt lat="43.63445" lon="3.69287">
        <ele>128.95</ele>
        <time>2016-05-22T07:27:05Z</time>
      </trkpt>
      <trkpt lat="43.63457" lon="3.69289">
        <ele>128.95</ele>
        <time>2016-05-22T07:27:06Z</time>
      </trkpt>
      <trkpt lat="43.63469" lon="3.69293">
        <ele>128.95</ele>
        <time>2016-05-22T07:27:07Z</time>
      </trkpt>
      <trkpt lat="43.63481" lon="3.69298">
        <ele>128.95</ele>
        <time>2016-05-22T07:27:08Z</time>
      </trkpt>
      <trkpt lat="43.63493" lon="3.69306">
        <ele>128.95</ele>
        <time>2016-05-22T07:27:09Z</time>
      </trkpt>
      <trkpt lat="43.63505" lon="3.69315">
        <ele>128.95</ele>
        <time>2016-05-22T07:27:10Z</time>
      </trkpt>
      <trkpt lat="43.63517" lon="3.69325">
        <ele>128.95</ele>
        <time>2016-05-22T07:27:11Z</time>
      </trkpt>
      <trkpt lat="43.63636" lon="3.69411">
        <ele>125.59</ele>
        <time>2016-05-22T07:27:20Z</time>
      </trkpt>
      <trkpt lat="43.63764" lon="3.69456">
        <ele>123.67</ele>
        <time>2016-05-22T07:27:28Z</time>
      </trkpt>
      <trkpt lat="43.63896" lon="3.6951">
        <ele>126.07</ele>
        <time>2016-05-22T07:27:37Z</time>
      </trkpt>
      <trkpt lat="43.63991" lon="3.69528">
        <ele>125.11</ele>
        <time>2016-05-22T07:27:45Z</time>
      </trkpt>
      <trkpt lat="43.64084" lon="3.6953">
        <ele>126.07</ele>
        <time>2016-05-22T07:27:53Z</time>
      </trkpt>
      <trkpt lat="43.64091" lon="3.69534">
        <ele>126.07</ele>
        <time>2016-05-22T07:27:54Z</time>
      </trkpt>
      <trkpt lat="43.64106" lon="3.69541">
        <ele>125.59</ele>
        <time>2016-05-22T07:27:56Z</time>
      </trkpt>
      <trkpt lat="43.64113" lon="3.69541">
        <ele>125.59</ele>
        <time>2016-05-22T07:27:57Z</time>
      </trkpt>
      <trkpt lat="43.64131" lon="3.6954">
        <ele>125.11</ele>
        <time>2016-05-22T07:27:59Z</time>
      </trkpt>
      <trkpt lat="43.6414" lon="3.69543">
        <ele>125.11</ele>
        <time>2016-05-22T07:28:00Z</time>
      </trkpt>
      <trkpt lat="43.64249" lon="3.69585">
        <ele>120.3</ele>
        <time>2016-05-22T07:28:12Z</time>
      </trkpt>
      <trkpt lat="43.64257" lon="3.69588">
        <ele>120.3</ele>
        <time>2016-05-22T07:28:13Z</time>
      </trkpt>
      <trkpt lat="43.64284" lon="3.69597">
        <ele>119.34</ele>
        <time>2016-05-22T07:28:17Z</time>
      </trkpt>
      <trkpt lat="43.64289" lon="3.69602">
        <ele>119.34</ele>
        <time>2016-05-22T07:28:18Z</time>
      </trkpt>
      <trkpt lat="43.64293" lon="3.69607">
        <ele>119.34</ele>
        <time>2016-05-22T07:28:19Z</time>
      </trkpt>
      <trkpt lat="43.64298" lon="3.6961">
        <ele>119.34</ele>
        <time>2016-05-22T07:28:20Z</time>
      </trkpt>
      <trkpt lat="43.64304" lon="3.6961">
        <ele>119.34</ele>
        <time>2016-05-22T07:28:21Z</time>
      </trkpt>
      <trkpt lat="43.6431" lon="3.69609">
        <ele>118.86</ele>
        <time>2016-05-22T07:28:22Z</time>
      </trkpt>
      <trkpt lat="43.64318" lon="3.69609">
        <ele>118.86</ele>
        <time>2016-05-22T07:28:23Z</time>
      </trkpt>
      <trkpt lat="43.64326" lon="3.69609">
        <ele>118.86</ele>
        <time>2016-05-22T07:28:24Z</time>
      </trkpt>
      <trkpt lat="43.64333" lon="3.6961">
        <ele>118.86</ele>
        <time>2016-05-22T07:28:25Z</time>
      </trkpt>
      <trkpt lat="43.64437" lon="3.69635">
        <ele>118.38</ele>
        <time>2016-05-22T07:28:39Z</time>
      </trkpt>
      <trkpt lat="43.64497" lon="3.69656">
        <ele>119.82</ele>
        <time>2016-05-22T07:28:49Z</time>
      </trkpt>
      <trkpt lat="43.64581" lon="3.69689">
        <ele>119.34</ele>
        <time>2016-05-22T07:29:00Z</time>
      </trkpt>
      <trkpt lat="43.6465" lon="3.69706">
        <ele>119.34</ele>
        <time>2016-05-22T07:29:10Z</time>
      </trkpt>
      <trkpt lat="43.64696" lon="3.6972">
        <ele>119.34</ele>
        <time>2016-05-22T07:29:17Z</time>
      </trkpt>
      <trkpt lat="43.64702" lon="3.69723">
        <ele>119.34</ele>
        <time>2016-05-22T07:29:18Z</time>
      </trkpt>
      <trkpt lat="43.64718" lon="3.69732">
        <ele>119.34</ele>
        <time>2016-05-22T07:29:21Z</time>
      </trkpt>
      <trkpt lat="43.64722" lon="3.69731">
        <ele>119.34</ele>
        <time>2016-05-22T07:29:22Z</time>
      </trkpt>
      <trkpt lat="43.64728" lon="3.69726">
        <ele>119.34</ele>
        <time>2016-05-22T07:29:23Z</time>
      </trkpt>
      <trkpt lat="43.64781" lon="3.69671">
        <ele>122.71</ele>
        <time>2016-05-22T07:29:31Z</time>
      </trkpt>
      <trkpt lat="43.64789" lon="3.69669">
        <ele>123.19</ele>
        <time>2016-05-22T07:29:32Z</time>
      </trkpt>
      <trkpt lat="43.64797" lon="3.69671">
        <ele>123.67</ele>
        <time>2016-05-22T07:29:33Z</time>
      </trkpt>
      <trkpt lat="43.64803" lon="3.69677">
        <ele>124.63</ele>
        <time>2016-05-22T07:29:34Z</time>
      </trkpt>
      <trkpt lat="43.64809" lon="3.69684">
        <ele>125.59</ele>
        <time>2016-05-22T07:29:35Z</time>
      </trkpt>
      <trkpt lat="43.64814" lon="3.69691">
        <ele>126.07</ele>
        <time>2016-05-22T07:29:36Z</time>
      </trkpt>
      <trkpt lat="43.6482" lon="3.69696">
        <ele>127.03</ele>
        <time>2016-05-22T07:29:37Z</time>
      </trkpt>
      <trkpt lat="43.64826" lon="3.69696">
        <ele>127.51</ele>
        <time>2016-05-22T07:29:38Z</time>
      </trkpt>
      <trkpt lat="43.64832" lon="3.69693">
        <ele>127.03</ele>
        <time>2016-05-22T07:29:39Z</time>
      </trkpt>
      <trkpt lat="43.6484" lon="3.69691">
        <ele>127.51</ele>
        <time>2016-05-22T07:29:41Z</time>
      </trkpt>
      <trkpt lat="43.64844" lon="3.69691">
        <ele>127.99</ele>
        <time>2016-05-22T07:29:42Z</time>
      </trkpt>
      <trkpt lat="43.64849" lon="3.69693">
        <ele>127.99</ele>
        <time>2016-05-22T07:29:43Z</time>
      </trkpt>
      <trkpt lat="43.64854" lon="3.69698">
        <ele>128.47</ele>
        <time>2016-05-22T07:29:44Z</time>
      </trkpt>
      <trkpt lat="43.64858" lon="3.69704">
        <ele>127.99</ele>
        <time>2016-05-22T07:29:45Z</time>
      </trkpt>
      <trkpt lat="43.64863" lon="3.69711">
        <ele>127.99</ele>
        <time>2016-05-22T07:29:46Z</time>
      </trkpt>
      <trkpt lat="43.64906" lon="3.69779">
        <ele>125.59</ele>
        <time>2016-05-22T07:29:58Z</time>
      </trkpt>
      <trkpt lat="43.64917" lon="3.69794">
        <ele>125.11</ele>
        <time>2016-05-22T07:30:01Z</time>
      </trkpt>
      <trkpt lat="43.6492" lon="3.698">
        <ele>125.11</ele>
        <time>2016-05-22T07:30:02Z</time>
      </trkpt>
      <trkpt lat="43.64921" lon="3.69806">
        <ele>124.63</ele>
        <time>2016-05-22T07:30:03Z</time>
      </trkpt>
      <trkpt lat="43.6493" lon="3.69827">
        <ele>125.11</ele>
        <time>2016-05-22T07:30:11Z</time>
      </trkpt>
      <trkpt lat="43.64945" lon="3.6984">
        <ele>125.11</ele>
        <time>2016-05-22T07:30:19Z</time>
      </trkpt>
      <trkpt lat="43.64952" lon="3.6984">
        <ele>124.63</ele>
        <time>2016-05-22T07:30:20Z</time>
      </trkpt>
      <trkpt lat="43.64959" lon="3.69839">
        <ele>123.67</ele>
        <time>2016-05-22T07:30:21Z</time>
      </trkpt>
      <trkpt lat="43.64964" lon="3.69836">
        <ele>123.19</ele>
        <time>2016-05-22T07:30:22Z</time>
      </trkpt>
      <trkpt lat="43.64971" lon="3.6983">
        <ele>122.71</ele>
        <time>2016-05-22T07:30:23Z</time>
      </trkpt>
      <trkpt lat="43.64977" lon="3.69824">
        <ele>122.22</ele>
        <time>2016-05-22T07:30:24Z</time>
      </trkpt>
      <trkpt lat="43.64991" lon="3.69812">
        <ele>122.22</ele>
        <time>2016-05-22T07:30:26Z</time>
      </trkpt>
      <trkpt lat="43.64998" lon="3.69806">
        <ele>122.22</ele>
        <time>2016-05-22T07:30:27Z</time>
      </trkpt>
      <trkpt lat="43.6506" lon="3.69757">
        <ele>122.71</ele>
        <time>2016-05-22T07:30:38Z</time>
      </trkpt>
      <trkpt lat="43.65093" lon="3.6973">
        <ele>126.55</ele>
        <time>2016-05-22T07:30:44Z</time>
      </trkpt>
      <trkpt lat="43.65104" lon="3.69722">
        <ele>129.92</ele>
        <time>2016-05-22T07:30:46Z</time>
      </trkpt>
      <trkpt lat="43.65126" lon="3.69714">
        <ele>132.8</ele>
        <time>2016-05-22T07:30:50Z</time>
      </trkpt>
      <trkpt lat="43.65132" lon="3.69714">
        <ele>132.32</ele>
        <time>2016-05-22T07:30:51Z</time>
      </trkpt>
      <trkpt lat="43.65204" lon="3.69748">
        <ele>127.51</ele>
        <time>2016-05-22T07:31:01Z</time>
      </trkpt>
      <trkpt lat="43.6525" lon="3.69776">
        <ele>126.55</ele>
        <time>2016-05-22T07:31:09Z</time>
      </trkpt>
      <trkpt lat="43.65309" lon="3.69815">
        <ele>122.22</ele>
        <time>2016-05-22T07:31:17Z</time>
      </trkpt>
      <trkpt lat="43.65349" lon="3.69842">
        <ele>120.3</ele>
        <time>2016-05-22T07:31:24Z</time>
      </trkpt>
      <trkpt lat="43.65375" lon="3.69862">
        <ele>118.86</ele>
        <time>2016-05-22T07:31:28Z</time>
      </trkpt>
      <trkpt lat="43.65379" lon="3.6987">
        <ele>118.38</ele>
        <time>2016-05-22T07:31:29Z</time>
      </trkpt>
      <trkpt lat="43.65381" lon="3.69882">
        <ele>118.38</ele>
        <time>2016-05-22T07:31:30Z</time>
      </trkpt>
      <trkpt lat="43.65381" lon="3.69894">
        <ele>118.38</ele>
        <time>2016-05-22T07:31:31Z</time>
      </trkpt>
      <trkpt lat="43.6538" lon="3.69906">
        <ele>117.9</ele>
        <time>2016-05-22T07:31:32Z</time>
      </trkpt>
      <trkpt lat="43.65378" lon="3.69931">
        <ele>117.42</ele>
        <time>2016-05-22T07:31:34Z</time>
      </trkpt>
      <trkpt lat="43.65379" lon="3.69942">
        <ele>117.42</ele>
        <time>2016-05-22T07:31:35Z</time>
      </trkpt>
      <trkpt lat="43.65381" lon="3.69954">
        <ele>116.94</ele>
        <time>2016-05-22T07:31:36Z</time>
      </trkpt>
      <trkpt lat="43.65384" lon="3.69965">
        <ele>116.94</ele>
        <time>2016-05-22T07:31:37Z</time>
      </trkpt>
      <trkpt lat="43.65389" lon="3.69978">
        <ele>116.46</ele>
        <time>2016-05-22T07:31:38Z</time>
      </trkpt>
      <trkpt lat="43.65394" lon="3.6999">
        <ele>115.98</ele>
        <time>2016-05-22T07:31:39Z</time>
      </trkpt>
      <trkpt lat="43.65402" lon="3.70002">
        <ele>115.5</ele>
        <time>2016-05-22T07:31:40Z</time>
      </trkpt>
      <trkpt lat="43.6541" lon="3.70014">
        <ele>115.01</ele>
        <time>2016-05-22T07:31:41Z</time>
      </trkpt>
      <trkpt lat="43.65431" lon="3.70052">
        <ele>113.57</ele>
        <time>2016-05-22T07:31:44Z</time>
      </trkpt>
      <trkpt lat="43.65437" lon="3.70067">
        <ele>113.57</ele>
        <time>2016-05-22T07:31:45Z</time>
      </trkpt>
      <trkpt lat="43.65456" lon="3.70111">
        <ele>112.61</ele>
        <time>2016-05-22T07:31:48Z</time>
      </trkpt>
      <trkpt lat="43.65464" lon="3.70125">
        <ele>112.61</ele>
        <time>2016-05-22T07:31:49Z</time>
      </trkpt>
      <trkpt lat="43.65528" lon="3.7021">
        <ele>108.77</ele>
        <time>2016-05-22T07:31:55Z</time>
      </trkpt>
      <trkpt lat="43.65542" lon="3.70222">
        <ele>108.77</ele>
        <time>2016-05-22T07:31:56Z</time>
      </trkpt>
      <trkpt lat="43.65573" lon="3.7025">
        <ele>108.77</ele>
        <time>2016-05-22T07:31:58Z</time>
      </trkpt>
      <trkpt lat="43.65587" lon="3.70268">
        <ele>109.25</ele>
        <time>2016-05-22T07:31:59Z</time>
      </trkpt>
      <trkpt lat="43.656" lon="3.70287">
        <ele>109.73</ele>
        <time>2016-05-22T07:32:00Z</time>
      </trkpt>
      <trkpt lat="43.6561" lon="3.70306">
        <ele>110.69</ele>
        <time>2016-05-22T07:32:01Z</time>
      </trkpt>
      <trkpt lat="43.65617" lon="3.70325">
        <ele>111.17</ele>
        <time>2016-05-22T07:32:02Z</time>
      </trkpt>
      <trkpt lat="43.65624" lon="3.70343">
        <ele>112.13</ele>
        <time>2016-05-22T07:32:03Z</time>
      </trkpt>
      <trkpt lat="43.65639" lon="3.7038">
        <ele>113.09</ele>
        <time>2016-05-22T07:32:05Z</time>
      </trkpt>
      <trkpt lat="43.6565" lon="3.70398">
        <ele>113.57</ele>
        <time>2016-05-22T07:32:06Z</time>
      </trkpt>
      <trkpt lat="43.65663" lon="3.70414">
        <ele>114.05</ele>
        <time>2016-05-22T07:32:07Z</time>
      </trkpt>
      <trkpt lat="43.65679" lon="3.70429">
        <ele>114.53</ele>
        <time>2016-05-22T07:32:08Z</time>
      </trkpt>
      <trkpt lat="43.65695" lon="3.70443">
        <ele>115.01</ele>
        <time>2016-05-22T07:32:09Z</time>
      </trkpt>
      <trkpt lat="43.65778" lon="3.70521">
        <ele>119.82</ele>
        <time>2016-05-22T07:32:14Z</time>
      </trkpt>
      <trkpt lat="43.65792" lon="3.70541">
        <ele>120.3</ele>
        <time>2016-05-22T07:32:15Z</time>
      </trkpt>
      <trkpt lat="43.6583" lon="3.70599">
        <ele>123.67</ele>
        <time>2016-05-22T07:32:18Z</time>
      </trkpt>
      <trkpt lat="43.65845" lon="3.70614">
        <ele>124.63</ele>
        <time>2016-05-22T07:32:19Z</time>
      </trkpt>
      <trkpt lat="43.65862" lon="3.70628">
        <ele>126.07</ele>
        <time>2016-05-22T07:32:20Z</time>
      </trkpt>
      <trkpt lat="43.6594" lon="3.7069">
        <ele>128.95</ele>
        <time>2016-05-22T07:32:25Z</time>
      </trkpt>
      <trkpt lat="43.65951" lon="3.70707">
        <ele>128.95</ele>
        <time>2016-05-22T07:32:26Z</time>
      </trkpt>
      <trkpt lat="43.6596" lon="3.70727">
        <ele>129.43</ele>
        <time>2016-05-22T07:32:27Z</time>
      </trkpt>
      <trkpt lat="43.65981" lon="3.70767">
        <ele>129.92</ele>
        <time>2016-05-22T07:32:29Z</time>
      </trkpt>
      <trkpt lat="43.65995" lon="3.70784">
        <ele>130.4</ele>
        <time>2016-05-22T07:32:30Z</time>
      </trkpt>
      <trkpt lat="43.66011" lon="3.70799">
        <ele>130.4</ele>
        <time>2016-05-22T07:32:31Z</time>
      </trkpt>
      <trkpt lat="43.66028" lon="3.70813">
        <ele>130.4</ele>
        <time>2016-05-22T07:32:32Z</time>
      </trkpt>
      <trkpt lat="43.66047" lon="3.70825">
        <ele>129.92</ele>
        <time>2016-05-22T07:32:33Z</time>
      </trkpt>
      <trkpt lat="43.66163" lon="3.70887">
        <ele>126.55</ele>
        <time>2016-05-22T07:32:40Z</time>
      </trkpt>
      <trkpt lat="43.66284" lon="3.70949">
        <ele>127.03</ele>
        <time>2016-05-22T07:32:48Z</time>
      </trkpt>
      <trkpt lat="43.66362" lon="3.71016">
        <ele>129.43</ele>
        <time>2016-05-22T07:32:55Z</time>
      </trkpt>
      <trkpt lat="43.66411" lon="3.71106">
        <ele>131.84</ele>
        <time>2016-05-22T07:33:04Z</time>
      </trkpt>
      <trkpt lat="43.66468" lon="3.71239">
        <ele>131.36</ele>
        <time>2016-05-22T07:33:16Z</time>
      </trkpt>
      <trkpt lat="43.66545" lon="3.71316">
        <ele>127.51</ele>
        <time>2016-05-22T07:33:25Z</time>
      </trkpt>
      <trkpt lat="43.66663" lon="3.71414">
        <ele>122.22</ele>
        <time>2016-05-22T07:33:37Z</time>
      </trkpt>
      <trkpt lat="43.66761" lon="3.71467">
        <ele>122.22</ele>
        <time>2016-05-22T07:33:46Z</time>
      </trkpt>
      <trkpt lat="43.66862" lon="3.71531">
        <ele>125.11</ele>
        <time>2016-05-22T07:33:57Z</time>
      </trkpt>
      <trkpt lat="43.66876" lon="3.71543">
        <ele>125.59</ele>
        <time>2016-05-22T07:33:59Z</time>
      </trkpt>
      <trkpt lat="43.66882" lon="3.7155">
        <ele>125.59</ele>
        <time>2016-05-22T07:34:00Z</time>
      </trkpt>
      <trkpt lat="43.66888" lon="3.71559">
        <ele>125.59</ele>
        <time>2016-05-22T07:34:01Z</time>
      </trkpt>
      <trkpt lat="43.66896" lon="3.71566">
        <ele>126.07</ele>
        <time>2016-05-22T07:34:02Z</time>
      </trkpt>
      <trkpt lat="43.66905" lon="3.7157">
        <ele>126.07</ele>
        <time>2016-05-22T07:34:03Z</time>
      </trkpt>
      <trkpt lat="43.66916" lon="3.71574">
        <ele>126.55</ele>
        <time>2016-05-22T07:34:04Z</time>
      </trkpt>
      <trkpt lat="43.67012" lon="3.71625">
        <ele>128.95</ele>
        <time>2016-05-22T07:34:12Z</time>
      </trkpt>
      <trkpt lat="43.67065" lon="3.71661">
        <ele>132.8</ele>
        <time>2016-05-22T07:34:19Z</time>
      </trkpt>
      <trkpt lat="43.67128" lon="3.71705">
        <ele>137.61</ele>
        <time>2016-05-22T07:34:26Z</time>
      </trkpt>
      <trkpt lat="43.67166" lon="3.71732">
        <ele>141.45</ele>
        <time>2016-05-22T07:34:33Z</time>
      </trkpt>
      <trkpt lat="43.67165" lon="3.7173">
        <ele>146.26</ele>
        <time>2016-05-22T07:34:44Z</time>
      </trkpt>
      <trkpt lat="43.6716" lon="3.71716">
        <ele>163.56</ele>
        <time>2016-05-22T07:35:01Z</time>
      </trkpt>
      <trkpt lat="43.67161" lon="3.71719">
        <ele>160.2</ele>
        <time>2016-05-22T07:35:34Z</time>
      </trkpt>
      <trkpt lat="43.67182" lon="3.71738">
        <ele>151.06</ele>
        <time>2016-05-22T07:35:41Z</time>
      </trkpt>
      <trkpt lat="43.67188" lon="3.7174">
        <ele>150.1</ele>
        <time>2016-05-22T07:35:42Z</time>
      </trkpt>
      <trkpt lat="43.67193" lon="3.71741">
        <ele>149.14</ele>
        <time>2016-05-22T07:35:43Z</time>
      </trkpt>
      <trkpt lat="43.67199" lon="3.71745">
        <ele>148.66</ele>
        <time>2016-05-22T07:35:44Z</time>
      </trkpt>
      <trkpt lat="43.67205" lon="3.71751">
        <ele>148.18</ele>
        <time>2016-05-22T07:35:45Z</time>
      </trkpt>
      <trkpt lat="43.6721" lon="3.7176">
        <ele>148.18</ele>
        <time>2016-05-22T07:35:46Z</time>
      </trkpt>
      <trkpt lat="43.67215" lon="3.71769">
        <ele>148.18</ele>
        <time>2016-05-22T07:35:47Z</time>
      </trkpt>
      <trkpt lat="43.67225" lon="3.71785">
        <ele>148.66</ele>
        <time>2016-05-22T07:35:49Z</time>
      </trkpt>
      <trkpt lat="43.67231" lon="3.71791">
        <ele>148.66</ele>
        <time>2016-05-22T07:35:50Z</time>
      </trkpt>
      <trkpt lat="43.67237" lon="3.71795">
        <ele>148.66</ele>
        <time>2016-05-22T07:35:51Z</time>
      </trkpt>
      <trkpt lat="43.67241" lon="3.71796">
        <ele>149.14</ele>
        <time>2016-05-22T07:35:52Z</time>
      </trkpt>
      <trkpt lat="43.67244" lon="3.71797">
        <ele>149.62</ele>
        <time>2016-05-22T07:35:53Z</time>
      </trkpt>
      <trkpt lat="43.67246" lon="3.71799">
        <ele>149.62</ele>
        <time>2016-05-22T07:35:54Z</time>
      </trkpt>
      <trkpt lat="43.6725" lon="3.71802">
        <ele>150.58</ele>
        <time>2016-05-22T07:35:55Z</time>
      </trkpt>
      <trkpt lat="43.67253" lon="3.71808">
        <ele>150.1</ele>
        <time>2016-05-22T07:35:56Z</time>
      </trkpt>
      <trkpt lat="43.67258" lon="3.71814">
        <ele>150.1</ele>
        <time>2016-05-22T07:35:57Z</time>
      </trkpt>
      <trkpt lat="43.6727" lon="3.71828">
        <ele>149.14</ele>
        <time>2016-05-22T07:36:00Z</time>
      </trkpt>
      <trkpt lat="43.67274" lon="3.71831">
        <ele>149.14</ele>
        <time>2016-05-22T07:36:01Z</time>
      </trkpt>
      <trkpt lat="43.67281" lon="3.71831">
        <ele>148.66</ele>
        <time>2016-05-22T07:36:02Z</time>
      </trkpt>
      <trkpt lat="43.67288" lon="3.7183">
        <ele>148.66</ele>
        <time>2016-05-22T07:36:03Z</time>
      </trkpt>
      <trkpt lat="43.67297" lon="3.71827">
        <ele>148.66</ele>
        <time>2016-05-22T07:36:04Z</time>
      </trkpt>
      <trkpt lat="43.67381" lon="3.71803">
        <ele>149.14</ele>
        <time>2016-05-22T07:36:12Z</time>
      </trkpt>
      <trkpt lat="43.67391" lon="3.71805">
        <ele>149.14</ele>
        <time>2016-05-22T07:36:13Z</time>
      </trkpt>
      <trkpt lat="43.67399" lon="3.71819">
        <ele>149.14</ele>
        <time>2016-05-22T07:36:14Z</time>
      </trkpt>
      <trkpt lat="43.67407" lon="3.7183">
        <ele>149.14</ele>
        <time>2016-05-22T07:36:15Z</time>
      </trkpt>
      <trkpt lat="43.67407" lon="3.71845">
        <ele>149.62</ele>
        <time>2016-05-22T07:36:16Z</time>
      </trkpt>
      <trkpt lat="43.67408" lon="3.7186">
        <ele>149.62</ele>
        <time>2016-05-22T07:36:17Z</time>
      </trkpt>
      <trkpt lat="43.67411" lon="3.71876">
        <ele>150.1</ele>
        <time>2016-05-22T07:36:18Z</time>
      </trkpt>
      <trkpt lat="43.67416" lon="3.71891">
        <ele>150.58</ele>
        <time>2016-05-22T07:36:19Z</time>
      </trkpt>
      <trkpt lat="43.67422" lon="3.71904">
        <ele>151.54</ele>
        <time>2016-05-22T07:36:20Z</time>
      </trkpt>
      <trkpt lat="43.67431" lon="3.71915">
        <ele>152.51</ele>
        <time>2016-05-22T07:36:21Z</time>
      </trkpt>
      <trkpt lat="43.67441" lon="3.71926">
        <ele>153.47</ele>
        <time>2016-05-22T07:36:22Z</time>
      </trkpt>
      <trkpt lat="43.67516" lon="3.72004">
        <ele>159.72</ele>
        <time>2016-05-22T07:36:29Z</time>
      </trkpt>
      <trkpt lat="43.67527" lon="3.72005">
        <ele>159.72</ele>
        <time>2016-05-22T07:36:30Z</time>
      </trkpt>
      <trkpt lat="43.67539" lon="3.72">
        <ele>159.72</ele>
        <time>2016-05-22T07:36:31Z</time>
      </trkpt>
      <trkpt lat="43.67551" lon="3.71992">
        <ele>159.72</ele>
        <time>2016-05-22T07:36:32Z</time>
      </trkpt>
      <trkpt lat="43.67563" lon="3.71979">
        <ele>159.72</ele>
        <time>2016-05-22T07:36:33Z</time>
      </trkpt>
      <trkpt lat="43.67575" lon="3.71966">
        <ele>159.24</ele>
        <time>2016-05-22T07:36:34Z</time>
      </trkpt>
      <trkpt lat="43.67588" lon="3.71953">
        <ele>158.75</ele>
        <time>2016-05-22T07:36:35Z</time>
      </trkpt>
      <trkpt lat="43.67692" lon="3.71829">
        <ele>155.87</ele>
        <time>2016-05-22T07:36:44Z</time>
      </trkpt>
      <trkpt lat="43.67705" lon="3.71822">
        <ele>155.39</ele>
        <time>2016-05-22T07:36:45Z</time>
      </trkpt>
      <trkpt lat="43.67718" lon="3.71815">
        <ele>155.39</ele>
        <time>2016-05-22T07:36:46Z</time>
      </trkpt>
      <trkpt lat="43.67731" lon="3.71821">
        <ele>154.43</ele>
        <time>2016-05-22T07:36:47Z</time>
      </trkpt>
      <trkpt lat="43.67743" lon="3.71829">
        <ele>154.43</ele>
        <time>2016-05-22T07:36:48Z</time>
      </trkpt>
      <trkpt lat="43.67753" lon="3.71844">
        <ele>153.95</ele>
        <time>2016-05-22T07:36:49Z</time>
      </trkpt>
      <trkpt lat="43.67762" lon="3.71859">
        <ele>154.43</ele>
        <time>2016-05-22T07:36:50Z</time>
      </trkpt>
      <trkpt lat="43.6777" lon="3.71875">
        <ele>155.39</ele>
        <time>2016-05-22T07:36:51Z</time>
      </trkpt>
      <trkpt lat="43.67802" lon="3.71927">
        <ele>159.24</ele>
        <time>2016-05-22T07:36:55Z</time>
      </trkpt>
      <trkpt lat="43.67812" lon="3.71936">
        <ele>159.72</ele>
        <time>2016-05-22T07:36:56Z</time>
      </trkpt>
      <trkpt lat="43.67823" lon="3.71943">
        <ele>160.2</ele>
        <time>2016-05-22T07:36:57Z</time>
      </trkpt>
      <trkpt lat="43.67836" lon="3.71946">
        <ele>160.2</ele>
        <time>2016-05-22T07:36:58Z</time>
      </trkpt>
      <trkpt lat="43.67849" lon="3.71948">
        <ele>160.2</ele>
        <time>2016-05-22T07:36:59Z</time>
      </trkpt>
      <trkpt lat="43.67862" lon="3.7195">
        <ele>160.68</ele>
        <time>2016-05-22T07:37:00Z</time>
      </trkpt>
      <trkpt lat="43.67876" lon="3.71953">
        <ele>161.16</ele>
        <time>2016-05-22T07:37:01Z</time>
      </trkpt>
      <trkpt lat="43.67888" lon="3.71959">
        <ele>161.64</ele>
        <time>2016-05-22T07:37:02Z</time>
      </trkpt>
      <trkpt lat="43.67899" lon="3.71967">
        <ele>162.12</ele>
        <time>2016-05-22T07:37:03Z</time>
      </trkpt>
      <trkpt lat="43.67911" lon="3.71979">
        <ele>162.6</ele>
        <time>2016-05-22T07:37:04Z</time>
      </trkpt>
      <trkpt lat="43.67923" lon="3.71991">
        <ele>163.08</ele>
        <time>2016-05-22T07:37:05Z</time>
      </trkpt>
      <trkpt lat="43.67949" lon="3.72013">
        <ele>163.56</ele>
        <time>2016-05-22T07:37:07Z</time>
      </trkpt>
      <trkpt lat="43.67963" lon="3.72022">
        <ele>164.04</ele>
        <time>2016-05-22T07:37:08Z</time>
      </trkpt>
      <trkpt lat="43.68016" lon="3.72054">
        <ele>167.41</ele>
        <time>2016-05-22T07:37:12Z</time>
      </trkpt>
      <trkpt lat="43.68025" lon="3.72063">
        <ele>168.37</ele>
        <time>2016-05-22T07:37:13Z</time>
      </trkpt>
      <trkpt lat="43.68042" lon="3.72081">
        <ele>170.29</ele>
        <time>2016-05-22T07:37:15Z</time>
      </trkpt>
      <trkpt lat="43.68053" lon="3.72087">
        <ele>171.25</ele>
        <time>2016-05-22T07:37:16Z</time>
      </trkpt>
      <trkpt lat="43.68064" lon="3.72091">
        <ele>171.25</ele>
        <time>2016-05-22T07:37:17Z</time>
      </trkpt>
      <trkpt lat="43.68077" lon="3.72094">
        <ele>171.73</ele>
        <time>2016-05-22T07:37:18Z</time>
      </trkpt>
      <trkpt lat="43.68091" lon="3.72097">
        <ele>171.25</ele>
        <time>2016-05-22T07:37:19Z</time>
      </trkpt>
      <trkpt lat="43.68162" lon="3.72106">
        <ele>168.85</ele>
        <time>2016-05-22T07:37:24Z</time>
      </trkpt>
      <trkpt lat="43.68177" lon="3.72111">
        <ele>168.37</ele>
        <time>2016-05-22T07:37:25Z</time>
      </trkpt>
      <trkpt lat="43.68281" lon="3.72155">
        <ele>166.93</ele>
        <time>2016-05-22T07:37:32Z</time>
      </trkpt>
      <trkpt lat="43.68404" lon="3.72168">
        <ele>165</ele>
        <time>2016-05-22T07:37:40Z</time>
      </trkpt>
      <trkpt lat="43.68479" lon="3.72186">
        <ele>167.89</ele>
        <time>2016-05-22T07:37:46Z</time>
      </trkpt>
      <trkpt lat="43.68489" lon="3.72185">
        <ele>167.89</ele>
        <time>2016-05-22T07:37:47Z</time>
      </trkpt>
      <trkpt lat="43.68499" lon="3.72182">
        <ele>168.37</ele>
        <time>2016-05-22T07:37:48Z</time>
      </trkpt>
      <trkpt lat="43.68511" lon="3.72175">
        <ele>168.37</ele>
        <time>2016-05-22T07:37:49Z</time>
      </trkpt>
      <trkpt lat="43.68523" lon="3.72168">
        <ele>168.37</ele>
        <time>2016-05-22T07:37:50Z</time>
      </trkpt>
      <trkpt lat="43.68536" lon="3.72163">
        <ele>168.85</ele>
        <time>2016-05-22T07:37:51Z</time>
      </trkpt>
      <trkpt lat="43.6855" lon="3.72163">
        <ele>168.85</ele>
        <time>2016-05-22T07:37:52Z</time>
      </trkpt>
      <trkpt lat="43.68563" lon="3.72166">
        <ele>168.85</ele>
        <time>2016-05-22T07:37:53Z</time>
      </trkpt>
      <trkpt lat="43.68577" lon="3.7217">
        <ele>167.89</ele>
        <time>2016-05-22T07:37:54Z</time>
      </trkpt>
      <trkpt lat="43.68591" lon="3.72173">
        <ele>167.89</ele>
        <time>2016-05-22T07:37:55Z</time>
      </trkpt>
      <trkpt lat="43.68605" lon="3.72174">
        <ele>167.89</ele>
        <time>2016-05-22T07:37:56Z</time>
      </trkpt>
      <trkpt lat="43.68635" lon="3.72175">
        <ele>167.41</ele>
        <time>2016-05-22T07:37:58Z</time>
      </trkpt>
      <trkpt lat="43.6865" lon="3.72174">
        <ele>167.89</ele>
        <time>2016-05-22T07:37:59Z</time>
      </trkpt>
      <trkpt lat="43.6872" lon="3.72169">
        <ele>169.81</ele>
        <time>2016-05-22T07:38:04Z</time>
      </trkpt>
      <trkpt lat="43.68731" lon="3.72161">
        <ele>170.29</ele>
        <time>2016-05-22T07:38:05Z</time>
      </trkpt>
      <trkpt lat="43.68742" lon="3.72152">
        <ele>170.77</ele>
        <time>2016-05-22T07:38:06Z</time>
      </trkpt>
      <trkpt lat="43.68754" lon="3.72142">
        <ele>169.81</ele>
        <time>2016-05-22T07:38:07Z</time>
      </trkpt>
      <trkpt lat="43.68768" lon="3.72134">
        <ele>169.33</ele>
        <time>2016-05-22T07:38:08Z</time>
      </trkpt>
      <trkpt lat="43.68783" lon="3.72127">
        <ele>168.85</ele>
        <time>2016-05-22T07:38:09Z</time>
      </trkpt>
      <trkpt lat="43.68869" lon="3.72081">
        <ele>166.93</ele>
        <time>2016-05-22T07:38:15Z</time>
      </trkpt>
      <trkpt lat="43.68884" lon="3.72077">
        <ele>166.45</ele>
        <time>2016-05-22T07:38:16Z</time>
      </trkpt>
      <trkpt lat="43.68912" lon="3.72072">
        <ele>165.48</ele>
        <time>2016-05-22T07:38:18Z</time>
      </trkpt>
      <trkpt lat="43.68925" lon="3.72067">
        <ele>165</ele>
        <time>2016-05-22T07:38:19Z</time>
      </trkpt>
      <trkpt lat="43.68938" lon="3.72058">
        <ele>164.52</ele>
        <time>2016-05-22T07:38:20Z</time>
      </trkpt>
      <trkpt lat="43.68949" lon="3.72047">
        <ele>164.52</ele>
        <time>2016-05-22T07:38:21Z</time>
      </trkpt>
      <trkpt lat="43.6896" lon="3.72037">
        <ele>165</ele>
        <time>2016-05-22T07:38:22Z</time>
      </trkpt>
      <trkpt lat="43.6897" lon="3.72029">
        <ele>165</ele>
        <time>2016-05-22T07:38:23Z</time>
      </trkpt>
      <trkpt lat="43.68982" lon="3.72026">
        <ele>165.48</ele>
        <time>2016-05-22T07:38:24Z</time>
      </trkpt>
      <trkpt lat="43.68996" lon="3.72026">
        <ele>165</ele>
        <time>2016-05-22T07:38:25Z</time>
      </trkpt>
      <trkpt lat="43.6901" lon="3.72024">
        <ele>164.52</ele>
        <time>2016-05-22T07:38:26Z</time>
      </trkpt>
      <trkpt lat="43.69024" lon="3.72019">
        <ele>164.04</ele>
        <time>2016-05-22T07:38:27Z</time>
      </trkpt>
      <trkpt lat="43.69039" lon="3.72014">
        <ele>164.04</ele>
        <time>2016-05-22T07:38:28Z</time>
      </trkpt>
      <trkpt lat="43.69053" lon="3.7201">
        <ele>164.52</ele>
        <time>2016-05-22T07:38:29Z</time>
      </trkpt>
      <trkpt lat="43.69092" lon="3.71998">
        <ele>165</ele>
        <time>2016-05-22T07:38:32Z</time>
      </trkpt>
      <trkpt lat="43.69113" lon="3.71989">
        <ele>165.48</ele>
        <time>2016-05-22T07:38:34Z</time>
      </trkpt>
      <trkpt lat="43.69125" lon="3.71991">
        <ele>165.48</ele>
        <time>2016-05-22T07:38:35Z</time>
      </trkpt>
      <trkpt lat="43.69137" lon="3.71995">
        <ele>165.48</ele>
        <time>2016-05-22T07:38:36Z</time>
      </trkpt>
      <trkpt lat="43.6915" lon="3.71997">
        <ele>165</ele>
        <time>2016-05-22T07:38:37Z</time>
      </trkpt>
      <trkpt lat="43.69162" lon="3.71998">
        <ele>164.52</ele>
        <time>2016-05-22T07:38:38Z</time>
      </trkpt>
      <trkpt lat="43.69175" lon="3.71997">
        <ele>164.52</ele>
        <time>2016-05-22T07:38:39Z</time>
      </trkpt>
      <trkpt lat="43.69187" lon="3.71993">
        <ele>164.04</ele>
        <time>2016-05-22T07:38:40Z</time>
      </trkpt>
      <trkpt lat="43.69197" lon="3.71983">
        <ele>163.56</ele>
        <time>2016-05-22T07:38:41Z</time>
      </trkpt>
      <trkpt lat="43.69203" lon="3.71969">
        <ele>163.56</ele>
        <time>2016-05-22T07:38:42Z</time>
      </trkpt>
      <trkpt lat="43.69208" lon="3.71954">
        <ele>163.56</ele>
        <time>2016-05-22T07:38:43Z</time>
      </trkpt>
      <trkpt lat="43.69211" lon="3.71937">
        <ele>163.56</ele>
        <time>2016-05-22T07:38:44Z</time>
      </trkpt>
      <trkpt lat="43.69213" lon="3.71921">
        <ele>163.08</ele>
        <time>2016-05-22T07:38:45Z</time>
      </trkpt>
      <trkpt lat="43.69218" lon="3.71906">
        <ele>162.6</ele>
        <time>2016-05-22T07:38:46Z</time>
      </trkpt>
      <trkpt lat="43.69224" lon="3.71896">
        <ele>163.08</ele>
        <time>2016-05-22T07:38:47Z</time>
      </trkpt>
      <trkpt lat="43.69234" lon="3.71893">
        <ele>163.56</ele>
        <time>2016-05-22T07:38:48Z</time>
      </trkpt>
      <trkpt lat="43.69246" lon="3.71894">
        <ele>162.12</ele>
        <time>2016-05-22T07:38:49Z</time>
      </trkpt>
      <trkpt lat="43.69257" lon="3.71893">
        <ele>162.12</ele>
        <time>2016-05-22T07:38:50Z</time>
      </trkpt>
      <trkpt lat="43.69269" lon="3.7189">
        <ele>161.16</ele>
        <time>2016-05-22T07:38:51Z</time>
      </trkpt>
      <trkpt lat="43.6928" lon="3.71883">
        <ele>160.68</ele>
        <time>2016-05-22T07:38:52Z</time>
      </trkpt>
      <trkpt lat="43.6929" lon="3.71873">
        <ele>160.2</ele>
        <time>2016-05-22T07:38:53Z</time>
      </trkpt>
      <trkpt lat="43.69301" lon="3.71862">
        <ele>159.24</ele>
        <time>2016-05-22T07:38:54Z</time>
      </trkpt>
      <trkpt lat="43.69313" lon="3.71851">
        <ele>157.79</ele>
        <time>2016-05-22T07:38:55Z</time>
      </trkpt>
      <trkpt lat="43.69348" lon="3.71825">
        <ele>156.35</ele>
        <time>2016-05-22T07:38:58Z</time>
      </trkpt>
      <trkpt lat="43.69361" lon="3.7182">
        <ele>155.87</ele>
        <time>2016-05-22T07:38:59Z</time>
      </trkpt>
      <trkpt lat="43.69372" lon="3.71814">
        <ele>155.39</ele>
        <time>2016-05-22T07:39:00Z</time>
      </trkpt>
      <trkpt lat="43.69384" lon="3.71808">
        <ele>154.91</ele>
        <time>2016-05-22T07:39:01Z</time>
      </trkpt>
      <trkpt lat="43.69395" lon="3.71802">
        <ele>154.43</ele>
        <time>2016-05-22T07:39:02Z</time>
      </trkpt>
      <trkpt lat="43.69406" lon="3.71797">
        <ele>154.43</ele>
        <time>2016-05-22T07:39:03Z</time>
      </trkpt>
      <trkpt lat="43.69419" lon="3.71794">
        <ele>153.95</ele>
        <time>2016-05-22T07:39:04Z</time>
      </trkpt>
      <trkpt lat="43.69431" lon="3.71795">
        <ele>153.47</ele>
        <time>2016-05-22T07:39:05Z</time>
      </trkpt>
      <trkpt lat="43.69444" lon="3.71799">
        <ele>153.47</ele>
        <time>2016-05-22T07:39:06Z</time>
      </trkpt>
      <trkpt lat="43.69456" lon="3.71803">
        <ele>152.51</ele>
        <time>2016-05-22T07:39:07Z</time>
      </trkpt>
      <trkpt lat="43.69488" lon="3.71806">
        <ele>150.58</ele>
        <time>2016-05-22T07:39:10Z</time>
      </trkpt>
      <trkpt lat="43.69496" lon="3.71799">
        <ele>150.1</ele>
        <time>2016-05-22T07:39:11Z</time>
      </trkpt>
      <trkpt lat="43.69502" lon="3.71789">
        <ele>149.14</ele>
        <time>2016-05-22T07:39:12Z</time>
      </trkpt>
      <trkpt lat="43.69506" lon="3.71776">
        <ele>148.66</ele>
        <time>2016-05-22T07:39:13Z</time>
      </trkpt>
      <trkpt lat="43.69513" lon="3.71765">
        <ele>148.18</ele>
        <time>2016-05-22T07:39:14Z</time>
      </trkpt>
      <trkpt lat="43.69523" lon="3.71757">
        <ele>148.66</ele>
        <time>2016-05-22T07:39:15Z</time>
      </trkpt>
      <trkpt lat="43.69535" lon="3.71751">
        <ele>148.66</ele>
        <time>2016-05-22T07:39:16Z</time>
      </trkpt>
      <trkpt lat="43.69548" lon="3.71747">
        <ele>148.66</ele>
        <time>2016-05-22T07:39:17Z</time>
      </trkpt>
      <trkpt lat="43.6956" lon="3.71746">
        <ele>148.18</ele>
        <time>2016-05-22T07:39:18Z</time>
      </trkpt>
      <trkpt lat="43.69573" lon="3.71743">
        <ele>147.7</ele>
        <time>2016-05-22T07:39:19Z</time>
      </trkpt>
      <trkpt lat="43.69638" lon="3.71734">
        <ele>145.3</ele>
        <time>2016-05-22T07:39:24Z</time>
      </trkpt>
      <trkpt lat="43.69686" lon="3.71724">
        <ele>142.41</ele>
        <time>2016-05-22T07:39:28Z</time>
      </trkpt>
      <trkpt lat="43.69699" lon="3.71725">
        <ele>142.41</ele>
        <time>2016-05-22T07:39:29Z</time>
      </trkpt>
      <trkpt lat="43.69712" lon="3.71733">
        <ele>141.45</ele>
        <time>2016-05-22T07:39:30Z</time>
      </trkpt>
      <trkpt lat="43.69726" lon="3.71743">
        <ele>140.49</ele>
        <time>2016-05-22T07:39:31Z</time>
      </trkpt>
      <trkpt lat="43.69738" lon="3.71755">
        <ele>139.53</ele>
        <time>2016-05-22T07:39:32Z</time>
      </trkpt>
      <trkpt lat="43.6975" lon="3.71769">
        <ele>138.57</ele>
        <time>2016-05-22T07:39:33Z</time>
      </trkpt>
      <trkpt lat="43.6976" lon="3.71785">
        <ele>137.61</ele>
        <time>2016-05-22T07:39:34Z</time>
      </trkpt>
      <trkpt lat="43.6977" lon="3.71801">
        <ele>137.13</ele>
        <time>2016-05-22T07:39:35Z</time>
      </trkpt>
      <trkpt lat="43.6979" lon="3.71829">
        <ele>135.68</ele>
        <time>2016-05-22T07:39:37Z</time>
      </trkpt>
      <trkpt lat="43.69801" lon="3.71836">
        <ele>135.2</ele>
        <time>2016-05-22T07:39:38Z</time>
      </trkpt>
      <trkpt lat="43.69813" lon="3.71837">
        <ele>134.72</ele>
        <time>2016-05-22T07:39:39Z</time>
      </trkpt>
      <trkpt lat="43.69825" lon="3.71832">
        <ele>133.76</ele>
        <time>2016-05-22T07:39:40Z</time>
      </trkpt>
      <trkpt lat="43.69837" lon="3.71826">
        <ele>133.28</ele>
        <time>2016-05-22T07:39:41Z</time>
      </trkpt>
      <trkpt lat="43.6985" lon="3.7182">
        <ele>132.32</ele>
        <time>2016-05-22T07:39:42Z</time>
      </trkpt>
      <trkpt lat="43.69862" lon="3.71816">
        <ele>131.84</ele>
        <time>2016-05-22T07:39:43Z</time>
      </trkpt>
      <trkpt lat="43.69873" lon="3.71815">
        <ele>130.88</ele>
        <time>2016-05-22T07:39:44Z</time>
      </trkpt>
      <trkpt lat="43.69881" lon="3.71815">
        <ele>130.4</ele>
        <time>2016-05-22T07:39:45Z</time>
      </trkpt>
      <trkpt lat="43.69889" lon="3.71819">
        <ele>129.92</ele>
        <time>2016-05-22T07:39:46Z</time>
      </trkpt>
      <trkpt lat="43.69897" lon="3.71827">
        <ele>129.43</ele>
        <time>2016-05-22T07:39:47Z</time>
      </trkpt>
      <trkpt lat="43.69905" lon="3.71836">
        <ele>129.43</ele>
        <time>2016-05-22T07:39:48Z</time>
      </trkpt>
      <trkpt lat="43.69915" lon="3.71845">
        <ele>128.95</ele>
        <time>2016-05-22T07:39:49Z</time>
      </trkpt>
      <trkpt lat="43.69926" lon="3.71853">
        <ele>128.95</ele>
        <time>2016-05-22T07:39:50Z</time>
      </trkpt>
      <trkpt lat="43.69938" lon="3.71858">
        <ele>128.95</ele>
        <time>2016-05-22T07:39:51Z</time>
      </trkpt>
      <trkpt lat="43.69962" lon="3.71864">
        <ele>129.92</ele>
        <time>2016-05-22T07:39:53Z</time>
      </trkpt>
      <trkpt lat="43.69975" lon="3.71864">
        <ele>130.4</ele>
        <time>2016-05-22T07:39:54Z</time>
      </trkpt>
      <trkpt lat="43.69987" lon="3.71862">
        <ele>130.4</ele>
        <time>2016-05-22T07:39:55Z</time>
      </trkpt>
      <trkpt lat="43.69999" lon="3.71858">
        <ele>130.88</ele>
        <time>2016-05-22T07:39:56Z</time>
      </trkpt>
      <trkpt lat="43.70011" lon="3.71852">
        <ele>131.36</ele>
        <time>2016-05-22T07:39:57Z</time>
      </trkpt>
      <trkpt lat="43.70022" lon="3.71843">
        <ele>131.36</ele>
        <time>2016-05-22T07:39:58Z</time>
      </trkpt>
      <trkpt lat="43.70033" lon="3.71832">
        <ele>131.84</ele>
        <time>2016-05-22T07:39:59Z</time>
      </trkpt>
      <trkpt lat="43.70082" lon="3.71772">
        <ele>133.28</ele>
        <time>2016-05-22T07:40:04Z</time>
      </trkpt>
      <trkpt lat="43.70092" lon="3.71763">
        <ele>133.28</ele>
        <time>2016-05-22T07:40:05Z</time>
      </trkpt>
      <trkpt lat="43.70103" lon="3.71758">
        <ele>133.76</ele>
        <time>2016-05-22T07:40:06Z</time>
      </trkpt>
      <trkpt lat="43.70115" lon="3.71758">
        <ele>134.24</ele>
        <time>2016-05-22T07:40:07Z</time>
      </trkpt>
      <trkpt lat="43.70129" lon="3.71763">
        <ele>134.24</ele>
        <time>2016-05-22T07:40:08Z</time>
      </trkpt>
      <trkpt lat="43.70142" lon="3.71767">
        <ele>134.72</ele>
        <time>2016-05-22T07:40:09Z</time>
      </trkpt>
      <trkpt lat="43.7024" lon="3.71799">
        <ele>138.09</ele>
        <time>2016-05-22T07:40:17Z</time>
      </trkpt>
      <trkpt lat="43.70242" lon="3.71807">
        <ele>138.57</ele>
        <time>2016-05-22T07:40:18Z</time>
      </trkpt>
      <trkpt lat="43.70238" lon="3.71815">
        <ele>139.05</ele>
        <time>2016-05-22T07:40:19Z</time>
      </trkpt>
      <trkpt lat="43.70233" lon="3.71822">
        <ele>140.01</ele>
        <time>2016-05-22T07:40:20Z</time>
      </trkpt>
      <trkpt lat="43.70225" lon="3.71833">
        <ele>140.01</ele>
        <time>2016-05-22T07:40:21Z</time>
      </trkpt>
      <trkpt lat="43.70218" lon="3.71846">
        <ele>140.49</ele>
        <time>2016-05-22T07:40:22Z</time>
      </trkpt>
      <trkpt lat="43.70209" lon="3.71861">
        <ele>140.97</ele>
        <time>2016-05-22T07:40:23Z</time>
      </trkpt>
      <trkpt lat="43.70201" lon="3.71873">
        <ele>141.93</ele>
        <time>2016-05-22T07:40:24Z</time>
      </trkpt>
      <trkpt lat="43.70193" lon="3.71885">
        <ele>142.41</ele>
        <time>2016-05-22T07:40:25Z</time>
      </trkpt>
      <trkpt lat="43.70186" lon="3.71899">
        <ele>142.89</ele>
        <time>2016-05-22T07:40:26Z</time>
      </trkpt>
      <trkpt lat="43.7018" lon="3.71913">
        <ele>142.89</ele>
        <time>2016-05-22T07:40:27Z</time>
      </trkpt>
      <trkpt lat="43.70176" lon="3.71929">
        <ele>142.89</ele>
        <time>2016-05-22T07:40:28Z</time>
      </trkpt>
      <trkpt lat="43.70175" lon="3.71946">
        <ele>143.85</ele>
        <time>2016-05-22T07:40:29Z</time>
      </trkpt>
      <trkpt lat="43.70173" lon="3.71962">
        <ele>144.34</ele>
        <time>2016-05-22T07:40:30Z</time>
      </trkpt>
      <trkpt lat="43.70169" lon="3.71978">
        <ele>144.82</ele>
        <time>2016-05-22T07:40:31Z</time>
      </trkpt>
      <trkpt lat="43.70163" lon="3.71991">
        <ele>145.3</ele>
        <time>2016-05-22T07:40:32Z</time>
      </trkpt>
      <trkpt lat="43.70158" lon="3.72005">
        <ele>145.78</ele>
        <time>2016-05-22T07:40:33Z</time>
      </trkpt>
      <trkpt lat="43.70158" lon="3.72022">
        <ele>146.26</ele>
        <time>2016-05-22T07:40:34Z</time>
      </trkpt>
      <trkpt lat="43.7016" lon="3.72038">
        <ele>146.74</ele>
        <time>2016-05-22T07:40:35Z</time>
      </trkpt>
      <trkpt lat="43.70166" lon="3.72054">
        <ele>147.7</ele>
        <time>2016-05-22T07:40:36Z</time>
      </trkpt>
      <trkpt lat="43.70176" lon="3.72066">
        <ele>148.18</ele>
        <time>2016-05-22T07:40:37Z</time>
      </trkpt>
      <trkpt lat="43.70189" lon="3.72075">
        <ele>149.14</ele>
        <time>2016-05-22T07:40:38Z</time>
      </trkpt>
      <trkpt lat="43.70203" lon="3.72081">
        <ele>149.62</ele>
        <time>2016-05-22T07:40:39Z</time>
      </trkpt>
      <trkpt lat="43.70218" lon="3.72082">
        <ele>151.06</ele>
        <time>2016-05-22T07:40:40Z</time>
      </trkpt>
      <trkpt lat="43.70231" lon="3.72075">
        <ele>151.54</ele>
        <time>2016-05-22T07:40:41Z</time>
      </trkpt>
      <trkpt lat="43.70241" lon="3.72066">
        <ele>151.54</ele>
        <time>2016-05-22T07:40:42Z</time>
      </trkpt>
      <trkpt lat="43.70248" lon="3.7205">
        <ele>153.47</ele>
        <time>2016-05-22T07:40:43Z</time>
      </trkpt>
      <trkpt lat="43.70256" lon="3.72034">
        <ele>154.43</ele>
        <time>2016-05-22T07:40:44Z</time>
      </trkpt>
      <trkpt lat="43.70263" lon="3.72019">
        <ele>155.39</ele>
        <time>2016-05-22T07:40:45Z</time>
      </trkpt>
      <trkpt lat="43.70279" lon="3.71989">
        <ele>156.83</ele>
        <time>2016-05-22T07:40:47Z</time>
      </trkpt>
      <trkpt lat="43.70289" lon="3.71976">
        <ele>157.31</ele>
        <time>2016-05-22T07:40:48Z</time>
      </trkpt>
      <trkpt lat="43.70301" lon="3.71965">
        <ele>157.79</ele>
        <time>2016-05-22T07:40:49Z</time>
      </trkpt>
      <trkpt lat="43.70314" lon="3.71957">
        <ele>158.75</ele>
        <time>2016-05-22T07:40:50Z</time>
      </trkpt>
      <trkpt lat="43.70328" lon="3.7195">
        <ele>159.24</ele>
        <time>2016-05-22T07:40:51Z</time>
      </trkpt>
      <trkpt lat="43.70342" lon="3.71947">
        <ele>160.68</ele>
        <time>2016-05-22T07:40:52Z</time>
      </trkpt>
      <trkpt lat="43.70357" lon="3.71947">
        <ele>161.16</ele>
        <time>2016-05-22T07:40:53Z</time>
      </trkpt>
      <trkpt lat="43.70373" lon="3.71949">
        <ele>161.16</ele>
        <time>2016-05-22T07:40:54Z</time>
      </trkpt>
      <trkpt lat="43.70388" lon="3.71952">
        <ele>161.64</ele>
        <time>2016-05-22T07:40:55Z</time>
      </trkpt>
      <trkpt lat="43.70403" lon="3.71958">
        <ele>161.64</ele>
        <time>2016-05-22T07:40:56Z</time>
      </trkpt>
      <trkpt lat="43.70417" lon="3.71966">
        <ele>162.12</ele>
        <time>2016-05-22T07:40:57Z</time>
      </trkpt>
      <trkpt lat="43.70431" lon="3.71972">
        <ele>162.6</ele>
        <time>2016-05-22T07:40:58Z</time>
      </trkpt>
      <trkpt lat="43.70444" lon="3.71975">
        <ele>163.08</ele>
        <time>2016-05-22T07:40:59Z</time>
      </trkpt>
      <trkpt lat="43.70457" lon="3.71974">
        <ele>164.04</ele>
        <time>2016-05-22T07:41:00Z</time>
      </trkpt>
      <trkpt lat="43.70481" lon="3.71968">
        <ele>165</ele>
        <time>2016-05-22T07:41:02Z</time>
      </trkpt>
      <trkpt lat="43.70493" lon="3.71968">
        <ele>165</ele>
        <time>2016-05-22T07:41:03Z</time>
      </trkpt>
      <trkpt lat="43.70505" lon="3.7197">
        <ele>165.48</ele>
        <time>2016-05-22T07:41:04Z</time>
      </trkpt>
      <trkpt lat="43.70516" lon="3.71975">
        <ele>165</ele>
        <time>2016-05-22T07:41:05Z</time>
      </trkpt>
      <trkpt lat="43.70527" lon="3.71986">
        <ele>165</ele>
        <time>2016-05-22T07:41:06Z</time>
      </trkpt>
      <trkpt lat="43.70537" lon="3.71997">
        <ele>165.48</ele>
        <time>2016-05-22T07:41:07Z</time>
      </trkpt>
      <trkpt lat="43.70547" lon="3.7201">
        <ele>165.48</ele>
        <time>2016-05-22T07:41:08Z</time>
      </trkpt>
      <trkpt lat="43.70589" lon="3.72054">
        <ele>167.89</ele>
        <time>2016-05-22T07:41:12Z</time>
      </trkpt>
      <trkpt lat="43.706" lon="3.72061">
        <ele>168.37</ele>
        <time>2016-05-22T07:41:13Z</time>
      </trkpt>
      <trkpt lat="43.70611" lon="3.72068">
        <ele>168.85</ele>
        <time>2016-05-22T07:41:14Z</time>
      </trkpt>
      <trkpt lat="43.70704" lon="3.72126">
        <ele>170.77</ele>
        <time>2016-05-22T07:41:22Z</time>
      </trkpt>
      <trkpt lat="43.70715" lon="3.72136">
        <ele>170.77</ele>
        <time>2016-05-22T07:41:23Z</time>
      </trkpt>
      <trkpt lat="43.70749" lon="3.72162">
        <ele>172.21</ele>
        <time>2016-05-22T07:41:26Z</time>
      </trkpt>
      <trkpt lat="43.70871" lon="3.72243">
        <ele>177.02</ele>
        <time>2016-05-22T07:41:36Z</time>
      </trkpt>
      <trkpt lat="43.70985" lon="3.72317">
        <ele>181.83</ele>
        <time>2016-05-22T07:41:45Z</time>
      </trkpt>
      <trkpt lat="43.71" lon="3.7232">
        <ele>182.31</ele>
        <time>2016-05-22T07:41:46Z</time>
      </trkpt>
      <trkpt lat="43.71158" lon="3.7235">
        <ele>189.04</ele>
        <time>2016-05-22T07:41:57Z</time>
      </trkpt>
      <trkpt lat="43.71203" lon="3.72365">
        <ele>191.92</ele>
        <time>2016-05-22T07:42:01Z</time>
      </trkpt>
      <trkpt lat="43.71214" lon="3.72365">
        <ele>192.4</ele>
        <time>2016-05-22T07:42:02Z</time>
      </trkpt>
      <trkpt lat="43.71224" lon="3.72363">
        <ele>192.88</ele>
        <time>2016-05-22T07:42:03Z</time>
      </trkpt>
      <trkpt lat="43.71286" lon="3.7236">
        <ele>193.84</ele>
        <time>2016-05-22T07:42:11Z</time>
      </trkpt>
      <trkpt lat="43.71322" lon="3.7237">
        <ele>191.44</ele>
        <time>2016-05-22T07:42:18Z</time>
      </trkpt>
      <trkpt lat="43.71328" lon="3.72375">
        <ele>190.96</ele>
        <time>2016-05-22T07:42:19Z</time>
      </trkpt>
      <trkpt lat="43.71334" lon="3.72381">
        <ele>190.48</ele>
        <time>2016-05-22T07:42:20Z</time>
      </trkpt>
      <trkpt lat="43.71379" lon="3.72444">
        <ele>188.08</ele>
        <time>2016-05-22T07:42:28Z</time>
      </trkpt>
      <trkpt lat="43.71387" lon="3.7246">
        <ele>187.59</ele>
        <time>2016-05-22T07:42:33Z</time>
      </trkpt>
      <trkpt lat="43.71388" lon="3.7246">
        <ele>187.59</ele>
        <time>2016-05-22T07:42:34Z</time>
      </trkpt>
      <trkpt lat="43.71387" lon="3.72458">
        <ele>188.56</ele>
        <time>2016-05-22T07:42:57Z</time>
      </trkpt>
      <trkpt lat="43.71386" lon="3.72455">
        <ele>192.4</ele>
        <time>2016-05-22T07:43:36Z</time>
      </trkpt>
      <trkpt lat="43.71386" lon="3.72453">
        <ele>192.4</ele>
        <time>2016-05-22T07:43:37Z</time>
      </trkpt>
      <trkpt lat="43.71387" lon="3.72452">
        <ele>191.92</ele>
        <time>2016-05-22T07:43:38Z</time>
      </trkpt>
      <trkpt lat="43.71389" lon="3.72451">
        <ele>191.44</ele>
        <time>2016-05-22T07:43:39Z</time>
      </trkpt>
      <trkpt lat="43.71392" lon="3.72449">
        <ele>191.92</ele>
        <time>2016-05-22T07:43:40Z</time>
      </trkpt>
      <trkpt lat="43.71394" lon="3.72449">
        <ele>191.92</ele>
        <time>2016-05-22T07:43:41Z</time>
      </trkpt>
      <trkpt lat="43.71397" lon="3.72449">
        <ele>192.4</ele>
        <time>2016-05-22T07:43:42Z</time>
      </trkpt>
      <trkpt lat="43.714" lon="3.7245">
        <ele>191.92</ele>
        <time>2016-05-22T07:43:43Z</time>
      </trkpt>
      <trkpt lat="43.71402" lon="3.72451">
        <ele>191.44</ele>
        <time>2016-05-22T07:43:44Z</time>
      </trkpt>
      <trkpt lat="43.71404" lon="3.72451">
        <ele>191.44</ele>
        <time>2016-05-22T07:43:45Z</time>
      </trkpt>
      <trkpt lat="43.71404" lon="3.7245">
        <ele>192.4</ele>
        <time>2016-05-22T07:44:00Z</time>
      </trkpt>
      <trkpt lat="43.71407" lon="3.72447">
        <ele>193.36</ele>
        <time>2016-05-22T07:48:36Z</time>
      </trkpt>
      <trkpt lat="43.71451" lon="3.72437">
        <ele>192.4</ele>
        <time>2016-05-22T07:48:43Z</time>
      </trkpt>
      <trkpt lat="43.71476" lon="3.72426">
        <ele>193.84</ele>
        <time>2016-05-22T07:48:46Z</time>
      </trkpt>
      <trkpt lat="43.71485" lon="3.72419">
        <ele>194.32</ele>
        <time>2016-05-22T07:48:47Z</time>
      </trkpt>
      <trkpt lat="43.71494" lon="3.72409">
        <ele>195.28</ele>
        <time>2016-05-22T07:48:48Z</time>
      </trkpt>
      <trkpt lat="43.71503" lon="3.72397">
        <ele>196.25</ele>
        <time>2016-05-22T07:48:49Z</time>
      </trkpt>
      <trkpt lat="43.71514" lon="3.72384">
        <ele>196.73</ele>
        <time>2016-05-22T07:48:50Z</time>
      </trkpt>
      <trkpt lat="43.71604" lon="3.72281">
        <ele>198.65</ele>
        <time>2016-05-22T07:48:56Z</time>
      </trkpt>
      <trkpt lat="43.71829" lon="3.72026">
        <ele>200.57</ele>
        <time>2016-05-22T07:49:10Z</time>
      </trkpt>
      <trkpt lat="43.71904" lon="3.71935">
        <ele>201.53</ele>
        <time>2016-05-22T07:49:16Z</time>
      </trkpt>
      <trkpt lat="43.71921" lon="3.71925">
        <ele>202.01</ele>
        <time>2016-05-22T07:49:17Z</time>
      </trkpt>
      <trkpt lat="43.7194" lon="3.7192">
        <ele>202.98</ele>
        <time>2016-05-22T07:49:18Z</time>
      </trkpt>
      <trkpt lat="43.71959" lon="3.71917">
        <ele>203.46</ele>
        <time>2016-05-22T07:49:19Z</time>
      </trkpt>
      <trkpt lat="43.71977" lon="3.71913">
        <ele>204.42</ele>
        <time>2016-05-22T07:49:20Z</time>
      </trkpt>
      <trkpt lat="43.71996" lon="3.71907">
        <ele>204.9</ele>
        <time>2016-05-22T07:49:21Z</time>
      </trkpt>
      <trkpt lat="43.72013" lon="3.71895">
        <ele>205.38</ele>
        <time>2016-05-22T07:49:22Z</time>
      </trkpt>
      <trkpt lat="43.7203" lon="3.71881">
        <ele>206.82</ele>
        <time>2016-05-22T07:49:23Z</time>
      </trkpt>
      <trkpt lat="43.72077" lon="3.71843">
        <ele>208.74</ele>
        <time>2016-05-22T07:49:26Z</time>
      </trkpt>
      <trkpt lat="43.72094" lon="3.71835">
        <ele>210.19</ele>
        <time>2016-05-22T07:49:27Z</time>
      </trkpt>
      <trkpt lat="43.72112" lon="3.71831">
        <ele>211.63</ele>
        <time>2016-05-22T07:49:28Z</time>
      </trkpt>
      <trkpt lat="43.72131" lon="3.71833">
        <ele>212.59</ele>
        <time>2016-05-22T07:49:29Z</time>
      </trkpt>
      <trkpt lat="43.7215" lon="3.71837">
        <ele>214.03</ele>
        <time>2016-05-22T07:49:30Z</time>
      </trkpt>
      <trkpt lat="43.7217" lon="3.71847">
        <ele>213.55</ele>
        <time>2016-05-22T07:49:31Z</time>
      </trkpt>
      <trkpt lat="43.7219" lon="3.71854">
        <ele>214.03</ele>
        <time>2016-05-22T07:49:32Z</time>
      </trkpt>
      <trkpt lat="43.72227" lon="3.71863">
        <ele>216.91</ele>
        <time>2016-05-22T07:49:34Z</time>
      </trkpt>
      <trkpt lat="43.72245" lon="3.71859">
        <ele>217.88</ele>
        <time>2016-05-22T07:49:35Z</time>
      </trkpt>
      <trkpt lat="43.72261" lon="3.71853">
        <ele>219.32</ele>
        <time>2016-05-22T07:49:36Z</time>
      </trkpt>
      <trkpt lat="43.72279" lon="3.71843">
        <ele>220.76</ele>
        <time>2016-05-22T07:49:37Z</time>
      </trkpt>
      <trkpt lat="43.72297" lon="3.71834">
        <ele>221.24</ele>
        <time>2016-05-22T07:49:38Z</time>
      </trkpt>
      <trkpt lat="43.72335" lon="3.71822">
        <ele>223.64</ele>
        <time>2016-05-22T07:49:40Z</time>
      </trkpt>
      <trkpt lat="43.72354" lon="3.7182">
        <ele>225.09</ele>
        <time>2016-05-22T07:49:41Z</time>
      </trkpt>
      <trkpt lat="43.72375" lon="3.71824">
        <ele>226.53</ele>
        <time>2016-05-22T07:49:42Z</time>
      </trkpt>
      <trkpt lat="43.72395" lon="3.71834">
        <ele>226.05</ele>
        <time>2016-05-22T07:49:43Z</time>
      </trkpt>
      <trkpt lat="43.72414" lon="3.71846">
        <ele>226.05</ele>
        <time>2016-05-22T07:49:44Z</time>
      </trkpt>
      <trkpt lat="43.72434" lon="3.71858">
        <ele>227.01</ele>
        <time>2016-05-22T07:49:45Z</time>
      </trkpt>
      <trkpt lat="43.72535" lon="3.71905">
        <ele>229.89</ele>
        <time>2016-05-22T07:49:50Z</time>
      </trkpt>
      <trkpt lat="43.72557" lon="3.71908">
        <ele>230.85</ele>
        <time>2016-05-22T07:49:51Z</time>
      </trkpt>
      <trkpt lat="43.72579" lon="3.7191">
        <ele>231.81</ele>
        <time>2016-05-22T07:49:52Z</time>
      </trkpt>
      <trkpt lat="43.726" lon="3.71909">
        <ele>232.3</ele>
        <time>2016-05-22T07:49:53Z</time>
      </trkpt>
      <trkpt lat="43.72621" lon="3.71905">
        <ele>232.78</ele>
        <time>2016-05-22T07:49:54Z</time>
      </trkpt>
      <trkpt lat="43.72642" lon="3.719">
        <ele>233.26</ele>
        <time>2016-05-22T07:49:55Z</time>
      </trkpt>
      <trkpt lat="43.72664" lon="3.71894">
        <ele>233.74</ele>
        <time>2016-05-22T07:49:56Z</time>
      </trkpt>
      <trkpt lat="43.72759" lon="3.71858">
        <ele>236.14</ele>
        <time>2016-05-22T07:50:01Z</time>
      </trkpt>
      <trkpt lat="43.72779" lon="3.71857">
        <ele>237.1</ele>
        <time>2016-05-22T07:50:02Z</time>
      </trkpt>
      <trkpt lat="43.728" lon="3.71862">
        <ele>237.58</ele>
        <time>2016-05-22T07:50:03Z</time>
      </trkpt>
      <trkpt lat="43.72822" lon="3.71867">
        <ele>238.06</ele>
        <time>2016-05-22T07:50:04Z</time>
      </trkpt>
      <trkpt lat="43.72844" lon="3.71872">
        <ele>238.54</ele>
        <time>2016-05-22T07:50:05Z</time>
      </trkpt>
      <trkpt lat="43.7304" lon="3.71915">
        <ele>241.43</ele>
        <time>2016-05-22T07:50:15Z</time>
      </trkpt>
      <trkpt lat="43.73055" lon="3.71911">
        <ele>241.43</ele>
        <time>2016-05-22T07:50:16Z</time>
      </trkpt>
      <trkpt lat="43.7307" lon="3.71901">
        <ele>240.95</ele>
        <time>2016-05-22T07:50:17Z</time>
      </trkpt>
      <trkpt lat="43.73087" lon="3.71889">
        <ele>239.99</ele>
        <time>2016-05-22T07:50:18Z</time>
      </trkpt>
      <trkpt lat="43.73104" lon="3.71875">
        <ele>239.02</ele>
        <time>2016-05-22T07:50:19Z</time>
      </trkpt>
      <trkpt lat="43.73219" lon="3.71799">
        <ele>234.7</ele>
        <time>2016-05-22T07:50:25Z</time>
      </trkpt>
      <trkpt lat="43.7324" lon="3.71792">
        <ele>234.7</ele>
        <time>2016-05-22T07:50:26Z</time>
      </trkpt>
      <trkpt lat="43.7326" lon="3.71788">
        <ele>235.18</ele>
        <time>2016-05-22T07:50:27Z</time>
      </trkpt>
      <trkpt lat="43.73348" lon="3.71771">
        <ele>236.14</ele>
        <time>2016-05-22T07:50:32Z</time>
      </trkpt>
      <trkpt lat="43.7336" lon="3.71759">
        <ele>236.14</ele>
        <time>2016-05-22T07:50:33Z</time>
      </trkpt>
      <trkpt lat="43.73368" lon="3.7174">
        <ele>235.66</ele>
        <time>2016-05-22T07:50:34Z</time>
      </trkpt>
      <trkpt lat="43.73375" lon="3.71719">
        <ele>235.66</ele>
        <time>2016-05-22T07:50:35Z</time>
      </trkpt>
      <trkpt lat="43.73381" lon="3.71697">
        <ele>234.7</ele>
        <time>2016-05-22T07:50:36Z</time>
      </trkpt>
      <trkpt lat="43.73387" lon="3.71677">
        <ele>233.74</ele>
        <time>2016-05-22T07:50:37Z</time>
      </trkpt>
      <trkpt lat="43.73395" lon="3.71661">
        <ele>233.26</ele>
        <time>2016-05-22T07:50:38Z</time>
      </trkpt>
      <trkpt lat="43.73407" lon="3.7165">
        <ele>233.26</ele>
        <time>2016-05-22T07:50:39Z</time>
      </trkpt>
      <trkpt lat="43.73422" lon="3.71645">
        <ele>233.26</ele>
        <time>2016-05-22T07:50:40Z</time>
      </trkpt>
      <trkpt lat="43.7344" lon="3.71647">
        <ele>230.37</ele>
        <time>2016-05-22T07:50:41Z</time>
      </trkpt>
      <trkpt lat="43.73458" lon="3.71646">
        <ele>229.89</ele>
        <time>2016-05-22T07:50:42Z</time>
      </trkpt>
      <trkpt lat="43.73476" lon="3.71641">
        <ele>229.41</ele>
        <time>2016-05-22T07:50:43Z</time>
      </trkpt>
      <trkpt lat="43.73495" lon="3.7163">
        <ele>228.93</ele>
        <time>2016-05-22T07:50:44Z</time>
      </trkpt>
      <trkpt lat="43.73514" lon="3.71616">
        <ele>228.93</ele>
        <time>2016-05-22T07:50:45Z</time>
      </trkpt>
      <trkpt lat="43.73716" lon="3.71472">
        <ele>231.81</ele>
        <time>2016-05-22T07:50:56Z</time>
      </trkpt>
      <trkpt lat="43.73747" lon="3.71454">
        <ele>231.81</ele>
        <time>2016-05-22T07:50:58Z</time>
      </trkpt>
      <trkpt lat="43.73763" lon="3.71451">
        <ele>231.81</ele>
        <time>2016-05-22T07:50:59Z</time>
      </trkpt>
      <trkpt lat="43.7378" lon="3.71453">
        <ele>231.81</ele>
        <time>2016-05-22T07:51:00Z</time>
      </trkpt>
      <trkpt lat="43.73797" lon="3.7146">
        <ele>231.33</ele>
        <time>2016-05-22T07:51:01Z</time>
      </trkpt>
      <trkpt lat="43.73814" lon="3.7147">
        <ele>231.33</ele>
        <time>2016-05-22T07:51:02Z</time>
      </trkpt>
      <trkpt lat="43.73831" lon="3.71483">
        <ele>230.85</ele>
        <time>2016-05-22T07:51:03Z</time>
      </trkpt>
      <trkpt lat="43.73848" lon="3.71498">
        <ele>230.37</ele>
        <time>2016-05-22T07:51:04Z</time>
      </trkpt>
      <trkpt lat="43.73863" lon="3.71514">
        <ele>229.89</ele>
        <time>2016-05-22T07:51:05Z</time>
      </trkpt>
      <trkpt lat="43.73879" lon="3.71529">
        <ele>229.41</ele>
        <time>2016-05-22T07:51:06Z</time>
      </trkpt>
      <trkpt lat="43.73895" lon="3.7154">
        <ele>228.93</ele>
        <time>2016-05-22T07:51:07Z</time>
      </trkpt>
      <trkpt lat="43.73912" lon="3.7155">
        <ele>228.45</ele>
        <time>2016-05-22T07:51:08Z</time>
      </trkpt>
      <trkpt lat="43.7393" lon="3.71559">
        <ele>227.49</ele>
        <time>2016-05-22T07:51:09Z</time>
      </trkpt>
      <trkpt lat="43.73947" lon="3.71565">
        <ele>227.01</ele>
        <time>2016-05-22T07:51:10Z</time>
      </trkpt>
      <trkpt lat="43.73964" lon="3.71569">
        <ele>226.53</ele>
        <time>2016-05-22T07:51:11Z</time>
      </trkpt>
      <trkpt lat="43.73982" lon="3.71571">
        <ele>225.57</ele>
        <time>2016-05-22T07:51:12Z</time>
      </trkpt>
      <trkpt lat="43.74" lon="3.71563">
        <ele>225.09</ele>
        <time>2016-05-22T07:51:13Z</time>
      </trkpt>
      <trkpt lat="43.74018" lon="3.7155">
        <ele>224.61</ele>
        <time>2016-05-22T07:51:14Z</time>
      </trkpt>
      <trkpt lat="43.74036" lon="3.71536">
        <ele>224.12</ele>
        <time>2016-05-22T07:51:15Z</time>
      </trkpt>
      <trkpt lat="43.74053" lon="3.71523">
        <ele>223.64</ele>
        <time>2016-05-22T07:51:16Z</time>
      </trkpt>
      <trkpt lat="43.74105" lon="3.71489">
        <ele>223.16</ele>
        <time>2016-05-22T07:51:19Z</time>
      </trkpt>
      <trkpt lat="43.74123" lon="3.71481">
        <ele>223.16</ele>
        <time>2016-05-22T07:51:20Z</time>
      </trkpt>
      <trkpt lat="43.74143" lon="3.71478">
        <ele>223.16</ele>
        <time>2016-05-22T07:51:21Z</time>
      </trkpt>
      <trkpt lat="43.74163" lon="3.71479">
        <ele>222.68</ele>
        <time>2016-05-22T07:51:22Z</time>
      </trkpt>
      <trkpt lat="43.74184" lon="3.71481">
        <ele>223.16</ele>
        <time>2016-05-22T07:51:23Z</time>
      </trkpt>
      <trkpt lat="43.74258" lon="3.71484">
        <ele>223.64</ele>
        <time>2016-05-22T07:51:27Z</time>
      </trkpt>
      <trkpt lat="43.74273" lon="3.71479">
        <ele>223.64</ele>
        <time>2016-05-22T07:51:28Z</time>
      </trkpt>
      <trkpt lat="43.74289" lon="3.7147">
        <ele>223.64</ele>
        <time>2016-05-22T07:51:29Z</time>
      </trkpt>
      <trkpt lat="43.74304" lon="3.7146">
        <ele>224.12</ele>
        <time>2016-05-22T07:51:30Z</time>
      </trkpt>
      <trkpt lat="43.74319" lon="3.71448">
        <ele>224.12</ele>
        <time>2016-05-22T07:51:31Z</time>
      </trkpt>
      <trkpt lat="43.74359" lon="3.71414">
        <ele>225.57</ele>
        <time>2016-05-22T07:51:34Z</time>
      </trkpt>
      <trkpt lat="43.7437" lon="3.714">
        <ele>226.05</ele>
        <time>2016-05-22T07:51:35Z</time>
      </trkpt>
      <trkpt lat="43.7438" lon="3.71382">
        <ele>227.01</ele>
        <time>2016-05-22T07:51:36Z</time>
      </trkpt>
      <trkpt lat="43.74388" lon="3.71362">
        <ele>227.97</ele>
        <time>2016-05-22T07:51:37Z</time>
      </trkpt>
      <trkpt lat="43.74397" lon="3.71341">
        <ele>228.93</ele>
        <time>2016-05-22T07:51:38Z</time>
      </trkpt>
      <trkpt lat="43.7442" lon="3.71286">
        <ele>231.33</ele>
        <time>2016-05-22T07:51:41Z</time>
      </trkpt>
      <trkpt lat="43.74424" lon="3.71267">
        <ele>231.81</ele>
        <time>2016-05-22T07:51:42Z</time>
      </trkpt>
      <trkpt lat="43.74426" lon="3.71248">
        <ele>232.78</ele>
        <time>2016-05-22T07:51:43Z</time>
      </trkpt>
      <trkpt lat="43.7445" lon="3.71057">
        <ele>241.91</ele>
        <time>2016-05-22T07:51:53Z</time>
      </trkpt>
      <trkpt lat="43.74468" lon="3.7097">
        <ele>246.72</ele>
        <time>2016-05-22T07:52:00Z</time>
      </trkpt>
      <trkpt lat="43.74469" lon="3.70957">
        <ele>247.2</ele>
        <time>2016-05-22T07:52:01Z</time>
      </trkpt>
      <trkpt lat="43.74498" lon="3.70801">
        <ele>252</ele>
        <time>2016-05-22T07:52:14Z</time>
      </trkpt>
      <trkpt lat="43.74507" lon="3.70773">
        <ele>252.48</ele>
        <time>2016-05-22T07:52:18Z</time>
      </trkpt>
      <trkpt lat="43.74509" lon="3.70769">
        <ele>252.48</ele>
        <time>2016-05-22T07:52:19Z</time>
      </trkpt>
      <trkpt lat="43.7451" lon="3.70769">
        <ele>252.48</ele>
        <time>2016-05-22T07:52:29Z</time>
      </trkpt>
      <trkpt lat="43.74511" lon="3.70765">
        <ele>252.48</ele>
        <time>2016-05-22T07:52:55Z</time>
      </trkpt>
      <trkpt lat="43.7451" lon="3.70758">
        <ele>252.48</ele>
        <time>2016-05-22T07:52:56Z</time>
      </trkpt>
      <trkpt lat="43.74507" lon="3.70751">
        <ele>252.48</ele>
        <time>2016-05-22T07:52:57Z</time>
      </trkpt>
      <trkpt lat="43.74485" lon="3.70644">
        <ele>257.29</ele>
        <time>2016-05-22T07:53:06Z</time>
      </trkpt>
      <trkpt lat="43.74471" lon="3.70574">
        <ele>260.65</ele>
        <time>2016-05-22T07:53:11Z</time>
      </trkpt>
      <trkpt lat="43.74466" lon="3.70561">
        <ele>261.14</ele>
        <time>2016-05-22T07:53:12Z</time>
      </trkpt>
      <trkpt lat="43.74459" lon="3.7055">
        <ele>262.1</ele>
        <time>2016-05-22T07:53:13Z</time>
      </trkpt>
      <trkpt lat="43.74451" lon="3.70542">
        <ele>262.1</ele>
        <time>2016-05-22T07:53:14Z</time>
      </trkpt>
      <trkpt lat="43.74443" lon="3.70535">
        <ele>262.1</ele>
        <time>2016-05-22T07:53:15Z</time>
      </trkpt>
      <trkpt lat="43.74235" lon="3.70415">
        <ele>271.23</ele>
        <time>2016-05-22T08:18:48Z</time>
      </trkpt>
      <trkpt lat="43.7424" lon="3.70412">
        <ele>264.98</ele>
        <time>2016-05-22T08:20:07Z</time>
      </trkpt>
      <trkpt lat="43.74232" lon="3.70418">
        <ele>266.9</ele>
        <time>2016-05-22T08:20:37Z</time>
      </trkpt>
      <trkpt lat="43.74236" lon="3.70418">
        <ele>260.17</ele>
        <time>2016-05-22T08:21:06Z</time>
      </trkpt>
      <trkpt lat="43.74239" lon="3.70414">
        <ele>270.75</ele>
        <time>2016-05-22T08:21:49Z</time>
      </trkpt>
      <trkpt lat="43.74244" lon="3.70413">
        <ele>270.27</ele>
        <time>2016-05-22T08:22:18Z</time>
      </trkpt>
      <trkpt lat="43.74244" lon="3.70409">
        <ele>269.31</ele>
        <time>2016-05-22T08:23:34Z</time>
      </trkpt>
      <trkpt lat="43.74245" lon="3.70409">
        <ele>268.83</ele>
        <time>2016-05-22T08:23:50Z</time>
      </trkpt>
      <trkpt lat="43.74238" lon="3.70396">
        <ele>266.9</ele>
        <time>2016-05-22T08:23:58Z</time>
      </trkpt>
      <trkpt lat="43.74234" lon="3.70375">
        <ele>264.5</ele>
        <time>2016-05-22T08:24:06Z</time>
      </trkpt>
      <trkpt lat="43.74224" lon="3.70333">
        <ele>259.21</ele>
        <time>2016-05-22T08:24:18Z</time>
      </trkpt>
      <trkpt lat="43.74226" lon="3.70327">
        <ele>258.73</ele>
        <time>2016-05-22T08:24:19Z</time>
      </trkpt>
      <trkpt lat="43.74229" lon="3.70321">
        <ele>258.25</ele>
        <time>2016-05-22T08:24:20Z</time>
      </trkpt>
      <trkpt lat="43.74232" lon="3.70315">
        <ele>258.25</ele>
        <time>2016-05-22T08:24:21Z</time>
      </trkpt>
      <trkpt lat="43.74236" lon="3.7031">
        <ele>258.73</ele>
        <time>2016-05-22T08:24:22Z</time>
      </trkpt>
      <trkpt lat="43.7424" lon="3.70305">
        <ele>258.73</ele>
        <time>2016-05-22T08:24:23Z</time>
      </trkpt>
      <trkpt lat="43.74252" lon="3.70288">
        <ele>258.25</ele>
        <time>2016-05-22T08:24:38Z</time>
      </trkpt>
      <trkpt lat="43.74251" lon="3.70285">
        <ele>258.73</ele>
        <time>2016-05-22T08:24:39Z</time>
      </trkpt>
      <trkpt lat="43.7425" lon="3.70281">
        <ele>258.73</ele>
        <time>2016-05-22T08:24:40Z</time>
      </trkpt>
      <trkpt lat="43.74248" lon="3.70276">
        <ele>258.73</ele>
        <time>2016-05-22T08:24:41Z</time>
      </trkpt>
      <trkpt lat="43.74245" lon="3.7027">
        <ele>258.25</ele>
        <time>2016-05-22T08:24:42Z</time>
      </trkpt>
      <trkpt lat="43.7421" lon="3.70185">
        <ele>257.77</ele>
        <time>2016-05-22T08:24:53Z</time>
      </trkpt>
      <trkpt lat="43.74207" lon="3.70175">
        <ele>257.77</ele>
        <time>2016-05-22T08:24:54Z</time>
      </trkpt>
      <trkpt lat="43.74205" lon="3.70164">
        <ele>257.77</ele>
        <time>2016-05-22T08:24:55Z</time>
      </trkpt>
      <trkpt lat="43.74203" lon="3.70151">
        <ele>257.77</ele>
        <time>2016-05-22T08:24:56Z</time>
      </trkpt>
      <trkpt lat="43.74189" lon="3.69997">
        <ele>257.77</ele>
        <time>2016-05-22T08:25:06Z</time>
      </trkpt>
      <trkpt lat="43.74177" lon="3.69856">
        <ele>258.73</ele>
        <time>2016-05-22T08:25:15Z</time>
      </trkpt>
      <trkpt lat="43.74144" lon="3.69702">
        <ele>261.14</ele>
        <time>2016-05-22T08:25:24Z</time>
      </trkpt>
      <trkpt lat="43.74057" lon="3.69435">
        <ele>259.69</ele>
        <time>2016-05-22T08:25:36Z</time>
      </trkpt>
      <trkpt lat="43.74018" lon="3.69336">
        <ele>257.77</ele>
        <time>2016-05-22T08:25:40Z</time>
      </trkpt>
      <trkpt lat="43.74002" lon="3.69313">
        <ele>257.29</ele>
        <time>2016-05-22T08:25:41Z</time>
      </trkpt>
      <trkpt lat="43.73981" lon="3.69294">
        <ele>257.29</ele>
        <time>2016-05-22T08:25:42Z</time>
      </trkpt>
      <trkpt lat="43.73958" lon="3.69281">
        <ele>256.81</ele>
        <time>2016-05-22T08:25:43Z</time>
      </trkpt>
      <trkpt lat="43.73934" lon="3.69274">
        <ele>256.81</ele>
        <time>2016-05-22T08:25:44Z</time>
      </trkpt>
      <trkpt lat="43.7391" lon="3.69273">
        <ele>256.81</ele>
        <time>2016-05-22T08:25:45Z</time>
      </trkpt>
      <trkpt lat="43.73885" lon="3.69273">
        <ele>256.33</ele>
        <time>2016-05-22T08:25:46Z</time>
      </trkpt>
      <trkpt lat="43.7386" lon="3.69275">
        <ele>256.33</ele>
        <time>2016-05-22T08:25:47Z</time>
      </trkpt>
      <trkpt lat="43.73835" lon="3.69278">
        <ele>256.33</ele>
        <time>2016-05-22T08:25:48Z</time>
      </trkpt>
      <trkpt lat="43.73714" lon="3.69281">
        <ele>257.77</ele>
        <time>2016-05-22T08:25:53Z</time>
      </trkpt>
      <trkpt lat="43.73689" lon="3.69272">
        <ele>258.25</ele>
        <time>2016-05-22T08:25:54Z</time>
      </trkpt>
      <trkpt lat="43.73665" lon="3.69259">
        <ele>258.73</ele>
        <time>2016-05-22T08:25:55Z</time>
      </trkpt>
      <trkpt lat="43.73641" lon="3.69243">
        <ele>259.69</ele>
        <time>2016-05-22T08:25:56Z</time>
      </trkpt>
      <trkpt lat="43.73617" lon="3.69227">
        <ele>261.14</ele>
        <time>2016-05-22T08:25:57Z</time>
      </trkpt>
      <trkpt lat="43.73487" lon="3.69126">
        <ele>267.38</ele>
        <time>2016-05-22T08:26:03Z</time>
      </trkpt>
      <trkpt lat="43.73468" lon="3.69104">
        <ele>267.38</ele>
        <time>2016-05-22T08:26:04Z</time>
      </trkpt>
      <trkpt lat="43.73292" lon="3.68849">
        <ele>271.23</ele>
        <time>2016-05-22T08:26:14Z</time>
      </trkpt>
      <trkpt lat="43.73225" lon="3.68662">
        <ele>275.56</ele>
        <time>2016-05-22T08:26:20Z</time>
      </trkpt>
      <trkpt lat="43.73176" lon="3.68477">
        <ele>281.32</ele>
        <time>2016-05-22T08:26:26Z</time>
      </trkpt>
      <trkpt lat="43.73173" lon="3.68443">
        <ele>282.28</ele>
        <time>2016-05-22T08:26:27Z</time>
      </trkpt>
      <trkpt lat="43.73167" lon="3.68373">
        <ele>284.21</ele>
        <time>2016-05-22T08:26:29Z</time>
      </trkpt>
      <trkpt lat="43.7316" lon="3.68337">
        <ele>285.17</ele>
        <time>2016-05-22T08:26:30Z</time>
      </trkpt>
      <trkpt lat="43.73087" lon="3.68121">
        <ele>289.49</ele>
        <time>2016-05-22T08:26:36Z</time>
      </trkpt>
      <trkpt lat="43.7293" lon="3.67734">
        <ele>291.42</ele>
        <time>2016-05-22T08:26:48Z</time>
      </trkpt>
      <trkpt lat="43.72795" lon="3.67365">
        <ele>288.05</ele>
        <time>2016-05-22T08:26:59Z</time>
      </trkpt>
      <trkpt lat="43.72755" lon="3.67088">
        <ele>292.38</ele>
        <time>2016-05-22T08:27:06Z</time>
      </trkpt>
      <trkpt lat="43.7272" lon="3.6666">
        <ele>301.51</ele>
        <time>2016-05-22T08:27:16Z</time>
      </trkpt>
      <trkpt lat="43.727" lon="3.66384">
        <ele>301.03</ele>
        <time>2016-05-22T08:27:23Z</time>
      </trkpt>
      <trkpt lat="43.72687" lon="3.6604">
        <ele>295.26</ele>
        <time>2016-05-22T08:27:32Z</time>
      </trkpt>
      <trkpt lat="43.72661" lon="3.65336">
        <ele>294.3</ele>
        <time>2016-05-22T08:27:50Z</time>
      </trkpt>
      <trkpt lat="43.72654" lon="3.65042">
        <ele>296.22</ele>
        <time>2016-05-22T08:27:58Z</time>
      </trkpt>
      <trkpt lat="43.7266" lon="3.65005">
        <ele>296.22</ele>
        <time>2016-05-22T08:27:59Z</time>
      </trkpt>
      <trkpt lat="43.72736" lon="3.64586">
        <ele>297.67</ele>
        <time>2016-05-22T08:28:10Z</time>
      </trkpt>
      <trkpt lat="43.72843" lon="3.63987">
        <ele>298.15</ele>
        <time>2016-05-22T08:28:26Z</time>
      </trkpt>
      <trkpt lat="43.72905" lon="3.63634">
        <ele>300.55</ele>
        <time>2016-05-22T08:28:36Z</time>
      </trkpt>
      <trkpt lat="43.72907" lon="3.636">
        <ele>300.07</ele>
        <time>2016-05-22T08:28:37Z</time>
      </trkpt>
      <trkpt lat="43.72906" lon="3.63564">
        <ele>299.59</ele>
        <time>2016-05-22T08:28:38Z</time>
      </trkpt>
      <trkpt lat="43.72899" lon="3.63528">
        <ele>298.63</ele>
        <time>2016-05-22T08:28:39Z</time>
      </trkpt>
      <trkpt lat="43.72887" lon="3.63493">
        <ele>297.67</ele>
        <time>2016-05-22T08:28:40Z</time>
      </trkpt>
      <trkpt lat="43.72873" lon="3.63459">
        <ele>297.18</ele>
        <time>2016-05-22T08:28:41Z</time>
      </trkpt>
      <trkpt lat="43.72857" lon="3.63424">
        <ele>296.22</ele>
        <time>2016-05-22T08:28:42Z</time>
      </trkpt>
      <trkpt lat="43.72774" lon="3.63238">
        <ele>286.13</ele>
        <time>2016-05-22T08:28:48Z</time>
      </trkpt>
      <trkpt lat="43.72756" lon="3.63211">
        <ele>284.21</ele>
        <time>2016-05-22T08:28:49Z</time>
      </trkpt>
      <trkpt lat="43.72736" lon="3.63185">
        <ele>282.28</ele>
        <time>2016-05-22T08:28:50Z</time>
      </trkpt>
      <trkpt lat="43.72591" lon="3.63016">
        <ele>266.42</ele>
        <time>2016-05-22T08:28:57Z</time>
      </trkpt>
      <trkpt lat="43.72575" lon="3.62986">
        <ele>264.02</ele>
        <time>2016-05-22T08:28:58Z</time>
      </trkpt>
      <trkpt lat="43.72562" lon="3.62954">
        <ele>261.62</ele>
        <time>2016-05-22T08:28:59Z</time>
      </trkpt>
      <trkpt lat="43.72536" lon="3.62894">
        <ele>258.25</ele>
        <time>2016-05-22T08:29:01Z</time>
      </trkpt>
      <trkpt lat="43.72519" lon="3.6287">
        <ele>256.33</ele>
        <time>2016-05-22T08:29:02Z</time>
      </trkpt>
      <trkpt lat="43.725" lon="3.62849">
        <ele>254.89</ele>
        <time>2016-05-22T08:29:03Z</time>
      </trkpt>
      <trkpt lat="43.7248" lon="3.62835">
        <ele>252.96</ele>
        <time>2016-05-22T08:29:04Z</time>
      </trkpt>
      <trkpt lat="43.72457" lon="3.62826">
        <ele>251.04</ele>
        <time>2016-05-22T08:29:05Z</time>
      </trkpt>
      <trkpt lat="43.72431" lon="3.62822">
        <ele>249.6</ele>
        <time>2016-05-22T08:29:06Z</time>
      </trkpt>
      <trkpt lat="43.72404" lon="3.6282">
        <ele>247.68</ele>
        <time>2016-05-22T08:29:07Z</time>
      </trkpt>
      <trkpt lat="43.72377" lon="3.62813">
        <ele>246.23</ele>
        <time>2016-05-22T08:29:08Z</time>
      </trkpt>
      <trkpt lat="43.72351" lon="3.62799">
        <ele>244.31</ele>
        <time>2016-05-22T08:29:09Z</time>
      </trkpt>
      <trkpt lat="43.72327" lon="3.62779">
        <ele>241.91</ele>
        <time>2016-05-22T08:29:10Z</time>
      </trkpt>
      <trkpt lat="43.72303" lon="3.62757">
        <ele>240.47</ele>
        <time>2016-05-22T08:29:11Z</time>
      </trkpt>
      <trkpt lat="43.72279" lon="3.62734">
        <ele>239.02</ele>
        <time>2016-05-22T08:29:12Z</time>
      </trkpt>
      <trkpt lat="43.72168" lon="3.62619">
        <ele>230.85</ele>
        <time>2016-05-22T08:29:17Z</time>
      </trkpt>
      <trkpt lat="43.72152" lon="3.62588">
        <ele>229.41</ele>
        <time>2016-05-22T08:29:18Z</time>
      </trkpt>
      <trkpt lat="43.72137" lon="3.62556">
        <ele>227.97</ele>
        <time>2016-05-22T08:29:19Z</time>
      </trkpt>
      <trkpt lat="43.72122" lon="3.62526">
        <ele>226.53</ele>
        <time>2016-05-22T08:29:20Z</time>
      </trkpt>
      <trkpt lat="43.72103" lon="3.62497">
        <ele>224.61</ele>
        <time>2016-05-22T08:29:21Z</time>
      </trkpt>
      <trkpt lat="43.72083" lon="3.62471">
        <ele>222.68</ele>
        <time>2016-05-22T08:29:22Z</time>
      </trkpt>
      <trkpt lat="43.7206" lon="3.62448">
        <ele>221.24</ele>
        <time>2016-05-22T08:29:23Z</time>
      </trkpt>
      <trkpt lat="43.72034" lon="3.6243">
        <ele>219.32</ele>
        <time>2016-05-22T08:29:24Z</time>
      </trkpt>
      <trkpt lat="43.72007" lon="3.62417">
        <ele>217.88</ele>
        <time>2016-05-22T08:29:25Z</time>
      </trkpt>
      <trkpt lat="43.71978" lon="3.62404">
        <ele>215.95</ele>
        <time>2016-05-22T08:29:26Z</time>
      </trkpt>
      <trkpt lat="43.7195" lon="3.62392">
        <ele>214.99</ele>
        <time>2016-05-22T08:29:27Z</time>
      </trkpt>
      <trkpt lat="43.71868" lon="3.62351">
        <ele>210.19</ele>
        <time>2016-05-22T08:29:30Z</time>
      </trkpt>
      <trkpt lat="43.71844" lon="3.62332">
        <ele>208.74</ele>
        <time>2016-05-22T08:29:31Z</time>
      </trkpt>
      <trkpt lat="43.71774" lon="3.6228">
        <ele>204.42</ele>
        <time>2016-05-22T08:29:34Z</time>
      </trkpt>
      <trkpt lat="43.71748" lon="3.62272">
        <ele>202.49</ele>
        <time>2016-05-22T08:29:35Z</time>
      </trkpt>
      <trkpt lat="43.7172" lon="3.62268">
        <ele>201.05</ele>
        <time>2016-05-22T08:29:36Z</time>
      </trkpt>
      <trkpt lat="43.71691" lon="3.62265">
        <ele>199.61</ele>
        <time>2016-05-22T08:29:37Z</time>
      </trkpt>
      <trkpt lat="43.71662" lon="3.62262">
        <ele>198.17</ele>
        <time>2016-05-22T08:29:38Z</time>
      </trkpt>
      <trkpt lat="43.7156" lon="3.62259">
        <ele>192.4</ele>
        <time>2016-05-22T08:29:42Z</time>
      </trkpt>
      <trkpt lat="43.71538" lon="3.62268">
        <ele>190.96</ele>
        <time>2016-05-22T08:29:43Z</time>
      </trkpt>
      <trkpt lat="43.71516" lon="3.62283">
        <ele>189.52</ele>
        <time>2016-05-22T08:29:44Z</time>
      </trkpt>
      <trkpt lat="43.71495" lon="3.62303">
        <ele>187.59</ele>
        <time>2016-05-22T08:29:45Z</time>
      </trkpt>
      <trkpt lat="43.71476" lon="3.62326">
        <ele>186.15</ele>
        <time>2016-05-22T08:29:46Z</time>
      </trkpt>
      <trkpt lat="43.71458" lon="3.6235">
        <ele>184.71</ele>
        <time>2016-05-22T08:29:47Z</time>
      </trkpt>
      <trkpt lat="43.71442" lon="3.62373">
        <ele>183.75</ele>
        <time>2016-05-22T08:29:48Z</time>
      </trkpt>
      <trkpt lat="43.71428" lon="3.62389">
        <ele>182.79</ele>
        <time>2016-05-22T08:29:49Z</time>
      </trkpt>
      <trkpt lat="43.71414" lon="3.62399">
        <ele>181.35</ele>
        <time>2016-05-22T08:29:50Z</time>
      </trkpt>
      <trkpt lat="43.714" lon="3.62401">
        <ele>179.9</ele>
        <time>2016-05-22T08:29:51Z</time>
      </trkpt>
      <trkpt lat="43.71386" lon="3.62396">
        <ele>177.98</ele>
        <time>2016-05-22T08:29:52Z</time>
      </trkpt>
      <trkpt lat="43.71375" lon="3.6238">
        <ele>177.02</ele>
        <time>2016-05-22T08:29:53Z</time>
      </trkpt>
      <trkpt lat="43.71368" lon="3.62359">
        <ele>176.06</ele>
        <time>2016-05-22T08:29:54Z</time>
      </trkpt>
      <trkpt lat="43.71366" lon="3.62335">
        <ele>175.58</ele>
        <time>2016-05-22T08:29:55Z</time>
      </trkpt>
      <trkpt lat="43.71372" lon="3.62304">
        <ele>177.02</ele>
        <time>2016-05-22T08:29:56Z</time>
      </trkpt>
      <trkpt lat="43.71377" lon="3.62275">
        <ele>176.54</ele>
        <time>2016-05-22T08:29:57Z</time>
      </trkpt>
      <trkpt lat="43.71383" lon="3.62246">
        <ele>175.58</ele>
        <time>2016-05-22T08:29:58Z</time>
      </trkpt>
      <trkpt lat="43.71389" lon="3.62218">
        <ele>174.62</ele>
        <time>2016-05-22T08:29:59Z</time>
      </trkpt>
      <trkpt lat="43.714" lon="3.62147">
        <ele>171.25</ele>
        <time>2016-05-22T08:30:02Z</time>
      </trkpt>
      <trkpt lat="43.71401" lon="3.62129">
        <ele>170.77</ele>
        <time>2016-05-22T08:30:03Z</time>
      </trkpt>
      <trkpt lat="43.71397" lon="3.62114">
        <ele>169.33</ele>
        <time>2016-05-22T08:30:04Z</time>
      </trkpt>
      <trkpt lat="43.71396" lon="3.62098">
        <ele>168.85</ele>
        <time>2016-05-22T08:30:05Z</time>
      </trkpt>
      <trkpt lat="43.71398" lon="3.62084">
        <ele>167.89</ele>
        <time>2016-05-22T08:30:06Z</time>
      </trkpt>
      <trkpt lat="43.71402" lon="3.6207">
        <ele>166.93</ele>
        <time>2016-05-22T08:30:07Z</time>
      </trkpt>
      <trkpt lat="43.71407" lon="3.62056">
        <ele>165.96</ele>
        <time>2016-05-22T08:30:08Z</time>
      </trkpt>
      <trkpt lat="43.71413" lon="3.62041">
        <ele>165</ele>
        <time>2016-05-22T08:30:09Z</time>
      </trkpt>
      <trkpt lat="43.71489" lon="3.61844">
        <ele>162.6</ele>
        <time>2016-05-22T08:30:22Z</time>
      </trkpt>
      <trkpt lat="43.71502" lon="3.61819">
        <ele>165.96</ele>
        <time>2016-05-22T08:30:28Z</time>
      </trkpt>
      <trkpt lat="43.71499" lon="3.61813">
        <ele>173.66</ele>
        <time>2016-05-22T08:30:37Z</time>
      </trkpt>
      <trkpt lat="43.71498" lon="3.61802">
        <ele>172.69</ele>
        <time>2016-05-22T08:30:39Z</time>
      </trkpt>
      <trkpt lat="43.71482" lon="3.6173">
        <ele>173.17</ele>
        <time>2016-05-22T08:30:46Z</time>
      </trkpt>
      <trkpt lat="43.71464" lon="3.61661">
        <ele>174.14</ele>
        <time>2016-05-22T08:30:52Z</time>
      </trkpt>
      <trkpt lat="43.71457" lon="3.61653">
        <ele>173.17</ele>
        <time>2016-05-22T08:30:53Z</time>
      </trkpt>
      <trkpt lat="43.71449" lon="3.61645">
        <ele>173.17</ele>
        <time>2016-05-22T08:30:54Z</time>
      </trkpt>
      <trkpt lat="43.7144" lon="3.6164">
        <ele>173.66</ele>
        <time>2016-05-22T08:30:55Z</time>
      </trkpt>
      <trkpt lat="43.71432" lon="3.61637">
        <ele>173.66</ele>
        <time>2016-05-22T08:30:56Z</time>
      </trkpt>
      <trkpt lat="43.71423" lon="3.61635">
        <ele>174.14</ele>
        <time>2016-05-22T08:30:57Z</time>
      </trkpt>
      <trkpt lat="43.71414" lon="3.61634">
        <ele>174.14</ele>
        <time>2016-05-22T08:30:58Z</time>
      </trkpt>
      <trkpt lat="43.71405" lon="3.61635">
        <ele>174.62</ele>
        <time>2016-05-22T08:30:59Z</time>
      </trkpt>
      <trkpt lat="43.71397" lon="3.61635">
        <ele>174.62</ele>
        <time>2016-05-22T08:31:00Z</time>
      </trkpt>
      <trkpt lat="43.71307" lon="3.61638">
        <ele>174.14</ele>
        <time>2016-05-22T08:31:10Z</time>
      </trkpt>
      <trkpt lat="43.71297" lon="3.61635">
        <ele>174.14</ele>
        <time>2016-05-22T08:31:11Z</time>
      </trkpt>
      <trkpt lat="43.71288" lon="3.61632">
        <ele>174.14</ele>
        <time>2016-05-22T08:31:12Z</time>
      </trkpt>
      <trkpt lat="43.71279" lon="3.61627">
        <ele>174.14</ele>
        <time>2016-05-22T08:31:13Z</time>
      </trkpt>
      <trkpt lat="43.71269" lon="3.61621">
        <ele>174.62</ele>
        <time>2016-05-22T08:31:14Z</time>
      </trkpt>
      <trkpt lat="43.71214" lon="3.61583">
        <ele>174.62</ele>
        <time>2016-05-22T08:31:20Z</time>
      </trkpt>
      <trkpt lat="43.71206" lon="3.61575">
        <ele>175.1</ele>
        <time>2016-05-22T08:31:21Z</time>
      </trkpt>
      <trkpt lat="43.71198" lon="3.61564">
        <ele>175.1</ele>
        <time>2016-05-22T08:31:22Z</time>
      </trkpt>
      <trkpt lat="43.71191" lon="3.6155">
        <ele>174.62</ele>
        <time>2016-05-22T08:31:23Z</time>
      </trkpt>
      <trkpt lat="43.71188" lon="3.61534">
        <ele>174.62</ele>
        <time>2016-05-22T08:31:24Z</time>
      </trkpt>
      <trkpt lat="43.71188" lon="3.61517">
        <ele>175.1</ele>
        <time>2016-05-22T08:31:25Z</time>
      </trkpt>
      <trkpt lat="43.71191" lon="3.61501">
        <ele>174.62</ele>
        <time>2016-05-22T08:31:26Z</time>
      </trkpt>
      <trkpt lat="43.71197" lon="3.61485">
        <ele>173.66</ele>
        <time>2016-05-22T08:31:27Z</time>
      </trkpt>
      <trkpt lat="43.71204" lon="3.61469">
        <ele>172.69</ele>
        <time>2016-05-22T08:31:28Z</time>
      </trkpt>
      <trkpt lat="43.71212" lon="3.61452">
        <ele>171.25</ele>
        <time>2016-05-22T08:31:29Z</time>
      </trkpt>
      <trkpt lat="43.7122" lon="3.61437">
        <ele>169.81</ele>
        <time>2016-05-22T08:31:30Z</time>
      </trkpt>
      <trkpt lat="43.71234" lon="3.61424">
        <ele>168.85</ele>
        <time>2016-05-22T08:31:31Z</time>
      </trkpt>
      <trkpt lat="43.7125" lon="3.61413">
        <ele>167.41</ele>
        <time>2016-05-22T08:31:32Z</time>
      </trkpt>
      <trkpt lat="43.71268" lon="3.61399">
        <ele>166.45</ele>
        <time>2016-05-22T08:31:33Z</time>
      </trkpt>
      <trkpt lat="43.71286" lon="3.61379">
        <ele>165</ele>
        <time>2016-05-22T08:31:34Z</time>
      </trkpt>
      <trkpt lat="43.71302" lon="3.61356">
        <ele>163.56</ele>
        <time>2016-05-22T08:31:35Z</time>
      </trkpt>
      <trkpt lat="43.71317" lon="3.61332">
        <ele>162.6</ele>
        <time>2016-05-22T08:31:36Z</time>
      </trkpt>
      <trkpt lat="43.7133" lon="3.61308">
        <ele>161.64</ele>
        <time>2016-05-22T08:31:37Z</time>
      </trkpt>
      <trkpt lat="43.71351" lon="3.61261">
        <ele>160.2</ele>
        <time>2016-05-22T08:31:39Z</time>
      </trkpt>
      <trkpt lat="43.71355" lon="3.61234">
        <ele>158.75</ele>
        <time>2016-05-22T08:31:40Z</time>
      </trkpt>
      <trkpt lat="43.71353" lon="3.61206">
        <ele>157.79</ele>
        <time>2016-05-22T08:31:41Z</time>
      </trkpt>
      <trkpt lat="43.71347" lon="3.6118">
        <ele>156.83</ele>
        <time>2016-05-22T08:31:42Z</time>
      </trkpt>
      <trkpt lat="43.71338" lon="3.61152">
        <ele>155.39</ele>
        <time>2016-05-22T08:31:43Z</time>
      </trkpt>
      <trkpt lat="43.71322" lon="3.6112">
        <ele>154.43</ele>
        <time>2016-05-22T08:31:44Z</time>
      </trkpt>
      <trkpt lat="43.71308" lon="3.61087">
        <ele>152.99</ele>
        <time>2016-05-22T08:31:45Z</time>
      </trkpt>
      <trkpt lat="43.71236" lon="3.60928">
        <ele>146.74</ele>
        <time>2016-05-22T08:31:50Z</time>
      </trkpt>
      <trkpt lat="43.71214" lon="3.60899">
        <ele>144.82</ele>
        <time>2016-05-22T08:31:51Z</time>
      </trkpt>
      <trkpt lat="43.71129" lon="3.60773">
        <ele>139.53</ele>
        <time>2016-05-22T08:31:55Z</time>
      </trkpt>
      <trkpt lat="43.71033" lon="3.60572">
        <ele>143.85</ele>
        <time>2016-05-22T08:32:01Z</time>
      </trkpt>
      <trkpt lat="43.71003" lon="3.60523">
        <ele>146.74</ele>
        <time>2016-05-22T08:32:03Z</time>
      </trkpt>
      <trkpt lat="43.70985" lon="3.60505">
        <ele>147.7</ele>
        <time>2016-05-22T08:32:04Z</time>
      </trkpt>
      <trkpt lat="43.70963" lon="3.60488">
        <ele>149.14</ele>
        <time>2016-05-22T08:32:05Z</time>
      </trkpt>
      <trkpt lat="43.70831" lon="3.60352">
        <ele>152.03</ele>
        <time>2016-05-22T08:32:11Z</time>
      </trkpt>
      <trkpt lat="43.70669" lon="3.60128">
        <ele>152.99</ele>
        <time>2016-05-22T08:32:20Z</time>
      </trkpt>
      <trkpt lat="43.70456" lon="3.59738">
        <ele>135.2</ele>
        <time>2016-05-22T08:32:33Z</time>
      </trkpt>
      <trkpt lat="43.70318" lon="3.59497">
        <ele>126.07</ele>
        <time>2016-05-22T08:32:41Z</time>
      </trkpt>
      <trkpt lat="43.70296" lon="3.59472">
        <ele>125.11</ele>
        <time>2016-05-22T08:32:42Z</time>
      </trkpt>
      <trkpt lat="43.70271" lon="3.59449">
        <ele>123.67</ele>
        <time>2016-05-22T08:32:43Z</time>
      </trkpt>
      <trkpt lat="43.70019" lon="3.59247">
        <ele>111.65</ele>
        <time>2016-05-22T08:32:53Z</time>
      </trkpt>
      <trkpt lat="43.69821" lon="3.59101">
        <ele>102.04</ele>
        <time>2016-05-22T08:33:01Z</time>
      </trkpt>
      <trkpt lat="43.69643" lon="3.59002">
        <ele>93.39</ele>
        <time>2016-05-22T08:33:08Z</time>
      </trkpt>
      <trkpt lat="43.69621" lon="3.58979">
        <ele>92.42</ele>
        <time>2016-05-22T08:33:09Z</time>
      </trkpt>
      <trkpt lat="43.69423" lon="3.58762">
        <ele>82.81</ele>
        <time>2016-05-22T08:33:19Z</time>
      </trkpt>
      <trkpt lat="43.69318" lon="3.58648">
        <ele>77.04</ele>
        <time>2016-05-22T08:33:25Z</time>
      </trkpt>
      <trkpt lat="43.6926" lon="3.58575">
        <ele>73.2</ele>
        <time>2016-05-22T08:33:29Z</time>
      </trkpt>
      <trkpt lat="43.69251" lon="3.5855">
        <ele>72.72</ele>
        <time>2016-05-22T08:33:30Z</time>
      </trkpt>
      <trkpt lat="43.69246" lon="3.58522">
        <ele>72.24</ele>
        <time>2016-05-22T08:33:31Z</time>
      </trkpt>
      <trkpt lat="43.69244" lon="3.58495">
        <ele>72.24</ele>
        <time>2016-05-22T08:33:32Z</time>
      </trkpt>
      <trkpt lat="43.69244" lon="3.58469">
        <ele>71.76</ele>
        <time>2016-05-22T08:33:33Z</time>
      </trkpt>
      <trkpt lat="43.69244" lon="3.58443">
        <ele>71.27</ele>
        <time>2016-05-22T08:33:34Z</time>
      </trkpt>
      <trkpt lat="43.69243" lon="3.58316">
        <ele>67.91</ele>
        <time>2016-05-22T08:33:39Z</time>
      </trkpt>
      <trkpt lat="43.69239" lon="3.58294">
        <ele>67.43</ele>
        <time>2016-05-22T08:33:40Z</time>
      </trkpt>
      <trkpt lat="43.69225" lon="3.5824">
        <ele>65.51</ele>
        <time>2016-05-22T08:33:43Z</time>
      </trkpt>
      <trkpt lat="43.69217" lon="3.58231">
        <ele>65.03</ele>
        <time>2016-05-22T08:33:44Z</time>
      </trkpt>
      <trkpt lat="43.69209" lon="3.58227">
        <ele>64.55</ele>
        <time>2016-05-22T08:33:45Z</time>
      </trkpt>
      <trkpt lat="43.692" lon="3.58227">
        <ele>63.58</ele>
        <time>2016-05-22T08:33:46Z</time>
      </trkpt>
      <trkpt lat="43.69188" lon="3.58234">
        <ele>63.1</ele>
        <time>2016-05-22T08:33:47Z</time>
      </trkpt>
      <trkpt lat="43.69175" lon="3.58242">
        <ele>63.1</ele>
        <time>2016-05-22T08:33:48Z</time>
      </trkpt>
      <trkpt lat="43.69163" lon="3.5825">
        <ele>63.58</ele>
        <time>2016-05-22T08:33:49Z</time>
      </trkpt>
      <trkpt lat="43.69059" lon="3.58328">
        <ele>66.95</ele>
        <time>2016-05-22T08:33:59Z</time>
      </trkpt>
      <trkpt lat="43.68944" lon="3.5841">
        <ele>68.39</ele>
        <time>2016-05-22T08:34:11Z</time>
      </trkpt>
      <trkpt lat="43.68846" lon="3.58461">
        <ele>68.87</ele>
        <time>2016-05-22T08:34:22Z</time>
      </trkpt>
      <trkpt lat="43.68787" lon="3.58494">
        <ele>69.83</ele>
        <time>2016-05-22T08:34:31Z</time>
      </trkpt>
      <trkpt lat="43.68785" lon="3.58496">
        <ele>69.83</ele>
        <time>2016-05-22T08:34:39Z</time>
      </trkpt>
      <trkpt lat="43.68763" lon="3.58509">
        <ele>71.27</ele>
        <time>2016-05-22T08:35:01Z</time>
      </trkpt>
      <trkpt lat="43.68661" lon="3.58562">
        <ele>69.83</ele>
        <time>2016-05-22T08:35:12Z</time>
      </trkpt>
      <trkpt lat="43.68577" lon="3.58609">
        <ele>77.04</ele>
        <time>2016-05-22T08:35:23Z</time>
      </trkpt>
      <trkpt lat="43.68565" lon="3.58616">
        <ele>76.56</ele>
        <time>2016-05-22T08:35:28Z</time>
      </trkpt>
      <trkpt lat="43.68563" lon="3.5862">
        <ele>77.04</ele>
        <time>2016-05-22T08:35:29Z</time>
      </trkpt>
      <trkpt lat="43.68561" lon="3.58634">
        <ele>76.08</ele>
        <time>2016-05-22T08:35:31Z</time>
      </trkpt>
      <trkpt lat="43.6856" lon="3.58665">
        <ele>75.12</ele>
        <time>2016-05-22T08:35:34Z</time>
      </trkpt>
      <trkpt lat="43.68538" lon="3.58781">
        <ele>74.64</ele>
        <time>2016-05-22T08:35:45Z</time>
      </trkpt>
      <trkpt lat="43.68525" lon="3.58829">
        <ele>75.6</ele>
        <time>2016-05-22T08:35:49Z</time>
      </trkpt>
      <trkpt lat="43.68476" lon="3.58958">
        <ele>79.45</ele>
        <time>2016-05-22T08:36:00Z</time>
      </trkpt>
      <trkpt lat="43.68457" lon="3.58996">
        <ele>79.45</ele>
        <time>2016-05-22T08:36:04Z</time>
      </trkpt>
      <trkpt lat="43.68453" lon="3.59007">
        <ele>79.45</ele>
        <time>2016-05-22T08:36:05Z</time>
      </trkpt>
      <trkpt lat="43.68451" lon="3.5902">
        <ele>79.45</ele>
        <time>2016-05-22T08:36:06Z</time>
      </trkpt>
      <trkpt lat="43.6845" lon="3.59034">
        <ele>79.45</ele>
        <time>2016-05-22T08:36:07Z</time>
      </trkpt>
      <trkpt lat="43.6845" lon="3.59047">
        <ele>79.45</ele>
        <time>2016-05-22T08:36:08Z</time>
      </trkpt>
      <trkpt lat="43.68454" lon="3.59155">
        <ele>78.97</ele>
        <time>2016-05-22T08:36:16Z</time>
      </trkpt>
      <trkpt lat="43.68467" lon="3.59281">
        <ele>78.48</ele>
        <time>2016-05-22T08:36:26Z</time>
      </trkpt>
      <trkpt lat="43.68488" lon="3.5936">
        <ele>78.48</ele>
        <time>2016-05-22T08:36:33Z</time>
      </trkpt>
      <trkpt lat="43.68487" lon="3.59373">
        <ele>78.48</ele>
        <time>2016-05-22T08:36:34Z</time>
      </trkpt>
      <trkpt lat="43.68484" lon="3.59387">
        <ele>78.48</ele>
        <time>2016-05-22T08:36:35Z</time>
      </trkpt>
      <trkpt lat="43.68477" lon="3.59399">
        <ele>78</ele>
        <time>2016-05-22T08:36:36Z</time>
      </trkpt>
      <trkpt lat="43.68469" lon="3.5941">
        <ele>77.52</ele>
        <time>2016-05-22T08:36:37Z</time>
      </trkpt>
      <trkpt lat="43.68458" lon="3.59417">
        <ele>77.52</ele>
        <time>2016-05-22T08:36:38Z</time>
      </trkpt>
      <trkpt lat="43.68448" lon="3.59422">
        <ele>77.52</ele>
        <time>2016-05-22T08:36:39Z</time>
      </trkpt>
      <trkpt lat="43.68437" lon="3.59425">
        <ele>77.52</ele>
        <time>2016-05-22T08:36:40Z</time>
      </trkpt>
      <trkpt lat="43.68426" lon="3.59426">
        <ele>77.52</ele>
        <time>2016-05-22T08:36:41Z</time>
      </trkpt>
      <trkpt lat="43.68415" lon="3.59426">
        <ele>77.04</ele>
        <time>2016-05-22T08:36:42Z</time>
      </trkpt>
      <trkpt lat="43.68403" lon="3.59426">
        <ele>77.04</ele>
        <time>2016-05-22T08:36:43Z</time>
      </trkpt>
      <trkpt lat="43.68379" lon="3.59422">
        <ele>77.04</ele>
        <time>2016-05-22T08:36:45Z</time>
      </trkpt>
      <trkpt lat="43.68367" lon="3.59419">
        <ele>77.52</ele>
        <time>2016-05-22T08:36:46Z</time>
      </trkpt>
      <trkpt lat="43.68186" lon="3.5936">
        <ele>87.14</ele>
        <time>2016-05-22T08:37:00Z</time>
      </trkpt>
      <trkpt lat="43.68171" lon="3.59359">
        <ele>87.62</ele>
        <time>2016-05-22T08:37:01Z</time>
      </trkpt>
      <trkpt lat="43.68158" lon="3.5936">
        <ele>88.1</ele>
        <time>2016-05-22T08:37:02Z</time>
      </trkpt>
      <trkpt lat="43.68145" lon="3.59363">
        <ele>88.58</ele>
        <time>2016-05-22T08:37:03Z</time>
      </trkpt>
      <trkpt lat="43.68134" lon="3.59366">
        <ele>89.06</ele>
        <time>2016-05-22T08:37:04Z</time>
      </trkpt>
      <trkpt lat="43.68124" lon="3.5937">
        <ele>89.54</ele>
        <time>2016-05-22T08:37:05Z</time>
      </trkpt>
      <trkpt lat="43.68115" lon="3.59375">
        <ele>90.02</ele>
        <time>2016-05-22T08:37:06Z</time>
      </trkpt>
      <trkpt lat="43.68108" lon="3.59379">
        <ele>90.5</ele>
        <time>2016-05-22T08:37:07Z</time>
      </trkpt>
      <trkpt lat="43.681" lon="3.59385">
        <ele>91.46</ele>
        <time>2016-05-22T08:37:12Z</time>
      </trkpt>
      <trkpt lat="43.68094" lon="3.59391">
        <ele>91.94</ele>
        <time>2016-05-22T08:37:20Z</time>
      </trkpt>
      <trkpt lat="43.68089" lon="3.59397">
        <ele>92.42</ele>
        <time>2016-05-22T08:37:21Z</time>
      </trkpt>
      <trkpt lat="43.68028" lon="3.59464">
        <ele>94.35</ele>
        <time>2016-05-22T08:37:28Z</time>
      </trkpt>
      <trkpt lat="43.67939" lon="3.59561">
        <ele>99.63</ele>
        <time>2016-05-22T08:37:35Z</time>
      </trkpt>
      <trkpt lat="43.67931" lon="3.59574">
        <ele>100.11</ele>
        <time>2016-05-22T08:37:36Z</time>
      </trkpt>
      <trkpt lat="43.67927" lon="3.59587">
        <ele>100.11</ele>
        <time>2016-05-22T08:37:37Z</time>
      </trkpt>
      <trkpt lat="43.67924" lon="3.596">
        <ele>101.08</ele>
        <time>2016-05-22T08:37:38Z</time>
      </trkpt>
      <trkpt lat="43.67921" lon="3.59614">
        <ele>101.56</ele>
        <time>2016-05-22T08:37:39Z</time>
      </trkpt>
      <trkpt lat="43.67919" lon="3.59629">
        <ele>102.04</ele>
        <time>2016-05-22T08:37:40Z</time>
      </trkpt>
      <trkpt lat="43.67918" lon="3.59649">
        <ele>103</ele>
        <time>2016-05-22T08:37:41Z</time>
      </trkpt>
      <trkpt lat="43.6792" lon="3.59672">
        <ele>103.96</ele>
        <time>2016-05-22T08:37:42Z</time>
      </trkpt>
      <trkpt lat="43.67917" lon="3.59833">
        <ele>111.17</ele>
        <time>2016-05-22T08:37:49Z</time>
      </trkpt>
      <trkpt lat="43.67914" lon="3.59851">
        <ele>112.13</ele>
        <time>2016-05-22T08:37:50Z</time>
      </trkpt>
      <trkpt lat="43.67908" lon="3.59864">
        <ele>113.09</ele>
        <time>2016-05-22T08:37:51Z</time>
      </trkpt>
      <trkpt lat="43.67897" lon="3.59873">
        <ele>113.57</ele>
        <time>2016-05-22T08:37:52Z</time>
      </trkpt>
      <trkpt lat="43.67883" lon="3.59874">
        <ele>114.05</ele>
        <time>2016-05-22T08:37:53Z</time>
      </trkpt>
      <trkpt lat="43.67867" lon="3.5987">
        <ele>114.53</ele>
        <time>2016-05-22T08:37:54Z</time>
      </trkpt>
      <trkpt lat="43.67854" lon="3.59857">
        <ele>115.01</ele>
        <time>2016-05-22T08:37:55Z</time>
      </trkpt>
      <trkpt lat="43.67845" lon="3.59841">
        <ele>115.5</ele>
        <time>2016-05-22T08:37:56Z</time>
      </trkpt>
      <trkpt lat="43.6784" lon="3.59817">
        <ele>116.94</ele>
        <time>2016-05-22T08:37:57Z</time>
      </trkpt>
      <trkpt lat="43.6784" lon="3.59799">
        <ele>117.42</ele>
        <time>2016-05-22T08:37:58Z</time>
      </trkpt>
      <trkpt lat="43.67842" lon="3.59777">
        <ele>118.38</ele>
        <time>2016-05-22T08:37:59Z</time>
      </trkpt>
      <trkpt lat="43.67842" lon="3.59759">
        <ele>119.82</ele>
        <time>2016-05-22T08:38:00Z</time>
      </trkpt>
      <trkpt lat="43.67834" lon="3.59748">
        <ele>118.86</ele>
        <time>2016-05-22T08:38:01Z</time>
      </trkpt>
      <trkpt lat="43.67822" lon="3.5974">
        <ele>119.34</ele>
        <time>2016-05-22T08:38:02Z</time>
      </trkpt>
      <trkpt lat="43.67806" lon="3.59737">
        <ele>119.82</ele>
        <time>2016-05-22T08:38:03Z</time>
      </trkpt>
      <trkpt lat="43.67786" lon="3.59738">
        <ele>121.74</ele>
        <time>2016-05-22T08:38:04Z</time>
      </trkpt>
      <trkpt lat="43.67763" lon="3.5974">
        <ele>123.19</ele>
        <time>2016-05-22T08:38:05Z</time>
      </trkpt>
      <trkpt lat="43.6774" lon="3.59741">
        <ele>124.15</ele>
        <time>2016-05-22T08:38:06Z</time>
      </trkpt>
      <trkpt lat="43.67576" lon="3.59737">
        <ele>130.4</ele>
        <time>2016-05-22T08:38:12Z</time>
      </trkpt>
      <trkpt lat="43.67524" lon="3.59727">
        <ele>132.32</ele>
        <time>2016-05-22T08:38:14Z</time>
      </trkpt>
      <trkpt lat="43.67499" lon="3.59713">
        <ele>133.28</ele>
        <time>2016-05-22T08:38:15Z</time>
      </trkpt>
      <trkpt lat="43.67475" lon="3.59695">
        <ele>134.24</ele>
        <time>2016-05-22T08:38:16Z</time>
      </trkpt>
      <trkpt lat="43.67408" lon="3.5965">
        <ele>137.61</ele>
        <time>2016-05-22T08:38:19Z</time>
      </trkpt>
      <trkpt lat="43.67384" lon="3.59644">
        <ele>138.57</ele>
        <time>2016-05-22T08:38:20Z</time>
      </trkpt>
      <trkpt lat="43.67357" lon="3.59642">
        <ele>140.01</ele>
        <time>2016-05-22T08:38:21Z</time>
      </trkpt>
      <trkpt lat="43.67216" lon="3.59636">
        <ele>145.3</ele>
        <time>2016-05-22T08:38:27Z</time>
      </trkpt>
      <trkpt lat="43.67202" lon="3.59645">
        <ele>145.3</ele>
        <time>2016-05-22T08:38:28Z</time>
      </trkpt>
      <trkpt lat="43.67189" lon="3.5966">
        <ele>145.78</ele>
        <time>2016-05-22T08:38:29Z</time>
      </trkpt>
      <trkpt lat="43.6718" lon="3.59682">
        <ele>146.26</ele>
        <time>2016-05-22T08:38:30Z</time>
      </trkpt>
      <trkpt lat="43.67174" lon="3.5971">
        <ele>146.74</ele>
        <time>2016-05-22T08:38:31Z</time>
      </trkpt>
      <trkpt lat="43.6717" lon="3.59739">
        <ele>146.26</ele>
        <time>2016-05-22T08:38:32Z</time>
      </trkpt>
      <trkpt lat="43.67167" lon="3.59771">
        <ele>146.26</ele>
        <time>2016-05-22T08:38:33Z</time>
      </trkpt>
      <trkpt lat="43.67164" lon="3.59804">
        <ele>145.3</ele>
        <time>2016-05-22T08:38:34Z</time>
      </trkpt>
      <trkpt lat="43.67133" lon="3.60003">
        <ele>140.01</ele>
        <time>2016-05-22T08:38:40Z</time>
      </trkpt>
      <trkpt lat="43.6713" lon="3.60035">
        <ele>139.53</ele>
        <time>2016-05-22T08:38:41Z</time>
      </trkpt>
      <trkpt lat="43.67127" lon="3.60067">
        <ele>138.57</ele>
        <time>2016-05-22T08:38:42Z</time>
      </trkpt>
      <trkpt lat="43.67122" lon="3.60096">
        <ele>138.09</ele>
        <time>2016-05-22T08:38:43Z</time>
      </trkpt>
      <trkpt lat="43.67116" lon="3.60117">
        <ele>136.64</ele>
        <time>2016-05-22T08:38:44Z</time>
      </trkpt>
      <trkpt lat="43.67111" lon="3.60137">
        <ele>135.68</ele>
        <time>2016-05-22T08:38:45Z</time>
      </trkpt>
      <trkpt lat="43.67112" lon="3.60157">
        <ele>134.72</ele>
        <time>2016-05-22T08:38:46Z</time>
      </trkpt>
      <trkpt lat="43.67116" lon="3.60174">
        <ele>133.28</ele>
        <time>2016-05-22T08:38:47Z</time>
      </trkpt>
      <trkpt lat="43.67126" lon="3.60188">
        <ele>131.84</ele>
        <time>2016-05-22T08:38:48Z</time>
      </trkpt>
      <trkpt lat="43.67142" lon="3.60205">
        <ele>131.84</ele>
        <time>2016-05-22T08:38:49Z</time>
      </trkpt>
      <trkpt lat="43.6716" lon="3.6022">
        <ele>130.88</ele>
        <time>2016-05-22T08:38:50Z</time>
      </trkpt>
      <trkpt lat="43.67178" lon="3.60236">
        <ele>130.4</ele>
        <time>2016-05-22T08:38:51Z</time>
      </trkpt>
      <trkpt lat="43.67195" lon="3.60256">
        <ele>129.43</ele>
        <time>2016-05-22T08:38:52Z</time>
      </trkpt>
      <trkpt lat="43.67208" lon="3.60279">
        <ele>128.47</ele>
        <time>2016-05-22T08:38:53Z</time>
      </trkpt>
      <trkpt lat="43.67217" lon="3.60306">
        <ele>127.51</ele>
        <time>2016-05-22T08:38:54Z</time>
      </trkpt>
      <trkpt lat="43.67249" lon="3.604">
        <ele>125.11</ele>
        <time>2016-05-22T08:38:58Z</time>
      </trkpt>
      <trkpt lat="43.67262" lon="3.60419">
        <ele>124.15</ele>
        <time>2016-05-22T08:38:59Z</time>
      </trkpt>
      <trkpt lat="43.67279" lon="3.60437">
        <ele>122.71</ele>
        <time>2016-05-22T08:39:00Z</time>
      </trkpt>
      <trkpt lat="43.67299" lon="3.60455">
        <ele>122.22</ele>
        <time>2016-05-22T08:39:01Z</time>
      </trkpt>
      <trkpt lat="43.67318" lon="3.60474">
        <ele>122.71</ele>
        <time>2016-05-22T08:39:02Z</time>
      </trkpt>
      <trkpt lat="43.67337" lon="3.60497">
        <ele>123.19</ele>
        <time>2016-05-22T08:39:03Z</time>
      </trkpt>
      <trkpt lat="43.67352" lon="3.60527">
        <ele>123.67</ele>
        <time>2016-05-22T08:39:04Z</time>
      </trkpt>
      <trkpt lat="43.67365" lon="3.60558">
        <ele>124.63</ele>
        <time>2016-05-22T08:39:05Z</time>
      </trkpt>
      <trkpt lat="43.67377" lon="3.60589">
        <ele>125.59</ele>
        <time>2016-05-22T08:39:06Z</time>
      </trkpt>
      <trkpt lat="43.67387" lon="3.60618">
        <ele>126.55</ele>
        <time>2016-05-22T08:39:07Z</time>
      </trkpt>
      <trkpt lat="43.67426" lon="3.60688">
        <ele>128.95</ele>
        <time>2016-05-22T08:39:10Z</time>
      </trkpt>
      <trkpt lat="43.67447" lon="3.6071">
        <ele>129.43</ele>
        <time>2016-05-22T08:39:11Z</time>
      </trkpt>
      <trkpt lat="43.67469" lon="3.60727">
        <ele>130.88</ele>
        <time>2016-05-22T08:39:12Z</time>
      </trkpt>
      <trkpt lat="43.67493" lon="3.60743">
        <ele>132.32</ele>
        <time>2016-05-22T08:39:13Z</time>
      </trkpt>
      <trkpt lat="43.67515" lon="3.60758">
        <ele>133.28</ele>
        <time>2016-05-22T08:39:14Z</time>
      </trkpt>
      <trkpt lat="43.67555" lon="3.60796">
        <ele>135.2</ele>
        <time>2016-05-22T08:39:16Z</time>
      </trkpt>
      <trkpt lat="43.67573" lon="3.6082">
        <ele>135.68</ele>
        <time>2016-05-22T08:39:17Z</time>
      </trkpt>
      <trkpt lat="43.67588" lon="3.60847">
        <ele>136.64</ele>
        <time>2016-05-22T08:39:18Z</time>
      </trkpt>
      <trkpt lat="43.67601" lon="3.60876">
        <ele>138.09</ele>
        <time>2016-05-22T08:39:19Z</time>
      </trkpt>
      <trkpt lat="43.67611" lon="3.6091">
        <ele>139.05</ele>
        <time>2016-05-22T08:39:20Z</time>
      </trkpt>
      <trkpt lat="43.67616" lon="3.60947">
        <ele>140.49</ele>
        <time>2016-05-22T08:39:21Z</time>
      </trkpt>
      <trkpt lat="43.6762" lon="3.60983">
        <ele>141.45</ele>
        <time>2016-05-22T08:39:22Z</time>
      </trkpt>
      <trkpt lat="43.67622" lon="3.61017">
        <ele>142.89</ele>
        <time>2016-05-22T08:39:23Z</time>
      </trkpt>
      <trkpt lat="43.67623" lon="3.61044">
        <ele>143.85</ele>
        <time>2016-05-22T08:39:24Z</time>
      </trkpt>
      <trkpt lat="43.67621" lon="3.61069">
        <ele>144.82</ele>
        <time>2016-05-22T08:39:25Z</time>
      </trkpt>
      <trkpt lat="43.67615" lon="3.61091">
        <ele>145.3</ele>
        <time>2016-05-22T08:39:26Z</time>
      </trkpt>
      <trkpt lat="43.67602" lon="3.6111">
        <ele>145.78</ele>
        <time>2016-05-22T08:39:27Z</time>
      </trkpt>
      <trkpt lat="43.67586" lon="3.61129">
        <ele>146.74</ele>
        <time>2016-05-22T08:39:28Z</time>
      </trkpt>
      <trkpt lat="43.67566" lon="3.6115">
        <ele>147.7</ele>
        <time>2016-05-22T08:39:29Z</time>
      </trkpt>
      <trkpt lat="43.67542" lon="3.61166">
        <ele>149.14</ele>
        <time>2016-05-22T08:39:30Z</time>
      </trkpt>
      <trkpt lat="43.67519" lon="3.61181">
        <ele>150.1</ele>
        <time>2016-05-22T08:39:31Z</time>
      </trkpt>
      <trkpt lat="43.67497" lon="3.61197">
        <ele>150.58</ele>
        <time>2016-05-22T08:39:32Z</time>
      </trkpt>
      <trkpt lat="43.67477" lon="3.61217">
        <ele>151.06</ele>
        <time>2016-05-22T08:39:33Z</time>
      </trkpt>
      <trkpt lat="43.67461" lon="3.61243">
        <ele>151.54</ele>
        <time>2016-05-22T08:39:34Z</time>
      </trkpt>
      <trkpt lat="43.67449" lon="3.61272">
        <ele>152.51</ele>
        <time>2016-05-22T08:39:35Z</time>
      </trkpt>
      <trkpt lat="43.67439" lon="3.613">
        <ele>152.99</ele>
        <time>2016-05-22T08:39:36Z</time>
      </trkpt>
      <trkpt lat="43.67431" lon="3.61328">
        <ele>153.95</ele>
        <time>2016-05-22T08:39:37Z</time>
      </trkpt>
      <trkpt lat="43.67425" lon="3.61354">
        <ele>154.43</ele>
        <time>2016-05-22T08:39:38Z</time>
      </trkpt>
      <trkpt lat="43.67424" lon="3.61381">
        <ele>155.39</ele>
        <time>2016-05-22T08:39:39Z</time>
      </trkpt>
      <trkpt lat="43.67425" lon="3.61407">
        <ele>155.87</ele>
        <time>2016-05-22T08:39:40Z</time>
      </trkpt>
      <trkpt lat="43.67429" lon="3.61437">
        <ele>156.35</ele>
        <time>2016-05-22T08:39:41Z</time>
      </trkpt>
      <trkpt lat="43.67437" lon="3.61471">
        <ele>158.75</ele>
        <time>2016-05-22T08:39:42Z</time>
      </trkpt>
      <trkpt lat="43.67444" lon="3.61504">
        <ele>160.2</ele>
        <time>2016-05-22T08:39:43Z</time>
      </trkpt>
      <trkpt lat="43.67466" lon="3.61615">
        <ele>165.48</ele>
        <time>2016-05-22T08:39:47Z</time>
      </trkpt>
      <trkpt lat="43.67477" lon="3.61636">
        <ele>166.45</ele>
        <time>2016-05-22T08:39:48Z</time>
      </trkpt>
      <trkpt lat="43.67494" lon="3.61661">
        <ele>167.89</ele>
        <time>2016-05-22T08:39:49Z</time>
      </trkpt>
      <trkpt lat="43.6755" lon="3.61757">
        <ele>172.69</ele>
        <time>2016-05-22T08:39:53Z</time>
      </trkpt>
      <trkpt lat="43.67555" lon="3.61785">
        <ele>173.17</ele>
        <time>2016-05-22T08:39:54Z</time>
      </trkpt>
      <trkpt lat="43.67555" lon="3.61817">
        <ele>174.14</ele>
        <time>2016-05-22T08:39:55Z</time>
      </trkpt>
      <trkpt lat="43.67556" lon="3.61852">
        <ele>174.14</ele>
        <time>2016-05-22T08:39:56Z</time>
      </trkpt>
      <trkpt lat="43.67557" lon="3.61888">
        <ele>174.14</ele>
        <time>2016-05-22T08:39:57Z</time>
      </trkpt>
      <trkpt lat="43.67558" lon="3.62086">
        <ele>174.14</ele>
        <time>2016-05-22T08:40:03Z</time>
      </trkpt>
      <trkpt lat="43.6755" lon="3.62113">
        <ele>174.14</ele>
        <time>2016-05-22T08:40:04Z</time>
      </trkpt>
      <trkpt lat="43.67539" lon="3.62142">
        <ele>174.62</ele>
        <time>2016-05-22T08:40:05Z</time>
      </trkpt>
      <trkpt lat="43.67525" lon="3.62172">
        <ele>174.62</ele>
        <time>2016-05-22T08:40:06Z</time>
      </trkpt>
      <trkpt lat="43.6751" lon="3.62205">
        <ele>175.1</ele>
        <time>2016-05-22T08:40:07Z</time>
      </trkpt>
      <trkpt lat="43.67398" lon="3.62399">
        <ele>177.98</ele>
        <time>2016-05-22T08:40:13Z</time>
      </trkpt>
      <trkpt lat="43.67262" lon="3.62674">
        <ele>185.19</ele>
        <time>2016-05-22T08:40:21Z</time>
      </trkpt>
      <trkpt lat="43.67098" lon="3.62979">
        <ele>184.71</ele>
        <time>2016-05-22T08:40:30Z</time>
      </trkpt>
      <trkpt lat="43.66941" lon="3.63302">
        <ele>185.19</ele>
        <time>2016-05-22T08:40:39Z</time>
      </trkpt>
      <trkpt lat="43.66756" lon="3.63671">
        <ele>191.44</ele>
        <time>2016-05-22T08:40:50Z</time>
      </trkpt>
      <trkpt lat="43.66601" lon="3.64033">
        <ele>200.09</ele>
        <time>2016-05-22T08:41:01Z</time>
      </trkpt>
      <trkpt lat="43.66541" lon="3.64174">
        <ele>202.49</ele>
        <time>2016-05-22T08:41:07Z</time>
      </trkpt>
      <trkpt lat="43.66507" lon="3.64253">
        <ele>203.94</ele>
        <time>2016-05-22T08:41:13Z</time>
      </trkpt>
      <trkpt lat="43.6646" lon="3.6436">
        <ele>210.67</ele>
        <time>2016-05-22T08:41:24Z</time>
      </trkpt>
      <trkpt lat="43.66433" lon="3.64395">
        <ele>211.63</ele>
        <time>2016-05-22T08:41:32Z</time>
      </trkpt>
      <trkpt lat="43.66393" lon="3.64407">
        <ele>210.19</ele>
        <time>2016-05-22T08:41:49Z</time>
      </trkpt>
      <trkpt lat="43.66395" lon="3.64407">
        <ele>213.55</ele>
        <time>2016-05-22T08:42:04Z</time>
      </trkpt>
      <trkpt lat="43.66377" lon="3.64415">
        <ele>213.55</ele>
        <time>2016-05-22T08:42:22Z</time>
      </trkpt>
      <trkpt lat="43.66319" lon="3.64437">
        <ele>213.07</ele>
        <time>2016-05-22T08:42:33Z</time>
      </trkpt>
      <trkpt lat="43.66273" lon="3.64453">
        <ele>212.11</ele>
        <time>2016-05-22T08:42:40Z</time>
      </trkpt>
      <trkpt lat="43.66265" lon="3.64452">
        <ele>211.63</ele>
        <time>2016-05-22T08:42:41Z</time>
      </trkpt>
      <trkpt lat="43.66257" lon="3.6445">
        <ele>211.63</ele>
        <time>2016-05-22T08:42:42Z</time>
      </trkpt>
      <trkpt lat="43.66208" lon="3.64426">
        <ele>210.67</ele>
        <time>2016-05-22T08:42:49Z</time>
      </trkpt>
      <trkpt lat="43.66201" lon="3.64425">
        <ele>210.19</ele>
        <time>2016-05-22T08:42:50Z</time>
      </trkpt>
      <trkpt lat="43.66194" lon="3.64425">
        <ele>209.7</ele>
        <time>2016-05-22T08:42:51Z</time>
      </trkpt>
      <trkpt lat="43.66172" lon="3.64426">
        <ele>207.78</ele>
        <time>2016-05-22T08:42:54Z</time>
      </trkpt>
      <trkpt lat="43.66165" lon="3.64424">
        <ele>207.3</ele>
        <time>2016-05-22T08:42:55Z</time>
      </trkpt>
      <trkpt lat="43.66159" lon="3.64421">
        <ele>206.82</ele>
        <time>2016-05-22T08:42:56Z</time>
      </trkpt>
      <trkpt lat="43.66152" lon="3.64418">
        <ele>206.82</ele>
        <time>2016-05-22T08:42:57Z</time>
      </trkpt>
      <trkpt lat="43.66144" lon="3.6442">
        <ele>206.34</ele>
        <time>2016-05-22T08:42:58Z</time>
      </trkpt>
      <trkpt lat="43.66138" lon="3.64426">
        <ele>205.86</ele>
        <time>2016-05-22T08:42:59Z</time>
      </trkpt>
      <trkpt lat="43.66131" lon="3.64432">
        <ele>205.86</ele>
        <time>2016-05-22T08:43:00Z</time>
      </trkpt>
      <trkpt lat="43.66055" lon="3.64485">
        <ele>200.57</ele>
        <time>2016-05-22T08:43:09Z</time>
      </trkpt>
      <trkpt lat="43.66044" lon="3.64486">
        <ele>200.09</ele>
        <time>2016-05-22T08:43:10Z</time>
      </trkpt>
      <trkpt lat="43.66033" lon="3.64486">
        <ele>199.61</ele>
        <time>2016-05-22T08:43:11Z</time>
      </trkpt>
      <trkpt lat="43.65984" lon="3.64483">
        <ele>197.21</ele>
        <time>2016-05-22T08:43:15Z</time>
      </trkpt>
      <trkpt lat="43.65972" lon="3.64486">
        <ele>196.25</ele>
        <time>2016-05-22T08:43:16Z</time>
      </trkpt>
      <trkpt lat="43.6596" lon="3.64495">
        <ele>195.77</ele>
        <time>2016-05-22T08:43:17Z</time>
      </trkpt>
      <trkpt lat="43.65951" lon="3.64509">
        <ele>194.8</ele>
        <time>2016-05-22T08:43:18Z</time>
      </trkpt>
      <trkpt lat="43.65944" lon="3.64526">
        <ele>194.32</ele>
        <time>2016-05-22T08:43:19Z</time>
      </trkpt>
      <trkpt lat="43.65936" lon="3.64544">
        <ele>193.84</ele>
        <time>2016-05-22T08:43:20Z</time>
      </trkpt>
      <trkpt lat="43.65902" lon="3.64611">
        <ele>192.88</ele>
        <time>2016-05-22T08:43:24Z</time>
      </trkpt>
      <trkpt lat="43.65891" lon="3.64622">
        <ele>192.4</ele>
        <time>2016-05-22T08:43:25Z</time>
      </trkpt>
      <trkpt lat="43.65876" lon="3.6463">
        <ele>192.4</ele>
        <time>2016-05-22T08:43:26Z</time>
      </trkpt>
      <trkpt lat="43.6586" lon="3.64635">
        <ele>191.44</ele>
        <time>2016-05-22T08:43:27Z</time>
      </trkpt>
      <trkpt lat="43.65843" lon="3.64641">
        <ele>190.96</ele>
        <time>2016-05-22T08:43:28Z</time>
      </trkpt>
      <trkpt lat="43.65728" lon="3.64685">
        <ele>186.63</ele>
        <time>2016-05-22T08:43:35Z</time>
      </trkpt>
      <trkpt lat="43.65714" lon="3.64679">
        <ele>186.15</ele>
        <time>2016-05-22T08:43:36Z</time>
      </trkpt>
      <trkpt lat="43.65699" lon="3.64673">
        <ele>185.67</ele>
        <time>2016-05-22T08:43:37Z</time>
      </trkpt>
      <trkpt lat="43.65603" lon="3.64605">
        <ele>181.35</ele>
        <time>2016-05-22T08:43:42Z</time>
      </trkpt>
      <trkpt lat="43.65464" lon="3.64518">
        <ele>177.5</ele>
        <time>2016-05-22T08:43:49Z</time>
      </trkpt>
      <trkpt lat="43.65445" lon="3.64516">
        <ele>177.02</ele>
        <time>2016-05-22T08:43:50Z</time>
      </trkpt>
      <trkpt lat="43.65427" lon="3.64519">
        <ele>176.54</ele>
        <time>2016-05-22T08:43:51Z</time>
      </trkpt>
      <trkpt lat="43.65408" lon="3.64528">
        <ele>176.06</ele>
        <time>2016-05-22T08:43:52Z</time>
      </trkpt>
      <trkpt lat="43.65388" lon="3.64537">
        <ele>176.06</ele>
        <time>2016-05-22T08:43:53Z</time>
      </trkpt>
      <trkpt lat="43.65368" lon="3.64548">
        <ele>175.58</ele>
        <time>2016-05-22T08:43:54Z</time>
      </trkpt>
      <trkpt lat="43.65188" lon="3.64636">
        <ele>173.17</ele>
        <time>2016-05-22T08:44:03Z</time>
      </trkpt>
      <trkpt lat="43.64928" lon="3.64761">
        <ele>171.25</ele>
        <time>2016-05-22T08:44:14Z</time>
      </trkpt>
      <trkpt lat="43.64567" lon="3.64936">
        <ele>164.04</ele>
        <time>2016-05-22T08:44:29Z</time>
      </trkpt>
      <trkpt lat="43.64222" lon="3.65103">
        <ele>161.64</ele>
        <time>2016-05-22T08:44:44Z</time>
      </trkpt>
      <trkpt lat="43.64022" lon="3.65204">
        <ele>159.72</ele>
        <time>2016-05-22T08:44:54Z</time>
      </trkpt>
      <trkpt lat="43.64005" lon="3.65222">
        <ele>159.24</ele>
        <time>2016-05-22T08:44:55Z</time>
      </trkpt>
      <trkpt lat="43.63991" lon="3.65246">
        <ele>159.24</ele>
        <time>2016-05-22T08:44:56Z</time>
      </trkpt>
      <trkpt lat="43.63976" lon="3.6527">
        <ele>158.75</ele>
        <time>2016-05-22T08:44:57Z</time>
      </trkpt>
      <trkpt lat="43.63961" lon="3.65294">
        <ele>158.75</ele>
        <time>2016-05-22T08:44:58Z</time>
      </trkpt>
      <trkpt lat="43.63935" lon="3.65336">
        <ele>158.27</ele>
        <time>2016-05-22T08:45:00Z</time>
      </trkpt>
      <trkpt lat="43.6392" lon="3.6535">
        <ele>158.27</ele>
        <time>2016-05-22T08:45:01Z</time>
      </trkpt>
      <trkpt lat="43.63906" lon="3.65354">
        <ele>157.79</ele>
        <time>2016-05-22T08:45:02Z</time>
      </trkpt>
      <trkpt lat="43.63886" lon="3.65353">
        <ele>156.83</ele>
        <time>2016-05-22T08:45:03Z</time>
      </trkpt>
      <trkpt lat="43.63865" lon="3.65351">
        <ele>156.35</ele>
        <time>2016-05-22T08:45:04Z</time>
      </trkpt>
      <trkpt lat="43.63843" lon="3.65348">
        <ele>155.39</ele>
        <time>2016-05-22T08:45:05Z</time>
      </trkpt>
      <trkpt lat="43.63825" lon="3.65335">
        <ele>153.95</ele>
        <time>2016-05-22T08:45:06Z</time>
      </trkpt>
      <trkpt lat="43.63806" lon="3.6532">
        <ele>152.99</ele>
        <time>2016-05-22T08:45:07Z</time>
      </trkpt>
      <trkpt lat="43.63788" lon="3.65308">
        <ele>152.99</ele>
        <time>2016-05-22T08:45:08Z</time>
      </trkpt>
      <trkpt lat="43.6377" lon="3.65299">
        <ele>153.47</ele>
        <time>2016-05-22T08:45:09Z</time>
      </trkpt>
      <trkpt lat="43.6375" lon="3.65293">
        <ele>152.99</ele>
        <time>2016-05-22T08:45:10Z</time>
      </trkpt>
      <trkpt lat="43.63729" lon="3.65292">
        <ele>152.99</ele>
        <time>2016-05-22T08:45:11Z</time>
      </trkpt>
      <trkpt lat="43.63706" lon="3.65296">
        <ele>152.03</ele>
        <time>2016-05-22T08:45:12Z</time>
      </trkpt>
      <trkpt lat="43.63683" lon="3.65304">
        <ele>151.54</ele>
        <time>2016-05-22T08:45:13Z</time>
      </trkpt>
      <trkpt lat="43.6366" lon="3.65314">
        <ele>151.06</ele>
        <time>2016-05-22T08:45:14Z</time>
      </trkpt>
      <trkpt lat="43.6364" lon="3.6533">
        <ele>150.58</ele>
        <time>2016-05-22T08:45:15Z</time>
      </trkpt>
      <trkpt lat="43.63621" lon="3.65348">
        <ele>150.58</ele>
        <time>2016-05-22T08:45:16Z</time>
      </trkpt>
      <trkpt lat="43.63606" lon="3.6537">
        <ele>151.06</ele>
        <time>2016-05-22T08:45:17Z</time>
      </trkpt>
      <trkpt lat="43.63592" lon="3.65395">
        <ele>151.06</ele>
        <time>2016-05-22T08:45:18Z</time>
      </trkpt>
      <trkpt lat="43.63578" lon="3.65421">
        <ele>151.54</ele>
        <time>2016-05-22T08:45:19Z</time>
      </trkpt>
      <trkpt lat="43.63564" lon="3.65447">
        <ele>151.06</ele>
        <time>2016-05-22T08:45:20Z</time>
      </trkpt>
      <trkpt lat="43.6355" lon="3.65474">
        <ele>151.06</ele>
        <time>2016-05-22T08:45:21Z</time>
      </trkpt>
      <trkpt lat="43.63444" lon="3.65673">
        <ele>151.54</ele>
        <time>2016-05-22T08:45:29Z</time>
      </trkpt>
      <trkpt lat="43.63427" lon="3.65685">
        <ele>151.06</ele>
        <time>2016-05-22T08:45:30Z</time>
      </trkpt>
      <trkpt lat="43.63413" lon="3.65692">
        <ele>151.06</ele>
        <time>2016-05-22T08:45:31Z</time>
      </trkpt>
      <trkpt lat="43.63398" lon="3.65687">
        <ele>151.54</ele>
        <time>2016-05-22T08:45:32Z</time>
      </trkpt>
      <trkpt lat="43.63383" lon="3.65675">
        <ele>151.54</ele>
        <time>2016-05-22T08:45:33Z</time>
      </trkpt>
      <trkpt lat="43.6337" lon="3.65658">
        <ele>151.54</ele>
        <time>2016-05-22T08:45:34Z</time>
      </trkpt>
      <trkpt lat="43.63363" lon="3.65641">
        <ele>150.1</ele>
        <time>2016-05-22T08:45:35Z</time>
      </trkpt>
      <trkpt lat="43.63351" lon="3.65624">
        <ele>150.58</ele>
        <time>2016-05-22T08:45:36Z</time>
      </trkpt>
      <trkpt lat="43.63318" lon="3.65605">
        <ele>151.06</ele>
        <time>2016-05-22T08:45:38Z</time>
      </trkpt>
      <trkpt lat="43.63299" lon="3.65612">
        <ele>151.54</ele>
        <time>2016-05-22T08:45:39Z</time>
      </trkpt>
      <trkpt lat="43.63281" lon="3.65617">
        <ele>151.54</ele>
        <time>2016-05-22T08:45:40Z</time>
      </trkpt>
      <trkpt lat="43.63263" lon="3.65624">
        <ele>151.54</ele>
        <time>2016-05-22T08:45:41Z</time>
      </trkpt>
      <trkpt lat="43.63244" lon="3.65626">
        <ele>151.06</ele>
        <time>2016-05-22T08:45:42Z</time>
      </trkpt>
      <trkpt lat="43.63226" lon="3.65621">
        <ele>151.54</ele>
        <time>2016-05-22T08:45:43Z</time>
      </trkpt>
      <trkpt lat="43.63209" lon="3.65607">
        <ele>151.54</ele>
        <time>2016-05-22T08:45:44Z</time>
      </trkpt>
      <trkpt lat="43.63195" lon="3.65588">
        <ele>151.54</ele>
        <time>2016-05-22T08:45:45Z</time>
      </trkpt>
      <trkpt lat="43.63184" lon="3.65568">
        <ele>152.03</ele>
        <time>2016-05-22T08:45:46Z</time>
      </trkpt>
      <trkpt lat="43.63175" lon="3.65548">
        <ele>151.54</ele>
        <time>2016-05-22T08:45:47Z</time>
      </trkpt>
      <trkpt lat="43.63166" lon="3.6553">
        <ele>151.54</ele>
        <time>2016-05-22T08:45:48Z</time>
      </trkpt>
      <trkpt lat="43.63157" lon="3.65516">
        <ele>151.54</ele>
        <time>2016-05-22T08:45:49Z</time>
      </trkpt>
      <trkpt lat="43.63146" lon="3.65512">
        <ele>151.06</ele>
        <time>2016-05-22T08:45:50Z</time>
      </trkpt>
      <trkpt lat="43.63133" lon="3.65517">
        <ele>149.14</ele>
        <time>2016-05-22T08:45:51Z</time>
      </trkpt>
      <trkpt lat="43.63119" lon="3.6553">
        <ele>148.66</ele>
        <time>2016-05-22T08:45:52Z</time>
      </trkpt>
      <trkpt lat="43.6311" lon="3.65549">
        <ele>148.18</ele>
        <time>2016-05-22T08:45:53Z</time>
      </trkpt>
      <trkpt lat="43.63103" lon="3.65573">
        <ele>148.66</ele>
        <time>2016-05-22T08:45:54Z</time>
      </trkpt>
      <trkpt lat="43.63099" lon="3.65599">
        <ele>148.18</ele>
        <time>2016-05-22T08:45:55Z</time>
      </trkpt>
      <trkpt lat="43.63096" lon="3.6562">
        <ele>147.22</ele>
        <time>2016-05-22T08:45:56Z</time>
      </trkpt>
      <trkpt lat="43.63101" lon="3.65646">
        <ele>147.22</ele>
        <time>2016-05-22T08:45:57Z</time>
      </trkpt>
      <trkpt lat="43.631" lon="3.65672">
        <ele>146.74</ele>
        <time>2016-05-22T08:45:58Z</time>
      </trkpt>
      <trkpt lat="43.63091" lon="3.65755">
        <ele>147.22</ele>
        <time>2016-05-22T08:46:01Z</time>
      </trkpt>
      <trkpt lat="43.63083" lon="3.65781">
        <ele>146.74</ele>
        <time>2016-05-22T08:46:02Z</time>
      </trkpt>
      <trkpt lat="43.63039" lon="3.65841">
        <ele>146.26</ele>
        <time>2016-05-22T08:46:06Z</time>
      </trkpt>
      <trkpt lat="43.63022" lon="3.65834">
        <ele>147.22</ele>
        <time>2016-05-22T08:46:07Z</time>
      </trkpt>
      <trkpt lat="43.62899" lon="3.65816">
        <ele>147.22</ele>
        <time>2016-05-22T08:46:13Z</time>
      </trkpt>
      <trkpt lat="43.62789" lon="3.65812">
        <ele>147.22</ele>
        <time>2016-05-22T08:46:19Z</time>
      </trkpt>
      <trkpt lat="43.62775" lon="3.6582">
        <ele>147.22</ele>
        <time>2016-05-22T08:46:20Z</time>
      </trkpt>
      <trkpt lat="43.62764" lon="3.65833">
        <ele>146.74</ele>
        <time>2016-05-22T08:46:21Z</time>
      </trkpt>
      <trkpt lat="43.62754" lon="3.6585">
        <ele>145.78</ele>
        <time>2016-05-22T08:46:22Z</time>
      </trkpt>
      <trkpt lat="43.62753" lon="3.65888">
        <ele>143.85</ele>
        <time>2016-05-22T08:46:24Z</time>
      </trkpt>
      <trkpt lat="43.62767" lon="3.65916">
        <ele>143.85</ele>
        <time>2016-05-22T08:46:25Z</time>
      </trkpt>
      <trkpt lat="43.62777" lon="3.65942">
        <ele>143.85</ele>
        <time>2016-05-22T08:46:26Z</time>
      </trkpt>
      <trkpt lat="43.6279" lon="3.65965">
        <ele>143.37</ele>
        <time>2016-05-22T08:46:27Z</time>
      </trkpt>
      <trkpt lat="43.628" lon="3.65989">
        <ele>143.37</ele>
        <time>2016-05-22T08:46:28Z</time>
      </trkpt>
      <trkpt lat="43.62807" lon="3.66013">
        <ele>142.89</ele>
        <time>2016-05-22T08:46:29Z</time>
      </trkpt>
      <trkpt lat="43.62811" lon="3.66039">
        <ele>142.41</ele>
        <time>2016-05-22T08:46:30Z</time>
      </trkpt>
      <trkpt lat="43.62812" lon="3.66066">
        <ele>142.89</ele>
        <time>2016-05-22T08:46:31Z</time>
      </trkpt>
      <trkpt lat="43.62809" lon="3.66093">
        <ele>143.37</ele>
        <time>2016-05-22T08:46:32Z</time>
      </trkpt>
      <trkpt lat="43.62802" lon="3.66117">
        <ele>142.89</ele>
        <time>2016-05-22T08:46:33Z</time>
      </trkpt>
      <trkpt lat="43.62794" lon="3.66139">
        <ele>141.93</ele>
        <time>2016-05-22T08:46:34Z</time>
      </trkpt>
      <trkpt lat="43.62783" lon="3.66155">
        <ele>140.97</ele>
        <time>2016-05-22T08:46:35Z</time>
      </trkpt>
      <trkpt lat="43.6277" lon="3.66165">
        <ele>139.05</ele>
        <time>2016-05-22T08:46:36Z</time>
      </trkpt>
      <trkpt lat="43.62754" lon="3.66169">
        <ele>139.53</ele>
        <time>2016-05-22T08:46:37Z</time>
      </trkpt>
      <trkpt lat="43.62734" lon="3.66158">
        <ele>141.45</ele>
        <time>2016-05-22T08:46:38Z</time>
      </trkpt>
      <trkpt lat="43.62721" lon="3.66149">
        <ele>142.89</ele>
        <time>2016-05-22T08:46:39Z</time>
      </trkpt>
      <trkpt lat="43.62709" lon="3.66138">
        <ele>143.85</ele>
        <time>2016-05-22T08:46:40Z</time>
      </trkpt>
      <trkpt lat="43.62699" lon="3.66126">
        <ele>144.34</ele>
        <time>2016-05-22T08:46:41Z</time>
      </trkpt>
      <trkpt lat="43.6269" lon="3.66116">
        <ele>144.82</ele>
        <time>2016-05-22T08:46:42Z</time>
      </trkpt>
      <trkpt lat="43.62652" lon="3.66061">
        <ele>152.99</ele>
        <time>2016-05-22T08:46:49Z</time>
      </trkpt>
      <trkpt lat="43.62645" lon="3.6606">
        <ele>149.62</ele>
        <time>2016-05-22T08:46:58Z</time>
      </trkpt>
      <trkpt lat="43.6265" lon="3.66064">
        <ele>144.82</ele>
        <time>2016-05-22T08:48:09Z</time>
      </trkpt>
      <trkpt lat="43.62648" lon="3.66064">
        <ele>148.18</ele>
        <time>2016-05-22T08:56:53Z</time>
      </trkpt>
      <trkpt lat="43.62613" lon="3.66476">
        <ele>150.58</ele>
        <time>2016-05-22T08:57:32Z</time>
      </trkpt>
      <trkpt lat="43.62603" lon="3.67448">
        <ele>146.74</ele>
        <time>2016-05-22T08:58:27Z</time>
      </trkpt>
      <trkpt lat="43.62619" lon="3.67551">
        <ele>146.26</ele>
        <time>2016-05-22T08:58:38Z</time>
      </trkpt>
      <trkpt lat="43.62623" lon="3.67625">
        <ele>144.82</ele>
        <time>2016-05-22T08:58:48Z</time>
      </trkpt>
      <trkpt lat="43.62642" lon="3.67752">
        <ele>145.3</ele>
        <time>2016-05-22T08:59:00Z</time>
      </trkpt>
      <trkpt lat="43.62669" lon="3.67876">
        <ele>146.26</ele>
        <time>2016-05-22T08:59:11Z</time>
      </trkpt>
      <trkpt lat="43.627" lon="3.68018">
        <ele>148.18</ele>
        <time>2016-05-22T08:59:22Z</time>
      </trkpt>
      <trkpt lat="43.62739" lon="3.68197">
        <ele>152.03</ele>
        <time>2016-05-22T08:59:33Z</time>
      </trkpt>
      <trkpt lat="43.6276" lon="3.6831">
        <ele>153.95</ele>
        <time>2016-05-22T08:59:39Z</time>
      </trkpt>
      <trkpt lat="43.6276" lon="3.6833">
        <ele>153.95</ele>
        <time>2016-05-22T08:59:40Z</time>
      </trkpt>
      <trkpt lat="43.62759" lon="3.68352">
        <ele>153.95</ele>
        <time>2016-05-22T08:59:41Z</time>
      </trkpt>
      <trkpt lat="43.62743" lon="3.68576">
        <ele>148.18</ele>
        <time>2016-05-22T08:59:52Z</time>
      </trkpt>
      <trkpt lat="43.6276" lon="3.68759">
        <ele>142.41</ele>
        <time>2016-05-22T09:00:01Z</time>
      </trkpt>
      <trkpt lat="43.62805" lon="3.68964">
        <ele>137.13</ele>
        <time>2016-05-22T09:00:12Z</time>
      </trkpt>
      <trkpt lat="43.62837" lon="3.69138">
        <ele>135.2</ele>
        <time>2016-05-22T09:00:23Z</time>
      </trkpt>
      <trkpt lat="43.62837" lon="3.69166">
        <ele>135.2</ele>
        <time>2016-05-22T09:00:25Z</time>
      </trkpt>
      <trkpt lat="43.62835" lon="3.69255">
        <ele>135.68</ele>
        <time>2016-05-22T09:00:32Z</time>
      </trkpt>
      <trkpt lat="43.62833" lon="3.69267">
        <ele>135.68</ele>
        <time>2016-05-22T09:00:33Z</time>
      </trkpt>
      <trkpt lat="43.62828" lon="3.69293">
        <ele>136.16</ele>
        <time>2016-05-22T09:00:35Z</time>
      </trkpt>
      <trkpt lat="43.62829" lon="3.69307">
        <ele>136.16</ele>
        <time>2016-05-22T09:00:36Z</time>
      </trkpt>
      <trkpt lat="43.62833" lon="3.69319">
        <ele>136.16</ele>
        <time>2016-05-22T09:00:37Z</time>
      </trkpt>
      <trkpt lat="43.6284" lon="3.69328">
        <ele>136.16</ele>
        <time>2016-05-22T09:00:38Z</time>
      </trkpt>
      <trkpt lat="43.62851" lon="3.69331">
        <ele>135.68</ele>
        <time>2016-05-22T09:00:39Z</time>
      </trkpt>
      <trkpt lat="43.62862" lon="3.69329">
        <ele>135.2</ele>
        <time>2016-05-22T09:00:40Z</time>
      </trkpt>
      <trkpt lat="43.62872" lon="3.69323">
        <ele>134.72</ele>
        <time>2016-05-22T09:00:41Z</time>
      </trkpt>
      <trkpt lat="43.62882" lon="3.69317">
        <ele>134.24</ele>
        <time>2016-05-22T09:00:42Z</time>
      </trkpt>
      <trkpt lat="43.62892" lon="3.69313">
        <ele>134.24</ele>
        <time>2016-05-22T09:00:43Z</time>
      </trkpt>
      <trkpt lat="43.62904" lon="3.69313">
        <ele>133.76</ele>
        <time>2016-05-22T09:00:44Z</time>
      </trkpt>
      <trkpt lat="43.62916" lon="3.69316">
        <ele>133.76</ele>
        <time>2016-05-22T09:00:45Z</time>
      </trkpt>
      <trkpt lat="43.62928" lon="3.6932">
        <ele>133.28</ele>
        <time>2016-05-22T09:00:46Z</time>
      </trkpt>
      <trkpt lat="43.62939" lon="3.69324">
        <ele>133.76</ele>
        <time>2016-05-22T09:00:47Z</time>
      </trkpt>
      <trkpt lat="43.62987" lon="3.69349">
        <ele>134.72</ele>
        <time>2016-05-22T09:00:52Z</time>
      </trkpt>
      <trkpt lat="43.62994" lon="3.69357">
        <ele>135.2</ele>
        <time>2016-05-22T09:00:53Z</time>
      </trkpt>
      <trkpt lat="43.62999" lon="3.69367">
        <ele>135.2</ele>
        <time>2016-05-22T09:00:54Z</time>
      </trkpt>
      <trkpt lat="43.6301" lon="3.69389">
        <ele>134.24</ele>
        <time>2016-05-22T09:00:56Z</time>
      </trkpt>
      <trkpt lat="43.63018" lon="3.694">
        <ele>134.24</ele>
        <time>2016-05-22T09:00:57Z</time>
      </trkpt>
      <trkpt lat="43.63027" lon="3.6941">
        <ele>133.28</ele>
        <time>2016-05-22T09:00:58Z</time>
      </trkpt>
      <trkpt lat="43.63033" lon="3.69423">
        <ele>132.8</ele>
        <time>2016-05-22T09:00:59Z</time>
      </trkpt>
      <trkpt lat="43.63036" lon="3.69439">
        <ele>132.8</ele>
        <time>2016-05-22T09:01:00Z</time>
      </trkpt>
      <trkpt lat="43.63036" lon="3.69456">
        <ele>132.32</ele>
        <time>2016-05-22T09:01:01Z</time>
      </trkpt>
      <trkpt lat="43.63033" lon="3.69472">
        <ele>132.32</ele>
        <time>2016-05-22T09:01:02Z</time>
      </trkpt>
      <trkpt lat="43.6303" lon="3.69489">
        <ele>132.8</ele>
        <time>2016-05-22T09:01:03Z</time>
      </trkpt>
      <trkpt lat="43.63025" lon="3.69507">
        <ele>132.8</ele>
        <time>2016-05-22T09:01:04Z</time>
      </trkpt>
      <trkpt lat="43.62988" lon="3.69661">
        <ele>135.68</ele>
        <time>2016-05-22T09:01:11Z</time>
      </trkpt>
      <trkpt lat="43.62986" lon="3.69688">
        <ele>136.16</ele>
        <time>2016-05-22T09:01:12Z</time>
      </trkpt>
      <trkpt lat="43.62987" lon="3.69717">
        <ele>136.64</ele>
        <time>2016-05-22T09:01:13Z</time>
      </trkpt>
      <trkpt lat="43.6299" lon="3.69744">
        <ele>136.64</ele>
        <time>2016-05-22T09:01:14Z</time>
      </trkpt>
      <trkpt lat="43.62996" lon="3.69773">
        <ele>137.13</ele>
        <time>2016-05-22T09:01:15Z</time>
      </trkpt>
      <trkpt lat="43.63002" lon="3.69801">
        <ele>137.13</ele>
        <time>2016-05-22T09:01:16Z</time>
      </trkpt>
      <trkpt lat="43.63072" lon="3.70095">
        <ele>137.13</ele>
        <time>2016-05-22T09:01:27Z</time>
      </trkpt>
      <trkpt lat="43.63109" lon="3.70252">
        <ele>137.61</ele>
        <time>2016-05-22T09:01:34Z</time>
      </trkpt>
      <trkpt lat="43.63116" lon="3.70282">
        <ele>137.61</ele>
        <time>2016-05-22T09:01:36Z</time>
      </trkpt>
      <trkpt lat="43.63116" lon="3.70292">
        <ele>137.61</ele>
        <time>2016-05-22T09:01:37Z</time>
      </trkpt>
      <trkpt lat="43.63112" lon="3.703">
        <ele>137.13</ele>
        <time>2016-05-22T09:01:38Z</time>
      </trkpt>
      <trkpt lat="43.63104" lon="3.70307">
        <ele>137.13</ele>
        <time>2016-05-22T09:01:39Z</time>
      </trkpt>
      <trkpt lat="43.63086" lon="3.70308">
        <ele>137.61</ele>
        <time>2016-05-22T09:01:40Z</time>
      </trkpt>
      <trkpt lat="43.6307" lon="3.70309">
        <ele>138.09</ele>
        <time>2016-05-22T09:01:41Z</time>
      </trkpt>
      <trkpt lat="43.63053" lon="3.70309">
        <ele>138.57</ele>
        <time>2016-05-22T09:01:42Z</time>
      </trkpt>
      <trkpt lat="43.62899" lon="3.70329">
        <ele>146.26</ele>
        <time>2016-05-22T09:01:51Z</time>
      </trkpt>
      <trkpt lat="43.62741" lon="3.70422">
        <ele>153.95</ele>
        <time>2016-05-22T09:02:00Z</time>
      </trkpt>
      <trkpt lat="43.62563" lon="3.7052">
        <ele>154.91</ele>
        <time>2016-05-22T09:02:09Z</time>
      </trkpt>
      <trkpt lat="43.62337" lon="3.7057">
        <ele>158.27</ele>
        <time>2016-05-22T09:02:19Z</time>
      </trkpt>
      <trkpt lat="43.62317" lon="3.70581">
        <ele>158.75</ele>
        <time>2016-05-22T09:02:20Z</time>
      </trkpt>
      <trkpt lat="43.62299" lon="3.70597">
        <ele>158.75</ele>
        <time>2016-05-22T09:02:21Z</time>
      </trkpt>
      <trkpt lat="43.62282" lon="3.70619">
        <ele>158.75</ele>
        <time>2016-05-22T09:02:22Z</time>
      </trkpt>
      <trkpt lat="43.62268" lon="3.70645">
        <ele>159.24</ele>
        <time>2016-05-22T09:02:23Z</time>
      </trkpt>
      <trkpt lat="43.62253" lon="3.70671">
        <ele>159.72</ele>
        <time>2016-05-22T09:02:24Z</time>
      </trkpt>
      <trkpt lat="43.62136" lon="3.70862">
        <ele>163.56</ele>
        <time>2016-05-22T09:02:32Z</time>
      </trkpt>
      <trkpt lat="43.6212" lon="3.70876">
        <ele>164.04</ele>
        <time>2016-05-22T09:02:33Z</time>
      </trkpt>
      <trkpt lat="43.621" lon="3.70888">
        <ele>165</ele>
        <time>2016-05-22T09:02:34Z</time>
      </trkpt>
      <trkpt lat="43.62079" lon="3.70899">
        <ele>165.96</ele>
        <time>2016-05-22T09:02:35Z</time>
      </trkpt>
      <trkpt lat="43.62056" lon="3.70909">
        <ele>167.41</ele>
        <time>2016-05-22T09:02:36Z</time>
      </trkpt>
      <trkpt lat="43.62033" lon="3.70917">
        <ele>168.37</ele>
        <time>2016-05-22T09:02:37Z</time>
      </trkpt>
      <trkpt lat="43.62009" lon="3.70923">
        <ele>169.33</ele>
        <time>2016-05-22T09:02:38Z</time>
      </trkpt>
      <trkpt lat="43.61985" lon="3.70928">
        <ele>170.29</ele>
        <time>2016-05-22T09:02:39Z</time>
      </trkpt>
      <trkpt lat="43.61885" lon="3.70939">
        <ele>174.14</ele>
        <time>2016-05-22T09:02:43Z</time>
      </trkpt>
      <trkpt lat="43.61859" lon="3.70935">
        <ele>175.58</ele>
        <time>2016-05-22T09:02:44Z</time>
      </trkpt>
      <trkpt lat="43.6171" lon="3.7091">
        <ele>181.35</ele>
        <time>2016-05-22T09:02:50Z</time>
      </trkpt>
      <trkpt lat="43.61688" lon="3.70915">
        <ele>182.31</ele>
        <time>2016-05-22T09:02:51Z</time>
      </trkpt>
      <trkpt lat="43.61666" lon="3.70927">
        <ele>182.79</ele>
        <time>2016-05-22T09:02:52Z</time>
      </trkpt>
      <trkpt lat="43.6148" lon="3.71032">
        <ele>191.44</ele>
        <time>2016-05-22T09:03:00Z</time>
      </trkpt>
      <trkpt lat="43.6137" lon="3.711">
        <ele>192.88</ele>
        <time>2016-05-22T09:03:05Z</time>
      </trkpt>
      <trkpt lat="43.6135" lon="3.71121">
        <ele>193.36</ele>
        <time>2016-05-22T09:03:06Z</time>
      </trkpt>
      <trkpt lat="43.61199" lon="3.71287">
        <ele>197.21</ele>
        <time>2016-05-22T09:03:14Z</time>
      </trkpt>
      <trkpt lat="43.61187" lon="3.71313">
        <ele>197.21</ele>
        <time>2016-05-22T09:03:15Z</time>
      </trkpt>
      <trkpt lat="43.6118" lon="3.71346">
        <ele>197.21</ele>
        <time>2016-05-22T09:03:16Z</time>
      </trkpt>
      <trkpt lat="43.61172" lon="3.71379">
        <ele>197.69</ele>
        <time>2016-05-22T09:03:17Z</time>
      </trkpt>
      <trkpt lat="43.61163" lon="3.71414">
        <ele>197.69</ele>
        <time>2016-05-22T09:03:18Z</time>
      </trkpt>
      <trkpt lat="43.61096" lon="3.71611">
        <ele>199.13</ele>
        <time>2016-05-22T09:03:25Z</time>
      </trkpt>
      <trkpt lat="43.61081" lon="3.71628">
        <ele>199.61</ele>
        <time>2016-05-22T09:03:26Z</time>
      </trkpt>
      <trkpt lat="43.61065" lon="3.7164">
        <ele>200.57</ele>
        <time>2016-05-22T09:03:27Z</time>
      </trkpt>
      <trkpt lat="43.61048" lon="3.71648">
        <ele>200.09</ele>
        <time>2016-05-22T09:03:28Z</time>
      </trkpt>
      <trkpt lat="43.61035" lon="3.71661">
        <ele>200.09</ele>
        <time>2016-05-22T09:03:29Z</time>
      </trkpt>
      <trkpt lat="43.61025" lon="3.71682">
        <ele>200.09</ele>
        <time>2016-05-22T09:03:30Z</time>
      </trkpt>
      <trkpt lat="43.61018" lon="3.71708">
        <ele>199.61</ele>
        <time>2016-05-22T09:03:31Z</time>
      </trkpt>
      <trkpt lat="43.61011" lon="3.71736">
        <ele>200.57</ele>
        <time>2016-05-22T09:03:32Z</time>
      </trkpt>
      <trkpt lat="43.61006" lon="3.71764">
        <ele>201.53</ele>
        <time>2016-05-22T09:03:33Z</time>
      </trkpt>
      <trkpt lat="43.61003" lon="3.71792">
        <ele>201.53</ele>
        <time>2016-05-22T09:03:34Z</time>
      </trkpt>
      <trkpt lat="43.61003" lon="3.71822">
        <ele>201.53</ele>
        <time>2016-05-22T09:03:35Z</time>
      </trkpt>
      <trkpt lat="43.61006" lon="3.71853">
        <ele>201.53</ele>
        <time>2016-05-22T09:03:36Z</time>
      </trkpt>
      <trkpt lat="43.61009" lon="3.71884">
        <ele>201.05</ele>
        <time>2016-05-22T09:03:37Z</time>
      </trkpt>
      <trkpt lat="43.61006" lon="3.72015">
        <ele>200.57</ele>
        <time>2016-05-22T09:03:41Z</time>
      </trkpt>
      <trkpt lat="43.61001" lon="3.72047">
        <ele>200.09</ele>
        <time>2016-05-22T09:03:42Z</time>
      </trkpt>
      <trkpt lat="43.60957" lon="3.72242">
        <ele>195.77</ele>
        <time>2016-05-22T09:03:49Z</time>
      </trkpt>
      <trkpt lat="43.60934" lon="3.72267">
        <ele>194.8</ele>
        <time>2016-05-22T09:03:51Z</time>
      </trkpt>
      <trkpt lat="43.60921" lon="3.72275">
        <ele>195.28</ele>
        <time>2016-05-22T09:03:52Z</time>
      </trkpt>
      <trkpt lat="43.60905" lon="3.72275">
        <ele>194.8</ele>
        <time>2016-05-22T09:03:53Z</time>
      </trkpt>
      <trkpt lat="43.60884" lon="3.72267">
        <ele>192.4</ele>
        <time>2016-05-22T09:03:54Z</time>
      </trkpt>
      <trkpt lat="43.60867" lon="3.72257">
        <ele>191.44</ele>
        <time>2016-05-22T09:03:55Z</time>
      </trkpt>
      <trkpt lat="43.60853" lon="3.72239">
        <ele>190.48</ele>
        <time>2016-05-22T09:03:56Z</time>
      </trkpt>
      <trkpt lat="43.6084" lon="3.72223">
        <ele>190</ele>
        <time>2016-05-22T09:03:57Z</time>
      </trkpt>
      <trkpt lat="43.60826" lon="3.7221">
        <ele>190</ele>
        <time>2016-05-22T09:03:58Z</time>
      </trkpt>
      <trkpt lat="43.60809" lon="3.722">
        <ele>189.52</ele>
        <time>2016-05-22T09:03:59Z</time>
      </trkpt>
      <trkpt lat="43.60792" lon="3.72199">
        <ele>187.59</ele>
        <time>2016-05-22T09:04:00Z</time>
      </trkpt>
      <trkpt lat="43.60774" lon="3.72207">
        <ele>187.11</ele>
        <time>2016-05-22T09:04:01Z</time>
      </trkpt>
      <trkpt lat="43.60755" lon="3.72219">
        <ele>186.15</ele>
        <time>2016-05-22T09:04:02Z</time>
      </trkpt>
      <trkpt lat="43.60736" lon="3.72234">
        <ele>184.71</ele>
        <time>2016-05-22T09:04:03Z</time>
      </trkpt>
      <trkpt lat="43.6072" lon="3.72255">
        <ele>183.75</ele>
        <time>2016-05-22T09:04:04Z</time>
      </trkpt>
      <trkpt lat="43.60711" lon="3.72278">
        <ele>180.87</ele>
        <time>2016-05-22T09:04:05Z</time>
      </trkpt>
      <trkpt lat="43.60704" lon="3.72306">
        <ele>178.94</ele>
        <time>2016-05-22T09:04:06Z</time>
      </trkpt>
      <trkpt lat="43.607" lon="3.72334">
        <ele>177.5</ele>
        <time>2016-05-22T09:04:07Z</time>
      </trkpt>
      <trkpt lat="43.60698" lon="3.72361">
        <ele>176.54</ele>
        <time>2016-05-22T09:04:08Z</time>
      </trkpt>
      <trkpt lat="43.60697" lon="3.7239">
        <ele>174.62</ele>
        <time>2016-05-22T09:04:09Z</time>
      </trkpt>
      <trkpt lat="43.60704" lon="3.7242">
        <ele>174.62</ele>
        <time>2016-05-22T09:04:10Z</time>
      </trkpt>
      <trkpt lat="43.60711" lon="3.7245">
        <ele>174.14</ele>
        <time>2016-05-22T09:04:11Z</time>
      </trkpt>
      <trkpt lat="43.6072" lon="3.7248">
        <ele>173.17</ele>
        <time>2016-05-22T09:04:12Z</time>
      </trkpt>
      <trkpt lat="43.60729" lon="3.72509">
        <ele>172.21</ele>
        <time>2016-05-22T09:04:13Z</time>
      </trkpt>
      <trkpt lat="43.6074" lon="3.72536">
        <ele>171.25</ele>
        <time>2016-05-22T09:04:14Z</time>
      </trkpt>
      <trkpt lat="43.6075" lon="3.72563">
        <ele>170.77</ele>
        <time>2016-05-22T09:04:15Z</time>
      </trkpt>
      <trkpt lat="43.60759" lon="3.7259">
        <ele>169.81</ele>
        <time>2016-05-22T09:04:16Z</time>
      </trkpt>
      <trkpt lat="43.60766" lon="3.72619">
        <ele>168.85</ele>
        <time>2016-05-22T09:04:17Z</time>
      </trkpt>
      <trkpt lat="43.60771" lon="3.72649">
        <ele>167.89</ele>
        <time>2016-05-22T09:04:18Z</time>
      </trkpt>
      <trkpt lat="43.60773" lon="3.7268">
        <ele>167.41</ele>
        <time>2016-05-22T09:04:19Z</time>
      </trkpt>
      <trkpt lat="43.60772" lon="3.72711">
        <ele>166.45</ele>
        <time>2016-05-22T09:04:20Z</time>
      </trkpt>
      <trkpt lat="43.60766" lon="3.72742">
        <ele>165.48</ele>
        <time>2016-05-22T09:04:21Z</time>
      </trkpt>
      <trkpt lat="43.6076" lon="3.72774">
        <ele>165</ele>
        <time>2016-05-22T09:04:22Z</time>
      </trkpt>
      <trkpt lat="43.60752" lon="3.72806">
        <ele>164.04</ele>
        <time>2016-05-22T09:04:23Z</time>
      </trkpt>
      <trkpt lat="43.60744" lon="3.72838">
        <ele>163.08</ele>
        <time>2016-05-22T09:04:24Z</time>
      </trkpt>
      <trkpt lat="43.60724" lon="3.72928">
        <ele>159.72</ele>
        <time>2016-05-22T09:04:27Z</time>
      </trkpt>
      <trkpt lat="43.60721" lon="3.7296">
        <ele>158.75</ele>
        <time>2016-05-22T09:04:28Z</time>
      </trkpt>
      <trkpt lat="43.60701" lon="3.73173">
        <ele>151.06</ele>
        <time>2016-05-22T09:04:36Z</time>
      </trkpt>
      <trkpt lat="43.60656" lon="3.73358">
        <ele>143.85</ele>
        <time>2016-05-22T09:04:45Z</time>
      </trkpt>
      <trkpt lat="43.60636" lon="3.7343">
        <ele>140.97</ele>
        <time>2016-05-22T09:04:51Z</time>
      </trkpt>
      <trkpt lat="43.60628" lon="3.7345">
        <ele>140.49</ele>
        <time>2016-05-22T09:04:53Z</time>
      </trkpt>
      <trkpt lat="43.60622" lon="3.73458">
        <ele>140.49</ele>
        <time>2016-05-22T09:04:54Z</time>
      </trkpt>
      <trkpt lat="43.60613" lon="3.73462">
        <ele>140.49</ele>
        <time>2016-05-22T09:04:55Z</time>
      </trkpt>
      <trkpt lat="43.60603" lon="3.7346">
        <ele>140.01</ele>
        <time>2016-05-22T09:04:56Z</time>
      </trkpt>
      <trkpt lat="43.60594" lon="3.73458">
        <ele>139.53</ele>
        <time>2016-05-22T09:04:57Z</time>
      </trkpt>
      <trkpt lat="43.60582" lon="3.73454">
        <ele>138.57</ele>
        <time>2016-05-22T09:04:58Z</time>
      </trkpt>
      <trkpt lat="43.60572" lon="3.73451">
        <ele>138.57</ele>
        <time>2016-05-22T09:04:59Z</time>
      </trkpt>
      <trkpt lat="43.60543" lon="3.73444">
        <ele>137.13</ele>
        <time>2016-05-22T09:05:02Z</time>
      </trkpt>
      <trkpt lat="43.60535" lon="3.73446">
        <ele>136.64</ele>
        <time>2016-05-22T09:05:03Z</time>
      </trkpt>
      <trkpt lat="43.60527" lon="3.73449">
        <ele>136.16</ele>
        <time>2016-05-22T09:05:04Z</time>
      </trkpt>
      <trkpt lat="43.6052" lon="3.73459">
        <ele>135.68</ele>
        <time>2016-05-22T09:05:05Z</time>
      </trkpt>
      <trkpt lat="43.60515" lon="3.7347">
        <ele>135.2</ele>
        <time>2016-05-22T09:05:06Z</time>
      </trkpt>
      <trkpt lat="43.60512" lon="3.7348">
        <ele>134.24</ele>
        <time>2016-05-22T09:05:07Z</time>
      </trkpt>
      <trkpt lat="43.60509" lon="3.73494">
        <ele>134.24</ele>
        <time>2016-05-22T09:05:08Z</time>
      </trkpt>
      <trkpt lat="43.60508" lon="3.73506">
        <ele>134.72</ele>
        <time>2016-05-22T09:05:09Z</time>
      </trkpt>
      <trkpt lat="43.60506" lon="3.73517">
        <ele>134.72</ele>
        <time>2016-05-22T09:05:10Z</time>
      </trkpt>
      <trkpt lat="43.60505" lon="3.73527">
        <ele>134.72</ele>
        <time>2016-05-22T09:05:11Z</time>
      </trkpt>
      <trkpt lat="43.60502" lon="3.73542">
        <ele>134.24</ele>
        <time>2016-05-22T09:05:14Z</time>
      </trkpt>
      <trkpt lat="43.60503" lon="3.73541">
        <ele>137.13</ele>
        <time>2016-05-22T09:05:30Z</time>
      </trkpt>
      <trkpt lat="43.605" lon="3.73543">
        <ele>139.53</ele>
        <time>2016-05-22T09:05:41Z</time>
      </trkpt>
      <trkpt lat="43.60497" lon="3.73543">
        <ele>140.49</ele>
        <time>2016-05-22T09:05:42Z</time>
      </trkpt>
      <trkpt lat="43.60493" lon="3.73542">
        <ele>140.49</ele>
        <time>2016-05-22T09:05:43Z</time>
      </trkpt>
      <trkpt lat="43.60375" lon="3.73669">
        <ele>151.06</ele>
        <time>2016-05-22T09:06:37Z</time>
      </trkpt>
      <trkpt lat="43.6037" lon="3.73673">
        <ele>151.06</ele>
        <time>2016-05-22T09:06:51Z</time>
      </trkpt>
      <trkpt lat="43.60367" lon="3.73673">
        <ele>150.1</ele>
        <time>2016-05-22T09:06:57Z</time>
      </trkpt>
      <trkpt lat="43.60366" lon="3.73675">
        <ele>149.14</ele>
        <time>2016-05-22T09:06:58Z</time>
      </trkpt>
      <trkpt lat="43.60364" lon="3.73679">
        <ele>149.14</ele>
        <time>2016-05-22T09:06:59Z</time>
      </trkpt>
      <trkpt lat="43.60322" lon="3.73743">
        <ele>138.09</ele>
        <time>2016-05-22T09:07:12Z</time>
      </trkpt>
      <trkpt lat="43.60266" lon="3.73824">
        <ele>124.15</ele>
        <time>2016-05-22T09:07:23Z</time>
      </trkpt>
      <trkpt lat="43.60219" lon="3.73899">
        <ele>113.57</ele>
        <time>2016-05-22T09:07:33Z</time>
      </trkpt>
      <trkpt lat="43.60217" lon="3.739">
        <ele>115.5</ele>
        <time>2016-05-22T09:08:03Z</time>
      </trkpt>
      <trkpt lat="43.60213" lon="3.73903">
        <ele>115.98</ele>
        <time>2016-05-22T09:08:04Z</time>
      </trkpt>
      <trkpt lat="43.60204" lon="3.73906">
        <ele>116.46</ele>
        <time>2016-05-22T09:08:05Z</time>
      </trkpt>
      <trkpt lat="43.60117" lon="3.73938">
        <ele>120.3</ele>
        <time>2016-05-22T09:08:13Z</time>
      </trkpt>
      <trkpt lat="43.60087" lon="3.73952">
        <ele>121.26</ele>
        <time>2016-05-22T09:08:16Z</time>
      </trkpt>
      <trkpt lat="43.60079" lon="3.73952">
        <ele>121.74</ele>
        <time>2016-05-22T09:08:17Z</time>
      </trkpt>
      <trkpt lat="43.60063" lon="3.73954">
        <ele>122.71</ele>
        <time>2016-05-22T09:08:19Z</time>
      </trkpt>
      <trkpt lat="43.60057" lon="3.73964">
        <ele>123.19</ele>
        <time>2016-05-22T09:08:20Z</time>
      </trkpt>
      <trkpt lat="43.60051" lon="3.73975">
        <ele>123.19</ele>
        <time>2016-05-22T09:08:21Z</time>
      </trkpt>
      <trkpt lat="43.60041" lon="3.73989">
        <ele>123.67</ele>
        <time>2016-05-22T09:08:22Z</time>
      </trkpt>
      <trkpt lat="43.60031" lon="3.74003">
        <ele>124.15</ele>
        <time>2016-05-22T09:08:23Z</time>
      </trkpt>
      <trkpt lat="43.60021" lon="3.74022">
        <ele>124.63</ele>
        <time>2016-05-22T09:08:24Z</time>
      </trkpt>
      <trkpt lat="43.60014" lon="3.74043">
        <ele>125.11</ele>
        <time>2016-05-22T09:08:25Z</time>
      </trkpt>
      <trkpt lat="43.60007" lon="3.74065">
        <ele>125.59</ele>
        <time>2016-05-22T09:08:26Z</time>
      </trkpt>
      <trkpt lat="43.59925" lon="3.74264">
        <ele>125.11</ele>
        <time>2016-05-22T09:08:35Z</time>
      </trkpt>
      <trkpt lat="43.5982" lon="3.74407">
        <ele>119.34</ele>
        <time>2016-05-22T09:08:43Z</time>
      </trkpt>
      <trkpt lat="43.59639" lon="3.74589">
        <ele>114.05</ele>
        <time>2016-05-22T09:08:54Z</time>
      </trkpt>
      <trkpt lat="43.59627" lon="3.74612">
        <ele>114.05</ele>
        <time>2016-05-22T09:08:55Z</time>
      </trkpt>
      <trkpt lat="43.59585" lon="3.74693">
        <ele>114.53</ele>
        <time>2016-05-22T09:08:59Z</time>
      </trkpt>
      <trkpt lat="43.59571" lon="3.7471">
        <ele>114.53</ele>
        <time>2016-05-22T09:09:00Z</time>
      </trkpt>
      <trkpt lat="43.59415" lon="3.749">
        <ele>107.32</ele>
        <time>2016-05-22T09:09:10Z</time>
      </trkpt>
      <trkpt lat="43.59272" lon="3.75064">
        <ele>101.56</ele>
        <time>2016-05-22T09:09:20Z</time>
      </trkpt>
      <trkpt lat="43.59255" lon="3.75075">
        <ele>100.6</ele>
        <time>2016-05-22T09:09:21Z</time>
      </trkpt>
      <trkpt lat="43.59237" lon="3.75086">
        <ele>100.11</ele>
        <time>2016-05-22T09:09:22Z</time>
      </trkpt>
      <trkpt lat="43.59218" lon="3.75095">
        <ele>100.11</ele>
        <time>2016-05-22T09:09:23Z</time>
      </trkpt>
      <trkpt lat="43.59095" lon="3.75166">
        <ele>99.63</ele>
        <time>2016-05-22T09:09:31Z</time>
      </trkpt>
      <trkpt lat="43.59027" lon="3.75249">
        <ele>100.11</ele>
        <time>2016-05-22T09:09:39Z</time>
      </trkpt>
      <trkpt lat="43.58953" lon="3.75346">
        <ele>96.27</ele>
        <time>2016-05-22T09:09:50Z</time>
      </trkpt>
      <trkpt lat="43.58946" lon="3.75353">
        <ele>95.79</ele>
        <time>2016-05-22T09:09:51Z</time>
      </trkpt>
      <trkpt lat="43.58937" lon="3.75357">
        <ele>94.83</ele>
        <time>2016-05-22T09:09:52Z</time>
      </trkpt>
      <trkpt lat="43.58927" lon="3.75354">
        <ele>94.35</ele>
        <time>2016-05-22T09:09:53Z</time>
      </trkpt>
      <trkpt lat="43.58917" lon="3.75346">
        <ele>93.87</ele>
        <time>2016-05-22T09:09:54Z</time>
      </trkpt>
      <trkpt lat="43.58909" lon="3.75337">
        <ele>92.9</ele>
        <time>2016-05-22T09:09:55Z</time>
      </trkpt>
      <trkpt lat="43.589" lon="3.75326">
        <ele>92.42</ele>
        <time>2016-05-22T09:09:56Z</time>
      </trkpt>
      <trkpt lat="43.58844" lon="3.75261">
        <ele>88.58</ele>
        <time>2016-05-22T09:10:03Z</time>
      </trkpt>
      <trkpt lat="43.58834" lon="3.75257">
        <ele>87.62</ele>
        <time>2016-05-22T09:10:04Z</time>
      </trkpt>
      <trkpt lat="43.58823" lon="3.75256">
        <ele>87.14</ele>
        <time>2016-05-22T09:10:05Z</time>
      </trkpt>
      <trkpt lat="43.58812" lon="3.75257">
        <ele>86.66</ele>
        <time>2016-05-22T09:10:06Z</time>
      </trkpt>
      <trkpt lat="43.588" lon="3.75261">
        <ele>86.18</ele>
        <time>2016-05-22T09:10:07Z</time>
      </trkpt>
      <trkpt lat="43.58789" lon="3.75266">
        <ele>85.69</ele>
        <time>2016-05-22T09:10:08Z</time>
      </trkpt>
      <trkpt lat="43.58724" lon="3.75303">
        <ele>81.37</ele>
        <time>2016-05-22T09:10:14Z</time>
      </trkpt>
      <trkpt lat="43.58716" lon="3.75312">
        <ele>80.89</ele>
        <time>2016-05-22T09:10:15Z</time>
      </trkpt>
      <trkpt lat="43.5871" lon="3.75324">
        <ele>80.41</ele>
        <time>2016-05-22T09:10:16Z</time>
      </trkpt>
      <trkpt lat="43.58706" lon="3.75337">
        <ele>79.45</ele>
        <time>2016-05-22T09:10:17Z</time>
      </trkpt>
      <trkpt lat="43.58703" lon="3.75353">
        <ele>78.97</ele>
        <time>2016-05-22T09:10:18Z</time>
      </trkpt>
      <trkpt lat="43.58701" lon="3.7537">
        <ele>78</ele>
        <time>2016-05-22T09:10:19Z</time>
      </trkpt>
      <trkpt lat="43.58699" lon="3.75386">
        <ele>77.04</ele>
        <time>2016-05-22T09:10:20Z</time>
      </trkpt>
      <trkpt lat="43.58691" lon="3.75441">
        <ele>74.64</ele>
        <time>2016-05-22T09:10:24Z</time>
      </trkpt>
      <trkpt lat="43.58687" lon="3.75453">
        <ele>74.16</ele>
        <time>2016-05-22T09:10:25Z</time>
      </trkpt>
      <trkpt lat="43.58683" lon="3.75465">
        <ele>73.68</ele>
        <time>2016-05-22T09:10:26Z</time>
      </trkpt>
      <trkpt lat="43.58678" lon="3.75476">
        <ele>73.2</ele>
        <time>2016-05-22T09:10:27Z</time>
      </trkpt>
      <trkpt lat="43.58673" lon="3.75487">
        <ele>72.72</ele>
        <time>2016-05-22T09:10:28Z</time>
      </trkpt>
      <trkpt lat="43.58668" lon="3.75496">
        <ele>72.24</ele>
        <time>2016-05-22T09:10:29Z</time>
      </trkpt>
      <trkpt lat="43.58662" lon="3.75506">
        <ele>71.76</ele>
        <time>2016-05-22T09:10:30Z</time>
      </trkpt>
      <trkpt lat="43.5859" lon="3.75567">
        <ele>67.91</ele>
        <time>2016-05-22T09:10:39Z</time>
      </trkpt>
      <trkpt lat="43.58518" lon="3.75622">
        <ele>64.07</ele>
        <time>2016-05-22T09:10:47Z</time>
      </trkpt>
      <trkpt lat="43.58512" lon="3.7563">
        <ele>63.58</ele>
        <time>2016-05-22T09:10:48Z</time>
      </trkpt>
      <trkpt lat="43.58507" lon="3.75641">
        <ele>63.1</ele>
        <time>2016-05-22T09:10:49Z</time>
      </trkpt>
      <trkpt lat="43.58503" lon="3.75652">
        <ele>62.14</ele>
        <time>2016-05-22T09:10:50Z</time>
      </trkpt>
      <trkpt lat="43.585" lon="3.75663">
        <ele>61.66</ele>
        <time>2016-05-22T09:10:51Z</time>
      </trkpt>
      <trkpt lat="43.58476" lon="3.75752">
        <ele>57.82</ele>
        <time>2016-05-22T09:11:01Z</time>
      </trkpt>
      <trkpt lat="43.58473" lon="3.75757">
        <ele>56.86</ele>
        <time>2016-05-22T09:11:10Z</time>
      </trkpt>
      <trkpt lat="43.58472" lon="3.75761">
        <ele>61.18</ele>
        <time>2016-05-22T09:12:11Z</time>
      </trkpt>
      <trkpt lat="43.58469" lon="3.75765">
        <ele>60.7</ele>
        <time>2016-05-22T09:12:12Z</time>
      </trkpt>
      <trkpt lat="43.58466" lon="3.75771">
        <ele>59.74</ele>
        <time>2016-05-22T09:12:13Z</time>
      </trkpt>
      <trkpt lat="43.58465" lon="3.75778">
        <ele>59.26</ele>
        <time>2016-05-22T09:12:14Z</time>
      </trkpt>
      <trkpt lat="43.58464" lon="3.75786">
        <ele>58.78</ele>
        <time>2016-05-22T09:12:15Z</time>
      </trkpt>
      <trkpt lat="43.58461" lon="3.75794">
        <ele>58.3</ele>
        <time>2016-05-22T09:12:16Z</time>
      </trkpt>
      <trkpt lat="43.58457" lon="3.75803">
        <ele>57.82</ele>
        <time>2016-05-22T09:12:17Z</time>
      </trkpt>
      <trkpt lat="43.58401" lon="3.75946">
        <ele>53.49</ele>
        <time>2016-05-22T09:12:30Z</time>
      </trkpt>
      <trkpt lat="43.58378" lon="3.76019">
        <ele>53.97</ele>
        <time>2016-05-22T09:12:37Z</time>
      </trkpt>
      <trkpt lat="43.58379" lon="3.76025">
        <ele>53.01</ele>
        <time>2016-05-22T09:12:38Z</time>
      </trkpt>
      <trkpt lat="43.58382" lon="3.76031">
        <ele>53.01</ele>
        <time>2016-05-22T09:12:39Z</time>
      </trkpt>
      <trkpt lat="43.58387" lon="3.76036">
        <ele>52.53</ele>
        <time>2016-05-22T09:12:40Z</time>
      </trkpt>
      <trkpt lat="43.58392" lon="3.76043">
        <ele>52.05</ele>
        <time>2016-05-22T09:12:41Z</time>
      </trkpt>
      <trkpt lat="43.58467" lon="3.76145">
        <ele>48.2</ele>
        <time>2016-05-22T09:12:54Z</time>
      </trkpt>
      <trkpt lat="43.58494" lon="3.76186">
        <ele>47.72</ele>
        <time>2016-05-22T09:12:59Z</time>
      </trkpt>
      <trkpt lat="43.58498" lon="3.76195">
        <ele>47.72</ele>
        <time>2016-05-22T09:13:00Z</time>
      </trkpt>
      <trkpt lat="43.58511" lon="3.76227">
        <ele>46.76</ele>
        <time>2016-05-22T09:13:07Z</time>
      </trkpt>
      <trkpt lat="43.58529" lon="3.76266">
        <ele>46.28</ele>
        <time>2016-05-22T09:13:14Z</time>
      </trkpt>
      <trkpt lat="43.58573" lon="3.76344">
        <ele>46.76</ele>
        <time>2016-05-22T09:13:25Z</time>
      </trkpt>
      <trkpt lat="43.58588" lon="3.76374">
        <ele>46.76</ele>
        <time>2016-05-22T09:13:34Z</time>
      </trkpt>
      <trkpt lat="43.5859" lon="3.76375">
        <ele>49.16</ele>
        <time>2016-05-22T09:14:40Z</time>
      </trkpt>
      <trkpt lat="43.58591" lon="3.76375">
        <ele>49.16</ele>
        <time>2016-05-22T09:14:41Z</time>
      </trkpt>
      <trkpt lat="43.58592" lon="3.76377">
        <ele>49.16</ele>
        <time>2016-05-22T09:14:42Z</time>
      </trkpt>
      <trkpt lat="43.58595" lon="3.76381">
        <ele>49.16</ele>
        <time>2016-05-22T09:14:43Z</time>
      </trkpt>
      <trkpt lat="43.58634" lon="3.76451">
        <ele>48.68</ele>
        <time>2016-05-22T09:14:53Z</time>
      </trkpt>
      <trkpt lat="43.587" lon="3.7657">
        <ele>48.2</ele>
        <time>2016-05-22T09:15:05Z</time>
      </trkpt>
      <trkpt lat="43.58763" lon="3.76689">
        <ele>48.68</ele>
        <time>2016-05-22T09:15:16Z</time>
      </trkpt>
      <trkpt lat="43.58765" lon="3.76695">
        <ele>48.68</ele>
        <time>2016-05-22T09:15:17Z</time>
      </trkpt>
      <trkpt lat="43.58765" lon="3.76699">
        <ele>48.68</ele>
        <time>2016-05-22T09:15:18Z</time>
      </trkpt>
      <trkpt lat="43.58761" lon="3.76703">
        <ele>49.16</ele>
        <time>2016-05-22T09:15:24Z</time>
      </trkpt>
      <trkpt lat="43.58758" lon="3.76705">
        <ele>49.16</ele>
        <time>2016-05-22T09:15:25Z</time>
      </trkpt>
      <trkpt lat="43.5875" lon="3.76704">
        <ele>48.68</ele>
        <time>2016-05-22T09:15:26Z</time>
      </trkpt>
      <trkpt lat="43.58743" lon="3.76703">
        <ele>48.68</ele>
        <time>2016-05-22T09:15:27Z</time>
      </trkpt>
      <trkpt lat="43.58735" lon="3.76703">
        <ele>48.68</ele>
        <time>2016-05-22T09:15:28Z</time>
      </trkpt>
      <trkpt lat="43.58637" lon="3.76691">
        <ele>47.72</ele>
        <time>2016-05-22T09:15:39Z</time>
      </trkpt>
      <trkpt lat="43.58549" lon="3.76704">
        <ele>46.76</ele>
        <time>2016-05-22T09:15:48Z</time>
      </trkpt>
      <trkpt lat="43.58492" lon="3.76732">
        <ele>46.28</ele>
        <time>2016-05-22T09:15:55Z</time>
      </trkpt>
      <trkpt lat="43.58452" lon="3.76752">
        <ele>49.65</ele>
        <time>2016-05-22T09:16:02Z</time>
      </trkpt>
      <trkpt lat="43.5845" lon="3.76751">
        <ele>50.13</ele>
        <time>2016-05-22T09:16:04Z</time>
      </trkpt>
      <trkpt lat="43.58448" lon="3.76749">
        <ele>50.13</ele>
        <time>2016-05-22T09:16:05Z</time>
      </trkpt>
      <trkpt lat="43.58447" lon="3.7674">
        <ele>49.65</ele>
        <time>2016-05-22T09:16:06Z</time>
      </trkpt>
      <trkpt lat="43.58442" lon="3.76723">
        <ele>48.68</ele>
        <time>2016-05-22T09:16:08Z</time>
      </trkpt>
      <trkpt lat="43.58411" lon="3.76634">
        <ele>45.8</ele>
        <time>2016-05-22T09:16:17Z</time>
      </trkpt>
      <trkpt lat="43.58383" lon="3.7657">
        <ele>44.36</ele>
        <time>2016-05-22T09:16:26Z</time>
      </trkpt>
      <trkpt lat="43.58362" lon="3.76526">
        <ele>43.88</ele>
        <time>2016-05-22T09:16:33Z</time>
      </trkpt>
      <trkpt lat="43.58354" lon="3.7651">
        <ele>42.92</ele>
        <time>2016-05-22T09:16:35Z</time>
      </trkpt>
      <trkpt lat="43.58346" lon="3.76492">
        <ele>42.92</ele>
        <time>2016-05-22T09:16:37Z</time>
      </trkpt>
      <trkpt lat="43.58341" lon="3.76483">
        <ele>42.92</ele>
        <time>2016-05-22T09:16:38Z</time>
      </trkpt>
      <trkpt lat="43.58329" lon="3.76448">
        <ele>43.88</ele>
        <time>2016-05-22T09:16:44Z</time>
      </trkpt>
      <trkpt lat="43.58319" lon="3.76431">
        <ele>44.36</ele>
        <time>2016-05-22T09:16:47Z</time>
      </trkpt>
      <trkpt lat="43.58317" lon="3.76424">
        <ele>43.4</ele>
        <time>2016-05-22T09:16:48Z</time>
      </trkpt>
      <trkpt lat="43.58304" lon="3.76394">
        <ele>43.4</ele>
        <time>2016-05-22T09:16:53Z</time>
      </trkpt>
      <trkpt lat="43.58301" lon="3.76388">
        <ele>43.4</ele>
        <time>2016-05-22T09:16:54Z</time>
      </trkpt>
      <trkpt lat="43.58298" lon="3.76381">
        <ele>43.4</ele>
        <time>2016-05-22T09:16:55Z</time>
      </trkpt>
      <trkpt lat="43.58295" lon="3.76375">
        <ele>43.4</ele>
        <time>2016-05-22T09:16:56Z</time>
      </trkpt>
      <trkpt lat="43.58293" lon="3.76368">
        <ele>43.4</ele>
        <time>2016-05-22T09:16:57Z</time>
      </trkpt>
      <trkpt lat="43.58287" lon="3.76352">
        <ele>42.92</ele>
        <time>2016-05-22T09:17:00Z</time>
      </trkpt>
      <trkpt lat="43.58285" lon="3.76348">
        <ele>43.4</ele>
        <time>2016-05-22T09:17:01Z</time>
      </trkpt>
      <trkpt lat="43.58278" lon="3.76341">
        <ele>46.28</ele>
        <time>2016-05-22T09:17:10Z</time>
      </trkpt>
      <trkpt lat="43.58279" lon="3.7634">
        <ele>47.24</ele>
        <time>2016-05-22T09:17:34Z</time>
      </trkpt>
      <trkpt lat="43.5828" lon="3.76339">
        <ele>47.24</ele>
        <time>2016-05-22T09:17:35Z</time>
      </trkpt>
      <trkpt lat="43.58281" lon="3.76338">
        <ele>47.24</ele>
        <time>2016-05-22T09:17:36Z</time>
      </trkpt>
      <trkpt lat="43.58282" lon="3.76337">
        <ele>47.24</ele>
        <time>2016-05-22T09:17:37Z</time>
      </trkpt>
      <trkpt lat="43.58283" lon="3.76335">
        <ele>47.24</ele>
        <time>2016-05-22T09:17:38Z</time>
      </trkpt>
      <trkpt lat="43.58284" lon="3.76333">
        <ele>46.76</ele>
        <time>2016-05-22T09:17:39Z</time>
      </trkpt>
      <trkpt lat="43.58298" lon="3.76313">
        <ele>47.24</ele>
        <time>2016-05-22T09:17:43Z</time>
      </trkpt>
      <trkpt lat="43.58325" lon="3.76277">
        <ele>46.28</ele>
        <time>2016-05-22T09:17:49Z</time>
      </trkpt>
      <trkpt lat="43.58328" lon="3.76269">
        <ele>46.28</ele>
        <time>2016-05-22T09:17:50Z</time>
      </trkpt>
      <trkpt lat="43.58338" lon="3.76246">
        <ele>46.76</ele>
        <time>2016-05-22T09:17:53Z</time>
      </trkpt>
      <trkpt lat="43.58355" lon="3.76198">
        <ele>47.24</ele>
        <time>2016-05-22T09:17:59Z</time>
      </trkpt>
      <trkpt lat="43.58357" lon="3.76192">
        <ele>47.72</ele>
        <time>2016-05-22T09:18:00Z</time>
      </trkpt>
      <trkpt lat="43.58358" lon="3.76187">
        <ele>46.76</ele>
        <time>2016-05-22T09:18:01Z</time>
      </trkpt>
      <trkpt lat="43.58356" lon="3.76178">
        <ele>46.76</ele>
        <time>2016-05-22T09:18:02Z</time>
      </trkpt>
      <trkpt lat="43.58351" lon="3.7617">
        <ele>46.28</ele>
        <time>2016-05-22T09:18:03Z</time>
      </trkpt>
      <trkpt lat="43.58346" lon="3.76163">
        <ele>45.8</ele>
        <time>2016-05-22T09:18:04Z</time>
      </trkpt>
      <trkpt lat="43.58336" lon="3.76151">
        <ele>45.32</ele>
        <time>2016-05-22T09:18:06Z</time>
      </trkpt>
      <trkpt lat="43.58332" lon="3.76147">
        <ele>45.8</ele>
        <time>2016-05-22T09:18:07Z</time>
      </trkpt>
      <trkpt lat="43.58273" lon="3.76091">
        <ele>48.68</ele>
        <time>2016-05-22T09:18:17Z</time>
      </trkpt>
      <trkpt lat="43.58231" lon="3.76057">
        <ele>49.65</ele>
        <time>2016-05-22T09:18:25Z</time>
      </trkpt>
      <trkpt lat="43.58129" lon="3.75967">
        <ele>47.24</ele>
        <time>2016-05-22T09:18:39Z</time>
      </trkpt>
      <trkpt lat="43.5806" lon="3.75905">
        <ele>47.24</ele>
        <time>2016-05-22T09:18:47Z</time>
      </trkpt>
      <trkpt lat="43.58049" lon="3.75893">
        <ele>47.24</ele>
        <time>2016-05-22T09:18:49Z</time>
      </trkpt>
      <trkpt lat="43.58043" lon="3.75894">
        <ele>47.24</ele>
        <time>2016-05-22T09:18:50Z</time>
      </trkpt>
      <trkpt lat="43.58038" lon="3.75898">
        <ele>46.76</ele>
        <time>2016-05-22T09:18:51Z</time>
      </trkpt>
      <trkpt lat="43.58031" lon="3.75906">
        <ele>46.76</ele>
        <time>2016-05-22T09:18:52Z</time>
      </trkpt>
      <trkpt lat="43.58024" lon="3.75913">
        <ele>46.28</ele>
        <time>2016-05-22T09:18:53Z</time>
      </trkpt>
      <trkpt lat="43.58005" lon="3.75935">
        <ele>44.84</ele>
        <time>2016-05-22T09:18:56Z</time>
      </trkpt>
      <trkpt lat="43.57998" lon="3.75939">
        <ele>44.36</ele>
        <time>2016-05-22T09:18:57Z</time>
      </trkpt>
      <trkpt lat="43.57989" lon="3.75938">
        <ele>43.88</ele>
        <time>2016-05-22T09:18:58Z</time>
      </trkpt>
      <trkpt lat="43.5798" lon="3.75932">
        <ele>43.88</ele>
        <time>2016-05-22T09:18:59Z</time>
      </trkpt>
      <trkpt lat="43.57971" lon="3.75923">
        <ele>43.88</ele>
        <time>2016-05-22T09:19:00Z</time>
      </trkpt>
      <trkpt lat="43.57962" lon="3.75913">
        <ele>43.88</ele>
        <time>2016-05-22T09:19:01Z</time>
      </trkpt>
      <trkpt lat="43.57953" lon="3.75902">
        <ele>43.88</ele>
        <time>2016-05-22T09:19:02Z</time>
      </trkpt>
      <trkpt lat="43.5792" lon="3.75854">
        <ele>44.36</ele>
        <time>2016-05-22T09:19:06Z</time>
      </trkpt>
      <trkpt lat="43.57913" lon="3.7584">
        <ele>44.36</ele>
        <time>2016-05-22T09:19:07Z</time>
      </trkpt>
      <trkpt lat="43.57909" lon="3.75824">
        <ele>44.84</ele>
        <time>2016-05-22T09:19:08Z</time>
      </trkpt>
      <trkpt lat="43.57877" lon="3.75658">
        <ele>47.72</ele>
        <time>2016-05-22T09:19:18Z</time>
      </trkpt>
      <trkpt lat="43.57873" lon="3.75645">
        <ele>48.2</ele>
        <time>2016-05-22T09:19:19Z</time>
      </trkpt>
      <trkpt lat="43.57868" lon="3.75637">
        <ele>48.2</ele>
        <time>2016-05-22T09:19:20Z</time>
      </trkpt>
      <trkpt lat="43.57859" lon="3.75623">
        <ele>48.68</ele>
        <time>2016-05-22T09:19:22Z</time>
      </trkpt>
      <trkpt lat="43.57855" lon="3.75614">
        <ele>48.68</ele>
        <time>2016-05-22T09:19:23Z</time>
      </trkpt>
      <trkpt lat="43.5785" lon="3.75607">
        <ele>48.68</ele>
        <time>2016-05-22T09:19:24Z</time>
      </trkpt>
      <trkpt lat="43.57842" lon="3.75603">
        <ele>48.2</ele>
        <time>2016-05-22T09:19:25Z</time>
      </trkpt>
      <trkpt lat="43.57833" lon="3.75605">
        <ele>48.2</ele>
        <time>2016-05-22T09:19:26Z</time>
      </trkpt>
      <trkpt lat="43.57827" lon="3.7561">
        <ele>47.72</ele>
        <time>2016-05-22T09:19:27Z</time>
      </trkpt>
      <trkpt lat="43.57822" lon="3.75619">
        <ele>47.24</ele>
        <time>2016-05-22T09:19:28Z</time>
      </trkpt>
      <trkpt lat="43.57822" lon="3.7563">
        <ele>47.24</ele>
        <time>2016-05-22T09:19:29Z</time>
      </trkpt>
      <trkpt lat="43.57824" lon="3.75641">
        <ele>46.76</ele>
        <time>2016-05-22T09:19:30Z</time>
      </trkpt>
      <trkpt lat="43.57829" lon="3.75651">
        <ele>46.76</ele>
        <time>2016-05-22T09:19:31Z</time>
      </trkpt>
      <trkpt lat="43.57834" lon="3.75662">
        <ele>46.76</ele>
        <time>2016-05-22T09:19:32Z</time>
      </trkpt>
      <trkpt lat="43.57837" lon="3.75676">
        <ele>46.76</ele>
        <time>2016-05-22T09:19:33Z</time>
      </trkpt>
      <trkpt lat="43.5784" lon="3.75692">
        <ele>47.24</ele>
        <time>2016-05-22T09:19:34Z</time>
      </trkpt>
      <trkpt lat="43.5784" lon="3.75709">
        <ele>47.24</ele>
        <time>2016-05-22T09:19:35Z</time>
      </trkpt>
      <trkpt lat="43.57827" lon="3.75873">
        <ele>46.28</ele>
        <time>2016-05-22T09:19:43Z</time>
      </trkpt>
      <trkpt lat="43.57795" lon="3.76168">
        <ele>42.44</ele>
        <time>2016-05-22T09:19:54Z</time>
      </trkpt>
      <trkpt lat="43.57812" lon="3.76385">
        <ele>40.99</ele>
        <time>2016-05-22T09:20:01Z</time>
      </trkpt>
      <trkpt lat="43.57872" lon="3.76581">
        <ele>40.51</ele>
        <time>2016-05-22T09:20:08Z</time>
      </trkpt>
      <trkpt lat="43.57942" lon="3.76719">
        <ele>40.51</ele>
        <time>2016-05-22T09:20:15Z</time>
      </trkpt>
      <trkpt lat="43.57958" lon="3.76771">
        <ele>40.51</ele>
        <time>2016-05-22T09:20:19Z</time>
      </trkpt>
      <trkpt lat="43.57956" lon="3.76782">
        <ele>40.03</ele>
        <time>2016-05-22T09:20:20Z</time>
      </trkpt>
      <trkpt lat="43.5795" lon="3.76791">
        <ele>39.55</ele>
        <time>2016-05-22T09:20:21Z</time>
      </trkpt>
      <trkpt lat="43.57941" lon="3.768">
        <ele>39.55</ele>
        <time>2016-05-22T09:20:22Z</time>
      </trkpt>
      <trkpt lat="43.57928" lon="3.76805">
        <ele>39.55</ele>
        <time>2016-05-22T09:20:23Z</time>
      </trkpt>
      <trkpt lat="43.57914" lon="3.76807">
        <ele>38.59</ele>
        <time>2016-05-22T09:20:24Z</time>
      </trkpt>
      <trkpt lat="43.57901" lon="3.76808">
        <ele>38.11</ele>
        <time>2016-05-22T09:20:25Z</time>
      </trkpt>
      <trkpt lat="43.57887" lon="3.76808">
        <ele>37.63</ele>
        <time>2016-05-22T09:20:26Z</time>
      </trkpt>
      <trkpt lat="43.57874" lon="3.76807">
        <ele>36.67</ele>
        <time>2016-05-22T09:20:27Z</time>
      </trkpt>
      <trkpt lat="43.5786" lon="3.76806">
        <ele>36.67</ele>
        <time>2016-05-22T09:20:28Z</time>
      </trkpt>
      <trkpt lat="43.57846" lon="3.76811">
        <ele>35.71</ele>
        <time>2016-05-22T09:20:29Z</time>
      </trkpt>
      <trkpt lat="43.57834" lon="3.76821">
        <ele>35.71</ele>
        <time>2016-05-22T09:20:30Z</time>
      </trkpt>
      <trkpt lat="43.57822" lon="3.76834">
        <ele>34.74</ele>
        <time>2016-05-22T09:20:31Z</time>
      </trkpt>
      <trkpt lat="43.5781" lon="3.7685">
        <ele>34.74</ele>
        <time>2016-05-22T09:20:32Z</time>
      </trkpt>
      <trkpt lat="43.57799" lon="3.76867">
        <ele>34.26</ele>
        <time>2016-05-22T09:20:33Z</time>
      </trkpt>
      <trkpt lat="43.57664" lon="3.77033">
        <ele>31.86</ele>
        <time>2016-05-22T09:20:43Z</time>
      </trkpt>
      <trkpt lat="43.5752" lon="3.77128">
        <ele>31.38</ele>
        <time>2016-05-22T09:20:51Z</time>
      </trkpt>
      <trkpt lat="43.57328" lon="3.77203">
        <ele>35.71</ele>
        <time>2016-05-22T09:21:02Z</time>
      </trkpt>
      <trkpt lat="43.57282" lon="3.77224">
        <ele>38.59</ele>
        <time>2016-05-22T09:21:06Z</time>
      </trkpt>
      <trkpt lat="43.57273" lon="3.77233">
        <ele>39.07</ele>
        <time>2016-05-22T09:21:07Z</time>
      </trkpt>
      <trkpt lat="43.57266" lon="3.77244">
        <ele>39.55</ele>
        <time>2016-05-22T09:21:08Z</time>
      </trkpt>
      <trkpt lat="43.5726" lon="3.77255">
        <ele>40.03</ele>
        <time>2016-05-22T09:21:09Z</time>
      </trkpt>
      <trkpt lat="43.57256" lon="3.77265">
        <ele>40.03</ele>
        <time>2016-05-22T09:21:10Z</time>
      </trkpt>
      <trkpt lat="43.57227" lon="3.77324">
        <ele>43.4</ele>
        <time>2016-05-22T09:21:17Z</time>
      </trkpt>
      <trkpt lat="43.57219" lon="3.77339">
        <ele>47.72</ele>
        <time>2016-05-22T09:21:23Z</time>
      </trkpt>
      <trkpt lat="43.5722" lon="3.77339">
        <ele>48.68</ele>
        <time>2016-05-22T09:21:25Z</time>
      </trkpt>
      <trkpt lat="43.57209" lon="3.77347">
        <ele>55.41</ele>
        <time>2016-05-22T09:21:45Z</time>
      </trkpt>
      <trkpt lat="43.57201" lon="3.77349">
        <ele>55.41</ele>
        <time>2016-05-22T09:21:46Z</time>
      </trkpt>
      <trkpt lat="43.57192" lon="3.77351">
        <ele>53.49</ele>
        <time>2016-05-22T09:21:47Z</time>
      </trkpt>
      <trkpt lat="43.57101" lon="3.77367">
        <ele>44.84</ele>
        <time>2016-05-22T09:21:56Z</time>
      </trkpt>
      <trkpt lat="43.57075" lon="3.77374">
        <ele>42.92</ele>
        <time>2016-05-22T09:22:00Z</time>
      </trkpt>
      <trkpt lat="43.57071" lon="3.77376">
        <ele>42.44</ele>
        <time>2016-05-22T09:22:07Z</time>
      </trkpt>
      <trkpt lat="43.57067" lon="3.77377">
        <ele>41.95</ele>
        <time>2016-05-22T09:22:09Z</time>
      </trkpt>
      <trkpt lat="43.57018" lon="3.77392">
        <ele>37.63</ele>
        <time>2016-05-22T09:22:17Z</time>
      </trkpt>
      <trkpt lat="43.56998" lon="3.77398">
        <ele>35.71</ele>
        <time>2016-05-22T09:22:25Z</time>
      </trkpt>
      <trkpt lat="43.56996" lon="3.77398">
        <ele>35.71</ele>
        <time>2016-05-22T09:22:31Z</time>
      </trkpt>
      <trkpt lat="43.56995" lon="3.77398">
        <ele>35.71</ele>
        <time>2016-05-22T09:22:32Z</time>
      </trkpt>
      <trkpt lat="43.56993" lon="3.77398">
        <ele>35.23</ele>
        <time>2016-05-22T09:22:33Z</time>
      </trkpt>
      <trkpt lat="43.56994" lon="3.77399">
        <ele>38.11</ele>
        <time>2016-05-22T09:22:51Z</time>
      </trkpt>
      <trkpt lat="43.56978" lon="3.77405">
        <ele>37.63</ele>
        <time>2016-05-22T09:22:55Z</time>
      </trkpt>
      <trkpt lat="43.56968" lon="3.77408">
        <ele>37.15</ele>
        <time>2016-05-22T09:22:56Z</time>
      </trkpt>
      <trkpt lat="43.56861" lon="3.77424">
        <ele>33.78</ele>
        <time>2016-05-22T09:23:07Z</time>
      </trkpt>
      <trkpt lat="43.56803" lon="3.77412">
        <ele>32.82</ele>
        <time>2016-05-22T09:23:15Z</time>
      </trkpt>
      <trkpt lat="43.568" lon="3.77409">
        <ele>32.34</ele>
        <time>2016-05-22T09:23:21Z</time>
      </trkpt>
      <trkpt lat="43.56798" lon="3.77404">
        <ele>32.34</ele>
        <time>2016-05-22T09:23:22Z</time>
      </trkpt>
      <trkpt lat="43.56794" lon="3.77397">
        <ele>32.34</ele>
        <time>2016-05-22T09:23:23Z</time>
      </trkpt>
      <trkpt lat="43.56789" lon="3.77389">
        <ele>32.34</ele>
        <time>2016-05-22T09:23:24Z</time>
      </trkpt>
      <trkpt lat="43.56781" lon="3.77385">
        <ele>32.34</ele>
        <time>2016-05-22T09:23:25Z</time>
      </trkpt>
      <trkpt lat="43.56773" lon="3.77387">
        <ele>32.34</ele>
        <time>2016-05-22T09:23:26Z</time>
      </trkpt>
      <trkpt lat="43.56764" lon="3.77393">
        <ele>32.34</ele>
        <time>2016-05-22T09:23:27Z</time>
      </trkpt>
      <trkpt lat="43.56754" lon="3.77399">
        <ele>32.34</ele>
        <time>2016-05-22T09:23:28Z</time>
      </trkpt>
      <trkpt lat="43.56742" lon="3.77404">
        <ele>32.82</ele>
        <time>2016-05-22T09:23:29Z</time>
      </trkpt>
      <trkpt lat="43.56728" lon="3.77409">
        <ele>33.3</ele>
        <time>2016-05-22T09:23:30Z</time>
      </trkpt>
      <trkpt lat="43.56715" lon="3.77414">
        <ele>33.78</ele>
        <time>2016-05-22T09:23:31Z</time>
      </trkpt>
      <trkpt lat="43.56704" lon="3.7742">
        <ele>33.78</ele>
        <time>2016-05-22T09:23:32Z</time>
      </trkpt>
      <trkpt lat="43.56645" lon="3.77451">
        <ele>35.23</ele>
        <time>2016-05-22T09:23:38Z</time>
      </trkpt>
      <trkpt lat="43.56586" lon="3.77482">
        <ele>36.19</ele>
        <time>2016-05-22T09:23:45Z</time>
      </trkpt>
      <trkpt lat="43.56531" lon="3.77506">
        <ele>35.23</ele>
        <time>2016-05-22T09:23:52Z</time>
      </trkpt>
      <trkpt lat="43.56475" lon="3.7753">
        <ele>34.26</ele>
        <time>2016-05-22T09:23:58Z</time>
      </trkpt>
      <trkpt lat="43.56361" lon="3.77551">
        <ele>31.38</ele>
        <time>2016-05-22T09:24:07Z</time>
      </trkpt>
      <trkpt lat="43.56176" lon="3.77567">
        <ele>28.98</ele>
        <time>2016-05-22T09:24:18Z</time>
      </trkpt>
      <trkpt lat="43.55956" lon="3.77551">
        <ele>32.34</ele>
        <time>2016-05-22T09:24:31Z</time>
      </trkpt>
      <trkpt lat="43.55808" lon="3.77536">
        <ele>27.53</ele>
        <time>2016-05-22T09:24:41Z</time>
      </trkpt>
      <trkpt lat="43.55782" lon="3.77541">
        <ele>26.57</ele>
        <time>2016-05-22T09:24:43Z</time>
      </trkpt>
      <trkpt lat="43.5577" lon="3.77545">
        <ele>26.57</ele>
        <time>2016-05-22T09:24:44Z</time>
      </trkpt>
      <trkpt lat="43.55698" lon="3.77582">
        <ele>26.09</ele>
        <time>2016-05-22T09:24:53Z</time>
      </trkpt>
      <trkpt lat="43.55694" lon="3.77586">
        <ele>26.57</ele>
        <time>2016-05-22T09:24:54Z</time>
      </trkpt>
      <trkpt lat="43.55671" lon="3.77592">
        <ele>25.61</ele>
        <time>2016-05-22T09:25:02Z</time>
      </trkpt>
      <trkpt lat="43.55671" lon="3.77594">
        <ele>26.57</ele>
        <time>2016-05-22T09:25:12Z</time>
      </trkpt>
      <trkpt lat="43.55669" lon="3.77598">
        <ele>26.57</ele>
        <time>2016-05-22T09:27:21Z</time>
      </trkpt>
      <trkpt lat="43.55663" lon="3.776">
        <ele>26.09</ele>
        <time>2016-05-22T09:27:22Z</time>
      </trkpt>
      <trkpt lat="43.55656" lon="3.77602">
        <ele>26.09</ele>
        <time>2016-05-22T09:27:23Z</time>
      </trkpt>
      <trkpt lat="43.55554" lon="3.7765">
        <ele>24.17</ele>
        <time>2016-05-22T09:27:36Z</time>
      </trkpt>
      <trkpt lat="43.55444" lon="3.77682">
        <ele>25.61</ele>
        <time>2016-05-22T09:27:47Z</time>
      </trkpt>
      <trkpt lat="43.55435" lon="3.77681">
        <ele>26.09</ele>
        <time>2016-05-22T09:27:48Z</time>
      </trkpt>
      <trkpt lat="43.55329" lon="3.77665">
        <ele>28.5</ele>
        <time>2016-05-22T09:27:58Z</time>
      </trkpt>
      <trkpt lat="43.55217" lon="3.7765">
        <ele>33.3</ele>
        <time>2016-05-22T09:28:10Z</time>
      </trkpt>
      <trkpt lat="43.55217" lon="3.7765">
        <ele>34.74</ele>
        <time>2016-05-22T09:28:17Z</time>
      </trkpt>
      <trkpt lat="43.55216" lon="3.7765">
        <ele>35.23</ele>
        <time>2016-05-22T09:28:18Z</time>
      </trkpt>
      <trkpt lat="43.55212" lon="3.77649">
        <ele>35.71</ele>
        <time>2016-05-22T09:28:19Z</time>
      </trkpt>
      <trkpt lat="43.55205" lon="3.77648">
        <ele>34.74</ele>
        <time>2016-05-22T09:28:20Z</time>
      </trkpt>
      <trkpt lat="43.55198" lon="3.77646">
        <ele>35.23</ele>
        <time>2016-05-22T09:28:21Z</time>
      </trkpt>
      <trkpt lat="43.55192" lon="3.77641">
        <ele>35.23</ele>
        <time>2016-05-22T09:28:22Z</time>
      </trkpt>
      <trkpt lat="43.55186" lon="3.77635">
        <ele>35.23</ele>
        <time>2016-05-22T09:28:23Z</time>
      </trkpt>
      <trkpt lat="43.55181" lon="3.77629">
        <ele>34.26</ele>
        <time>2016-05-22T09:28:24Z</time>
      </trkpt>
      <trkpt lat="43.5517" lon="3.77617">
        <ele>34.74</ele>
        <time>2016-05-22T09:28:26Z</time>
      </trkpt>
      <trkpt lat="43.55163" lon="3.77613">
        <ele>34.74</ele>
        <time>2016-05-22T09:28:27Z</time>
      </trkpt>
      <trkpt lat="43.55156" lon="3.7761">
        <ele>35.23</ele>
        <time>2016-05-22T09:28:28Z</time>
      </trkpt>
      <trkpt lat="43.55149" lon="3.77607">
        <ele>35.23</ele>
        <time>2016-05-22T09:28:29Z</time>
      </trkpt>
      <trkpt lat="43.55142" lon="3.77607">
        <ele>36.19</ele>
        <time>2016-05-22T09:28:30Z</time>
      </trkpt>
      <trkpt lat="43.55134" lon="3.77607">
        <ele>37.15</ele>
        <time>2016-05-22T09:28:31Z</time>
      </trkpt>
      <trkpt lat="43.5511" lon="3.77613">
        <ele>40.51</ele>
        <time>2016-05-22T09:28:34Z</time>
      </trkpt>
      <trkpt lat="43.55104" lon="3.77618">
        <ele>41.95</ele>
        <time>2016-05-22T09:28:35Z</time>
      </trkpt>
      <trkpt lat="43.55101" lon="3.77627">
        <ele>42.44</ele>
        <time>2016-05-22T09:28:36Z</time>
      </trkpt>
      <trkpt lat="43.55096" lon="3.77634">
        <ele>41.47</ele>
        <time>2016-05-22T09:28:37Z</time>
      </trkpt>
      <trkpt lat="43.55091" lon="3.77641">
        <ele>40.99</ele>
        <time>2016-05-22T09:28:38Z</time>
      </trkpt>
      <trkpt lat="43.55086" lon="3.77648">
        <ele>40.99</ele>
        <time>2016-05-22T09:28:39Z</time>
      </trkpt>
      <trkpt lat="43.55082" lon="3.77655">
        <ele>41.47</ele>
        <time>2016-05-22T09:28:40Z</time>
      </trkpt>
      <trkpt lat="43.55075" lon="3.77667">
        <ele>41.47</ele>
        <time>2016-05-22T09:28:42Z</time>
      </trkpt>
      <trkpt lat="43.5504" lon="3.77724">
        <ele>43.88</ele>
        <time>2016-05-22T09:28:54Z</time>
      </trkpt>
      <trkpt lat="43.55028" lon="3.77745">
        <ele>42.92</ele>
        <time>2016-05-22T09:29:04Z</time>
      </trkpt>
      <trkpt lat="43.55024" lon="3.77753">
        <ele>42.92</ele>
        <time>2016-05-22T09:29:07Z</time>
      </trkpt>
      <trkpt lat="43.55021" lon="3.77758">
        <ele>42.92</ele>
        <time>2016-05-22T09:29:08Z</time>
      </trkpt>
      <trkpt lat="43.55018" lon="3.77763">
        <ele>43.4</ele>
        <time>2016-05-22T09:29:09Z</time>
      </trkpt>
      <trkpt lat="43.55015" lon="3.77769">
        <ele>43.4</ele>
        <time>2016-05-22T09:29:10Z</time>
      </trkpt>
      <trkpt lat="43.55012" lon="3.77775">
        <ele>43.4</ele>
        <time>2016-05-22T09:29:11Z</time>
      </trkpt>
      <trkpt lat="43.55009" lon="3.7778">
        <ele>43.4</ele>
        <time>2016-05-22T09:29:12Z</time>
      </trkpt>
      <trkpt lat="43.54986" lon="3.77826">
        <ele>43.88</ele>
        <time>2016-05-22T09:29:19Z</time>
      </trkpt>
      <trkpt lat="43.54941" lon="3.77913">
        <ele>43.4</ele>
        <time>2016-05-22T09:29:30Z</time>
      </trkpt>
      <trkpt lat="43.54929" lon="3.77935">
        <ele>44.84</ele>
        <time>2016-05-22T09:29:38Z</time>
      </trkpt>
      <trkpt lat="43.54927" lon="3.77951">
        <ele>49.65</ele>
        <time>2016-05-22T09:30:03Z</time>
      </trkpt>
      <trkpt lat="43.5491" lon="3.77979">
        <ele>51.57</ele>
        <time>2016-05-22T09:30:12Z</time>
      </trkpt>
      <trkpt lat="43.54899" lon="3.7799">
        <ele>46.28</ele>
        <time>2016-05-22T09:31:30Z</time>
      </trkpt>
      <trkpt lat="43.54897" lon="3.77995">
        <ele>45.8</ele>
        <time>2016-05-22T09:31:31Z</time>
      </trkpt>
      <trkpt lat="43.54897" lon="3.78001">
        <ele>45.32</ele>
        <time>2016-05-22T09:31:32Z</time>
      </trkpt>
      <trkpt lat="43.549" lon="3.78006">
        <ele>44.84</ele>
        <time>2016-05-22T09:31:33Z</time>
      </trkpt>
      <trkpt lat="43.54905" lon="3.78012">
        <ele>44.84</ele>
        <time>2016-05-22T09:31:34Z</time>
      </trkpt>
      <trkpt lat="43.54913" lon="3.78019">
        <ele>44.84</ele>
        <time>2016-05-22T09:31:35Z</time>
      </trkpt>
      <trkpt lat="43.54946" lon="3.78055">
        <ele>42.44</ele>
        <time>2016-05-22T09:31:43Z</time>
      </trkpt>
      <trkpt lat="43.54955" lon="3.78063">
        <ele>42.44</ele>
        <time>2016-05-22T09:31:56Z</time>
      </trkpt>
      <trkpt lat="43.55006" lon="3.78112">
        <ele>39.55</ele>
        <time>2016-05-22T09:32:04Z</time>
      </trkpt>
      <trkpt lat="43.55073" lon="3.78224">
        <ele>35.23</ele>
        <time>2016-05-22T09:32:14Z</time>
      </trkpt>
      <trkpt lat="43.55113" lon="3.78303">
        <ele>30.9</ele>
        <time>2016-05-22T09:32:21Z</time>
      </trkpt>
      <trkpt lat="43.55219" lon="3.78506">
        <ele>24.17</ele>
        <time>2016-05-22T09:32:34Z</time>
      </trkpt>
      <trkpt lat="43.55323" lon="3.78708">
        <ele>21.77</ele>
        <time>2016-05-22T09:32:44Z</time>
      </trkpt>
      <trkpt lat="43.55497" lon="3.79045">
        <ele>20.32</ele>
        <time>2016-05-22T09:32:58Z</time>
      </trkpt>
      <trkpt lat="43.55706" lon="3.79435">
        <ele>25.13</ele>
        <time>2016-05-22T09:33:15Z</time>
      </trkpt>
      <trkpt lat="43.55809" lon="3.79576">
        <ele>28.98</ele>
        <time>2016-05-22T09:33:23Z</time>
      </trkpt>
      <trkpt lat="43.55867" lon="3.79664">
        <ele>29.46</ele>
        <time>2016-05-22T09:33:30Z</time>
      </trkpt>
      <trkpt lat="43.55872" lon="3.79676">
        <ele>28.98</ele>
        <time>2016-05-22T09:33:31Z</time>
      </trkpt>
      <trkpt lat="43.55872" lon="3.7969">
        <ele>28.5</ele>
        <time>2016-05-22T09:33:32Z</time>
      </trkpt>
      <trkpt lat="43.55866" lon="3.79701">
        <ele>27.53</ele>
        <time>2016-05-22T09:33:33Z</time>
      </trkpt>
      <trkpt lat="43.55857" lon="3.79712">
        <ele>27.05</ele>
        <time>2016-05-22T09:33:34Z</time>
      </trkpt>
      <trkpt lat="43.55848" lon="3.79723">
        <ele>27.05</ele>
        <time>2016-05-22T09:33:35Z</time>
      </trkpt>
      <trkpt lat="43.55839" lon="3.79734">
        <ele>26.09</ele>
        <time>2016-05-22T09:33:36Z</time>
      </trkpt>
      <trkpt lat="43.55822" lon="3.79759">
        <ele>25.61</ele>
        <time>2016-05-22T09:33:38Z</time>
      </trkpt>
      <trkpt lat="43.55815" lon="3.79773">
        <ele>25.13</ele>
        <time>2016-05-22T09:33:39Z</time>
      </trkpt>
      <trkpt lat="43.5581" lon="3.79787">
        <ele>25.13</ele>
        <time>2016-05-22T09:33:40Z</time>
      </trkpt>
      <trkpt lat="43.55807" lon="3.79801">
        <ele>25.13</ele>
        <time>2016-05-22T09:33:41Z</time>
      </trkpt>
      <trkpt lat="43.55806" lon="3.79813">
        <ele>25.13</ele>
        <time>2016-05-22T09:33:42Z</time>
      </trkpt>
      <trkpt lat="43.55806" lon="3.7982">
        <ele>25.13</ele>
        <time>2016-05-22T09:33:43Z</time>
      </trkpt>
      <trkpt lat="43.55806" lon="3.79827">
        <ele>26.57</ele>
        <time>2016-05-22T09:33:49Z</time>
      </trkpt>
      <trkpt lat="43.55805" lon="3.79835">
        <ele>28.02</ele>
        <time>2016-05-22T09:34:02Z</time>
      </trkpt>
      <trkpt lat="43.55802" lon="3.79844">
        <ele>28.02</ele>
        <time>2016-05-22T09:34:03Z</time>
      </trkpt>
      <trkpt lat="43.55799" lon="3.79855">
        <ele>28.02</ele>
        <time>2016-05-22T09:34:04Z</time>
      </trkpt>
      <trkpt lat="43.55796" lon="3.79867">
        <ele>28.02</ele>
        <time>2016-05-22T09:34:05Z</time>
      </trkpt>
      <trkpt lat="43.5579" lon="3.79878">
        <ele>28.02</ele>
        <time>2016-05-22T09:34:06Z</time>
      </trkpt>
      <trkpt lat="43.5578" lon="3.79881">
        <ele>27.53</ele>
        <time>2016-05-22T09:34:07Z</time>
      </trkpt>
      <trkpt lat="43.55767" lon="3.79878">
        <ele>26.57</ele>
        <time>2016-05-22T09:34:08Z</time>
      </trkpt>
      <trkpt lat="43.55753" lon="3.79876">
        <ele>26.57</ele>
        <time>2016-05-22T09:34:09Z</time>
      </trkpt>
      <trkpt lat="43.55739" lon="3.79874">
        <ele>26.57</ele>
        <time>2016-05-22T09:34:10Z</time>
      </trkpt>
      <trkpt lat="43.55723" lon="3.79874">
        <ele>26.09</ele>
        <time>2016-05-22T09:34:11Z</time>
      </trkpt>
      <trkpt lat="43.55707" lon="3.79876">
        <ele>25.61</ele>
        <time>2016-05-22T09:34:12Z</time>
      </trkpt>
      <trkpt lat="43.55691" lon="3.79882">
        <ele>24.65</ele>
        <time>2016-05-22T09:34:13Z</time>
      </trkpt>
      <trkpt lat="43.55674" lon="3.79891">
        <ele>23.21</ele>
        <time>2016-05-22T09:34:14Z</time>
      </trkpt>
      <trkpt lat="43.55656" lon="3.79902">
        <ele>22.25</ele>
        <time>2016-05-22T09:34:15Z</time>
      </trkpt>
      <trkpt lat="43.55493" lon="3.80005">
        <ele>22.25</ele>
        <time>2016-05-22T09:34:24Z</time>
      </trkpt>
      <trkpt lat="43.55474" lon="3.80009">
        <ele>23.21</ele>
        <time>2016-05-22T09:34:25Z</time>
      </trkpt>
      <trkpt lat="43.55455" lon="3.80009">
        <ele>24.17</ele>
        <time>2016-05-22T09:34:26Z</time>
      </trkpt>
      <trkpt lat="43.55435" lon="3.80007">
        <ele>25.13</ele>
        <time>2016-05-22T09:34:27Z</time>
      </trkpt>
      <trkpt lat="43.55416" lon="3.80002">
        <ele>26.09</ele>
        <time>2016-05-22T09:34:28Z</time>
      </trkpt>
      <trkpt lat="43.55281" lon="3.79978">
        <ele>34.26</ele>
        <time>2016-05-22T09:34:35Z</time>
      </trkpt>
      <trkpt lat="43.55261" lon="3.79981">
        <ele>35.71</ele>
        <time>2016-05-22T09:34:36Z</time>
      </trkpt>
      <trkpt lat="43.55241" lon="3.79987">
        <ele>36.67</ele>
        <time>2016-05-22T09:34:37Z</time>
      </trkpt>
      <trkpt lat="43.55222" lon="3.79996">
        <ele>37.63</ele>
        <time>2016-05-22T09:34:38Z</time>
      </trkpt>
      <trkpt lat="43.55205" lon="3.80008">
        <ele>38.11</ele>
        <time>2016-05-22T09:34:39Z</time>
      </trkpt>
      <trkpt lat="43.55188" lon="3.80022">
        <ele>38.59</ele>
        <time>2016-05-22T09:34:40Z</time>
      </trkpt>
      <trkpt lat="43.55173" lon="3.80038">
        <ele>38.59</ele>
        <time>2016-05-22T09:34:41Z</time>
      </trkpt>
      <trkpt lat="43.5516" lon="3.80056">
        <ele>38.59</ele>
        <time>2016-05-22T09:34:42Z</time>
      </trkpt>
      <trkpt lat="43.55148" lon="3.80076">
        <ele>38.11</ele>
        <time>2016-05-22T09:34:43Z</time>
      </trkpt>
      <trkpt lat="43.55013" lon="3.80285">
        <ele>40.51</ele>
        <time>2016-05-22T09:34:54Z</time>
      </trkpt>
      <trkpt lat="43.54983" lon="3.80338">
        <ele>42.92</ele>
        <time>2016-05-22T09:34:57Z</time>
      </trkpt>
      <trkpt lat="43.54881" lon="3.80567">
        <ele>49.16</ele>
        <time>2016-05-22T09:35:07Z</time>
      </trkpt>
      <trkpt lat="43.54775" lon="3.80804">
        <ele>46.76</ele>
        <time>2016-05-22T09:35:17Z</time>
      </trkpt>
      <trkpt lat="43.54764" lon="3.80842">
        <ele>44.36</ele>
        <time>2016-05-22T09:35:19Z</time>
      </trkpt>
      <trkpt lat="43.54765" lon="3.80862">
        <ele>43.4</ele>
        <time>2016-05-22T09:35:20Z</time>
      </trkpt>
      <trkpt lat="43.54771" lon="3.80882">
        <ele>42.44</ele>
        <time>2016-05-22T09:35:21Z</time>
      </trkpt>
      <trkpt lat="43.5478" lon="3.80903">
        <ele>41.95</ele>
        <time>2016-05-22T09:35:22Z</time>
      </trkpt>
      <trkpt lat="43.54787" lon="3.80924">
        <ele>41.47</ele>
        <time>2016-05-22T09:35:23Z</time>
      </trkpt>
      <trkpt lat="43.54791" lon="3.80948">
        <ele>41.47</ele>
        <time>2016-05-22T09:35:24Z</time>
      </trkpt>
      <trkpt lat="43.54792" lon="3.80974">
        <ele>41.47</ele>
        <time>2016-05-22T09:35:25Z</time>
      </trkpt>
      <trkpt lat="43.5479" lon="3.81002">
        <ele>41.95</ele>
        <time>2016-05-22T09:35:26Z</time>
      </trkpt>
      <trkpt lat="43.54788" lon="3.8103">
        <ele>42.44</ele>
        <time>2016-05-22T09:35:27Z</time>
      </trkpt>
      <trkpt lat="43.54791" lon="3.81141">
        <ele>45.32</ele>
        <time>2016-05-22T09:35:31Z</time>
      </trkpt>
      <trkpt lat="43.5479" lon="3.81168">
        <ele>46.28</ele>
        <time>2016-05-22T09:35:32Z</time>
      </trkpt>
      <trkpt lat="43.54768" lon="3.81375">
        <ele>43.88</ele>
        <time>2016-05-22T09:35:39Z</time>
      </trkpt>
      <trkpt lat="43.5475" lon="3.81525">
        <ele>46.76</ele>
        <time>2016-05-22T09:35:45Z</time>
      </trkpt>
      <trkpt lat="43.54744" lon="3.81547">
        <ele>47.24</ele>
        <time>2016-05-22T09:35:46Z</time>
      </trkpt>
      <trkpt lat="43.54735" lon="3.81568">
        <ele>47.24</ele>
        <time>2016-05-22T09:35:47Z</time>
      </trkpt>
      <trkpt lat="43.54677" lon="3.81694">
        <ele>46.28</ele>
        <time>2016-05-22T09:35:54Z</time>
      </trkpt>
      <trkpt lat="43.54651" lon="3.81735">
        <ele>45.8</ele>
        <time>2016-05-22T09:35:57Z</time>
      </trkpt>
      <trkpt lat="43.54645" lon="3.81752">
        <ele>45.32</ele>
        <time>2016-05-22T09:35:58Z</time>
      </trkpt>
      <trkpt lat="43.5464" lon="3.8177">
        <ele>44.84</ele>
        <time>2016-05-22T09:35:59Z</time>
      </trkpt>
      <trkpt lat="43.54572" lon="3.81999">
        <ele>41.47</ele>
        <time>2016-05-22T09:36:10Z</time>
      </trkpt>
      <trkpt lat="43.54516" lon="3.82285">
        <ele>48.68</ele>
        <time>2016-05-22T09:36:22Z</time>
      </trkpt>
      <trkpt lat="43.54479" lon="3.82667">
        <ele>37.63</ele>
        <time>2016-05-22T09:36:36Z</time>
      </trkpt>
      <trkpt lat="43.54479" lon="3.83024">
        <ele>21.77</ele>
        <time>2016-05-22T09:36:48Z</time>
      </trkpt>
      <trkpt lat="43.54429" lon="3.83328">
        <ele>14.08</ele>
        <time>2016-05-22T09:36:58Z</time>
      </trkpt>
      <trkpt lat="43.54364" lon="3.837">
        <ele>10.71</ele>
        <time>2016-05-22T09:37:10Z</time>
      </trkpt>
      <trkpt lat="43.54361" lon="3.83922">
        <ele>10.23</ele>
        <time>2016-05-22T09:37:17Z</time>
      </trkpt>
      <trkpt lat="43.54375" lon="3.84362">
        <ele>17.92</ele>
        <time>2016-05-22T09:37:31Z</time>
      </trkpt>
      <trkpt lat="43.54337" lon="3.84538">
        <ele>19.36</ele>
        <time>2016-05-22T09:37:37Z</time>
      </trkpt>
      <trkpt lat="43.54225" lon="3.84818">
        <ele>16</ele>
        <time>2016-05-22T09:37:48Z</time>
      </trkpt>
      <trkpt lat="43.53998" lon="3.85243">
        <ele>17.44</ele>
        <time>2016-05-22T09:38:06Z</time>
      </trkpt>
      <trkpt lat="43.53881" lon="3.85479">
        <ele>17.44</ele>
        <time>2016-05-22T09:38:17Z</time>
      </trkpt>
      <trkpt lat="43.53853" lon="3.8556">
        <ele>16.48</ele>
        <time>2016-05-22T09:38:23Z</time>
      </trkpt>
      <trkpt lat="43.53846" lon="3.85575">
        <ele>16</ele>
        <time>2016-05-22T09:38:29Z</time>
      </trkpt>
      <trkpt lat="43.53842" lon="3.8558">
        <ele>16</ele>
        <time>2016-05-22T09:38:30Z</time>
      </trkpt>
      <trkpt lat="43.53837" lon="3.85585">
        <ele>16</ele>
        <time>2016-05-22T09:38:31Z</time>
      </trkpt>
      <trkpt lat="43.53825" lon="3.85595">
        <ele>16</ele>
        <time>2016-05-22T09:38:33Z</time>
      </trkpt>
      <trkpt lat="43.53821" lon="3.85604">
        <ele>16</ele>
        <time>2016-05-22T09:38:34Z</time>
      </trkpt>
      <trkpt lat="43.53819" lon="3.85614">
        <ele>16</ele>
        <time>2016-05-22T09:38:35Z</time>
      </trkpt>
      <trkpt lat="43.53819" lon="3.85625">
        <ele>16</ele>
        <time>2016-05-22T09:38:36Z</time>
      </trkpt>
      <trkpt lat="43.53822" lon="3.85634">
        <ele>15.52</ele>
        <time>2016-05-22T09:38:37Z</time>
      </trkpt>
      <trkpt lat="43.53825" lon="3.85645">
        <ele>15.04</ele>
        <time>2016-05-22T09:38:38Z</time>
      </trkpt>
      <trkpt lat="43.53827" lon="3.85657">
        <ele>14.56</ele>
        <time>2016-05-22T09:38:39Z</time>
      </trkpt>
      <trkpt lat="43.53828" lon="3.85671">
        <ele>14.56</ele>
        <time>2016-05-22T09:38:40Z</time>
      </trkpt>
      <trkpt lat="43.53827" lon="3.85687">
        <ele>14.08</ele>
        <time>2016-05-22T09:38:41Z</time>
      </trkpt>
      <trkpt lat="43.53825" lon="3.85703">
        <ele>13.6</ele>
        <time>2016-05-22T09:38:42Z</time>
      </trkpt>
      <trkpt lat="43.53821" lon="3.85721">
        <ele>13.6</ele>
        <time>2016-05-22T09:38:43Z</time>
      </trkpt>
      <trkpt lat="43.53778" lon="3.85911">
        <ele>10.71</ele>
        <time>2016-05-22T09:38:52Z</time>
      </trkpt>
      <trkpt lat="43.53759" lon="3.8612">
        <ele>8.79</ele>
        <time>2016-05-22T09:39:00Z</time>
      </trkpt>
      <trkpt lat="43.53778" lon="3.86332">
        <ele>7.83</ele>
        <time>2016-05-22T09:39:08Z</time>
      </trkpt>
      <trkpt lat="43.53825" lon="3.86745">
        <ele>5.91</ele>
        <time>2016-05-22T09:39:24Z</time>
      </trkpt>
      <trkpt lat="43.53834" lon="3.8681">
        <ele>6.39</ele>
        <time>2016-05-22T09:39:29Z</time>
      </trkpt>
      <trkpt lat="43.53843" lon="3.86906">
        <ele>6.39</ele>
        <time>2016-05-22T09:39:39Z</time>
      </trkpt>
      <trkpt lat="43.53841" lon="3.86927">
        <ele>6.87</ele>
        <time>2016-05-22T09:39:45Z</time>
      </trkpt>
      <trkpt lat="43.53839" lon="3.86934">
        <ele>6.39</ele>
        <time>2016-05-22T09:39:46Z</time>
      </trkpt>
      <trkpt lat="43.53833" lon="3.86952">
        <ele>5.91</ele>
        <time>2016-05-22T09:39:48Z</time>
      </trkpt>
      <trkpt lat="43.53833" lon="3.86962">
        <ele>5.91</ele>
        <time>2016-05-22T09:39:49Z</time>
      </trkpt>
      <trkpt lat="43.53836" lon="3.86971">
        <ele>5.91</ele>
        <time>2016-05-22T09:39:50Z</time>
      </trkpt>
      <trkpt lat="43.53841" lon="3.8698">
        <ele>5.91</ele>
        <time>2016-05-22T09:39:51Z</time>
      </trkpt>
      <trkpt lat="43.53847" lon="3.86991">
        <ele>5.91</ele>
        <time>2016-05-22T09:39:52Z</time>
      </trkpt>
      <trkpt lat="43.53851" lon="3.87004">
        <ele>5.91</ele>
        <time>2016-05-22T09:39:53Z</time>
      </trkpt>
      <trkpt lat="43.53854" lon="3.87019">
        <ele>5.91</ele>
        <time>2016-05-22T09:39:54Z</time>
      </trkpt>
      <trkpt lat="43.53855" lon="3.87035">
        <ele>5.91</ele>
        <time>2016-05-22T09:39:55Z</time>
      </trkpt>
      <trkpt lat="43.53857" lon="3.87051">
        <ele>5.91</ele>
        <time>2016-05-22T09:39:56Z</time>
      </trkpt>
      <trkpt lat="43.5387" lon="3.87216">
        <ele>6.39</ele>
        <time>2016-05-22T09:40:04Z</time>
      </trkpt>
      <trkpt lat="43.53886" lon="3.87434">
        <ele>6.39</ele>
        <time>2016-05-22T09:40:12Z</time>
      </trkpt>
      <trkpt lat="43.53897" lon="3.87827">
        <ele>7.35</ele>
        <time>2016-05-22T09:40:24Z</time>
      </trkpt>
      <trkpt lat="43.53917" lon="3.88145">
        <ele>6.39</ele>
        <time>2016-05-22T09:40:35Z</time>
      </trkpt>
      <trkpt lat="43.53935" lon="3.88546">
        <ele>4.94</ele>
        <time>2016-05-22T09:40:49Z</time>
      </trkpt>
      <trkpt lat="43.53946" lon="3.8878">
        <ele>3.98</ele>
        <time>2016-05-22T09:40:59Z</time>
      </trkpt>
      <trkpt lat="43.53949" lon="3.88843">
        <ele>3.5</ele>
        <time>2016-05-22T09:41:05Z</time>
      </trkpt>
      <trkpt lat="43.5395" lon="3.88887">
        <ele>3.02</ele>
        <time>2016-05-22T09:41:15Z</time>
      </trkpt>
      <trkpt lat="43.53954" lon="3.88971">
        <ele>3.5</ele>
        <time>2016-05-22T09:41:21Z</time>
      </trkpt>
      <trkpt lat="43.53965" lon="3.89182">
        <ele>3.98</ele>
        <time>2016-05-22T09:41:31Z</time>
      </trkpt>
      <trkpt lat="43.5398" lon="3.89547">
        <ele>4.46</ele>
        <time>2016-05-22T09:41:46Z</time>
      </trkpt>
      <trkpt lat="43.53977" lon="3.89585">
        <ele>4.46</ele>
        <time>2016-05-22T09:41:48Z</time>
      </trkpt>
      <trkpt lat="43.53974" lon="3.89603">
        <ele>3.98</ele>
        <time>2016-05-22T09:41:49Z</time>
      </trkpt>
      <trkpt lat="43.5397" lon="3.8962">
        <ele>3.98</ele>
        <time>2016-05-22T09:41:50Z</time>
      </trkpt>
      <trkpt lat="43.53959" lon="3.89664">
        <ele>3.98</ele>
        <time>2016-05-22T09:41:53Z</time>
      </trkpt>
      <trkpt lat="43.53958" lon="3.89677">
        <ele>3.98</ele>
        <time>2016-05-22T09:41:54Z</time>
      </trkpt>
      <trkpt lat="43.53958" lon="3.89689">
        <ele>3.98</ele>
        <time>2016-05-22T09:41:55Z</time>
      </trkpt>
      <trkpt lat="43.5396" lon="3.89701">
        <ele>4.46</ele>
        <time>2016-05-22T09:41:56Z</time>
      </trkpt>
      <trkpt lat="43.53961" lon="3.89711">
        <ele>4.46</ele>
        <time>2016-05-22T09:41:57Z</time>
      </trkpt>
      <trkpt lat="43.53964" lon="3.8973">
        <ele>4.46</ele>
        <time>2016-05-22T09:41:59Z</time>
      </trkpt>
      <trkpt lat="43.53963" lon="3.8974">
        <ele>4.46</ele>
        <time>2016-05-22T09:42:00Z</time>
      </trkpt>
      <trkpt lat="43.53959" lon="3.89752">
        <ele>3.98</ele>
        <time>2016-05-22T09:42:01Z</time>
      </trkpt>
      <trkpt lat="43.53956" lon="3.89765">
        <ele>3.98</ele>
        <time>2016-05-22T09:42:02Z</time>
      </trkpt>
      <trkpt lat="43.53955" lon="3.89777">
        <ele>3.98</ele>
        <time>2016-05-22T09:42:03Z</time>
      </trkpt>
      <trkpt lat="43.53956" lon="3.89788">
        <ele>3.98</ele>
        <time>2016-05-22T09:42:04Z</time>
      </trkpt>
      <trkpt lat="43.53958" lon="3.89801">
        <ele>3.98</ele>
        <time>2016-05-22T09:42:05Z</time>
      </trkpt>
      <trkpt lat="43.53958" lon="3.89815">
        <ele>3.98</ele>
        <time>2016-05-22T09:42:06Z</time>
      </trkpt>
      <trkpt lat="43.53952" lon="3.8983">
        <ele>3.98</ele>
        <time>2016-05-22T09:42:07Z</time>
      </trkpt>
      <trkpt lat="43.53942" lon="3.89847">
        <ele>3.5</ele>
        <time>2016-05-22T09:42:08Z</time>
      </trkpt>
      <trkpt lat="43.53844" lon="3.90001">
        <ele>3.98</ele>
        <time>2016-05-22T09:42:17Z</time>
      </trkpt>
      <trkpt lat="43.53748" lon="3.90155">
        <ele>4.46</ele>
        <time>2016-05-22T09:42:25Z</time>
      </trkpt>
      <trkpt lat="43.53559" lon="3.90441">
        <ele>3.98</ele>
        <time>2016-05-22T09:42:37Z</time>
      </trkpt>
      <trkpt lat="43.53462" lon="3.90597">
        <ele>3.98</ele>
        <time>2016-05-22T09:42:43Z</time>
      </trkpt>
      <trkpt lat="43.5345" lon="3.90631">
        <ele>3.98</ele>
        <time>2016-05-22T09:42:44Z</time>
      </trkpt>
      <trkpt lat="43.53441" lon="3.90668">
        <ele>3.5</ele>
        <time>2016-05-22T09:42:45Z</time>
      </trkpt>
      <trkpt lat="43.53437" lon="3.90705">
        <ele>3.5</ele>
        <time>2016-05-22T09:42:46Z</time>
      </trkpt>
      <trkpt lat="43.53437" lon="3.90743">
        <ele>3.5</ele>
        <time>2016-05-22T09:42:47Z</time>
      </trkpt>
      <trkpt lat="43.53439" lon="3.90782">
        <ele>3.02</ele>
        <time>2016-05-22T09:42:48Z</time>
      </trkpt>
      <trkpt lat="43.53443" lon="3.9082">
        <ele>3.02</ele>
        <time>2016-05-22T09:42:49Z</time>
      </trkpt>
      <trkpt lat="43.53482" lon="3.9118">
        <ele>3.02</ele>
        <time>2016-05-22T09:42:58Z</time>
      </trkpt>
      <trkpt lat="43.53466" lon="3.91433">
        <ele>2.54</ele>
        <time>2016-05-22T09:43:04Z</time>
      </trkpt>
      <trkpt lat="43.5342" lon="3.91597">
        <ele>5.91</ele>
        <time>2016-05-22T09:43:09Z</time>
      </trkpt>
      <trkpt lat="43.53325" lon="3.91804">
        <ele>7.83</ele>
        <time>2016-05-22T09:43:17Z</time>
      </trkpt>
      <trkpt lat="43.5322" lon="3.91963">
        <ele>3.5</ele>
        <time>2016-05-22T09:43:24Z</time>
      </trkpt>
      <trkpt lat="43.53118" lon="3.9211">
        <ele>3.02</ele>
        <time>2016-05-22T09:43:33Z</time>
      </trkpt>
      <trkpt lat="43.53044" lon="3.92217">
        <ele>3.98</ele>
        <time>2016-05-22T09:43:44Z</time>
      </trkpt>
      <trkpt lat="43.53013" lon="3.92258">
        <ele>4.46</ele>
        <time>2016-05-22T09:43:52Z</time>
      </trkpt>
      <trkpt lat="43.53008" lon="3.92259">
        <ele>4.46</ele>
        <time>2016-05-22T09:43:53Z</time>
      </trkpt>
      <trkpt lat="43.53002" lon="3.92259">
        <ele>3.98</ele>
        <time>2016-05-22T09:43:54Z</time>
      </trkpt>
      <trkpt lat="43.52994" lon="3.92257">
        <ele>3.98</ele>
        <time>2016-05-22T09:43:55Z</time>
      </trkpt>
      <trkpt lat="43.52986" lon="3.92255">
        <ele>3.98</ele>
        <time>2016-05-22T09:43:56Z</time>
      </trkpt>
      <trkpt lat="43.52978" lon="3.92255">
        <ele>3.5</ele>
        <time>2016-05-22T09:43:57Z</time>
      </trkpt>
      <trkpt lat="43.5297" lon="3.92258">
        <ele>3.5</ele>
        <time>2016-05-22T09:43:58Z</time>
      </trkpt>
      <trkpt lat="43.52962" lon="3.92263">
        <ele>3.5</ele>
        <time>2016-05-22T09:43:59Z</time>
      </trkpt>
      <trkpt lat="43.52956" lon="3.92271">
        <ele>3.5</ele>
        <time>2016-05-22T09:44:00Z</time>
      </trkpt>
      <trkpt lat="43.52951" lon="3.9228">
        <ele>3.5</ele>
        <time>2016-05-22T09:44:01Z</time>
      </trkpt>
      <trkpt lat="43.52948" lon="3.9229">
        <ele>3.5</ele>
        <time>2016-05-22T09:44:02Z</time>
      </trkpt>
      <trkpt lat="43.52947" lon="3.92301">
        <ele>3.5</ele>
        <time>2016-05-22T09:44:03Z</time>
      </trkpt>
      <trkpt lat="43.52948" lon="3.92312">
        <ele>3.5</ele>
        <time>2016-05-22T09:44:04Z</time>
      </trkpt>
      <trkpt lat="43.52951" lon="3.92322">
        <ele>3.5</ele>
        <time>2016-05-22T09:44:05Z</time>
      </trkpt>
      <trkpt lat="43.52954" lon="3.92332">
        <ele>3.5</ele>
        <time>2016-05-22T09:44:06Z</time>
      </trkpt>
      <trkpt lat="43.52959" lon="3.92339">
        <ele>3.5</ele>
        <time>2016-05-22T09:44:07Z</time>
      </trkpt>
      <trkpt lat="43.52964" lon="3.92344">
        <ele>3.5</ele>
        <time>2016-05-22T09:44:08Z</time>
      </trkpt>
      <trkpt lat="43.52968" lon="3.92347">
        <ele>3.5</ele>
        <time>2016-05-22T09:44:09Z</time>
      </trkpt>
      <trkpt lat="43.52972" lon="3.92348">
        <ele>3.5</ele>
        <time>2016-05-22T09:44:10Z</time>
      </trkpt>
      <trkpt lat="43.52976" lon="3.9235">
        <ele>3.5</ele>
        <time>2016-05-22T09:44:11Z</time>
      </trkpt>
      <trkpt lat="43.5298" lon="3.9235">
        <ele>3.5</ele>
        <time>2016-05-22T09:44:12Z</time>
      </trkpt>
      <trkpt lat="43.52984" lon="3.92351">
        <ele>3.98</ele>
        <time>2016-05-22T09:44:13Z</time>
      </trkpt>
      <trkpt lat="43.52989" lon="3.9235">
        <ele>3.98</ele>
        <time>2016-05-22T09:44:14Z</time>
      </trkpt>
      <trkpt lat="43.52995" lon="3.9235">
        <ele>3.98</ele>
        <time>2016-05-22T09:44:15Z</time>
      </trkpt>
      <trkpt lat="43.53003" lon="3.92351">
        <ele>3.98</ele>
        <time>2016-05-22T09:44:16Z</time>
      </trkpt>
      <trkpt lat="43.53014" lon="3.92353">
        <ele>3.98</ele>
        <time>2016-05-22T09:44:17Z</time>
      </trkpt>
      <trkpt lat="43.53025" lon="3.92361">
        <ele>4.46</ele>
        <time>2016-05-22T09:44:18Z</time>
      </trkpt>
      <trkpt lat="43.53035" lon="3.92371">
        <ele>4.94</ele>
        <time>2016-05-22T09:44:19Z</time>
      </trkpt>
      <trkpt lat="43.53044" lon="3.9238">
        <ele>5.42</ele>
        <time>2016-05-22T09:44:20Z</time>
      </trkpt>
      <trkpt lat="43.53139" lon="3.92478">
        <ele>10.23</ele>
        <time>2016-05-22T09:44:31Z</time>
      </trkpt>
      <trkpt lat="43.53217" lon="3.92575">
        <ele>5.42</ele>
        <time>2016-05-22T09:44:41Z</time>
      </trkpt>
      <trkpt lat="43.5322" lon="3.92584">
        <ele>4.94</ele>
        <time>2016-05-22T09:44:42Z</time>
      </trkpt>
      <trkpt lat="43.53221" lon="3.92592">
        <ele>4.46</ele>
        <time>2016-05-22T09:44:43Z</time>
      </trkpt>
      <trkpt lat="43.53221" lon="3.92601">
        <ele>3.98</ele>
        <time>2016-05-22T09:44:44Z</time>
      </trkpt>
      <trkpt lat="43.53219" lon="3.9261">
        <ele>3.98</ele>
        <time>2016-05-22T09:44:45Z</time>
      </trkpt>
      <trkpt lat="43.53218" lon="3.9262">
        <ele>3.5</ele>
        <time>2016-05-22T09:44:46Z</time>
      </trkpt>
      <trkpt lat="43.53217" lon="3.92638">
        <ele>3.5</ele>
        <time>2016-05-22T09:44:48Z</time>
      </trkpt>
      <trkpt lat="43.53215" lon="3.92645">
        <ele>3.02</ele>
        <time>2016-05-22T09:44:49Z</time>
      </trkpt>
      <trkpt lat="43.53213" lon="3.9265">
        <ele>3.02</ele>
        <time>2016-05-22T09:44:50Z</time>
      </trkpt>
      <trkpt lat="43.53211" lon="3.92655">
        <ele>3.98</ele>
        <time>2016-05-22T09:44:59Z</time>
      </trkpt>
      <trkpt lat="43.53206" lon="3.92664">
        <ele>4.46</ele>
        <time>2016-05-22T09:45:12Z</time>
      </trkpt>
      <trkpt lat="43.53198" lon="3.92677">
        <ele>4.94</ele>
        <time>2016-05-22T09:45:24Z</time>
      </trkpt>
      <trkpt lat="43.53199" lon="3.9268">
        <ele>4.94</ele>
        <time>2016-05-22T09:45:31Z</time>
      </trkpt>
      <trkpt lat="43.53201" lon="3.92683">
        <ele>4.94</ele>
        <time>2016-05-22T09:45:32Z</time>
      </trkpt>
      <trkpt lat="43.53203" lon="3.92686">
        <ele>4.94</ele>
        <time>2016-05-22T09:45:33Z</time>
      </trkpt>
      <trkpt lat="43.53206" lon="3.92689">
        <ele>4.46</ele>
        <time>2016-05-22T09:45:34Z</time>
      </trkpt>
      <trkpt lat="43.53209" lon="3.92691">
        <ele>4.46</ele>
        <time>2016-05-22T09:45:35Z</time>
      </trkpt>
      <trkpt lat="43.53219" lon="3.92699">
        <ele>3.5</ele>
        <time>2016-05-22T09:45:47Z</time>
      </trkpt>
    </trkseg>
  </trk>
</gpx>